<?xml version="1.0" encoding="UTF-8" standalone="no" ?><gpx xmlns="http://www.topografix.com/GPX/1/1" xmlns:gpxx="http://www.garmin.com/xmlschemas/GpxExtensions/v3" xmlns:wptx1="http://www.garmin.com/xmlschemas/WaypointExtension/v1" xmlns:gpxtpx="http://www.garmin.com/xmlschemas/TrackPointExtension/v1" creator="GuideVTT.com" version="1.1" xmlns:xsi="http://www.w3.org/2001/XMLSchema-instance" xsi:schemaLocation="http://www.topografix.com/GPX/1/1 http://www.topografix.com/GPX/1/1/gpx.xsd http://www.garmin.com/xmlschemas/GpxExtensions/v3 http://www8.garmin.com/xmlschemas/GpxExtensionsv3.xsd http://www.garmin.com/xmlschemas/WaypointExtension/v1 http://www8.garmin.com/xmlschemas/WaypointExtensionv1.xsd http://www.garmin.com/xmlschemas/TrackPointExtension/v1 http://www.garmin.com/xmlschemas/TrackPointExtensionv1.xsd">
<metadata><link href="http://www.garmin.com"><text>Garmin International</text></link><time>2013-06-22T15:13:50Z</time></metadata>
<trk><name>montegeneroso2008.gpx</name><extensions><gpxx:TrackExtension><gpxx:DisplayColor>Cyan</gpxx:DisplayColor></gpxx:TrackExtension></extensions><trkseg>
<trkpt lat="45.85846510" lon="8.97496910"><ele></ele><time>2014-5-11T14:38:16Z</time></trkpt>
<trkpt lat="45.85843169" lon="8.97501393"><ele></ele><time>2014-5-11T14:38:19Z</time></trkpt>
<trkpt lat="45.85830336" lon="8.97515944"><ele></ele><time>2014-5-11T14:38:22Z</time></trkpt>
<trkpt lat="45.85786952" lon="8.97573863"><ele></ele><time>2014-5-11T14:38:25Z</time></trkpt>
<trkpt lat="45.85771286" lon="8.97632654"><ele></ele><time>2014-5-11T14:38:28Z</time></trkpt>
<trkpt lat="45.85775628" lon="8.97883088"><ele></ele><time>2014-5-11T14:38:31Z</time></trkpt>
<trkpt lat="45.85766559" lon="8.97959665"><ele></ele><time>2014-5-11T14:38:34Z</time></trkpt>
<trkpt lat="45.85758135" lon="8.98017744"><ele></ele><time>2014-5-11T14:38:37Z</time></trkpt>
<trkpt lat="45.85735059" lon="8.98195976"><ele></ele><time>2014-5-11T14:38:40Z</time></trkpt>
<trkpt lat="45.85733425" lon="8.98209253"><ele></ele><time>2014-5-11T14:38:43Z</time></trkpt>
<trkpt lat="45.85717734" lon="8.98297188"><ele></ele><time>2014-5-11T14:38:46Z</time></trkpt>
<trkpt lat="45.85696226" lon="8.98442295"><ele></ele><time>2014-5-11T14:38:49Z</time></trkpt>
<trkpt lat="45.85667535" lon="8.98636797"><ele></ele><time>2014-5-11T14:38:52Z</time></trkpt>
<trkpt lat="45.85650838" lon="8.98754094"><ele></ele><time>2014-5-11T14:38:55Z</time></trkpt>
<trkpt lat="45.85644619" lon="8.98801066"><ele></ele><time>2014-5-11T14:38:58Z</time></trkpt>
<trkpt lat="45.85653629" lon="8.98839757"><ele></ele><time>2014-5-11T14:39:1Z</time></trkpt>
<trkpt lat="45.85658222" lon="8.98885245"><ele></ele><time>2014-5-11T14:39:4Z</time></trkpt>
<trkpt lat="45.85630428" lon="8.99027704"><ele></ele><time>2014-5-11T14:39:7Z</time></trkpt>
<trkpt lat="45.85613354" lon="8.99130802"><ele></ele><time>2014-5-11T14:39:10Z</time></trkpt>
<trkpt lat="45.85627335" lon="8.99160264"><ele></ele><time>2014-5-11T14:39:13Z</time></trkpt>
<trkpt lat="45.85685916" lon="8.99171672"><ele></ele><time>2014-5-11T14:39:16Z</time></trkpt>
<trkpt lat="45.85697408" lon="8.99174966"><ele></ele><time>2014-5-11T14:39:19Z</time></trkpt>
<trkpt lat="45.85708053" lon="8.99181269"><ele></ele><time>2014-5-11T14:39:22Z</time></trkpt>
<trkpt lat="45.85715907" lon="8.99203188"><ele></ele><time>2014-5-11T14:39:25Z</time></trkpt>
<trkpt lat="45.85737037" lon="8.99342109"><ele></ele><time>2014-5-11T14:39:28Z</time></trkpt>
<trkpt lat="45.85754053" lon="8.99366166"><ele></ele><time>2014-5-11T14:39:31Z</time></trkpt>
<trkpt lat="45.85798083" lon="8.99408109"><ele></ele><time>2014-5-11T14:39:34Z</time></trkpt>
<trkpt lat="45.85806264" lon="8.99417756"><ele></ele><time>2014-5-11T14:39:37Z</time></trkpt>
<trkpt lat="45.85810103" lon="8.99422735"><ele></ele><time>2014-5-11T14:39:40Z</time></trkpt>
<trkpt lat="45.85841669" lon="8.99492715"><ele></ele><time>2014-5-11T14:39:43Z</time></trkpt>
<trkpt lat="45.85873059" lon="8.99538388"><ele></ele><time>2014-5-11T14:39:46Z</time></trkpt>
<trkpt lat="45.85876177" lon="8.99542789"><ele></ele><time>2014-5-11T14:39:49Z</time></trkpt>
<trkpt lat="45.85917307" lon="8.99605536"><ele></ele><time>2014-5-11T14:39:52Z</time></trkpt>
<trkpt lat="45.85926988" lon="8.99665039"><ele></ele><time>2014-5-11T14:39:55Z</time></trkpt>
<trkpt lat="45.85924733" lon="8.99735137"><ele></ele><time>2014-5-11T14:39:58Z</time></trkpt>
<trkpt lat="45.85935957" lon="8.99812385"><ele></ele><time>2014-5-11T14:40:1Z</time></trkpt>
<trkpt lat="45.85938907" lon="8.99822175"><ele></ele><time>2014-5-11T14:40:4Z</time></trkpt>
<trkpt lat="45.85948588" lon="8.99874603"><ele></ele><time>2014-5-11T14:40:7Z</time></trkpt>
<trkpt lat="45.85953064" lon="8.99943603"><ele></ele><time>2014-5-11T14:40:10Z</time></trkpt>
<trkpt lat="45.85959057" lon="9.00011974"><ele></ele><time>2014-5-11T14:40:13Z</time></trkpt>
<trkpt lat="45.85971446" lon="9.00073229"><ele></ele><time>2014-5-11T14:40:16Z</time></trkpt>
<trkpt lat="45.85972309" lon="9.00140896"><ele></ele><time>2014-5-11T14:40:19Z</time></trkpt>
<trkpt lat="45.85975452" lon="9.00154425"><ele></ele><time>2014-5-11T14:40:22Z</time></trkpt>
<trkpt lat="45.86002224" lon="9.00188246"><ele></ele><time>2014-5-11T14:40:25Z</time></trkpt>
<trkpt lat="45.86008318" lon="9.00223450"><ele></ele><time>2014-5-11T14:40:28Z</time></trkpt>
<trkpt lat="45.86004177" lon="9.00275024"><ele></ele><time>2014-5-11T14:40:31Z</time></trkpt>
<trkpt lat="45.86008385" lon="9.00308149"><ele></ele><time>2014-5-11T14:40:34Z</time></trkpt>
<trkpt lat="45.86005770" lon="9.00342255"><ele></ele><time>2014-5-11T14:40:37Z</time></trkpt>
<trkpt lat="45.86000464" lon="9.00355624"><ele></ele><time>2014-5-11T14:40:40Z</time></trkpt>
<trkpt lat="45.85989408" lon="9.00433919"><ele></ele><time>2014-5-11T14:40:43Z</time></trkpt>
<trkpt lat="45.86008393" lon="9.00550612"><ele></ele><time>2014-5-11T14:40:46Z</time></trkpt>
<trkpt lat="45.86008846" lon="9.00557628"><ele></ele><time>2014-5-11T14:40:49Z</time></trkpt>
<trkpt lat="45.86008133" lon="9.00577133"><ele></ele><time>2014-5-11T14:40:52Z</time></trkpt>
<trkpt lat="45.86001285" lon="9.00600216"><ele></ele><time>2014-5-11T14:40:55Z</time></trkpt>
<trkpt lat="45.85985117" lon="9.00657197"><ele></ele><time>2014-5-11T14:40:58Z</time></trkpt>
<trkpt lat="45.85954313" lon="9.00735106"><ele></ele><time>2014-5-11T14:41:1Z</time></trkpt>
<trkpt lat="45.85928489" lon="9.00825237"><ele></ele><time>2014-5-11T14:41:4Z</time></trkpt>
<trkpt lat="45.85922889" lon="9.00875269"><ele></ele><time>2014-5-11T14:41:7Z</time></trkpt>
<trkpt lat="45.85925354" lon="9.00905703"><ele></ele><time>2014-5-11T14:41:10Z</time></trkpt>
<trkpt lat="45.85931447" lon="9.00949473"><ele></ele><time>2014-5-11T14:41:13Z</time></trkpt>
<trkpt lat="45.85938119" lon="9.00981526"><ele></ele><time>2014-5-11T14:41:16Z</time></trkpt>
<trkpt lat="45.85952796" lon="9.01021608"><ele></ele><time>2014-5-11T14:41:19Z</time></trkpt>
<trkpt lat="45.85987489" lon="9.01022706"><ele></ele><time>2014-5-11T14:41:22Z</time></trkpt>
<trkpt lat="45.86009097" lon="9.01033108"><ele></ele><time>2014-5-11T14:41:25Z</time></trkpt>
<trkpt lat="45.86029004" lon="9.01058036"><ele></ele><time>2014-5-11T14:41:28Z</time></trkpt>
<trkpt lat="45.86037160" lon="9.01105427"><ele></ele><time>2014-5-11T14:41:31Z</time></trkpt>
<trkpt lat="45.86038057" lon="9.01114144"><ele></ele><time>2014-5-11T14:41:34Z</time></trkpt>
<trkpt lat="45.86042583" lon="9.01118947"><ele></ele><time>2014-5-11T14:41:37Z</time></trkpt>
<trkpt lat="45.86049045" lon="9.01113524"><ele></ele><time>2014-5-11T14:41:40Z</time></trkpt>
<trkpt lat="45.86066027" lon="9.01095629"><ele></ele><time>2014-5-11T14:41:43Z</time></trkpt>
<trkpt lat="45.86080528" lon="9.01080005"><ele></ele><time>2014-5-11T14:41:46Z</time></trkpt>
<trkpt lat="45.86085398" lon="9.01072629"><ele></ele><time>2014-5-11T14:41:49Z</time></trkpt>
<trkpt lat="45.86100653" lon="9.01025372"><ele></ele><time>2014-5-11T14:41:52Z</time></trkpt>
<trkpt lat="45.86117869" lon="9.00994367"><ele></ele><time>2014-5-11T14:41:55Z</time></trkpt>
<trkpt lat="45.86138866" lon="9.00974334"><ele></ele><time>2014-5-11T14:41:58Z</time></trkpt>
<trkpt lat="45.86142495" lon="9.00980302"><ele></ele><time>2014-5-11T14:42:1Z</time></trkpt>
<trkpt lat="45.86142018" lon="9.00984979"><ele></ele><time>2014-5-11T14:42:4Z</time></trkpt>
<trkpt lat="45.86135480" lon="9.01040484"><ele></ele><time>2014-5-11T14:42:7Z</time></trkpt>
<trkpt lat="45.86155772" lon="9.01136692"><ele></ele><time>2014-5-11T14:42:10Z</time></trkpt>
<trkpt lat="45.86165302" lon="9.01173346"><ele></ele><time>2014-5-11T14:42:13Z</time></trkpt>
<trkpt lat="45.86156158" lon="9.01297314"><ele></ele><time>2014-5-11T14:42:16Z</time></trkpt>
<trkpt lat="45.86128347" lon="9.01386917"><ele></ele><time>2014-5-11T14:42:19Z</time></trkpt>
<trkpt lat="45.86138204" lon="9.01462538"><ele></ele><time>2014-5-11T14:42:22Z</time></trkpt>
<trkpt lat="45.86144549" lon="9.01473887"><ele></ele><time>2014-5-11T14:42:25Z</time></trkpt>
<trkpt lat="45.86176325" lon="9.01537087"><ele></ele><time>2014-5-11T14:42:28Z</time></trkpt>
<trkpt lat="45.86207572" lon="9.01583388"><ele></ele><time>2014-5-11T14:42:31Z</time></trkpt>
<trkpt lat="45.86250530" lon="9.01644065"><ele></ele><time>2014-5-11T14:42:34Z</time></trkpt>
<trkpt lat="45.86273069" lon="9.01702529"><ele></ele><time>2014-5-11T14:42:37Z</time></trkpt>
<trkpt lat="45.86271442" lon="9.01799968"><ele></ele><time>2014-5-11T14:42:40Z</time></trkpt>
<trkpt lat="45.86245459" lon="9.01880032"><ele></ele><time>2014-5-11T14:42:43Z</time></trkpt>
<trkpt lat="45.86208452" lon="9.01892614"><ele></ele><time>2014-5-11T14:42:46Z</time></trkpt>
<trkpt lat="45.86169502" lon="9.01880368"><ele></ele><time>2014-5-11T14:42:49Z</time></trkpt>
<trkpt lat="45.86164976" lon="9.01883553"><ele></ele><time>2014-5-11T14:42:52Z</time></trkpt>
<trkpt lat="45.86156929" lon="9.01890510"><ele></ele><time>2014-5-11T14:42:55Z</time></trkpt>
<trkpt lat="45.86125623" lon="9.01921774"><ele></ele><time>2014-5-11T14:42:58Z</time></trkpt>
<trkpt lat="45.86115782" lon="9.01946685"><ele></ele><time>2014-5-11T14:43:1Z</time></trkpt>
<trkpt lat="45.86112027" lon="9.01987463"><ele></ele><time>2014-5-11T14:43:4Z</time></trkpt>
<trkpt lat="45.86075096" lon="9.02069413"><ele></ele><time>2014-5-11T14:43:7Z</time></trkpt>
<trkpt lat="45.86054544" lon="9.02102983"><ele></ele><time>2014-5-11T14:43:10Z</time></trkpt>
<trkpt lat="45.86032148" lon="9.02169568"><ele></ele><time>2014-5-11T14:43:13Z</time></trkpt>
<trkpt lat="45.86027068" lon="9.02174757"><ele></ele><time>2014-5-11T14:43:16Z</time></trkpt>
<trkpt lat="45.85972175" lon="9.02227923"><ele></ele><time>2014-5-11T14:43:19Z</time></trkpt>
<trkpt lat="45.85946443" lon="9.02258777"><ele></ele><time>2014-5-11T14:43:22Z</time></trkpt>
<trkpt lat="45.85932478" lon="9.02319764"><ele></ele><time>2014-5-11T14:43:25Z</time></trkpt>
<trkpt lat="45.85948379" lon="9.02365252"><ele></ele><time>2014-5-11T14:43:28Z</time></trkpt>
<trkpt lat="45.85988495" lon="9.02390214"><ele></ele><time>2014-5-11T14:43:31Z</time></trkpt>
<trkpt lat="45.86037562" lon="9.02399803"><ele></ele><time>2014-5-11T14:43:34Z</time></trkpt>
<trkpt lat="45.86083093" lon="9.02374280"><ele></ele><time>2014-5-11T14:43:37Z</time></trkpt>
<trkpt lat="45.86114927" lon="9.02347424"><ele></ele><time>2014-5-11T14:43:40Z</time></trkpt>
<trkpt lat="45.86150525" lon="9.02312237"><ele></ele><time>2014-5-11T14:43:43Z</time></trkpt>
<trkpt lat="45.86180306" lon="9.02273554"><ele></ele><time>2014-5-11T14:43:46Z</time></trkpt>
<trkpt lat="45.86222006" lon="9.02221813"><ele></ele><time>2014-5-11T14:43:49Z</time></trkpt>
<trkpt lat="45.86237630" lon="9.02232005"><ele></ele><time>2014-5-11T14:43:52Z</time></trkpt>
<trkpt lat="45.86236322" lon="9.02248425"><ele></ele><time>2014-5-11T14:43:55Z</time></trkpt>
<trkpt lat="45.86189358" lon="9.02320728"><ele></ele><time>2014-5-11T14:43:58Z</time></trkpt>
<trkpt lat="45.86149687" lon="9.02381446"><ele></ele><time>2014-5-11T14:44:1Z</time></trkpt>
<trkpt lat="45.86141967" lon="9.02393684"><ele></ele><time>2014-5-11T14:44:4Z</time></trkpt>
<trkpt lat="45.86104542" lon="9.02450245"><ele></ele><time>2014-5-11T14:44:7Z</time></trkpt>
<trkpt lat="45.86083076" lon="9.02483672"><ele></ele><time>2014-5-11T14:44:10Z</time></trkpt>
<trkpt lat="45.86035852" lon="9.02552948"><ele></ele><time>2014-5-11T14:44:13Z</time></trkpt>
<trkpt lat="45.86029340" lon="9.02557198"><ele></ele><time>2014-5-11T14:44:16Z</time></trkpt>
<trkpt lat="45.85987044" lon="9.02564038"><ele></ele><time>2014-5-11T14:44:19Z</time></trkpt>
<trkpt lat="45.85946107" lon="9.02574264"><ele></ele><time>2014-5-11T14:44:22Z</time></trkpt>
<trkpt lat="45.85956727" lon="9.02589083"><ele></ele><time>2014-5-11T14:44:25Z</time></trkpt>
<trkpt lat="45.85980456" lon="9.02594137"><ele></ele><time>2014-5-11T14:44:28Z</time></trkpt>
<trkpt lat="45.86023439" lon="9.02589175"><ele></ele><time>2014-5-11T14:44:31Z</time></trkpt>
<trkpt lat="45.86067888" lon="9.02576946"><ele></ele><time>2014-5-11T14:44:34Z</time></trkpt>
<trkpt lat="45.86098549" lon="9.02567952"><ele></ele><time>2014-5-11T14:44:37Z</time></trkpt>
<trkpt lat="45.86143124" lon="9.02551104"><ele></ele><time>2014-5-11T14:44:40Z</time></trkpt>
<trkpt lat="45.86183567" lon="9.02525087"><ele></ele><time>2014-5-11T14:44:43Z</time></trkpt>
<trkpt lat="45.86223666" lon="9.02498173"><ele></ele><time>2014-5-11T14:44:46Z</time></trkpt>
<trkpt lat="45.86261669" lon="9.02478064"><ele></ele><time>2014-5-11T14:44:49Z</time></trkpt>
<trkpt lat="45.86298156" lon="9.02510142"><ele></ele><time>2014-5-11T14:44:52Z</time></trkpt>
<trkpt lat="45.86306982" lon="9.02547944"><ele></ele><time>2014-5-11T14:44:55Z</time></trkpt>
<trkpt lat="45.86309027" lon="9.02590457"><ele></ele><time>2014-5-11T14:44:58Z</time></trkpt>
<trkpt lat="45.86323930" lon="9.02649759"><ele></ele><time>2014-5-11T14:45:1Z</time></trkpt>
<trkpt lat="45.86331943" lon="9.02667504"><ele></ele><time>2014-5-11T14:45:4Z</time></trkpt>
<trkpt lat="45.86339068" lon="9.02691266"><ele></ele><time>2014-5-11T14:45:7Z</time></trkpt>
<trkpt lat="45.86339973" lon="9.02738499"><ele></ele><time>2014-5-11T14:45:10Z</time></trkpt>
<trkpt lat="45.86341708" lon="9.02792268"><ele></ele><time>2014-5-11T14:45:13Z</time></trkpt>
<trkpt lat="45.86377708" lon="9.02860506"><ele></ele><time>2014-5-11T14:45:16Z</time></trkpt>
<trkpt lat="45.86446172" lon="9.02933068"><ele></ele><time>2014-5-11T14:45:19Z</time></trkpt>
<trkpt lat="45.86452274" lon="9.02938206"><ele></ele><time>2014-5-11T14:45:22Z</time></trkpt>
<trkpt lat="45.86479800" lon="9.02949764"><ele></ele><time>2014-5-11T14:45:25Z</time></trkpt>
<trkpt lat="45.86630875" lon="9.02961574"><ele></ele><time>2014-5-11T14:45:28Z</time></trkpt>
<trkpt lat="45.86644663" lon="9.02968406"><ele></ele><time>2014-5-11T14:45:31Z</time></trkpt>
<trkpt lat="45.86679297" lon="9.03032955"><ele></ele><time>2014-5-11T14:45:34Z</time></trkpt>
<trkpt lat="45.86676992" lon="9.03059215"><ele></ele><time>2014-5-11T14:45:37Z</time></trkpt>
<trkpt lat="45.86672324" lon="9.03087169"><ele></ele><time>2014-5-11T14:45:40Z</time></trkpt>
<trkpt lat="45.86658536" lon="9.03160938"><ele></ele><time>2014-5-11T14:45:43Z</time></trkpt>
<trkpt lat="45.86665518" lon="9.03165045"><ele></ele><time>2014-5-11T14:45:46Z</time></trkpt>
<trkpt lat="45.86697176" lon="9.03160175"><ele></ele><time>2014-5-11T14:45:49Z</time></trkpt>
<trkpt lat="45.86728935" lon="9.03151114"><ele></ele><time>2014-5-11T14:45:52Z</time></trkpt>
<trkpt lat="45.86790475" lon="9.03193166"><ele></ele><time>2014-5-11T14:45:55Z</time></trkpt>
<trkpt lat="45.86797968" lon="9.03217969"><ele></ele><time>2014-5-11T14:45:58Z</time></trkpt>
<trkpt lat="45.86839350" lon="9.03259836"><ele></ele><time>2014-5-11T14:46:1Z</time></trkpt>
<trkpt lat="45.86860523" lon="9.03251303"><ele></ele><time>2014-5-11T14:46:4Z</time></trkpt>
<trkpt lat="45.86907889" lon="9.03288402"><ele></ele><time>2014-5-11T14:46:7Z</time></trkpt>
<trkpt lat="45.86936756" lon="9.03285116"><ele></ele><time>2014-5-11T14:46:10Z</time></trkpt>
<trkpt lat="45.86944560" lon="9.03223014"><ele></ele><time>2014-5-11T14:46:13Z</time></trkpt>
<trkpt lat="45.86954014" lon="9.03198858"><ele></ele><time>2014-5-11T14:46:16Z</time></trkpt>
<trkpt lat="45.86990518" lon="9.03200610"><ele></ele><time>2014-5-11T14:46:19Z</time></trkpt>
<trkpt lat="45.87076348" lon="9.03254773"><ele></ele><time>2014-5-11T14:46:22Z</time></trkpt>
<trkpt lat="45.87105257" lon="9.03292174"><ele></ele><time>2014-5-11T14:46:25Z</time></trkpt>
<trkpt lat="45.87146094" lon="9.03297178"><ele></ele><time>2014-5-11T14:46:28Z</time></trkpt>
<trkpt lat="45.87155012" lon="9.03282459"><ele></ele><time>2014-5-11T14:46:31Z</time></trkpt>
<trkpt lat="45.87213853" lon="9.03167032"><ele></ele><time>2014-5-11T14:46:34Z</time></trkpt>
<trkpt lat="45.87226292" lon="9.03135926"><ele></ele><time>2014-5-11T14:46:37Z</time></trkpt>
<trkpt lat="45.87234138" lon="9.03090597"><ele></ele><time>2014-5-11T14:46:40Z</time></trkpt>
<trkpt lat="45.87238597" lon="9.03028236"><ele></ele><time>2014-5-11T14:46:43Z</time></trkpt>
<trkpt lat="45.87235998" lon="9.02952815"><ele></ele><time>2014-5-11T14:46:46Z</time></trkpt>
<trkpt lat="45.87269417" lon="9.02936404"><ele></ele><time>2014-5-11T14:46:49Z</time></trkpt>
<trkpt lat="45.87390988" lon="9.02984273"><ele></ele><time>2014-5-11T14:46:52Z</time></trkpt>
<trkpt lat="45.87483658" lon="9.02970560"><ele></ele><time>2014-5-11T14:46:55Z</time></trkpt>
<trkpt lat="45.87505644" lon="9.02975815"><ele></ele><time>2014-5-11T14:46:58Z</time></trkpt>
<trkpt lat="45.87522978" lon="9.02992269"><ele></ele><time>2014-5-11T14:47:1Z</time></trkpt>
<trkpt lat="45.87526725" lon="9.02998933"><ele></ele><time>2014-5-11T14:47:4Z</time></trkpt>
<trkpt lat="45.87538837" lon="9.03016250"><ele></ele><time>2014-5-11T14:47:7Z</time></trkpt>
<trkpt lat="45.87550596" lon="9.03027104"><ele></ele><time>2014-5-11T14:47:10Z</time></trkpt>
<trkpt lat="45.87554544" lon="9.03029937"><ele></ele><time>2014-5-11T14:47:13Z</time></trkpt>
<trkpt lat="45.87585096" lon="9.03057665"><ele></ele><time>2014-5-11T14:47:16Z</time></trkpt>
<trkpt lat="45.87595339" lon="9.03067706"><ele></ele><time>2014-5-11T14:47:19Z</time></trkpt>
<trkpt lat="45.87605909" lon="9.03103547"><ele></ele><time>2014-5-11T14:47:22Z</time></trkpt>
<trkpt lat="45.87606294" lon="9.03118207"><ele></ele><time>2014-5-11T14:47:25Z</time></trkpt>
<trkpt lat="45.87604324" lon="9.03141375"><ele></ele><time>2014-5-11T14:47:28Z</time></trkpt>
<trkpt lat="45.87605473" lon="9.03164232"><ele></ele><time>2014-5-11T14:47:31Z</time></trkpt>
<trkpt lat="45.87604106" lon="9.03197894"><ele></ele><time>2014-5-11T14:47:34Z</time></trkpt>
<trkpt lat="45.87564594" lon="9.03324368"><ele></ele><time>2014-5-11T14:47:37Z</time></trkpt>
<trkpt lat="45.87560303" lon="9.03369178"><ele></ele><time>2014-5-11T14:47:40Z</time></trkpt>
<trkpt lat="45.87568022" lon="9.03448538"><ele></ele><time>2014-5-11T14:47:43Z</time></trkpt>
<trkpt lat="45.87593922" lon="9.03438035"><ele></ele><time>2014-5-11T14:47:46Z</time></trkpt>
<trkpt lat="45.87624734" lon="9.03444179"><ele></ele><time>2014-5-11T14:47:49Z</time></trkpt>
<trkpt lat="45.87742098" lon="9.03528585"><ele></ele><time>2014-5-11T14:47:52Z</time></trkpt>
<trkpt lat="45.87754972" lon="9.03538526"><ele></ele><time>2014-5-11T14:47:55Z</time></trkpt>
<trkpt lat="45.87859092" lon="9.03567636"><ele></ele><time>2014-5-11T14:47:58Z</time></trkpt>
<trkpt lat="45.87890365" lon="9.03621197"><ele></ele><time>2014-5-11T14:48:1Z</time></trkpt>
<trkpt lat="45.87896886" lon="9.03701328"><ele></ele><time>2014-5-11T14:48:4Z</time></trkpt>
<trkpt lat="45.87898856" lon="9.03722266"><ele></ele><time>2014-5-11T14:48:7Z</time></trkpt>
<trkpt lat="45.87899719" lon="9.03764133"><ele></ele><time>2014-5-11T14:48:10Z</time></trkpt>
<trkpt lat="45.87898144" lon="9.03795364"><ele></ele><time>2014-5-11T14:48:13Z</time></trkpt>
<trkpt lat="45.87898948" lon="9.03816143"><ele></ele><time>2014-5-11T14:48:16Z</time></trkpt>
<trkpt lat="45.87903818" lon="9.03865445"><ele></ele><time>2014-5-11T14:48:19Z</time></trkpt>
<trkpt lat="45.87937715" lon="9.03813092"><ele></ele><time>2014-5-11T14:48:22Z</time></trkpt>
<trkpt lat="45.87993387" lon="9.03663333"><ele></ele><time>2014-5-11T14:48:25Z</time></trkpt>
<trkpt lat="45.88007829" lon="9.03626184"><ele></ele><time>2014-5-11T14:48:28Z</time></trkpt>
<trkpt lat="45.88043033" lon="9.03597635"><ele></ele><time>2014-5-11T14:48:31Z</time></trkpt>
<trkpt lat="45.88071506" lon="9.03603243"><ele></ele><time>2014-5-11T14:48:34Z</time></trkpt>
<trkpt lat="45.88091472" lon="9.03609294"><ele></ele><time>2014-5-11T14:48:37Z</time></trkpt>
<trkpt lat="45.88113684" lon="9.03574719"><ele></ele><time>2014-5-11T14:48:40Z</time></trkpt>
<trkpt lat="45.88122083" lon="9.03534679"><ele></ele><time>2014-5-11T14:48:43Z</time></trkpt>
<trkpt lat="45.88124706" lon="9.03523732"><ele></ele><time>2014-5-11T14:48:46Z</time></trkpt>
<trkpt lat="45.88155694" lon="9.03506583"><ele></ele><time>2014-5-11T14:48:49Z</time></trkpt>
<trkpt lat="45.88187328" lon="9.03525677"><ele></ele><time>2014-5-11T14:48:52Z</time></trkpt>
<trkpt lat="45.88211627" lon="9.03558835"><ele></ele><time>2014-5-11T14:48:55Z</time></trkpt>
<trkpt lat="45.88239203" lon="9.03591475"><ele></ele><time>2014-5-11T14:48:58Z</time></trkpt>
<trkpt lat="45.88328177" lon="9.03653174"><ele></ele><time>2014-5-11T14:49:1Z</time></trkpt>
<trkpt lat="45.88337447" lon="9.03658287"><ele></ele><time>2014-5-11T14:49:4Z</time></trkpt>
<trkpt lat="45.88374512" lon="9.03687598"><ele></ele><time>2014-5-11T14:49:7Z</time></trkpt>
<trkpt lat="45.88390597" lon="9.03737873"><ele></ele><time>2014-5-11T14:49:10Z</time></trkpt>
<trkpt lat="45.88405115" lon="9.03775910"><ele></ele><time>2014-5-11T14:49:13Z</time></trkpt>
<trkpt lat="45.88436513" lon="9.03792439"><ele></ele><time>2014-5-11T14:49:16Z</time></trkpt>
<trkpt lat="45.88481792" lon="9.03777368"><ele></ele><time>2014-5-11T14:49:19Z</time></trkpt>
<trkpt lat="45.88513057" lon="9.03783009"><ele></ele><time>2014-5-11T14:49:22Z</time></trkpt>
<trkpt lat="45.88552888" lon="9.03769942"><ele></ele><time>2014-5-11T14:49:25Z</time></trkpt>
<trkpt lat="45.88581604" lon="9.03751887"><ele></ele><time>2014-5-11T14:49:28Z</time></trkpt>
<trkpt lat="45.88613003" lon="9.03750203"><ele></ele><time>2014-5-11T14:49:31Z</time></trkpt>
<trkpt lat="45.88635692" lon="9.03756456"><ele></ele><time>2014-5-11T14:49:34Z</time></trkpt>
<trkpt lat="45.88655298" lon="9.03760236"><ele></ele><time>2014-5-11T14:49:37Z</time></trkpt>
<trkpt lat="45.88715186" lon="9.03824382"><ele></ele><time>2014-5-11T14:49:40Z</time></trkpt>
<trkpt lat="45.88754850" lon="9.03891228"><ele></ele><time>2014-5-11T14:49:43Z</time></trkpt>
<trkpt lat="45.88778939" lon="9.03917874"><ele></ele><time>2014-5-11T14:49:46Z</time></trkpt>
<trkpt lat="45.88798377" lon="9.03969976"><ele></ele><time>2014-5-11T14:49:49Z</time></trkpt>
<trkpt lat="45.88798393" lon="9.04002557"><ele></ele><time>2014-5-11T14:49:52Z</time></trkpt>
<trkpt lat="45.88796172" lon="9.04062806"><ele></ele><time>2014-5-11T14:49:55Z</time></trkpt>
<trkpt lat="45.88776726" lon="9.04108386"><ele></ele><time>2014-5-11T14:49:58Z</time></trkpt>
<trkpt lat="45.88780666" lon="9.04120389"><ele></ele><time>2014-5-11T14:50:1Z</time></trkpt>
<trkpt lat="45.88787355" lon="9.04134303"><ele></ele><time>2014-5-11T14:50:4Z</time></trkpt>
<trkpt lat="45.88768537" lon="9.04173874"><ele></ele><time>2014-5-11T14:50:7Z</time></trkpt>
<trkpt lat="45.88736007" lon="9.04235138"><ele></ele><time>2014-5-11T14:50:10Z</time></trkpt>
<trkpt lat="45.88735823" lon="9.04294909"><ele></ele><time>2014-5-11T14:50:13Z</time></trkpt>
<trkpt lat="45.88763399" lon="9.04320113"><ele></ele><time>2014-5-11T14:50:16Z</time></trkpt>
<trkpt lat="45.88772309" lon="9.04316518"><ele></ele><time>2014-5-11T14:50:19Z</time></trkpt>
<trkpt lat="45.88858609" lon="9.04284482"><ele></ele><time>2014-5-11T14:50:22Z</time></trkpt>
<trkpt lat="45.88876538" lon="9.04279503"><ele></ele><time>2014-5-11T14:50:25Z</time></trkpt>
<trkpt lat="45.88907568" lon="9.04276527"><ele></ele><time>2014-5-11T14:50:28Z</time></trkpt>
<trkpt lat="45.88950173" lon="9.04269554"><ele></ele><time>2014-5-11T14:50:31Z</time></trkpt>
<trkpt lat="45.88963743" lon="9.04252740"><ele></ele><time>2014-5-11T14:50:34Z</time></trkpt>
<trkpt lat="45.88989425" lon="9.04236269"><ele></ele><time>2014-5-11T14:50:37Z</time></trkpt>
<trkpt lat="45.89036473" lon="9.04273569"><ele></ele><time>2014-5-11T14:50:40Z</time></trkpt>
<trkpt lat="45.89078014" lon="9.04286334"><ele></ele><time>2014-5-11T14:50:43Z</time></trkpt>
<trkpt lat="45.89131339" lon="9.04294582"><ele></ele><time>2014-5-11T14:50:46Z</time></trkpt>
<trkpt lat="45.89137408" lon="9.04298136"><ele></ele><time>2014-5-11T14:50:49Z</time></trkpt>
<trkpt lat="45.89174473" lon="9.04318647"><ele></ele><time>2014-5-11T14:50:52Z</time></trkpt>
<trkpt lat="45.89227974" lon="9.04342937"><ele></ele><time>2014-5-11T14:50:55Z</time></trkpt>
<trkpt lat="45.89259708" lon="9.04354865"><ele></ele><time>2014-5-11T14:50:58Z</time></trkpt>
<trkpt lat="45.89300662" lon="9.04366926"><ele></ele><time>2014-5-11T14:51:1Z</time></trkpt>
<trkpt lat="45.89327736" lon="9.04383816"><ele></ele><time>2014-5-11T14:51:4Z</time></trkpt>
<trkpt lat="45.89373576" lon="9.04418458"><ele></ele><time>2014-5-11T14:51:7Z</time></trkpt>
<trkpt lat="45.89401388" lon="9.04460602"><ele></ele><time>2014-5-11T14:51:10Z</time></trkpt>
<trkpt lat="45.89417447" lon="9.04479009"><ele></ele><time>2014-5-11T14:51:13Z</time></trkpt>
<trkpt lat="45.89423818" lon="9.04487592"><ele></ele><time>2014-5-11T14:51:16Z</time></trkpt>
<trkpt lat="45.89447035" lon="9.04510617"><ele></ele><time>2014-5-11T14:51:19Z</time></trkpt>
<trkpt lat="45.89470698" lon="9.04516535"><ele></ele><time>2014-5-11T14:51:22Z</time></trkpt>
<trkpt lat="45.89472634" lon="9.04516644"><ele></ele><time>2014-5-11T14:51:25Z</time></trkpt>
<trkpt lat="45.89495072" lon="9.04523249"><ele></ele><time>2014-5-11T14:51:28Z</time></trkpt>
<trkpt lat="45.89511928" lon="9.04526115"><ele></ele><time>2014-5-11T14:51:31Z</time></trkpt>
<trkpt lat="45.89531098" lon="9.04525998"><ele></ele><time>2014-5-11T14:51:34Z</time></trkpt>
<trkpt lat="45.89559688" lon="9.04527993"><ele></ele><time>2014-5-11T14:51:37Z</time></trkpt>
<trkpt lat="45.89580660" lon="9.04550599"><ele></ele><time>2014-5-11T14:51:40Z</time></trkpt>
<trkpt lat="45.89581967" lon="9.04553239"><ele></ele><time>2014-5-11T14:51:43Z</time></trkpt>
<trkpt lat="45.89609410" lon="9.04562828"><ele></ele><time>2014-5-11T14:51:46Z</time></trkpt>
<trkpt lat="45.89630398" lon="9.04570959"><ele></ele><time>2014-5-11T14:51:49Z</time></trkpt>
<trkpt lat="45.89658628" lon="9.04570422"><ele></ele><time>2014-5-11T14:51:52Z</time></trkpt>
<trkpt lat="45.89677890" lon="9.04567463"><ele></ele><time>2014-5-11T14:51:55Z</time></trkpt>
<trkpt lat="45.89679566" lon="9.04567488"><ele></ele><time>2014-5-11T14:51:58Z</time></trkpt>
<trkpt lat="45.89696464" lon="9.04569567"><ele></ele><time>2014-5-11T14:52:1Z</time></trkpt>
<trkpt lat="45.89704058" lon="9.04573004"><ele></ele><time>2014-5-11T14:52:4Z</time></trkpt>
<trkpt lat="45.89706950" lon="9.04578695"><ele></ele><time>2014-5-11T14:52:7Z</time></trkpt>
<trkpt lat="45.89709624" lon="9.04581612"><ele></ele><time>2014-5-11T14:52:10Z</time></trkpt>
<trkpt lat="45.89714494" lon="9.04584956"><ele></ele><time>2014-5-11T14:52:13Z</time></trkpt>
<trkpt lat="45.89737477" lon="9.04595249"><ele></ele><time>2014-5-11T14:52:16Z</time></trkpt>
<trkpt lat="45.89761005" lon="9.04608828"><ele></ele><time>2014-5-11T14:52:19Z</time></trkpt>
<trkpt lat="45.89778389" lon="9.04609934"><ele></ele><time>2014-5-11T14:52:22Z</time></trkpt>
<trkpt lat="45.89787768" lon="9.04605769"><ele></ele><time>2014-5-11T14:52:25Z</time></trkpt>
<trkpt lat="45.89793325" lon="9.04607998"><ele></ele><time>2014-5-11T14:52:28Z</time></trkpt>
<trkpt lat="45.89810089" lon="9.04629674"><ele></ele><time>2014-5-11T14:52:31Z</time></trkpt>
<trkpt lat="45.89844472" lon="9.04663126"><ele></ele><time>2014-5-11T14:52:34Z</time></trkpt>
<trkpt lat="45.89861847" lon="9.04697894"><ele></ele><time>2014-5-11T14:52:37Z</time></trkpt>
<trkpt lat="45.89871042" lon="9.04718614"><ele></ele><time>2014-5-11T14:52:40Z</time></trkpt>
<trkpt lat="45.89879768" lon="9.04756157"><ele></ele><time>2014-5-11T14:52:43Z</time></trkpt>
<trkpt lat="45.89888485" lon="9.04779442"><ele></ele><time>2014-5-11T14:52:46Z</time></trkpt>
<trkpt lat="45.89894537" lon="9.04792945"><ele></ele><time>2014-5-11T14:52:49Z</time></trkpt>
<trkpt lat="45.89895727" lon="9.04797144"><ele></ele><time>2014-5-11T14:52:52Z</time></trkpt>
<trkpt lat="45.89897295" lon="9.04807563"><ele></ele><time>2014-5-11T14:52:55Z</time></trkpt>
<trkpt lat="45.89900496" lon="9.04818409"><ele></ele><time>2014-5-11T14:52:58Z</time></trkpt>
<trkpt lat="45.89907839" lon="9.04844846"><ele></ele><time>2014-5-11T14:53:1Z</time></trkpt>
<trkpt lat="45.89912768" lon="9.04856974"><ele></ele><time>2014-5-11T14:53:4Z</time></trkpt>
<trkpt lat="45.89919389" lon="9.04880796"><ele></ele><time>2014-5-11T14:53:7Z</time></trkpt>
<trkpt lat="45.89925575" lon="9.04898238"><ele></ele><time>2014-5-11T14:53:10Z</time></trkpt>
<trkpt lat="45.89927218" lon="9.04901063"><ele></ele><time>2014-5-11T14:53:13Z</time></trkpt>
<trkpt lat="45.89936656" lon="9.04922655"><ele></ele><time>2014-5-11T14:53:16Z</time></trkpt>
<trkpt lat="45.89955213" lon="9.04942419"><ele></ele><time>2014-5-11T14:53:19Z</time></trkpt>
<trkpt lat="45.89969563" lon="9.04956417"><ele></ele><time>2014-5-11T14:53:22Z</time></trkpt>
<trkpt lat="45.89980644" lon="9.04975310"><ele></ele><time>2014-5-11T14:53:25Z</time></trkpt>
<trkpt lat="45.89998540" lon="9.04988922"><ele></ele><time>2014-5-11T14:53:28Z</time></trkpt>
<trkpt lat="45.90017826" lon="9.04999274"><ele></ele><time>2014-5-11T14:53:31Z</time></trkpt>
<trkpt lat="45.90034079" lon="9.05007949"><ele></ele><time>2014-5-11T14:53:34Z</time></trkpt>
<trkpt lat="45.90035789" lon="9.05008318"><ele></ele><time>2014-5-11T14:53:37Z</time></trkpt>
<trkpt lat="45.90062678" lon="9.05030195"><ele></ele><time>2014-5-11T14:53:40Z</time></trkpt>
<trkpt lat="45.90090246" lon="9.05038887"><ele></ele><time>2014-5-11T14:53:43Z</time></trkpt>
<trkpt lat="45.90103489" lon="9.05040915"><ele></ele><time>2014-5-11T14:53:46Z</time></trkpt>
<trkpt lat="45.90104814" lon="9.05041125"><ele></ele><time>2014-5-11T14:53:49Z</time></trkpt>
<trkpt lat="45.90118736" lon="9.05045768"><ele></ele><time>2014-5-11T14:53:52Z</time></trkpt>
<trkpt lat="45.90142507" lon="9.05079346"><ele></ele><time>2014-5-11T14:53:55Z</time></trkpt>
<trkpt lat="45.90154183" lon="9.05093025"><ele></ele><time>2014-5-11T14:53:58Z</time></trkpt>
<trkpt lat="45.90176487" lon="9.05077485"><ele></ele><time>2014-5-11T14:54:1Z</time></trkpt>
<trkpt lat="45.90177527" lon="9.05077745"><ele></ele><time>2014-5-11T14:54:4Z</time></trkpt>
<trkpt lat="45.90186512" lon="9.05079179"><ele></ele><time>2014-5-11T14:54:7Z</time></trkpt>
<trkpt lat="45.90232638" lon="9.05106872"><ele></ele><time>2014-5-11T14:54:10Z</time></trkpt>
<trkpt lat="45.90255302" lon="9.05128623"><ele></ele><time>2014-5-11T14:54:13Z</time></trkpt>
<trkpt lat="45.90271982" lon="9.05149813"><ele></ele><time>2014-5-11T14:54:16Z</time></trkpt>
<trkpt lat="45.90287229" lon="9.05178135"><ele></ele><time>2014-5-11T14:54:19Z</time></trkpt>
<trkpt lat="45.90313096" lon="9.05210079"><ele></ele><time>2014-5-11T14:54:22Z</time></trkpt>
<trkpt lat="45.90332039" lon="9.05239709"><ele></ele><time>2014-5-11T14:54:25Z</time></trkpt>
<trkpt lat="45.90344804" lon="9.05263086"><ele></ele><time>2014-5-11T14:54:28Z</time></trkpt>
<trkpt lat="45.90345819" lon="9.05273588"><ele></ele><time>2014-5-11T14:54:31Z</time></trkpt>
<trkpt lat="45.90337479" lon="9.05299187"><ele></ele><time>2014-5-11T14:54:34Z</time></trkpt>
<trkpt lat="45.90348819" lon="9.05301265"><ele></ele><time>2014-5-11T14:54:37Z</time></trkpt>
<trkpt lat="45.90390075" lon="9.05323905"><ele></ele><time>2014-5-11T14:54:40Z</time></trkpt>
<trkpt lat="45.90412354" lon="9.05323234"><ele></ele><time>2014-5-11T14:54:43Z</time></trkpt>
<trkpt lat="45.90430208" lon="9.05332597"><ele></ele><time>2014-5-11T14:54:46Z</time></trkpt>
<trkpt lat="45.90431892" lon="9.05333586"><ele></ele><time>2014-5-11T14:54:49Z</time></trkpt>
<trkpt lat="45.90442630" lon="9.05337827"><ele></ele><time>2014-5-11T14:54:52Z</time></trkpt>
<trkpt lat="45.90459972" lon="9.05346134"><ele></ele><time>2014-5-11T14:54:55Z</time></trkpt>
<trkpt lat="45.90460978" lon="9.05350015"><ele></ele><time>2014-5-11T14:54:58Z</time></trkpt>
<trkpt lat="45.90460902" lon="9.05350643"><ele></ele><time>2014-5-11T14:55:1Z</time></trkpt>
<trkpt lat="45.90460835" lon="9.05359578"><ele></ele><time>2014-5-11T14:55:4Z</time></trkpt>
<trkpt lat="45.90464364" lon="9.05368354"><ele></ele><time>2014-5-11T14:55:7Z</time></trkpt>
<trkpt lat="45.90474254" lon="9.05373492"><ele></ele><time>2014-5-11T14:55:10Z</time></trkpt>
<trkpt lat="45.90483868" lon="9.05387549"><ele></ele><time>2014-5-11T14:55:13Z</time></trkpt>
<trkpt lat="45.90489468" lon="9.05389669"><ele></ele><time>2014-5-11T14:55:16Z</time></trkpt>
<trkpt lat="45.90507916" lon="9.05411789"><ele></ele><time>2014-5-11T14:55:19Z</time></trkpt>
<trkpt lat="45.90533875" lon="9.05429383"><ele></ele><time>2014-5-11T14:55:22Z</time></trkpt>
<trkpt lat="45.90536205" lon="9.05430104"><ele></ele><time>2014-5-11T14:55:25Z</time></trkpt>
<trkpt lat="45.90559264" lon="9.05450245"><ele></ele><time>2014-5-11T14:55:28Z</time></trkpt>
<trkpt lat="45.90561787" lon="9.05459248"><ele></ele><time>2014-5-11T14:55:31Z</time></trkpt>
<trkpt lat="45.90565500" lon="9.05463195"><ele></ele><time>2014-5-11T14:55:34Z</time></trkpt>
<trkpt lat="45.90571602" lon="9.05465098"><ele></ele><time>2014-5-11T14:55:37Z</time></trkpt>
<trkpt lat="45.90592372" lon="9.05484494"><ele></ele><time>2014-5-11T14:55:40Z</time></trkpt>
<trkpt lat="45.90600109" lon="9.05498584"><ele></ele><time>2014-5-11T14:55:43Z</time></trkpt>
<trkpt lat="45.90610787" lon="9.05510218"><ele></ele><time>2014-5-11T14:55:46Z</time></trkpt>
<trkpt lat="45.90611609" lon="9.05516538"><ele></ele><time>2014-5-11T14:55:49Z</time></trkpt>
<trkpt lat="45.90603579" lon="9.05533553"><ele></ele><time>2014-5-11T14:55:52Z</time></trkpt>
<trkpt lat="45.90602724" lon="9.05535297"><ele></ele><time>2014-5-11T14:55:55Z</time></trkpt>
<trkpt lat="45.90595272" lon="9.05558263"><ele></ele><time>2014-5-11T14:55:58Z</time></trkpt>
<trkpt lat="45.90596312" lon="9.05565614"><ele></ele><time>2014-5-11T14:56:1Z</time></trkpt>
<trkpt lat="45.90603026" lon="9.05572655"><ele></ele><time>2014-5-11T14:56:4Z</time></trkpt>
<trkpt lat="45.90631608" lon="9.05584322"><ele></ele><time>2014-5-11T14:56:7Z</time></trkpt>
<trkpt lat="45.90635723" lon="9.05584767"><ele></ele><time>2014-5-11T14:56:10Z</time></trkpt>
<trkpt lat="45.90643343" lon="9.05582772"><ele></ele><time>2014-5-11T14:56:13Z</time></trkpt>
<trkpt lat="45.90694020" lon="9.05579084"><ele></ele><time>2014-5-11T14:56:16Z</time></trkpt>
<trkpt lat="45.90684724" lon="9.05609309"><ele></ele><time>2014-5-11T14:56:19Z</time></trkpt>
<trkpt lat="45.90689720" lon="9.05622426"><ele></ele><time>2014-5-11T14:56:22Z</time></trkpt>
<trkpt lat="45.90697448" lon="9.05628596"><ele></ele><time>2014-5-11T14:56:25Z</time></trkpt>
<trkpt lat="45.90734228" lon="9.05664814"><ele></ele><time>2014-5-11T14:56:28Z</time></trkpt>
<trkpt lat="45.90741134" lon="9.05675417"><ele></ele><time>2014-5-11T14:56:31Z</time></trkpt>
<trkpt lat="45.90745099" lon="9.05680982"><ele></ele><time>2014-5-11T14:56:34Z</time></trkpt>
<trkpt lat="45.90750623" lon="9.05705642"><ele></ele><time>2014-5-11T14:56:37Z</time></trkpt>
<trkpt lat="45.90750212" lon="9.05711543"><ele></ele><time>2014-5-11T14:56:40Z</time></trkpt>
<trkpt lat="45.90747387" lon="9.05725339"><ele></ele><time>2014-5-11T14:56:43Z</time></trkpt>
<trkpt lat="45.90749172" lon="9.05727762"><ele></ele><time>2014-5-11T14:56:46Z</time></trkpt>
<trkpt lat="45.90764863" lon="9.05758624"><ele></ele><time>2014-5-11T14:56:49Z</time></trkpt>
<trkpt lat="45.90773078" lon="9.05770183"><ele></ele><time>2014-5-11T14:56:52Z</time></trkpt>
<trkpt lat="45.90801484" lon="9.05793778"><ele></ele><time>2014-5-11T14:56:55Z</time></trkpt>
<trkpt lat="45.90815088" lon="9.05746504"><ele></ele><time>2014-5-11T14:56:58Z</time></trkpt>
<trkpt lat="45.90814794" lon="9.05739597"><ele></ele><time>2014-5-11T14:57:1Z</time></trkpt>
<trkpt lat="45.90813219" lon="9.05734987"><ele></ele><time>2014-5-11T14:57:4Z</time></trkpt>
<trkpt lat="45.90812297" lon="9.05721542"><ele></ele><time>2014-5-11T14:57:7Z</time></trkpt>
<trkpt lat="45.90809514" lon="9.05709967"><ele></ele><time>2014-5-11T14:57:10Z</time></trkpt>
<trkpt lat="45.90808013" lon="9.05703572"><ele></ele><time>2014-5-11T14:57:13Z</time></trkpt>
<trkpt lat="45.90794116" lon="9.05646482"><ele></ele><time>2014-5-11T14:57:16Z</time></trkpt>
<trkpt lat="45.90782055" lon="9.05599192"><ele></ele><time>2014-5-11T14:57:19Z</time></trkpt>
<trkpt lat="45.90769926" lon="9.05551658"><ele></ele><time>2014-5-11T14:57:22Z</time></trkpt>
<trkpt lat="45.90766322" lon="9.05534358"><ele></ele><time>2014-5-11T14:57:25Z</time></trkpt>
<trkpt lat="45.90762097" lon="9.05507628"><ele></ele><time>2014-5-11T14:57:28Z</time></trkpt>
<trkpt lat="45.90762919" lon="9.05495826"><ele></ele><time>2014-5-11T14:57:31Z</time></trkpt>
<trkpt lat="45.90760002" lon="9.05478786"><ele></ele><time>2014-5-11T14:57:34Z</time></trkpt>
<trkpt lat="45.90760672" lon="9.05464679"><ele></ele><time>2014-5-11T14:57:37Z</time></trkpt>
<trkpt lat="45.90757026" lon="9.05427950"><ele></ele><time>2014-5-11T14:57:40Z</time></trkpt>
<trkpt lat="45.90757588" lon="9.05409006"><ele></ele><time>2014-5-11T14:57:43Z</time></trkpt>
<trkpt lat="45.90759147" lon="9.05407967"><ele></ele><time>2014-5-11T14:57:46Z</time></trkpt>
<trkpt lat="45.90759457" lon="9.05416843"><ele></ele><time>2014-5-11T14:57:49Z</time></trkpt>
<trkpt lat="45.90758946" lon="9.05421806"><ele></ele><time>2014-5-11T14:57:52Z</time></trkpt>
<trkpt lat="45.90758493" lon="9.05455576"><ele></ele><time>2014-5-11T14:57:55Z</time></trkpt>
<trkpt lat="45.90760396" lon="9.05459977"><ele></ele><time>2014-5-11T14:57:58Z</time></trkpt>
<trkpt lat="45.90783773" lon="9.05489984"><ele></ele><time>2014-5-11T14:58:1Z</time></trkpt>
<trkpt lat="45.90790152" lon="9.05518323"><ele></ele><time>2014-5-11T14:58:4Z</time></trkpt>
<trkpt lat="45.90802213" lon="9.05552270"><ele></ele><time>2014-5-11T14:58:7Z</time></trkpt>
<trkpt lat="45.90806136" lon="9.05557006"><ele></ele><time>2014-5-11T14:58:10Z</time></trkpt>
<trkpt lat="45.90829354" lon="9.05587424"><ele></ele><time>2014-5-11T14:58:13Z</time></trkpt>
<trkpt lat="45.90844098" lon="9.05617489"><ele></ele><time>2014-5-11T14:58:16Z</time></trkpt>
<trkpt lat="45.90855405" lon="9.05648142"><ele></ele><time>2014-5-11T14:58:19Z</time></trkpt>
<trkpt lat="45.90859529" lon="9.05649316"><ele></ele><time>2014-5-11T14:58:22Z</time></trkpt>
<trkpt lat="45.90861658" lon="9.05664898"><ele></ele><time>2014-5-11T14:58:25Z</time></trkpt>
<trkpt lat="45.90857232" lon="9.05712959"><ele></ele><time>2014-5-11T14:58:28Z</time></trkpt>
<trkpt lat="45.90871884" lon="9.05742413"><ele></ele><time>2014-5-11T14:58:31Z</time></trkpt>
<trkpt lat="45.90908764" lon="9.05787466"><ele></ele><time>2014-5-11T14:58:34Z</time></trkpt>
<trkpt lat="45.90924195" lon="9.05816744"><ele></ele><time>2014-5-11T14:58:37Z</time></trkpt>
<trkpt lat="45.90938704" lon="9.05829309"><ele></ele><time>2014-5-11T14:58:40Z</time></trkpt>
<trkpt lat="45.90953825" lon="9.05830029"><ele></ele><time>2014-5-11T14:58:43Z</time></trkpt>
<trkpt lat="45.90966926" lon="9.05831697"><ele></ele><time>2014-5-11T14:58:46Z</time></trkpt>
<trkpt lat="45.90973346" lon="9.05835603"><ele></ele><time>2014-5-11T14:58:49Z</time></trkpt>
<trkpt lat="45.90986162" lon="9.05842535"><ele></ele><time>2014-5-11T14:58:52Z</time></trkpt>
<trkpt lat="45.90990555" lon="9.05844698"><ele></ele><time>2014-5-11T14:58:55Z</time></trkpt>
<trkpt lat="45.90977806" lon="9.05865460"><ele></ele><time>2014-5-11T14:58:58Z</time></trkpt>
<trkpt lat="45.90979323" lon="9.05882835"><ele></ele><time>2014-5-11T14:59:1Z</time></trkpt>
<trkpt lat="45.90982089" lon="9.05892827"><ele></ele><time>2014-5-11T14:59:4Z</time></trkpt>
<trkpt lat="45.90991443" lon="9.05911686"><ele></ele><time>2014-5-11T14:59:7Z</time></trkpt>
<trkpt lat="45.91014929" lon="9.05947946"><ele></ele><time>2014-5-11T14:59:10Z</time></trkpt>
<trkpt lat="45.91018072" lon="9.05952305"><ele></ele><time>2014-5-11T14:59:13Z</time></trkpt>
<trkpt lat="45.91034149" lon="9.05981725"><ele></ele><time>2014-5-11T14:59:16Z</time></trkpt>
<trkpt lat="45.91044626" lon="9.05998849"><ele></ele><time>2014-5-11T14:59:19Z</time></trkpt>
<trkpt lat="45.91044559" lon="9.05996536"><ele></ele><time>2014-5-11T14:59:22Z</time></trkpt>
<trkpt lat="45.91034124" lon="9.05972974"><ele></ele><time>2014-5-11T14:59:25Z</time></trkpt>
<trkpt lat="45.91025549" lon="9.05940520"><ele></ele><time>2014-5-11T14:59:28Z</time></trkpt>
<trkpt lat="45.91017913" lon="9.05931962"><ele></ele><time>2014-5-11T14:59:31Z</time></trkpt>
<trkpt lat="45.91021777" lon="9.05900178"><ele></ele><time>2014-5-11T14:59:34Z</time></trkpt>
<trkpt lat="45.91022800" lon="9.05894780"><ele></ele><time>2014-5-11T14:59:37Z</time></trkpt>
<trkpt lat="45.91028902" lon="9.05875367"><ele></ele><time>2014-5-11T14:59:40Z</time></trkpt>
<trkpt lat="45.91037937" lon="9.05862442"><ele></ele><time>2014-5-11T14:59:43Z</time></trkpt>
<trkpt lat="45.91055824" lon="9.05837657"><ele></ele><time>2014-5-11T14:59:46Z</time></trkpt>
<trkpt lat="45.91075388" lon="9.05813903"><ele></ele><time>2014-5-11T14:59:49Z</time></trkpt>
<trkpt lat="45.91094649" lon="9.05791255"><ele></ele><time>2014-5-11T14:59:52Z</time></trkpt>
<trkpt lat="45.91101799" lon="9.05783292"><ele></ele><time>2014-5-11T14:59:55Z</time></trkpt>
<trkpt lat="45.91106543" lon="9.05788229"><ele></ele><time>2014-5-11T14:59:58Z</time></trkpt>
<trkpt lat="45.91098698" lon="9.05793233"><ele></ele><time>2014-5-11T15:0:1Z</time></trkpt>
<trkpt lat="45.91090232" lon="9.05812168"><ele></ele><time>2014-5-11T15:0:4Z</time></trkpt>
<trkpt lat="45.91078623" lon="9.05842912"><ele></ele><time>2014-5-11T15:0:7Z</time></trkpt>
<trkpt lat="45.91079813" lon="9.05862316"><ele></ele><time>2014-5-11T15:0:10Z</time></trkpt>
<trkpt lat="45.91075019" lon="9.05892064"><ele></ele><time>2014-5-11T15:0:13Z</time></trkpt>
<trkpt lat="45.91074977" lon="9.05895014"><ele></ele><time>2014-5-11T15:0:16Z</time></trkpt>
<trkpt lat="45.91079696" lon="9.05925558"><ele></ele><time>2014-5-11T15:0:19Z</time></trkpt>
<trkpt lat="45.91085773" lon="9.05952439"><ele></ele><time>2014-5-11T15:0:22Z</time></trkpt>
<trkpt lat="45.91089738" lon="9.05979856"><ele></ele><time>2014-5-11T15:0:25Z</time></trkpt>
<trkpt lat="45.91100969" lon="9.06010056"><ele></ele><time>2014-5-11T15:0:28Z</time></trkpt>
<trkpt lat="45.91108236" lon="9.06017323"><ele></ele><time>2014-5-11T15:0:31Z</time></trkpt>
<trkpt lat="45.91121103" lon="9.06023693"><ele></ele><time>2014-5-11T15:0:34Z</time></trkpt>
<trkpt lat="45.91140842" lon="9.06037683"><ele></ele><time>2014-5-11T15:0:37Z</time></trkpt>
<trkpt lat="45.91155678" lon="9.06057087"><ele></ele><time>2014-5-11T15:0:40Z</time></trkpt>
<trkpt lat="45.91172836" lon="9.06076139"><ele></ele><time>2014-5-11T15:0:43Z</time></trkpt>
<trkpt lat="45.91180933" lon="9.06086097"><ele></ele><time>2014-5-11T15:0:46Z</time></trkpt>
<trkpt lat="45.91184998" lon="9.06096959"><ele></ele><time>2014-5-11T15:0:49Z</time></trkpt>
<trkpt lat="45.91197009" lon="9.06122357"><ele></ele><time>2014-5-11T15:0:52Z</time></trkpt>
<trkpt lat="45.91201670" lon="9.06122969"><ele></ele><time>2014-5-11T15:0:55Z</time></trkpt>
<trkpt lat="45.91199214" lon="9.06120068"><ele></ele><time>2014-5-11T15:0:58Z</time></trkpt>
<trkpt lat="45.91190153" lon="9.06108845"><ele></ele><time>2014-5-11T15:1:1Z</time></trkpt>
<trkpt lat="45.91184177" lon="9.06079165"><ele></ele><time>2014-5-11T15:1:4Z</time></trkpt>
<trkpt lat="45.91179575" lon="9.06054430"><ele></ele><time>2014-5-11T15:1:7Z</time></trkpt>
<trkpt lat="45.91179927" lon="9.06047858"><ele></ele><time>2014-5-11T15:1:10Z</time></trkpt>
<trkpt lat="45.91171956" lon="9.06015186"><ele></ele><time>2014-5-11T15:1:13Z</time></trkpt>
<trkpt lat="45.91165384" lon="9.05994466"><ele></ele><time>2014-5-11T15:1:16Z</time></trkpt>
<trkpt lat="45.91149719" lon="9.05970443"><ele></ele><time>2014-5-11T15:1:19Z</time></trkpt>
<trkpt lat="45.91151604" lon="9.05957686"><ele></ele><time>2014-5-11T15:1:22Z</time></trkpt>
<trkpt lat="45.91149098" lon="9.05931727"><ele></ele><time>2014-5-11T15:1:25Z</time></trkpt>
<trkpt lat="45.91149232" lon="9.05911258"><ele></ele><time>2014-5-11T15:1:28Z</time></trkpt>
<trkpt lat="45.91154228" lon="9.05873733"><ele></ele><time>2014-5-11T15:1:31Z</time></trkpt>
<trkpt lat="45.91166097" lon="9.05858268"><ele></ele><time>2014-5-11T15:1:34Z</time></trkpt>
<trkpt lat="45.91173003" lon="9.05847045"><ele></ele><time>2014-5-11T15:1:37Z</time></trkpt>
<trkpt lat="45.91180623" lon="9.05837355"><ele></ele><time>2014-5-11T15:1:40Z</time></trkpt>
<trkpt lat="45.91181922" lon="9.05834002"><ele></ele><time>2014-5-11T15:1:43Z</time></trkpt>
<trkpt lat="45.91197244" lon="9.05816317"><ele></ele><time>2014-5-11T15:1:46Z</time></trkpt>
<trkpt lat="45.91208383" lon="9.05807356"><ele></ele><time>2014-5-11T15:1:49Z</time></trkpt>
<trkpt lat="45.91220537" lon="9.05789285"><ele></ele><time>2014-5-11T15:1:52Z</time></trkpt>
<trkpt lat="45.91220965" lon="9.05788329"><ele></ele><time>2014-5-11T15:1:55Z</time></trkpt>
<trkpt lat="45.91230889" lon="9.05775002"><ele></ele><time>2014-5-11T15:1:58Z</time></trkpt>
<trkpt lat="45.91231434" lon="9.05773049"><ele></ele><time>2014-5-11T15:2:1Z</time></trkpt>
<trkpt lat="45.91236220" lon="9.05756973"><ele></ele><time>2014-5-11T15:2:4Z</time></trkpt>
<trkpt lat="45.91238692" lon="9.05751659"><ele></ele><time>2014-5-11T15:2:7Z</time></trkpt>
<trkpt lat="45.91237242" lon="9.05743352"><ele></ele><time>2014-5-11T15:2:10Z</time></trkpt>
<trkpt lat="45.91232414" lon="9.05735347"><ele></ele><time>2014-5-11T15:2:13Z</time></trkpt>
<trkpt lat="45.91231392" lon="9.05714627"><ele></ele><time>2014-5-11T15:2:16Z</time></trkpt>
<trkpt lat="45.91240469" lon="9.05691225"><ele></ele><time>2014-5-11T15:2:19Z</time></trkpt>
<trkpt lat="45.91237603" lon="9.05656834"><ele></ele><time>2014-5-11T15:2:22Z</time></trkpt>
<trkpt lat="45.91231182" lon="9.05643054"><ele></ele><time>2014-5-11T15:2:25Z</time></trkpt>
<trkpt lat="45.91224879" lon="9.05642199"><ele></ele><time>2014-5-11T15:2:28Z</time></trkpt>
<trkpt lat="45.91211619" lon="9.05630238"><ele></ele><time>2014-5-11T15:2:31Z</time></trkpt>
<trkpt lat="45.91206917" lon="9.05625989"><ele></ele><time>2014-5-11T15:2:34Z</time></trkpt>
<trkpt lat="45.91202977" lon="9.05625159"><ele></ele><time>2014-5-11T15:2:37Z</time></trkpt>
<trkpt lat="45.91199876" lon="9.05622602"><ele></ele><time>2014-5-11T15:2:40Z</time></trkpt>
<trkpt lat="45.91197789" lon="9.05614975"><ele></ele><time>2014-5-11T15:2:43Z</time></trkpt>
<trkpt lat="45.91196079" lon="9.05606006"><ele></ele><time>2014-5-11T15:2:46Z</time></trkpt>
<trkpt lat="45.91186373" lon="9.05592947"><ele></ele><time>2014-5-11T15:2:49Z</time></trkpt>
<trkpt lat="45.91179944" lon="9.05586510"><ele></ele><time>2014-5-11T15:2:52Z</time></trkpt>
<trkpt lat="45.91179818" lon="9.05584155"><ele></ele><time>2014-5-11T15:2:55Z</time></trkpt>
<trkpt lat="45.91180849" lon="9.05585957"><ele></ele><time>2014-5-11T15:2:58Z</time></trkpt>
<trkpt lat="45.91189608" lon="9.05602754"><ele></ele><time>2014-5-11T15:3:1Z</time></trkpt>
<trkpt lat="45.91195098" lon="9.05601807"><ele></ele><time>2014-5-11T15:3:4Z</time></trkpt>
<trkpt lat="45.91203229" lon="9.05602084"><ele></ele><time>2014-5-11T15:3:7Z</time></trkpt>
<trkpt lat="45.91211929" lon="9.05610113"><ele></ele><time>2014-5-11T15:3:10Z</time></trkpt>
<trkpt lat="45.91221954" lon="9.05621077"><ele></ele><time>2014-5-11T15:3:13Z</time></trkpt>
<trkpt lat="45.91240847" lon="9.05638327"><ele></ele><time>2014-5-11T15:3:16Z</time></trkpt>
<trkpt lat="45.91257753" lon="9.05648662"><ele></ele><time>2014-5-11T15:3:19Z</time></trkpt>
<trkpt lat="45.91272564" lon="9.05664428"><ele></ele><time>2014-5-11T15:3:22Z</time></trkpt>
<trkpt lat="45.91290560" lon="9.05680857"><ele></ele><time>2014-5-11T15:3:25Z</time></trkpt>
<trkpt lat="45.91310366" lon="9.05692373"><ele></ele><time>2014-5-11T15:3:28Z</time></trkpt>
<trkpt lat="45.91327633" lon="9.05706078"><ele></ele><time>2014-5-11T15:3:31Z</time></trkpt>
<trkpt lat="45.91345184" lon="9.05725507"><ele></ele><time>2014-5-11T15:3:34Z</time></trkpt>
<trkpt lat="45.91363658" lon="9.05735674"><ele></ele><time>2014-5-11T15:3:37Z</time></trkpt>
<trkpt lat="45.91376172" lon="9.05746797"><ele></ele><time>2014-5-11T15:3:40Z</time></trkpt>
<trkpt lat="45.91382727" lon="9.05747836"><ele></ele><time>2014-5-11T15:3:43Z</time></trkpt>
<trkpt lat="45.91386532" lon="9.05749706"><ele></ele><time>2014-5-11T15:3:46Z</time></trkpt>
<trkpt lat="45.91393246" lon="9.05754995"><ele></ele><time>2014-5-11T15:3:49Z</time></trkpt>
<trkpt lat="45.91408510" lon="9.05775664"><ele></ele><time>2014-5-11T15:3:52Z</time></trkpt>
<trkpt lat="45.91427042" lon="9.05798907"><ele></ele><time>2014-5-11T15:3:55Z</time></trkpt>
<trkpt lat="45.91447662" lon="9.05818638"><ele></ele><time>2014-5-11T15:3:58Z</time></trkpt>
<trkpt lat="45.91474308" lon="9.05842158"><ele></ele><time>2014-5-11T15:4:1Z</time></trkpt>
<trkpt lat="45.91493812" lon="9.05880815"><ele></ele><time>2014-5-11T15:4:4Z</time></trkpt>
<trkpt lat="45.91502018" lon="9.05903874"><ele></ele><time>2014-5-11T15:4:7Z</time></trkpt>
<trkpt lat="45.91507978" lon="9.05891905"><ele></ele><time>2014-5-11T15:4:10Z</time></trkpt>
<trkpt lat="45.91507525" lon="9.05889256"><ele></ele><time>2014-5-11T15:4:13Z</time></trkpt>
<trkpt lat="45.91510526" lon="9.05843885"><ele></ele><time>2014-5-11T15:4:16Z</time></trkpt>
<trkpt lat="45.91515203" lon="9.05821748"><ele></ele><time>2014-5-11T15:4:19Z</time></trkpt>
<trkpt lat="45.91521255" lon="9.05835419"><ele></ele><time>2014-5-11T15:4:22Z</time></trkpt>
<trkpt lat="45.91519997" lon="9.05850984"><ele></ele><time>2014-5-11T15:4:25Z</time></trkpt>
<trkpt lat="45.91520844" lon="9.05864546"><ele></ele><time>2014-5-11T15:4:28Z</time></trkpt>
<trkpt lat="45.91526217" lon="9.05927268"><ele></ele><time>2014-5-11T15:4:31Z</time></trkpt>
<trkpt lat="45.91529310" lon="9.05971767"><ele></ele><time>2014-5-11T15:4:34Z</time></trkpt>
<trkpt lat="45.91532847" lon="9.05994248"><ele></ele><time>2014-5-11T15:4:37Z</time></trkpt>
<trkpt lat="45.91539066" lon="9.06028479"><ele></ele><time>2014-5-11T15:4:40Z</time></trkpt>
<trkpt lat="45.91528715" lon="9.06035839"><ele></ele><time>2014-5-11T15:4:43Z</time></trkpt>
<trkpt lat="45.91515915" lon="9.06043106"><ele></ele><time>2014-5-11T15:4:46Z</time></trkpt>
<trkpt lat="45.91488079" lon="9.06055653"><ele></ele><time>2014-5-11T15:4:49Z</time></trkpt>
<trkpt lat="45.91457192" lon="9.06055972"><ele></ele><time>2014-5-11T15:4:52Z</time></trkpt>
<trkpt lat="45.91430998" lon="9.06066583"><ele></ele><time>2014-5-11T15:4:55Z</time></trkpt>
<trkpt lat="45.91422005" lon="9.06126497"><ele></ele><time>2014-5-11T15:4:58Z</time></trkpt>
<trkpt lat="45.91415777" lon="9.06156982"><ele></ele><time>2014-5-11T15:5:1Z</time></trkpt>
<trkpt lat="45.91413329" lon="9.06207148"><ele></ele><time>2014-5-11T15:5:4Z</time></trkpt>
<trkpt lat="45.91407764" lon="9.06246342"><ele></ele><time>2014-5-11T15:5:7Z</time></trkpt>
<trkpt lat="45.91403162" lon="9.06291872"><ele></ele><time>2014-5-11T15:5:10Z</time></trkpt>
<trkpt lat="45.91398099" lon="9.06302618"><ele></ele><time>2014-5-11T15:5:13Z</time></trkpt>
<trkpt lat="45.91374865" lon="9.06321075"><ele></ele><time>2014-5-11T15:5:16Z</time></trkpt>
<trkpt lat="45.91368595" lon="9.06327822"><ele></ele><time>2014-5-11T15:5:19Z</time></trkpt>
<trkpt lat="45.91342117" lon="9.06358936"><ele></ele><time>2014-5-11T15:5:22Z</time></trkpt>
<trkpt lat="45.91329703" lon="9.06392212"><ele></ele><time>2014-5-11T15:5:25Z</time></trkpt>
<trkpt lat="45.91318044" lon="9.06431372"><ele></ele><time>2014-5-11T15:5:28Z</time></trkpt>
<trkpt lat="45.91306879" lon="9.06462318"><ele></ele><time>2014-5-11T15:5:31Z</time></trkpt>
<trkpt lat="45.91295932" lon="9.06489694"><ele></ele><time>2014-5-11T15:5:34Z</time></trkpt>
<trkpt lat="45.91292932" lon="9.06512098"><ele></ele><time>2014-5-11T15:5:37Z</time></trkpt>
<trkpt lat="45.91277023" lon="9.06540697"><ele></ele><time>2014-5-11T15:5:40Z</time></trkpt>
<trkpt lat="45.91266286" lon="9.06536775"><ele></ele><time>2014-5-11T15:5:43Z</time></trkpt>
<trkpt lat="45.91220504" lon="9.06517387"><ele></ele><time>2014-5-11T15:5:46Z</time></trkpt>
<trkpt lat="45.91175250" lon="9.06514387"><ele></ele><time>2014-5-11T15:5:49Z</time></trkpt>
<trkpt lat="45.91124229" lon="9.06507354"><ele></ele><time>2014-5-11T15:5:52Z</time></trkpt>
<trkpt lat="45.91069629" lon="9.06522660"><ele></ele><time>2014-5-11T15:5:55Z</time></trkpt>
<trkpt lat="45.91037845" lon="9.06563823"><ele></ele><time>2014-5-11T15:5:58Z</time></trkpt>
<trkpt lat="45.90989876" lon="9.06564762"><ele></ele><time>2014-5-11T15:6:1Z</time></trkpt>
<trkpt lat="45.90944186" lon="9.06557034"><ele></ele><time>2014-5-11T15:6:4Z</time></trkpt>
<trkpt lat="45.90936734" lon="9.06554930"><ele></ele><time>2014-5-11T15:6:7Z</time></trkpt>
<trkpt lat="45.90902628" lon="9.06545458"><ele></ele><time>2014-5-11T15:6:10Z</time></trkpt>
<trkpt lat="45.90872940" lon="9.06537579"><ele></ele><time>2014-5-11T15:6:13Z</time></trkpt>
<trkpt lat="45.90839295" lon="9.06525769"><ele></ele><time>2014-5-11T15:6:16Z</time></trkpt>
<trkpt lat="45.90807544" lon="9.06508176"><ele></ele><time>2014-5-11T15:6:19Z</time></trkpt>
<trkpt lat="45.90778677" lon="9.06490305"><ele></ele><time>2014-5-11T15:6:22Z</time></trkpt>
<trkpt lat="45.90775215" lon="9.06487782"><ele></ele><time>2014-5-11T15:6:25Z</time></trkpt>
<trkpt lat="45.90739793" lon="9.06478772"><ele></ele><time>2014-5-11T15:6:28Z</time></trkpt>
<trkpt lat="45.90715108" lon="9.06472234"><ele></ele><time>2014-5-11T15:6:31Z</time></trkpt>
<trkpt lat="45.90711144" lon="9.06470792"><ele></ele><time>2014-5-11T15:6:34Z</time></trkpt>
<trkpt lat="45.90677943" lon="9.06459888"><ele></ele><time>2014-5-11T15:6:37Z</time></trkpt>
<trkpt lat="45.90680969" lon="9.06467750"><ele></ele><time>2014-5-11T15:6:40Z</time></trkpt>
<trkpt lat="45.90684716" lon="9.06469929"><ele></ele><time>2014-5-11T15:6:43Z</time></trkpt>
<trkpt lat="45.90686912" lon="9.06471153"><ele></ele><time>2014-5-11T15:6:46Z</time></trkpt>
<trkpt lat="45.90689083" lon="9.06473240"><ele></ele><time>2014-5-11T15:6:49Z</time></trkpt>
<trkpt lat="45.90711035" lon="9.06486659"><ele></ele><time>2014-5-11T15:6:52Z</time></trkpt>
<trkpt lat="45.90716433" lon="9.06489652"><ele></ele><time>2014-5-11T15:6:55Z</time></trkpt>
<trkpt lat="45.90741956" lon="9.06499308"><ele></ele><time>2014-5-11T15:6:58Z</time></trkpt>
<trkpt lat="45.90773815" lon="9.06517496"><ele></ele><time>2014-5-11T15:7:1Z</time></trkpt>
<trkpt lat="45.90810168" lon="9.06546540"><ele></ele><time>2014-5-11T15:7:4Z</time></trkpt>
<trkpt lat="45.90831072" lon="9.06565290"><ele></ele><time>2014-5-11T15:7:7Z</time></trkpt>
<trkpt lat="45.90840150" lon="9.06574669"><ele></ele><time>2014-5-11T15:7:10Z</time></trkpt>
<trkpt lat="45.90848909" lon="9.06588533"><ele></ele><time>2014-5-11T15:7:13Z</time></trkpt>
<trkpt lat="45.90849856" lon="9.06589396"><ele></ele><time>2014-5-11T15:7:16Z</time></trkpt>
<trkpt lat="45.90870903" lon="9.06599748"><ele></ele><time>2014-5-11T15:7:19Z</time></trkpt>
<trkpt lat="45.90882629" lon="9.06608306"><ele></ele><time>2014-5-11T15:7:22Z</time></trkpt>
<trkpt lat="45.90896443" lon="9.06618146"><ele></ele><time>2014-5-11T15:7:25Z</time></trkpt>
<trkpt lat="45.90906484" lon="9.06635078"><ele></ele><time>2014-5-11T15:7:28Z</time></trkpt>
<trkpt lat="45.90912712" lon="9.06640467"><ele></ele><time>2014-5-11T15:7:31Z</time></trkpt>
<trkpt lat="45.90918588" lon="9.06649034"><ele></ele><time>2014-5-11T15:7:34Z</time></trkpt>
<trkpt lat="45.90925519" lon="9.06655379"><ele></ele><time>2014-5-11T15:7:37Z</time></trkpt>
<trkpt lat="45.90933256" lon="9.06662394"><ele></ele><time>2014-5-11T15:7:40Z</time></trkpt>
<trkpt lat="45.90941093" lon="9.06674213"><ele></ele><time>2014-5-11T15:7:43Z</time></trkpt>
<trkpt lat="45.90947824" lon="9.06681170"><ele></ele><time>2014-5-11T15:7:46Z</time></trkpt>
<trkpt lat="45.90958117" lon="9.06686115"><ele></ele><time>2014-5-11T15:7:49Z</time></trkpt>
<trkpt lat="45.90967705" lon="9.06693843"><ele></ele><time>2014-5-11T15:7:52Z</time></trkpt>
<trkpt lat="45.90974897" lon="9.06700063"><ele></ele><time>2014-5-11T15:7:55Z</time></trkpt>
<trkpt lat="45.90981024" lon="9.06706466"><ele></ele><time>2014-5-11T15:7:58Z</time></trkpt>
<trkpt lat="45.90989658" lon="9.06715100"><ele></ele><time>2014-5-11T15:8:1Z</time></trkpt>
<trkpt lat="45.90994628" lon="9.06720355"><ele></ele><time>2014-5-11T15:8:4Z</time></trkpt>
<trkpt lat="45.90997755" lon="9.06723272"><ele></ele><time>2014-5-11T15:8:7Z</time></trkpt>
<trkpt lat="45.91004360" lon="9.06728444"><ele></ele><time>2014-5-11T15:8:10Z</time></trkpt>
<trkpt lat="45.91012398" lon="9.06734420"><ele></ele><time>2014-5-11T15:8:13Z</time></trkpt>
<trkpt lat="45.91017997" lon="9.06740254"><ele></ele><time>2014-5-11T15:8:16Z</time></trkpt>
<trkpt lat="45.91022749" lon="9.06744855"><ele></ele><time>2014-5-11T15:8:19Z</time></trkpt>
<trkpt lat="45.91027888" lon="9.06749549"><ele></ele><time>2014-5-11T15:8:22Z</time></trkpt>
<trkpt lat="45.91033378" lon="9.06754914"><ele></ele><time>2014-5-11T15:8:25Z</time></trkpt>
<trkpt lat="45.91040326" lon="9.06762030"><ele></ele><time>2014-5-11T15:8:28Z</time></trkpt>
<trkpt lat="45.91044232" lon="9.06766816"><ele></ele><time>2014-5-11T15:8:31Z</time></trkpt>
<trkpt lat="45.91052187" lon="9.06773446"><ele></ele><time>2014-5-11T15:8:34Z</time></trkpt>
<trkpt lat="45.91058976" lon="9.06777218"><ele></ele><time>2014-5-11T15:8:37Z</time></trkpt>
<trkpt lat="45.91066444" lon="9.06781702"><ele></ele><time>2014-5-11T15:8:40Z</time></trkpt>
<trkpt lat="45.91067785" lon="9.06783178"><ele></ele><time>2014-5-11T15:8:43Z</time></trkpt>
<trkpt lat="45.91081356" lon="9.06780839"><ele></ele><time>2014-5-11T15:8:46Z</time></trkpt>
<trkpt lat="45.91102017" lon="9.06777293"><ele></ele><time>2014-5-11T15:8:49Z</time></trkpt>
<trkpt lat="45.91121145" lon="9.06776975"><ele></ele><time>2014-5-11T15:8:52Z</time></trkpt>
<trkpt lat="45.91150138" lon="9.06785399"><ele></ele><time>2014-5-11T15:8:55Z</time></trkpt>
<trkpt lat="45.91164839" lon="9.06790487"><ele></ele><time>2014-5-11T15:8:58Z</time></trkpt>
<trkpt lat="45.91192433" lon="9.06797242"><ele></ele><time>2014-5-11T15:9:1Z</time></trkpt>
<trkpt lat="45.91226212" lon="9.06818038"><ele></ele><time>2014-5-11T15:9:4Z</time></trkpt>
<trkpt lat="45.91227285" lon="9.06818482"><ele></ele><time>2014-5-11T15:9:7Z</time></trkpt>
<trkpt lat="45.91233118" lon="9.06820318"><ele></ele><time>2014-5-11T15:9:10Z</time></trkpt>
<trkpt lat="45.91234376" lon="9.06820938"><ele></ele><time>2014-5-11T15:9:13Z</time></trkpt>
<trkpt lat="45.91240654" lon="9.06826068"><ele></ele><time>2014-5-11T15:9:16Z</time></trkpt>
<trkpt lat="45.91246655" lon="9.06829856"><ele></ele><time>2014-5-11T15:9:19Z</time></trkpt>
<trkpt lat="45.91249798" lon="9.06832187"><ele></ele><time>2014-5-11T15:9:22Z</time></trkpt>
<trkpt lat="45.91259136" lon="9.06837358"><ele></ele><time>2014-5-11T15:9:25Z</time></trkpt>
<trkpt lat="45.91267082" lon="9.06839588"><ele></ele><time>2014-5-11T15:9:28Z</time></trkpt>
<trkpt lat="45.91279135" lon="9.06848447"><ele></ele><time>2014-5-11T15:9:31Z</time></trkpt>
<trkpt lat="45.91284667" lon="9.06862764"><ele></ele><time>2014-5-11T15:9:34Z</time></trkpt>
<trkpt lat="45.91284298" lon="9.06865924"><ele></ele><time>2014-5-11T15:9:37Z</time></trkpt>
<trkpt lat="45.91282882" lon="9.06884624"><ele></ele><time>2014-5-11T15:9:40Z</time></trkpt>
<trkpt lat="45.91282966" lon="9.06886065"><ele></ele><time>2014-5-11T15:9:43Z</time></trkpt>
<trkpt lat="45.91283544" lon="9.06892268"><ele></ele><time>2014-5-11T15:9:46Z</time></trkpt>
<trkpt lat="45.91288766" lon="9.06899778"><ele></ele><time>2014-5-11T15:9:49Z</time></trkpt>
<trkpt lat="45.91290124" lon="9.06904782"><ele></ele><time>2014-5-11T15:9:52Z</time></trkpt>
<trkpt lat="45.91291272" lon="9.06943012"><ele></ele><time>2014-5-11T15:9:55Z</time></trkpt>
<trkpt lat="45.91291180" lon="9.06948636"><ele></ele><time>2014-5-11T15:9:58Z</time></trkpt>
<trkpt lat="45.91294373" lon="9.06983480"><ele></ele><time>2014-5-11T15:10:1Z</time></trkpt>
<trkpt lat="45.91304993" lon="9.07016790"><ele></ele><time>2014-5-11T15:10:4Z</time></trkpt>
<trkpt lat="45.91316309" lon="9.07038817"><ele></ele><time>2014-5-11T15:10:7Z</time></trkpt>
<trkpt lat="45.91320072" lon="9.07051776"><ele></ele><time>2014-5-11T15:10:10Z</time></trkpt>
<trkpt lat="45.91320114" lon="9.07069067"><ele></ele><time>2014-5-11T15:10:13Z</time></trkpt>
<trkpt lat="45.91320106" lon="9.07083116"><ele></ele><time>2014-5-11T15:10:16Z</time></trkpt>
<trkpt lat="45.91321816" lon="9.07097004"><ele></ele><time>2014-5-11T15:10:19Z</time></trkpt>
<trkpt lat="45.91325286" lon="9.07119468"><ele></ele><time>2014-5-11T15:10:22Z</time></trkpt>
<trkpt lat="45.91336828" lon="9.07174109"><ele></ele><time>2014-5-11T15:10:25Z</time></trkpt>
<trkpt lat="45.91340549" lon="9.07196254"><ele></ele><time>2014-5-11T15:10:28Z</time></trkpt>
<trkpt lat="45.91341102" lon="9.07202667"><ele></ele><time>2014-5-11T15:10:31Z</time></trkpt>
<trkpt lat="45.91342167" lon="9.07216094"><ele></ele><time>2014-5-11T15:10:34Z</time></trkpt>
<trkpt lat="45.91342343" lon="9.07219590"><ele></ele><time>2014-5-11T15:10:37Z</time></trkpt>
<trkpt lat="45.91338705" lon="9.07230939"><ele></ele><time>2014-5-11T15:10:40Z</time></trkpt>
<trkpt lat="45.91329318" lon="9.07243595"><ele></ele><time>2014-5-11T15:10:43Z</time></trkpt>
<trkpt lat="45.91319494" lon="9.07266889"><ele></ele><time>2014-5-11T15:10:46Z</time></trkpt>
<trkpt lat="45.91317189" lon="9.07273066"><ele></ele><time>2014-5-11T15:10:49Z</time></trkpt>
<trkpt lat="45.91313375" lon="9.07285455"><ele></ele><time>2014-5-11T15:10:52Z</time></trkpt>
<trkpt lat="45.91309369" lon="9.07297323"><ele></ele><time>2014-5-11T15:10:55Z</time></trkpt>
<trkpt lat="45.91307567" lon="9.07343038"><ele></ele><time>2014-5-11T15:10:58Z</time></trkpt>
<trkpt lat="45.91309503" lon="9.07357648"><ele></ele><time>2014-5-11T15:11:1Z</time></trkpt>
<trkpt lat="45.91311179" lon="9.07372409"><ele></ele><time>2014-5-11T15:11:4Z</time></trkpt>
<trkpt lat="45.91307315" lon="9.07426204"><ele></ele><time>2014-5-11T15:11:7Z</time></trkpt>
<trkpt lat="45.91312168" lon="9.07459069"><ele></ele><time>2014-5-11T15:11:10Z</time></trkpt>
<trkpt lat="45.91320215" lon="9.07543123"><ele></ele><time>2014-5-11T15:11:13Z</time></trkpt>
<trkpt lat="45.91323199" lon="9.07568729"><ele></ele><time>2014-5-11T15:11:16Z</time></trkpt>
<trkpt lat="45.91327893" lon="9.07602198"><ele></ele><time>2014-5-11T15:11:19Z</time></trkpt>
<trkpt lat="45.91328823" lon="9.07618334"><ele></ele><time>2014-5-11T15:11:22Z</time></trkpt>
<trkpt lat="45.91340943" lon="9.07659547"><ele></ele><time>2014-5-11T15:11:25Z</time></trkpt>
<trkpt lat="45.91367866" lon="9.07694014"><ele></ele><time>2014-5-11T15:11:28Z</time></trkpt>
<trkpt lat="45.91373473" lon="9.07705698"><ele></ele><time>2014-5-11T15:11:31Z</time></trkpt>
<trkpt lat="45.91383037" lon="9.07723292"><ele></ele><time>2014-5-11T15:11:34Z</time></trkpt>
<trkpt lat="45.91410605" lon="9.07745252"><ele></ele><time>2014-5-11T15:11:37Z</time></trkpt>
<trkpt lat="45.91427612" lon="9.07801168"><ele></ele><time>2014-5-11T15:11:40Z</time></trkpt>
<trkpt lat="45.91428123" lon="9.07829449"><ele></ele><time>2014-5-11T15:11:43Z</time></trkpt>
<trkpt lat="45.91429917" lon="9.07858148"><ele></ele><time>2014-5-11T15:11:46Z</time></trkpt>
<trkpt lat="45.91430755" lon="9.07897107"><ele></ele><time>2014-5-11T15:11:49Z</time></trkpt>
<trkpt lat="45.91453630" lon="9.07982326"><ele></ele><time>2014-5-11T15:11:52Z</time></trkpt>
<trkpt lat="45.91459044" lon="9.08001202"><ele></ele><time>2014-5-11T15:11:55Z</time></trkpt>
<trkpt lat="45.91469052" lon="9.08027689"><ele></ele><time>2014-5-11T15:11:58Z</time></trkpt>
<trkpt lat="45.91485732" lon="9.08061166"><ele></ele><time>2014-5-11T15:12:1Z</time></trkpt>
<trkpt lat="45.91513476" lon="9.08099446"><ele></ele><time>2014-5-11T15:12:4Z</time></trkpt>
<trkpt lat="45.91529402" lon="9.08137727"><ele></ele><time>2014-5-11T15:12:7Z</time></trkpt>
<trkpt lat="45.91522604" lon="9.08177239"><ele></ele><time>2014-5-11T15:12:10Z</time></trkpt>
<trkpt lat="45.91516896" lon="9.08175034"><ele></ele><time>2014-5-11T15:12:13Z</time></trkpt>
<trkpt lat="45.91509545" lon="9.08174942"><ele></ele><time>2014-5-11T15:12:16Z</time></trkpt>
<trkpt lat="45.91486009" lon="9.08183492"><ele></ele><time>2014-5-11T15:12:19Z</time></trkpt>
<trkpt lat="45.91484693" lon="9.08184447"><ele></ele><time>2014-5-11T15:12:22Z</time></trkpt>
<trkpt lat="45.91464979" lon="9.08196584"><ele></ele><time>2014-5-11T15:12:25Z</time></trkpt>
<trkpt lat="45.91446958" lon="9.08202955"><ele></ele><time>2014-5-11T15:12:28Z</time></trkpt>
<trkpt lat="45.91434100" lon="9.08210532"><ele></ele><time>2014-5-11T15:12:31Z</time></trkpt>
<trkpt lat="45.91424628" lon="9.08216248"><ele></ele><time>2014-5-11T15:12:34Z</time></trkpt>
<trkpt lat="45.91405719" lon="9.08229366"><ele></ele><time>2014-5-11T15:12:37Z</time></trkpt>
<trkpt lat="45.91404595" lon="9.08231939"><ele></ele><time>2014-5-11T15:12:40Z</time></trkpt>
<trkpt lat="45.91397856" lon="9.08241402"><ele></ele><time>2014-5-11T15:12:43Z</time></trkpt>
<trkpt lat="45.91382786" lon="9.08260387"><ele></ele><time>2014-5-11T15:12:46Z</time></trkpt>
<trkpt lat="45.91375192" lon="9.08277109"><ele></ele><time>2014-5-11T15:12:49Z</time></trkpt>
<trkpt lat="45.91371529" lon="9.08281116"><ele></ele><time>2014-5-11T15:12:52Z</time></trkpt>
<trkpt lat="45.91366726" lon="9.08292457"><ele></ele><time>2014-5-11T15:12:55Z</time></trkpt>
<trkpt lat="45.91366667" lon="9.08297427"><ele></ele><time>2014-5-11T15:12:58Z</time></trkpt>
<trkpt lat="45.91360180" lon="9.08302473"><ele></ele><time>2014-5-11T15:13:1Z</time></trkpt>
<trkpt lat="45.91346132" lon="9.08311383"><ele></ele><time>2014-5-11T15:13:4Z</time></trkpt>
<trkpt lat="45.91330709" lon="9.08330569"><ele></ele><time>2014-5-11T15:13:7Z</time></trkpt>
<trkpt lat="45.91311783" lon="9.08349889"><ele></ele><time>2014-5-11T15:13:10Z</time></trkpt>
<trkpt lat="45.91300786" lon="9.08360643"><ele></ele><time>2014-5-11T15:13:13Z</time></trkpt>
<trkpt lat="45.91278339" lon="9.08379922"><ele></ele><time>2014-5-11T15:13:16Z</time></trkpt>
<trkpt lat="45.91275305" lon="9.08385538"><ele></ele><time>2014-5-11T15:13:19Z</time></trkpt>
<trkpt lat="45.91269387" lon="9.08396820"><ele></ele><time>2014-5-11T15:13:22Z</time></trkpt>
<trkpt lat="45.91264467" lon="9.08403257"><ele></ele><time>2014-5-11T15:13:25Z</time></trkpt>
<trkpt lat="45.91262447" lon="9.08434924"><ele></ele><time>2014-5-11T15:13:28Z</time></trkpt>
<trkpt lat="45.91259354" lon="9.08445938"><ele></ele><time>2014-5-11T15:13:31Z</time></trkpt>
<trkpt lat="45.91255045" lon="9.08452953"><ele></ele><time>2014-5-11T15:13:34Z</time></trkpt>
<trkpt lat="45.91252338" lon="9.08464269"><ele></ele><time>2014-5-11T15:13:37Z</time></trkpt>
<trkpt lat="45.91248072" lon="9.08483975"><ele></ele><time>2014-5-11T15:13:40Z</time></trkpt>
<trkpt lat="45.91239857" lon="9.08496447"><ele></ele><time>2014-5-11T15:13:43Z</time></trkpt>
<trkpt lat="45.91237678" lon="9.08499355"><ele></ele><time>2014-5-11T15:13:46Z</time></trkpt>
<trkpt lat="45.91235558" lon="9.08521257"><ele></ele><time>2014-5-11T15:13:49Z</time></trkpt>
<trkpt lat="45.91233118" lon="9.08547912"><ele></ele><time>2014-5-11T15:13:52Z</time></trkpt>
<trkpt lat="45.91235214" lon="9.08583107"><ele></ele><time>2014-5-11T15:13:55Z</time></trkpt>
<trkpt lat="45.91238827" lon="9.08613710"><ele></ele><time>2014-5-11T15:13:58Z</time></trkpt>
<trkpt lat="45.91249195" lon="9.08649987"><ele></ele><time>2014-5-11T15:14:1Z</time></trkpt>
<trkpt lat="45.91249480" lon="9.08659425"><ele></ele><time>2014-5-11T15:14:4Z</time></trkpt>
<trkpt lat="45.91223949" lon="9.08687722"><ele></ele><time>2014-5-11T15:14:7Z</time></trkpt>
<trkpt lat="45.91213396" lon="9.08704352"><ele></ele><time>2014-5-11T15:14:10Z</time></trkpt>
<trkpt lat="45.91206162" lon="9.08719607"><ele></ele><time>2014-5-11T15:14:13Z</time></trkpt>
<trkpt lat="45.91179726" lon="9.08776243"><ele></ele><time>2014-5-11T15:14:16Z</time></trkpt>
<trkpt lat="45.91176574" lon="9.08782488"><ele></ele><time>2014-5-11T15:14:19Z</time></trkpt>
<trkpt lat="45.91165552" lon="9.08826686"><ele></ele><time>2014-5-11T15:14:22Z</time></trkpt>
<trkpt lat="45.91163817" lon="9.08872325"><ele></ele><time>2014-5-11T15:14:25Z</time></trkpt>
<trkpt lat="45.91166658" lon="9.08922348"><ele></ele><time>2014-5-11T15:14:28Z</time></trkpt>
<trkpt lat="45.91166424" lon="9.08929615"><ele></ele><time>2014-5-11T15:14:31Z</time></trkpt>
<trkpt lat="45.91161847" lon="9.08963118"><ele></ele><time>2014-5-11T15:14:34Z</time></trkpt>
<trkpt lat="45.91146039" lon="9.08985103"><ele></ele><time>2014-5-11T15:14:37Z</time></trkpt>
<trkpt lat="45.91121237" lon="9.09013728"><ele></ele><time>2014-5-11T15:14:40Z</time></trkpt>
<trkpt lat="45.91115956" lon="9.09017860"><ele></ele><time>2014-5-11T15:14:43Z</time></trkpt>
<trkpt lat="45.91111572" lon="9.09021506"><ele></ele><time>2014-5-11T15:14:46Z</time></trkpt>
<trkpt lat="45.91101883" lon="9.09030282"><ele></ele><time>2014-5-11T15:14:49Z</time></trkpt>
<trkpt lat="45.91093526" lon="9.09035395"><ele></ele><time>2014-5-11T15:14:52Z</time></trkpt>
<trkpt lat="45.91076578" lon="9.09044087"><ele></ele><time>2014-5-11T15:14:55Z</time></trkpt>
<trkpt lat="45.91069219" lon="9.09047096"><ele></ele><time>2014-5-11T15:14:58Z</time></trkpt>
<trkpt lat="45.91062052" lon="9.09049912"><ele></ele><time>2014-5-11T15:15:1Z</time></trkpt>
<trkpt lat="45.91033378" lon="9.09060616"><ele></ele><time>2014-5-11T15:15:4Z</time></trkpt>
<trkpt lat="45.91016790" lon="9.09076223"><ele></ele><time>2014-5-11T15:15:7Z</time></trkpt>
<trkpt lat="45.91005759" lon="9.09087572"><ele></ele><time>2014-5-11T15:15:10Z</time></trkpt>
<trkpt lat="45.90993698" lon="9.09099315"><ele></ele><time>2014-5-11T15:15:13Z</time></trkpt>
<trkpt lat="45.90983438" lon="9.09108980"><ele></ele><time>2014-5-11T15:15:16Z</time></trkpt>
<trkpt lat="45.90967789" lon="9.09132633"><ele></ele><time>2014-5-11T15:15:19Z</time></trkpt>
<trkpt lat="45.90959969" lon="9.09145810"><ele></ele><time>2014-5-11T15:15:22Z</time></trkpt>
<trkpt lat="45.90944353" lon="9.09174518"><ele></ele><time>2014-5-11T15:15:25Z</time></trkpt>
<trkpt lat="45.90931437" lon="9.09206193"><ele></ele><time>2014-5-11T15:15:28Z</time></trkpt>
<trkpt lat="45.90922628" lon="9.09224516"><ele></ele><time>2014-5-11T15:15:31Z</time></trkpt>
<trkpt lat="45.90906224" lon="9.09255646"><ele></ele><time>2014-5-11T15:15:34Z</time></trkpt>
<trkpt lat="45.90893970" lon="9.09281085"><ele></ele><time>2014-5-11T15:15:37Z</time></trkpt>
<trkpt lat="45.90886175" lon="9.09296810"><ele></ele><time>2014-5-11T15:15:40Z</time></trkpt>
<trkpt lat="45.90878983" lon="9.09319365"><ele></ele><time>2014-5-11T15:15:43Z</time></trkpt>
<trkpt lat="45.90869335" lon="9.09335040"><ele></ele><time>2014-5-11T15:15:46Z</time></trkpt>
<trkpt lat="45.90854726" lon="9.09342240"><ele></ele><time>2014-5-11T15:15:49Z</time></trkpt>
<trkpt lat="45.90842664" lon="9.09352323"><ele></ele><time>2014-5-11T15:15:52Z</time></trkpt>
<trkpt lat="45.90826797" lon="9.09369833"><ele></ele><time>2014-5-11T15:15:55Z</time></trkpt>
<trkpt lat="45.90819295" lon="9.09381517"><ele></ele><time>2014-5-11T15:15:58Z</time></trkpt>
<trkpt lat="45.90795784" lon="9.09409429"><ele></ele><time>2014-5-11T15:16:1Z</time></trkpt>
<trkpt lat="45.90767328" lon="9.09440903"><ele></ele><time>2014-5-11T15:16:4Z</time></trkpt>
<trkpt lat="45.90752928" lon="9.09451003"><ele></ele><time>2014-5-11T15:16:7Z</time></trkpt>
<trkpt lat="45.90736608" lon="9.09467616"><ele></ele><time>2014-5-11T15:16:10Z</time></trkpt>
<trkpt lat="45.90709040" lon="9.09487976"><ele></ele><time>2014-5-11T15:16:13Z</time></trkpt>
<trkpt lat="45.90694799" lon="9.09505670"><ele></ele><time>2014-5-11T15:16:16Z</time></trkpt>
<trkpt lat="45.90678848" lon="9.09554645"><ele></ele><time>2014-5-11T15:16:19Z</time></trkpt>
<trkpt lat="45.90665488" lon="9.09607460"><ele></ele><time>2014-5-11T15:16:22Z</time></trkpt>
<trkpt lat="45.90669058" lon="9.09646260"><ele></ele><time>2014-5-11T15:16:25Z</time></trkpt>
<trkpt lat="45.90671858" lon="9.09658397"><ele></ele><time>2014-5-11T15:16:28Z</time></trkpt>
<trkpt lat="45.90687188" lon="9.09714036"><ele></ele><time>2014-5-11T15:16:31Z</time></trkpt>
<trkpt lat="45.90691153" lon="9.09729903"><ele></ele><time>2014-5-11T15:16:34Z</time></trkpt>
<trkpt lat="45.90694212" lon="9.09747848"><ele></ele><time>2014-5-11T15:16:37Z</time></trkpt>
<trkpt lat="45.90701714" lon="9.09761838"><ele></ele><time>2014-5-11T15:16:40Z</time></trkpt>
<trkpt lat="45.90702779" lon="9.09763883"><ele></ele><time>2014-5-11T15:16:43Z</time></trkpt>
<trkpt lat="45.90704774" lon="9.09789079"><ele></ele><time>2014-5-11T15:16:46Z</time></trkpt>
<trkpt lat="45.90708738" lon="9.09803839"><ele></ele><time>2014-5-11T15:16:49Z</time></trkpt>
<trkpt lat="45.90707104" lon="9.09811215"><ele></ele><time>2014-5-11T15:16:52Z</time></trkpt>
<trkpt lat="45.90705545" lon="9.09821584"><ele></ele><time>2014-5-11T15:16:55Z</time></trkpt>
<trkpt lat="45.90694305" lon="9.09882998"><ele></ele><time>2014-5-11T15:16:58Z</time></trkpt>
<trkpt lat="45.90695897" lon="9.09922753"><ele></ele><time>2014-5-11T15:17:1Z</time></trkpt>
<trkpt lat="45.90687834" lon="9.09962400"><ele></ele><time>2014-5-11T15:17:4Z</time></trkpt>
<trkpt lat="45.90663903" lon="9.10039497"><ele></ele><time>2014-5-11T15:17:7Z</time></trkpt>
<trkpt lat="45.90644784" lon="9.10075489"><ele></ele><time>2014-5-11T15:17:10Z</time></trkpt>
<trkpt lat="45.90632136" lon="9.10100156"><ele></ele><time>2014-5-11T15:17:13Z</time></trkpt>
<trkpt lat="45.90627928" lon="9.10107264"><ele></ele><time>2014-5-11T15:17:16Z</time></trkpt>
<trkpt lat="45.90621768" lon="9.10118379"><ele></ele><time>2014-5-11T15:17:19Z</time></trkpt>
<trkpt lat="45.90579548" lon="9.10159090"><ele></ele><time>2014-5-11T15:17:22Z</time></trkpt>
<trkpt lat="45.90565148" lon="9.10176734"><ele></ele><time>2014-5-11T15:17:25Z</time></trkpt>
<trkpt lat="45.90553958" lon="9.10194344"><ele></ele><time>2014-5-11T15:17:28Z</time></trkpt>
<trkpt lat="45.90552927" lon="9.10196473"><ele></ele><time>2014-5-11T15:17:31Z</time></trkpt>
<trkpt lat="45.90551267" lon="9.10199239"><ele></ele><time>2014-5-11T15:17:34Z</time></trkpt>
<trkpt lat="45.90526239" lon="9.10226824"><ele></ele><time>2014-5-11T15:17:37Z</time></trkpt>
<trkpt lat="45.90518938" lon="9.10238659"><ele></ele><time>2014-5-11T15:17:40Z</time></trkpt>
<trkpt lat="45.90508813" lon="9.10264526"><ele></ele><time>2014-5-11T15:17:43Z</time></trkpt>
<trkpt lat="45.90502208" lon="9.10275456"><ele></ele><time>2014-5-11T15:17:46Z</time></trkpt>
<trkpt lat="45.90488437" lon="9.10292957"><ele></ele><time>2014-5-11T15:17:49Z</time></trkpt>
<trkpt lat="45.90465722" lon="9.10308120"><ele></ele><time>2014-5-11T15:17:52Z</time></trkpt>
<trkpt lat="45.90442806" lon="9.10322227"><ele></ele><time>2014-5-11T15:17:55Z</time></trkpt>
<trkpt lat="45.90424835" lon="9.10328119"><ele></ele><time>2014-5-11T15:17:58Z</time></trkpt>
<trkpt lat="45.90421876" lon="9.10327675"><ele></ele><time>2014-5-11T15:18:1Z</time></trkpt>
<trkpt lat="45.90407065" lon="9.10329787"><ele></ele><time>2014-5-11T15:18:4Z</time></trkpt>
<trkpt lat="45.90393377" lon="9.10329728"><ele></ele><time>2014-5-11T15:18:7Z</time></trkpt>
<trkpt lat="45.90384459" lon="9.10328697"><ele></ele><time>2014-5-11T15:18:10Z</time></trkpt>
<trkpt lat="45.90359456" lon="9.10326602"><ele></ele><time>2014-5-11T15:18:13Z</time></trkpt>
<trkpt lat="45.90338878" lon="9.10311498"><ele></ele><time>2014-5-11T15:18:16Z</time></trkpt>
<trkpt lat="45.90330413" lon="9.10291985"><ele></ele><time>2014-5-11T15:18:19Z</time></trkpt>
<trkpt lat="45.90318779" lon="9.10264920"><ele></ele><time>2014-5-11T15:18:22Z</time></trkpt>
<trkpt lat="45.90304563" lon="9.10236773"><ele></ele><time>2014-5-11T15:18:25Z</time></trkpt>
<trkpt lat="45.90300657" lon="9.10230839"><ele></ele><time>2014-5-11T15:18:28Z</time></trkpt>
<trkpt lat="45.90295888" lon="9.10225399"><ele></ele><time>2014-5-11T15:18:31Z</time></trkpt>
<trkpt lat="45.90275972" lon="9.10201619"><ele></ele><time>2014-5-11T15:18:34Z</time></trkpt>
<trkpt lat="45.90262184" lon="9.10200999"><ele></ele><time>2014-5-11T15:18:37Z</time></trkpt>
<trkpt lat="45.90254984" lon="9.10215165"><ele></ele><time>2014-5-11T15:18:40Z</time></trkpt>
<trkpt lat="45.90230442" lon="9.10249120"><ele></ele><time>2014-5-11T15:18:43Z</time></trkpt>
<trkpt lat="45.90201734" lon="9.10277593"><ele></ele><time>2014-5-11T15:18:46Z</time></trkpt>
<trkpt lat="45.90173176" lon="9.10307634"><ele></ele><time>2014-5-11T15:18:49Z</time></trkpt>
<trkpt lat="45.90147779" lon="9.10337867"><ele></ele><time>2014-5-11T15:18:52Z</time></trkpt>
<trkpt lat="45.90130915" lon="9.10376013"><ele></ele><time>2014-5-11T15:18:55Z</time></trkpt>
<trkpt lat="45.90108770" lon="9.10417059"><ele></ele><time>2014-5-11T15:18:58Z</time></trkpt>
<trkpt lat="45.90086667" lon="9.10446337"><ele></ele><time>2014-5-11T15:19:1Z</time></trkpt>
<trkpt lat="45.90066902" lon="9.10457779"><ele></ele><time>2014-5-11T15:19:4Z</time></trkpt>
<trkpt lat="45.90063483" lon="9.10458952"><ele></ele><time>2014-5-11T15:19:7Z</time></trkpt>
<trkpt lat="45.90053039" lon="9.10463437"><ele></ele><time>2014-5-11T15:19:10Z</time></trkpt>
<trkpt lat="45.90044087" lon="9.10466496"><ele></ele><time>2014-5-11T15:19:13Z</time></trkpt>
<trkpt lat="45.90032830" lon="9.10468776"><ele></ele><time>2014-5-11T15:19:16Z</time></trkpt>
<trkpt lat="45.90030139" lon="9.10468474"><ele></ele><time>2014-5-11T15:19:19Z</time></trkpt>
<trkpt lat="45.90026359" lon="9.10469689"><ele></ele><time>2014-5-11T15:19:22Z</time></trkpt>
<trkpt lat="45.90016603" lon="9.10470494"><ele></ele><time>2014-5-11T15:19:25Z</time></trkpt>
<trkpt lat="45.90014557" lon="9.10472087"><ele></ele><time>2014-5-11T15:19:28Z</time></trkpt>
<trkpt lat="45.90012512" lon="9.10473034"><ele></ele><time>2014-5-11T15:19:31Z</time></trkpt>
<trkpt lat="45.90001339" lon="9.10480678"><ele></ele><time>2014-5-11T15:19:34Z</time></trkpt>
<trkpt lat="45.89993544" lon="9.10484157"><ele></ele><time>2014-5-11T15:19:37Z</time></trkpt>
<trkpt lat="45.89990837" lon="9.10486822"><ele></ele><time>2014-5-11T15:19:40Z</time></trkpt>
<trkpt lat="45.89989655" lon="9.10490368"><ele></ele><time>2014-5-11T15:19:43Z</time></trkpt>
<trkpt lat="45.89987073" lon="9.10493469"><ele></ele><time>2014-5-11T15:19:46Z</time></trkpt>
<trkpt lat="45.89967862" lon="9.10515362"><ele></ele><time>2014-5-11T15:19:49Z</time></trkpt>
<trkpt lat="45.89950159" lon="9.10532663"><ele></ele><time>2014-5-11T15:19:52Z</time></trkpt>
<trkpt lat="45.89933739" lon="9.10549887"><ele></ele><time>2014-5-11T15:19:55Z</time></trkpt>
<trkpt lat="45.89928375" lon="9.10555537"><ele></ele><time>2014-5-11T15:19:58Z</time></trkpt>
<trkpt lat="45.89904075" lon="9.10567816"><ele></ele><time>2014-5-11T15:20:1Z</time></trkpt>
<trkpt lat="45.89881972" lon="9.10574589"><ele></ele><time>2014-5-11T15:20:4Z</time></trkpt>
<trkpt lat="45.89859819" lon="9.10578872"><ele></ele><time>2014-5-11T15:20:7Z</time></trkpt>
<trkpt lat="45.89856307" lon="9.10579442"><ele></ele><time>2014-5-11T15:20:10Z</time></trkpt>
<trkpt lat="45.89832754" lon="9.10579610"><ele></ele><time>2014-5-11T15:20:13Z</time></trkpt>
<trkpt lat="45.89816174" lon="9.10577917"><ele></ele><time>2014-5-11T15:20:16Z</time></trkpt>
<trkpt lat="45.89802864" lon="9.10575075"><ele></ele><time>2014-5-11T15:20:19Z</time></trkpt>
<trkpt lat="45.89790962" lon="9.10573759"><ele></ele><time>2014-5-11T15:20:22Z</time></trkpt>
<trkpt lat="45.89783795" lon="9.10572468"><ele></ele><time>2014-5-11T15:20:25Z</time></trkpt>
<trkpt lat="45.89775438" lon="9.10570373"><ele></ele><time>2014-5-11T15:20:28Z</time></trkpt>
<trkpt lat="45.89750226" lon="9.10562024"><ele></ele><time>2014-5-11T15:20:31Z</time></trkpt>
<trkpt lat="45.89725767" lon="9.10544892"><ele></ele><time>2014-5-11T15:20:34Z</time></trkpt>
<trkpt lat="45.89707444" lon="9.10518816"><ele></ele><time>2014-5-11T15:20:37Z</time></trkpt>
<trkpt lat="45.89706288" lon="9.10517106"><ele></ele><time>2014-5-11T15:20:40Z</time></trkpt>
<trkpt lat="45.89697839" lon="9.10508749"><ele></ele><time>2014-5-11T15:20:43Z</time></trkpt>
<trkpt lat="45.89682894" lon="9.10477384"><ele></ele><time>2014-5-11T15:20:46Z</time></trkpt>
<trkpt lat="45.89681519" lon="9.10473210"><ele></ele><time>2014-5-11T15:20:49Z</time></trkpt>
<trkpt lat="45.89672735" lon="9.10427093"><ele></ele><time>2014-5-11T15:20:52Z</time></trkpt>
<trkpt lat="45.89662978" lon="9.10390732"><ele></ele><time>2014-5-11T15:20:55Z</time></trkpt>
<trkpt lat="45.89659969" lon="9.10385904"><ele></ele><time>2014-5-11T15:20:58Z</time></trkpt>
<trkpt lat="45.89657295" lon="9.10377908"><ele></ele><time>2014-5-11T15:21:1Z</time></trkpt>
<trkpt lat="45.89652585" lon="9.10355746"><ele></ele><time>2014-5-11T15:21:4Z</time></trkpt>
<trkpt lat="45.89639350" lon="9.10340508"><ele></ele><time>2014-5-11T15:21:7Z</time></trkpt>
<trkpt lat="45.89619200" lon="9.10365125"><ele></ele><time>2014-5-11T15:21:10Z</time></trkpt>
<trkpt lat="45.89607725" lon="9.10378888"><ele></ele><time>2014-5-11T15:21:13Z</time></trkpt>
<trkpt lat="45.89593870" lon="9.10395250"><ele></ele><time>2014-5-11T15:21:16Z</time></trkpt>
<trkpt lat="45.89578288" lon="9.10415593"><ele></ele><time>2014-5-11T15:21:19Z</time></trkpt>
<trkpt lat="45.89562052" lon="9.10436832"><ele></ele><time>2014-5-11T15:21:22Z</time></trkpt>
<trkpt lat="45.89544215" lon="9.10457527"><ele></ele><time>2014-5-11T15:21:25Z</time></trkpt>
<trkpt lat="45.89534568" lon="9.10468063"><ele></ele><time>2014-5-11T15:21:28Z</time></trkpt>
<trkpt lat="45.89514392" lon="9.10490334"><ele></ele><time>2014-5-11T15:21:31Z</time></trkpt>
<trkpt lat="45.89495374" lon="9.10512177"><ele></ele><time>2014-5-11T15:21:34Z</time></trkpt>
<trkpt lat="45.89478962" lon="9.10531699"><ele></ele><time>2014-5-11T15:21:37Z</time></trkpt>
<trkpt lat="45.89466942" lon="9.10548303"><ele></ele><time>2014-5-11T15:21:40Z</time></trkpt>
<trkpt lat="45.89454378" lon="9.10572904"><ele></ele><time>2014-5-11T15:21:43Z</time></trkpt>
<trkpt lat="45.89449734" lon="9.10633053"><ele></ele><time>2014-5-11T15:21:46Z</time></trkpt>
<trkpt lat="45.89450254" lon="9.10643882"><ele></ele><time>2014-5-11T15:21:49Z</time></trkpt>
<trkpt lat="45.89435125" lon="9.10680679"><ele></ele><time>2014-5-11T15:21:52Z</time></trkpt>
<trkpt lat="45.89412292" lon="9.10703134"><ele></ele><time>2014-5-11T15:21:55Z</time></trkpt>
<trkpt lat="45.89386753" lon="9.10733669"><ele></ele><time>2014-5-11T15:21:58Z</time></trkpt>
<trkpt lat="45.89343175" lon="9.10777305"><ele></ele><time>2014-5-11T15:22:1Z</time></trkpt>
<trkpt lat="45.89314459" lon="9.10790993"><ele></ele><time>2014-5-11T15:22:4Z</time></trkpt>
<trkpt lat="45.89280915" lon="9.10785536"><ele></ele><time>2014-5-11T15:22:7Z</time></trkpt>
<trkpt lat="45.89249876" lon="9.10778060"><ele></ele><time>2014-5-11T15:22:10Z</time></trkpt>
<trkpt lat="45.89206332" lon="9.10765328"><ele></ele><time>2014-5-11T15:22:13Z</time></trkpt>
<trkpt lat="45.89181807" lon="9.10769812"><ele></ele><time>2014-5-11T15:22:16Z</time></trkpt>
<trkpt lat="45.89174657" lon="9.10773567"><ele></ele><time>2014-5-11T15:22:19Z</time></trkpt>
<trkpt lat="45.89148162" lon="9.10789652"><ele></ele><time>2014-5-11T15:22:22Z</time></trkpt>
<trkpt lat="45.89123578" lon="9.10804697"><ele></ele><time>2014-5-11T15:22:25Z</time></trkpt>
<trkpt lat="45.89116587" lon="9.10807740"><ele></ele><time>2014-5-11T15:22:28Z</time></trkpt>
<trkpt lat="45.89080486" lon="9.10806793"><ele></ele><time>2014-5-11T15:22:31Z</time></trkpt>
<trkpt lat="45.89067905" lon="9.10792485"><ele></ele><time>2014-5-11T15:22:34Z</time></trkpt>
<trkpt lat="45.89034839" lon="9.10753040"><ele></ele><time>2014-5-11T15:22:37Z</time></trkpt>
<trkpt lat="45.89014512" lon="9.10740207"><ele></ele><time>2014-5-11T15:22:40Z</time></trkpt>
<trkpt lat="45.89003893" lon="9.10735706"><ele></ele><time>2014-5-11T15:22:43Z</time></trkpt>
<trkpt lat="45.88959469" lon="9.10689983"><ele></ele><time>2014-5-11T15:22:46Z</time></trkpt>
<trkpt lat="45.88920618" lon="9.10662155"><ele></ele><time>2014-5-11T15:22:49Z</time></trkpt>
<trkpt lat="45.88888658" lon="9.10620740"><ele></ele><time>2014-5-11T15:22:52Z</time></trkpt>
<trkpt lat="45.88863404" lon="9.10588126"><ele></ele><time>2014-5-11T15:22:55Z</time></trkpt>
<trkpt lat="45.88842600" lon="9.10546619"><ele></ele><time>2014-5-11T15:22:58Z</time></trkpt>
<trkpt lat="45.88825383" lon="9.10497626"><ele></ele><time>2014-5-11T15:23:1Z</time></trkpt>
<trkpt lat="45.88819508" lon="9.10475833"><ele></ele><time>2014-5-11T15:23:4Z</time></trkpt>
<trkpt lat="45.88810346" lon="9.10453496"><ele></ele><time>2014-5-11T15:23:7Z</time></trkpt>
<trkpt lat="45.88806918" lon="9.10446069"><ele></ele><time>2014-5-11T15:23:10Z</time></trkpt>
<trkpt lat="45.88796876" lon="9.10423958"><ele></ele><time>2014-5-11T15:23:13Z</time></trkpt>
<trkpt lat="45.88787916" lon="9.10409155"><ele></ele><time>2014-5-11T15:23:16Z</time></trkpt>
<trkpt lat="45.88783097" lon="9.10401603"><ele></ele><time>2014-5-11T15:23:19Z</time></trkpt>
<trkpt lat="45.88770482" lon="9.10378142"><ele></ele><time>2014-5-11T15:23:22Z</time></trkpt>
<trkpt lat="45.88757297" lon="9.10354556"><ele></ele><time>2014-5-11T15:23:25Z</time></trkpt>
<trkpt lat="45.88752536" lon="9.10336132"><ele></ele><time>2014-5-11T15:23:28Z</time></trkpt>
<trkpt lat="45.88745562" lon="9.10314532"><ele></ele><time>2014-5-11T15:23:31Z</time></trkpt>
<trkpt lat="45.88742964" lon="9.10299947"><ele></ele><time>2014-5-11T15:23:34Z</time></trkpt>
<trkpt lat="45.88740785" lon="9.10285472"><ele></ele><time>2014-5-11T15:23:37Z</time></trkpt>
<trkpt lat="45.88740257" lon="9.10242557"><ele></ele><time>2014-5-11T15:23:40Z</time></trkpt>
<trkpt lat="45.88732512" lon="9.10208275"><ele></ele><time>2014-5-11T15:23:43Z</time></trkpt>
<trkpt lat="45.88730316" lon="9.10202508"><ele></ele><time>2014-5-11T15:23:46Z</time></trkpt>
<trkpt lat="45.88702203" lon="9.10154278"><ele></ele><time>2014-5-11T15:23:49Z</time></trkpt>
<trkpt lat="45.88687233" lon="9.10155787"><ele></ele><time>2014-5-11T15:23:52Z</time></trkpt>
<trkpt lat="45.88652465" lon="9.10167907"><ele></ele><time>2014-5-11T15:23:55Z</time></trkpt>
<trkpt lat="45.88649950" lon="9.10168083"><ele></ele><time>2014-5-11T15:23:58Z</time></trkpt>
<trkpt lat="45.88629104" lon="9.10180564"><ele></ele><time>2014-5-11T15:24:1Z</time></trkpt>
<trkpt lat="45.88610496" lon="9.10182123"><ele></ele><time>2014-5-11T15:24:4Z</time></trkpt>
<trkpt lat="45.88599826" lon="9.10176407"><ele></ele><time>2014-5-11T15:24:7Z</time></trkpt>
<trkpt lat="45.88567975" lon="9.10166474"><ele></ele><time>2014-5-11T15:24:10Z</time></trkpt>
<trkpt lat="45.88534699" lon="9.10160355"><ele></ele><time>2014-5-11T15:24:13Z</time></trkpt>
<trkpt lat="45.88511540" lon="9.10142468"><ele></ele><time>2014-5-11T15:24:16Z</time></trkpt>
<trkpt lat="45.88508639" lon="9.10139367"><ele></ele><time>2014-5-11T15:24:19Z</time></trkpt>
<trkpt lat="45.88494248" lon="9.10127448"><ele></ele><time>2014-5-11T15:24:22Z</time></trkpt>
<trkpt lat="45.88458097" lon="9.10096929"><ele></ele><time>2014-5-11T15:24:25Z</time></trkpt>
<trkpt lat="45.88439363" lon="9.10082663"><ele></ele><time>2014-5-11T15:24:28Z</time></trkpt>
<trkpt lat="45.88431015" lon="9.10074198"><ele></ele><time>2014-5-11T15:24:31Z</time></trkpt>
<trkpt lat="45.88396959" lon="9.10034015"><ele></ele><time>2014-5-11T15:24:34Z</time></trkpt>
<trkpt lat="45.88390656" lon="9.10026865"><ele></ele><time>2014-5-11T15:24:37Z</time></trkpt>
<trkpt lat="45.88365946" lon="9.10002566"><ele></ele><time>2014-5-11T15:24:40Z</time></trkpt>
<trkpt lat="45.88356944" lon="9.09995986"><ele></ele><time>2014-5-11T15:24:43Z</time></trkpt>
<trkpt lat="45.88338730" lon="9.09973104"><ele></ele><time>2014-5-11T15:24:46Z</time></trkpt>
<trkpt lat="45.88328605" lon="9.09964328"><ele></ele><time>2014-5-11T15:24:49Z</time></trkpt>
<trkpt lat="45.88304255" lon="9.09930247"><ele></ele><time>2014-5-11T15:24:52Z</time></trkpt>
<trkpt lat="45.88260778" lon="9.09878187"><ele></ele><time>2014-5-11T15:24:55Z</time></trkpt>
<trkpt lat="45.88257367" lon="9.09876393"><ele></ele><time>2014-5-11T15:24:58Z</time></trkpt>
<trkpt lat="45.88237887" lon="9.09861985"><ele></ele><time>2014-5-11T15:25:1Z</time></trkpt>
<trkpt lat="45.88229002" lon="9.09855966"><ele></ele><time>2014-5-11T15:25:4Z</time></trkpt>
<trkpt lat="45.88217963" lon="9.09850728"><ele></ele><time>2014-5-11T15:25:7Z</time></trkpt>
<trkpt lat="45.88197822" lon="9.09836386"><ele></ele><time>2014-5-11T15:25:10Z</time></trkpt>
<trkpt lat="45.88192457" lon="9.09832237"><ele></ele><time>2014-5-11T15:25:13Z</time></trkpt>
<trkpt lat="45.88152652" lon="9.09810754"><ele></ele><time>2014-5-11T15:25:16Z</time></trkpt>
<trkpt lat="45.88120826" lon="9.09790026"><ele></ele><time>2014-5-11T15:25:19Z</time></trkpt>
<trkpt lat="45.88112310" lon="9.09786908"><ele></ele><time>2014-5-11T15:25:22Z</time></trkpt>
<trkpt lat="45.88106208" lon="9.09781309"><ele></ele><time>2014-5-11T15:25:25Z</time></trkpt>
<trkpt lat="45.88083744" lon="9.09759675"><ele></ele><time>2014-5-11T15:25:28Z</time></trkpt>
<trkpt lat="45.88057282" lon="9.09724454"><ele></ele><time>2014-5-11T15:25:31Z</time></trkpt>
<trkpt lat="45.88026336" lon="9.09682176"><ele></ele><time>2014-5-11T15:25:34Z</time></trkpt>
<trkpt lat="45.88008558" lon="9.09655647"><ele></ele><time>2014-5-11T15:25:37Z</time></trkpt>
<trkpt lat="45.87987939" lon="9.09612824"><ele></ele><time>2014-5-11T15:25:40Z</time></trkpt>
<trkpt lat="45.87975416" lon="9.09567805"><ele></ele><time>2014-5-11T15:25:43Z</time></trkpt>
<trkpt lat="45.87969884" lon="9.09530564"><ele></ele><time>2014-5-11T15:25:46Z</time></trkpt>
<trkpt lat="45.87972893" lon="9.09509744"><ele></ele><time>2014-5-11T15:25:49Z</time></trkpt>
<trkpt lat="45.87986774" lon="9.09469527"><ele></ele><time>2014-5-11T15:25:52Z</time></trkpt>
<trkpt lat="45.88016463" lon="9.09427064"><ele></ele><time>2014-5-11T15:25:55Z</time></trkpt>
<trkpt lat="45.88051516" lon="9.09380469"><ele></ele><time>2014-5-11T15:25:58Z</time></trkpt>
<trkpt lat="45.88071825" lon="9.09356782"><ele></ele><time>2014-5-11T15:26:1Z</time></trkpt>
<trkpt lat="45.88078296" lon="9.09348736"><ele></ele><time>2014-5-11T15:26:4Z</time></trkpt>
<trkpt lat="45.88090483" lon="9.09332835"><ele></ele><time>2014-5-11T15:26:7Z</time></trkpt>
<trkpt lat="45.88101145" lon="9.09317672"><ele></ele><time>2014-5-11T15:26:10Z</time></trkpt>
<trkpt lat="45.88103886" lon="9.09239762"><ele></ele><time>2014-5-11T15:26:13Z</time></trkpt>
<trkpt lat="45.88098102" lon="9.09219596"><ele></ele><time>2014-5-11T15:26:16Z</time></trkpt>
<trkpt lat="45.88078036" lon="9.09150763"><ele></ele><time>2014-5-11T15:26:19Z</time></trkpt>
<trkpt lat="45.88064860" lon="9.09119323"><ele></ele><time>2014-5-11T15:26:22Z</time></trkpt>
<trkpt lat="45.88052203" lon="9.09100137"><ele></ele><time>2014-5-11T15:26:25Z</time></trkpt>
<trkpt lat="45.88025532" lon="9.09091218"><ele></ele><time>2014-5-11T15:26:28Z</time></trkpt>
<trkpt lat="45.87995566" lon="9.09080003"><ele></ele><time>2014-5-11T15:26:31Z</time></trkpt>
<trkpt lat="45.87966766" lon="9.09070113"><ele></ele><time>2014-5-11T15:26:34Z</time></trkpt>
<trkpt lat="45.87958016" lon="9.09064949"><ele></ele><time>2014-5-11T15:26:37Z</time></trkpt>
<trkpt lat="45.87920180" lon="9.09015329"><ele></ele><time>2014-5-11T15:26:40Z</time></trkpt>
<trkpt lat="45.87913466" lon="9.09002638"><ele></ele><time>2014-5-11T15:26:43Z</time></trkpt>
<trkpt lat="45.87902796" lon="9.08974718"><ele></ele><time>2014-5-11T15:26:46Z</time></trkpt>
<trkpt lat="45.87888655" lon="9.08934753"><ele></ele><time>2014-5-11T15:26:49Z</time></trkpt>
<trkpt lat="45.87846939" lon="9.08807709"><ele></ele><time>2014-5-11T15:26:52Z</time></trkpt>
<trkpt lat="45.87838557" lon="9.08739086"><ele></ele><time>2014-5-11T15:26:55Z</time></trkpt>
<trkpt lat="45.87840568" lon="9.08716606"><ele></ele><time>2014-5-11T15:26:58Z</time></trkpt>
<trkpt lat="45.87833804" lon="9.08692986"><ele></ele><time>2014-5-11T15:27:1Z</time></trkpt>
<trkpt lat="45.87798500" lon="9.08682785"><ele></ele><time>2014-5-11T15:27:4Z</time></trkpt>
<trkpt lat="45.87788592" lon="9.08682483"><ele></ele><time>2014-5-11T15:27:7Z</time></trkpt>
<trkpt lat="45.87736105" lon="9.08678653"><ele></ele><time>2014-5-11T15:27:10Z</time></trkpt>
<trkpt lat="45.87701345" lon="9.08691796"><ele></ele><time>2014-5-11T15:27:13Z</time></trkpt>
<trkpt lat="45.87674632" lon="9.08709892"><ele></ele><time>2014-5-11T15:27:16Z</time></trkpt>
<trkpt lat="45.87638196" lon="9.08721099"><ele></ele><time>2014-5-11T15:27:19Z</time></trkpt>
<trkpt lat="45.87610133" lon="9.08712960"><ele></ele><time>2014-5-11T15:27:22Z</time></trkpt>
<trkpt lat="45.87593336" lon="9.08708635"><ele></ele><time>2014-5-11T15:27:25Z</time></trkpt>
<trkpt lat="45.87553949" lon="9.08702164"><ele></ele><time>2014-5-11T15:27:28Z</time></trkpt>
<trkpt lat="45.87521218" lon="9.08698954"><ele></ele><time>2014-5-11T15:27:31Z</time></trkpt>
<trkpt lat="45.87515912" lon="9.08698208"><ele></ele><time>2014-5-11T15:27:34Z</time></trkpt>
<trkpt lat="45.87473793" lon="9.08665879"><ele></ele><time>2014-5-11T15:27:37Z</time></trkpt>
<trkpt lat="45.87461866" lon="9.08631127"><ele></ele><time>2014-5-11T15:27:40Z</time></trkpt>
<trkpt lat="45.87456132" lon="9.08616618"><ele></ele><time>2014-5-11T15:27:43Z</time></trkpt>
<trkpt lat="45.87436058" lon="9.08548012"><ele></ele><time>2014-5-11T15:27:46Z</time></trkpt>
<trkpt lat="45.87424985" lon="9.08510872"><ele></ele><time>2014-5-11T15:27:49Z</time></trkpt>
<trkpt lat="45.87401566" lon="9.08456767"><ele></ele><time>2014-5-11T15:27:52Z</time></trkpt>
<trkpt lat="45.87392086" lon="9.08435100"><ele></ele><time>2014-5-11T15:27:55Z</time></trkpt>
<trkpt lat="45.87385934" lon="9.08369964"><ele></ele><time>2014-5-11T15:27:58Z</time></trkpt>
<trkpt lat="45.87399580" lon="9.08311517"><ele></ele><time>2014-5-11T15:28:1Z</time></trkpt>
<trkpt lat="45.87417299" lon="9.08249533"><ele></ele><time>2014-5-11T15:28:4Z</time></trkpt>
<trkpt lat="45.87432403" lon="9.08188303"><ele></ele><time>2014-5-11T15:28:7Z</time></trkpt>
<trkpt lat="45.87448463" lon="9.08157550"><ele></ele><time>2014-5-11T15:28:10Z</time></trkpt>
<trkpt lat="45.87451640" lon="9.08155245"><ele></ele><time>2014-5-11T15:28:13Z</time></trkpt>
<trkpt lat="45.87464615" lon="9.08140484"><ele></ele><time>2014-5-11T15:28:16Z</time></trkpt>
<trkpt lat="45.87490800" lon="9.08114743"><ele></ele><time>2014-5-11T15:28:19Z</time></trkpt>
<trkpt lat="45.87506675" lon="9.08066707"><ele></ele><time>2014-5-11T15:28:22Z</time></trkpt>
<trkpt lat="45.87503314" lon="9.08048258"><ele></ele><time>2014-5-11T15:28:25Z</time></trkpt>
<trkpt lat="45.87491630" lon="9.08030463"><ele></ele><time>2014-5-11T15:28:28Z</time></trkpt>
<trkpt lat="45.87486274" lon="9.08024563"><ele></ele><time>2014-5-11T15:28:31Z</time></trkpt>
<trkpt lat="45.87472913" lon="9.08004572"><ele></ele><time>2014-5-11T15:28:34Z</time></trkpt>
<trkpt lat="45.87467716" lon="9.07998688"><ele></ele><time>2014-5-11T15:28:37Z</time></trkpt>
<trkpt lat="45.87466945" lon="9.07997573"><ele></ele><time>2014-5-11T15:28:40Z</time></trkpt>
<trkpt lat="45.87465428" lon="9.07994673"><ele></ele><time>2014-5-11T15:28:43Z</time></trkpt>
<trkpt lat="45.87457105" lon="9.07981605"><ele></ele><time>2014-5-11T15:28:46Z</time></trkpt>
<trkpt lat="45.87454389" lon="9.07975822"><ele></ele><time>2014-5-11T15:28:49Z</time></trkpt>
<trkpt lat="45.87444347" lon="9.07964909"><ele></ele><time>2014-5-11T15:28:52Z</time></trkpt>
<trkpt lat="45.87431389" lon="9.07943769"><ele></ele><time>2014-5-11T15:28:55Z</time></trkpt>
<trkpt lat="45.87420928" lon="9.07925757"><ele></ele><time>2014-5-11T15:28:58Z</time></trkpt>
<trkpt lat="45.87413586" lon="9.07917366"><ele></ele><time>2014-5-11T15:29:1Z</time></trkpt>
<trkpt lat="45.87406134" lon="9.07903218"><ele></ele><time>2014-5-11T15:29:4Z</time></trkpt>
<trkpt lat="45.87396956" lon="9.07873982"><ele></ele><time>2014-5-11T15:29:7Z</time></trkpt>
<trkpt lat="45.87387904" lon="9.07854804"><ele></ele><time>2014-5-11T15:29:10Z</time></trkpt>
<trkpt lat="45.87379153" lon="9.07828602"><ele></ele><time>2014-5-11T15:29:13Z</time></trkpt>
<trkpt lat="45.87376529" lon="9.07821955"><ele></ele><time>2014-5-11T15:29:16Z</time></trkpt>
<trkpt lat="45.87369095" lon="9.07799735"><ele></ele><time>2014-5-11T15:29:19Z</time></trkpt>
<trkpt lat="45.87362825" lon="9.07781479"><ele></ele><time>2014-5-11T15:29:22Z</time></trkpt>
<trkpt lat="45.87356145" lon="9.07753165"><ele></ele><time>2014-5-11T15:29:25Z</time></trkpt>
<trkpt lat="45.87352096" lon="9.07728204"><ele></ele><time>2014-5-11T15:29:28Z</time></trkpt>
<trkpt lat="45.87349649" lon="9.07698129"><ele></ele><time>2014-5-11T15:29:31Z</time></trkpt>
<trkpt lat="45.87348618" lon="9.07683210"><ele></ele><time>2014-5-11T15:29:34Z</time></trkpt>
<trkpt lat="45.87348886" lon="9.07664342"><ele></ele><time>2014-5-11T15:29:37Z</time></trkpt>
<trkpt lat="45.87351694" lon="9.07635734"><ele></ele><time>2014-5-11T15:29:40Z</time></trkpt>
<trkpt lat="45.87353169" lon="9.07617764"><ele></ele><time>2014-5-11T15:29:43Z</time></trkpt>
<trkpt lat="45.87353119" lon="9.07616246"><ele></ele><time>2014-5-11T15:29:46Z</time></trkpt>
<trkpt lat="45.87355365" lon="9.07597664"><ele></ele><time>2014-5-11T15:29:49Z</time></trkpt>
<trkpt lat="45.87355524" lon="9.07590472"><ele></ele><time>2014-5-11T15:29:52Z</time></trkpt>
<trkpt lat="45.87354502" lon="9.07587882"><ele></ele><time>2014-5-11T15:29:55Z</time></trkpt>
<trkpt lat="45.87350713" lon="9.07590355"><ele></ele><time>2014-5-11T15:29:58Z</time></trkpt>
<trkpt lat="45.87342457" lon="9.07603464"><ele></ele><time>2014-5-11T15:30:1Z</time></trkpt>
<trkpt lat="45.87341250" lon="9.07604503"><ele></ele><time>2014-5-11T15:30:4Z</time></trkpt>
<trkpt lat="45.87338476" lon="9.07611167"><ele></ele><time>2014-5-11T15:30:7Z</time></trkpt>
<trkpt lat="45.87339565" lon="9.07614654"><ele></ele><time>2014-5-11T15:30:10Z</time></trkpt>
<trkpt lat="45.87336229" lon="9.07614838"><ele></ele><time>2014-5-11T15:30:13Z</time></trkpt>
<trkpt lat="45.87327143" lon="9.07595267"><ele></ele><time>2014-5-11T15:30:16Z</time></trkpt>
<trkpt lat="45.87335869" lon="9.07572946"><ele></ele><time>2014-5-11T15:30:19Z</time></trkpt>
<trkpt lat="45.87345365" lon="9.07549946"><ele></ele><time>2014-5-11T15:30:22Z</time></trkpt>
<trkpt lat="45.87364200" lon="9.07496176"><ele></ele><time>2014-5-11T15:30:25Z</time></trkpt>
<trkpt lat="45.87370008" lon="9.07451835"><ele></ele><time>2014-5-11T15:30:28Z</time></trkpt>
<trkpt lat="45.87371215" lon="9.07443839"><ele></ele><time>2014-5-11T15:30:31Z</time></trkpt>
<trkpt lat="45.87372188" lon="9.07436086"><ele></ele><time>2014-5-11T15:30:34Z</time></trkpt>
<trkpt lat="45.87374895" lon="9.07412038"><ele></ele><time>2014-5-11T15:30:37Z</time></trkpt>
<trkpt lat="45.87379606" lon="9.07379969"><ele></ele><time>2014-5-11T15:30:40Z</time></trkpt>
<trkpt lat="45.87383872" lon="9.07359727"><ele></ele><time>2014-5-11T15:30:43Z</time></trkpt>
<trkpt lat="45.87387702" lon="9.07350599"><ele></ele><time>2014-5-11T15:30:46Z</time></trkpt>
<trkpt lat="45.87395665" lon="9.07309989"><ele></ele><time>2014-5-11T15:30:49Z</time></trkpt>
<trkpt lat="45.87398674" lon="9.07285396"><ele></ele><time>2014-5-11T15:30:52Z</time></trkpt>
<trkpt lat="45.87401809" lon="9.07294004"><ele></ele><time>2014-5-11T15:30:55Z</time></trkpt>
<trkpt lat="45.87405958" lon="9.07331706"><ele></ele><time>2014-5-11T15:30:58Z</time></trkpt>
<trkpt lat="45.87408406" lon="9.07385719"><ele></ele><time>2014-5-11T15:31:1Z</time></trkpt>
<trkpt lat="45.87408909" lon="9.07398895"><ele></ele><time>2014-5-11T15:31:4Z</time></trkpt>
<trkpt lat="45.87416628" lon="9.07395886"><ele></ele><time>2014-5-11T15:31:7Z</time></trkpt>
<trkpt lat="45.87417467" lon="9.07343835"><ele></ele><time>2014-5-11T15:31:10Z</time></trkpt>
<trkpt lat="45.87419956" lon="9.07293082"><ele></ele><time>2014-5-11T15:31:13Z</time></trkpt>
<trkpt lat="45.87422437" lon="9.07254685"><ele></ele><time>2014-5-11T15:31:16Z</time></trkpt>
<trkpt lat="45.87423166" lon="9.07228190"><ele></ele><time>2014-5-11T15:31:19Z</time></trkpt>
<trkpt lat="45.87429352" lon="9.07165702"><ele></ele><time>2014-5-11T15:31:22Z</time></trkpt>
<trkpt lat="45.87428254" lon="9.07152518"><ele></ele><time>2014-5-11T15:31:25Z</time></trkpt>
<trkpt lat="45.87408749" lon="9.07130792"><ele></ele><time>2014-5-11T15:31:28Z</time></trkpt>
<trkpt lat="45.87400267" lon="9.07123659"><ele></ele><time>2014-5-11T15:31:31Z</time></trkpt>
<trkpt lat="45.87375490" lon="9.07100684"><ele></ele><time>2014-5-11T15:31:34Z</time></trkpt>
<trkpt lat="45.87353513" lon="9.07062035"><ele></ele><time>2014-5-11T15:31:37Z</time></trkpt>
<trkpt lat="45.87335919" lon="9.07030268"><ele></ele><time>2014-5-11T15:31:40Z</time></trkpt>
<trkpt lat="45.87330152" lon="9.07007963"><ele></ele><time>2014-5-11T15:31:43Z</time></trkpt>
<trkpt lat="45.87325324" lon="9.07002524"><ele></ele><time>2014-5-11T15:31:46Z</time></trkpt>
<trkpt lat="45.87322558" lon="9.06986774"><ele></ele><time>2014-5-11T15:31:49Z</time></trkpt>
<trkpt lat="45.87317747" lon="9.06947723"><ele></ele><time>2014-5-11T15:31:52Z</time></trkpt>
<trkpt lat="45.87313958" lon="9.06927799"><ele></ele><time>2014-5-11T15:31:55Z</time></trkpt>
<trkpt lat="45.87306549" lon="9.06909820"><ele></ele><time>2014-5-11T15:31:58Z</time></trkpt>
<trkpt lat="45.87300522" lon="9.06899527"><ele></ele><time>2014-5-11T15:32:1Z</time></trkpt>
<trkpt lat="45.87300313" lon="9.06842697"><ele></ele><time>2014-5-11T15:32:4Z</time></trkpt>
<trkpt lat="45.87296113" lon="9.06815582"><ele></ele><time>2014-5-11T15:32:7Z</time></trkpt>
<trkpt lat="45.87284043" lon="9.06783588"><ele></ele><time>2014-5-11T15:32:10Z</time></trkpt>
<trkpt lat="45.87275284" lon="9.06756523"><ele></ele><time>2014-5-11T15:32:13Z</time></trkpt>
<trkpt lat="45.87255889" lon="9.06721545"><ele></ele><time>2014-5-11T15:32:16Z</time></trkpt>
<trkpt lat="45.87248152" lon="9.06707673"><ele></ele><time>2014-5-11T15:32:19Z</time></trkpt>
<trkpt lat="45.87223845" lon="9.06669603"><ele></ele><time>2014-5-11T15:32:22Z</time></trkpt>
<trkpt lat="45.87210182" lon="9.06643292"><ele></ele><time>2014-5-11T15:32:25Z</time></trkpt>
<trkpt lat="45.87202496" lon="9.06634172"><ele></ele><time>2014-5-11T15:32:28Z</time></trkpt>
<trkpt lat="45.87181298" lon="9.06620108"><ele></ele><time>2014-5-11T15:32:31Z</time></trkpt>
<trkpt lat="45.87155364" lon="9.06597577"><ele></ele><time>2014-5-11T15:32:34Z</time></trkpt>
<trkpt lat="45.87156546" lon="9.06582213"><ele></ele><time>2014-5-11T15:32:37Z</time></trkpt>
<trkpt lat="45.87149866" lon="9.06577402"><ele></ele><time>2014-5-11T15:32:40Z</time></trkpt>
<trkpt lat="45.87133228" lon="9.06589354"><ele></ele><time>2014-5-11T15:32:43Z</time></trkpt>
<trkpt lat="45.87129724" lon="9.06589924"><ele></ele><time>2014-5-11T15:32:46Z</time></trkpt>
<trkpt lat="45.87126053" lon="9.06589665"><ele></ele><time>2014-5-11T15:32:49Z</time></trkpt>
<trkpt lat="45.87115517" lon="9.06584795"><ele></ele><time>2014-5-11T15:32:52Z</time></trkpt>
<trkpt lat="45.87119037" lon="9.06566304"><ele></ele><time>2014-5-11T15:32:55Z</time></trkpt>
<trkpt lat="45.87123387" lon="9.06561133"><ele></ele><time>2014-5-11T15:32:58Z</time></trkpt>
<trkpt lat="45.87137528" lon="9.06544788"><ele></ele><time>2014-5-11T15:33:1Z</time></trkpt>
<trkpt lat="45.87148114" lon="9.06527965"><ele></ele><time>2014-5-11T15:33:4Z</time></trkpt>
<trkpt lat="45.87157049" lon="9.06527756"><ele></ele><time>2014-5-11T15:33:7Z</time></trkpt>
<trkpt lat="45.87165037" lon="9.06522417"><ele></ele><time>2014-5-11T15:33:10Z</time></trkpt>
<trkpt lat="45.87176990" lon="9.06512367"><ele></ele><time>2014-5-11T15:33:13Z</time></trkpt>
<trkpt lat="45.87188347" lon="9.06505032"><ele></ele><time>2014-5-11T15:33:16Z</time></trkpt>
<trkpt lat="45.87198280" lon="9.06493968"><ele></ele><time>2014-5-11T15:33:19Z</time></trkpt>
<trkpt lat="45.87234817" lon="9.06462536"><ele></ele><time>2014-5-11T15:33:22Z</time></trkpt>
<trkpt lat="45.87257925" lon="9.06442403"><ele></ele><time>2014-5-11T15:33:25Z</time></trkpt>
<trkpt lat="45.87306138" lon="9.06436695"><ele></ele><time>2014-5-11T15:33:28Z</time></trkpt>
<trkpt lat="45.87329515" lon="9.06434926"><ele></ele><time>2014-5-11T15:33:31Z</time></trkpt>
<trkpt lat="45.87350638" lon="9.06434817"><ele></ele><time>2014-5-11T15:33:34Z</time></trkpt>
<trkpt lat="45.87387267" lon="9.06441883"><ele></ele><time>2014-5-11T15:33:37Z</time></trkpt>
<trkpt lat="45.87409479" lon="9.06445194"><ele></ele><time>2014-5-11T15:33:40Z</time></trkpt>
<trkpt lat="45.87424415" lon="9.06449519"><ele></ele><time>2014-5-11T15:33:43Z</time></trkpt>
<trkpt lat="45.87437415" lon="9.06450072"><ele></ele><time>2014-5-11T15:33:46Z</time></trkpt>
<trkpt lat="45.87448572" lon="9.06451036"><ele></ele><time>2014-5-11T15:33:49Z</time></trkpt>
<trkpt lat="45.87452972" lon="9.06450332"><ele></ele><time>2014-5-11T15:33:52Z</time></trkpt>
<trkpt lat="45.87465679" lon="9.06450768"><ele></ele><time>2014-5-11T15:33:55Z</time></trkpt>
<trkpt lat="45.87469845" lon="9.06448497"><ele></ele><time>2014-5-11T15:33:58Z</time></trkpt>
<trkpt lat="45.87468403" lon="9.06438380"><ele></ele><time>2014-5-11T15:34:1Z</time></trkpt>
<trkpt lat="45.87463642" lon="9.06421758"><ele></ele><time>2014-5-11T15:34:4Z</time></trkpt>
<trkpt lat="45.87459720" lon="9.06406696"><ele></ele><time>2014-5-11T15:34:7Z</time></trkpt>
<trkpt lat="45.87454556" lon="9.06396026"><ele></ele><time>2014-5-11T15:34:10Z</time></trkpt>
<trkpt lat="45.87452956" lon="9.06387183"><ele></ele><time>2014-5-11T15:34:13Z</time></trkpt>
<trkpt lat="45.87448672" lon="9.06378835"><ele></ele><time>2014-5-11T15:34:16Z</time></trkpt>
<trkpt lat="45.87444364" lon="9.06369229"><ele></ele><time>2014-5-11T15:34:19Z</time></trkpt>
<trkpt lat="45.87446862" lon="9.06365616"><ele></ele><time>2014-5-11T15:34:22Z</time></trkpt>
<trkpt lat="45.87453769" lon="9.06371777"><ele></ele><time>2014-5-11T15:34:25Z</time></trkpt>
<trkpt lat="45.87478973" lon="9.06404793"><ele></ele><time>2014-5-11T15:34:28Z</time></trkpt>
<trkpt lat="45.87494823" lon="9.06422596"><ele></ele><time>2014-5-11T15:34:31Z</time></trkpt>
<trkpt lat="45.87536339" lon="9.06450223"><ele></ele><time>2014-5-11T15:34:34Z</time></trkpt>
<trkpt lat="45.87545492" lon="9.06455143"><ele></ele><time>2014-5-11T15:34:37Z</time></trkpt>
<trkpt lat="45.87575407" lon="9.06458773"><ele></ele><time>2014-5-11T15:34:40Z</time></trkpt>
<trkpt lat="45.87602539" lon="9.06429813"><ele></ele><time>2014-5-11T15:34:43Z</time></trkpt>
<trkpt lat="45.87616964" lon="9.06404592"><ele></ele><time>2014-5-11T15:34:46Z</time></trkpt>
<trkpt lat="45.87642336" lon="9.06349724"><ele></ele><time>2014-5-11T15:34:49Z</time></trkpt>
<trkpt lat="45.87665563" lon="9.06298008"><ele></ele><time>2014-5-11T15:34:52Z</time></trkpt>
<trkpt lat="45.87669410" lon="9.06289970"><ele></ele><time>2014-5-11T15:34:55Z</time></trkpt>
<trkpt lat="45.87684330" lon="9.06241816"><ele></ele><time>2014-5-11T15:34:58Z</time></trkpt>
<trkpt lat="45.87685268" lon="9.06184173"><ele></ele><time>2014-5-11T15:35:1Z</time></trkpt>
<trkpt lat="45.87684045" lon="9.06176655"><ele></ele><time>2014-5-11T15:35:4Z</time></trkpt>
<trkpt lat="45.87682888" lon="9.06142993"><ele></ele><time>2014-5-11T15:35:7Z</time></trkpt>
<trkpt lat="45.87687506" lon="9.06108174"><ele></ele><time>2014-5-11T15:35:10Z</time></trkpt>
<trkpt lat="45.87688822" lon="9.06095007"><ele></ele><time>2014-5-11T15:35:13Z</time></trkpt>
<trkpt lat="45.87689317" lon="9.06090925"><ele></ele><time>2014-5-11T15:35:16Z</time></trkpt>
<trkpt lat="45.87691018" lon="9.06075728"><ele></ele><time>2014-5-11T15:35:19Z</time></trkpt>
<trkpt lat="45.87693734" lon="9.06056919"><ele></ele><time>2014-5-11T15:35:22Z</time></trkpt>
<trkpt lat="45.87696835" lon="9.06047313"><ele></ele><time>2014-5-11T15:35:25Z</time></trkpt>
<trkpt lat="45.87714085" lon="9.06009964"><ele></ele><time>2014-5-11T15:35:28Z</time></trkpt>
<trkpt lat="45.87738309" lon="9.05924024"><ele></ele><time>2014-5-11T15:35:31Z</time></trkpt>
<trkpt lat="45.87748703" lon="9.05851755"><ele></ele><time>2014-5-11T15:35:34Z</time></trkpt>
<trkpt lat="45.87750295" lon="9.05843424"><ele></ele><time>2014-5-11T15:35:37Z</time></trkpt>
<trkpt lat="45.87750228" lon="9.05796493"><ele></ele><time>2014-5-11T15:35:40Z</time></trkpt>
<trkpt lat="45.87740329" lon="9.05776109"><ele></ele><time>2014-5-11T15:35:43Z</time></trkpt>
<trkpt lat="45.87728284" lon="9.05762086"><ele></ele><time>2014-5-11T15:35:46Z</time></trkpt>
<trkpt lat="45.87710674" lon="9.05735523"><ele></ele><time>2014-5-11T15:35:49Z</time></trkpt>
<trkpt lat="45.87697783" lon="9.05702650"><ele></ele><time>2014-5-11T15:35:52Z</time></trkpt>
<trkpt lat="45.87689602" lon="9.05632770"><ele></ele><time>2014-5-11T15:35:55Z</time></trkpt>
<trkpt lat="45.87684078" lon="9.05583325"><ele></ele><time>2014-5-11T15:35:58Z</time></trkpt>
<trkpt lat="45.87679594" lon="9.05567248"><ele></ele><time>2014-5-11T15:36:1Z</time></trkpt>
<trkpt lat="45.87674540" lon="9.05551784"><ele></ele><time>2014-5-11T15:36:4Z</time></trkpt>
<trkpt lat="45.87665068" lon="9.05531072"><ele></ele><time>2014-5-11T15:36:7Z</time></trkpt>
<trkpt lat="45.87651573" lon="9.05506044"><ele></ele><time>2014-5-11T15:36:10Z</time></trkpt>
<trkpt lat="45.87636402" lon="9.05481124"><ele></ele><time>2014-5-11T15:36:13Z</time></trkpt>
<trkpt lat="45.87621038" lon="9.05461125"><ele></ele><time>2014-5-11T15:36:16Z</time></trkpt>
<trkpt lat="45.87607736" lon="9.05442953"><ele></ele><time>2014-5-11T15:36:19Z</time></trkpt>
<trkpt lat="45.87598155" lon="9.05430187"><ele></ele><time>2014-5-11T15:36:22Z</time></trkpt>
<trkpt lat="45.87575566" lon="9.05407607"><ele></ele><time>2014-5-11T15:36:25Z</time></trkpt>
<trkpt lat="45.87557486" lon="9.05389217"><ele></ele><time>2014-5-11T15:36:28Z</time></trkpt>
<trkpt lat="45.87537093" lon="9.05361188"><ele></ele><time>2014-5-11T15:36:31Z</time></trkpt>
<trkpt lat="45.87531762" lon="9.05354474"><ele></ele><time>2014-5-11T15:36:34Z</time></trkpt>
<trkpt lat="45.87514093" lon="9.05333578"><ele></ele><time>2014-5-11T15:36:37Z</time></trkpt>
<trkpt lat="45.87484522" lon="9.05300193"><ele></ele><time>2014-5-11T15:36:40Z</time></trkpt>
<trkpt lat="45.87472988" lon="9.05289195"><ele></ele><time>2014-5-11T15:36:43Z</time></trkpt>
<trkpt lat="45.87467054" lon="9.05283898"><ele></ele><time>2014-5-11T15:36:46Z</time></trkpt>
<trkpt lat="45.87434172" lon="9.05254385"><ele></ele><time>2014-5-11T15:36:49Z</time></trkpt>
<trkpt lat="45.87429595" lon="9.05243983"><ele></ele><time>2014-5-11T15:36:52Z</time></trkpt>
<trkpt lat="45.87411817" lon="9.05219072"><ele></ele><time>2014-5-11T15:36:55Z</time></trkpt>
<trkpt lat="45.87397576" lon="9.05196844"><ele></ele><time>2014-5-11T15:36:58Z</time></trkpt>
<trkpt lat="45.87361786" lon="9.05169074"><ele></ele><time>2014-5-11T15:37:1Z</time></trkpt>
<trkpt lat="45.87318359" lon="9.05157088"><ele></ele><time>2014-5-11T15:37:4Z</time></trkpt>
<trkpt lat="45.87292476" lon="9.05150156"><ele></ele><time>2014-5-11T15:37:7Z</time></trkpt>
<trkpt lat="45.87257146" lon="9.05154222"><ele></ele><time>2014-5-11T15:37:10Z</time></trkpt>
<trkpt lat="45.87241262" lon="9.05160114"><ele></ele><time>2014-5-11T15:37:13Z</time></trkpt>
<trkpt lat="45.87225672" lon="9.05168052"><ele></ele><time>2014-5-11T15:37:16Z</time></trkpt>
<trkpt lat="45.87202605" lon="9.05181505"><ele></ele><time>2014-5-11T15:37:19Z</time></trkpt>
<trkpt lat="45.87182547" lon="9.05190465"><ele></ele><time>2014-5-11T15:37:22Z</time></trkpt>
<trkpt lat="45.87142456" lon="9.05212157"><ele></ele><time>2014-5-11T15:37:25Z</time></trkpt>
<trkpt lat="45.87128886" lon="9.05211478"><ele></ele><time>2014-5-11T15:37:28Z</time></trkpt>
<trkpt lat="45.87117026" lon="9.05207774"><ele></ele><time>2014-5-11T15:37:31Z</time></trkpt>
<trkpt lat="45.87106146" lon="9.05199442"><ele></ele><time>2014-5-11T15:37:34Z</time></trkpt>
<trkpt lat="45.87094495" lon="9.05187733"><ele></ele><time>2014-5-11T15:37:37Z</time></trkpt>
<trkpt lat="45.87080137" lon="9.05173324"><ele></ele><time>2014-5-11T15:37:40Z</time></trkpt>
<trkpt lat="45.87055746" lon="9.05156552"><ele></ele><time>2014-5-11T15:37:43Z</time></trkpt>
<trkpt lat="45.87035168" lon="9.05143292"><ele></ele><time>2014-5-11T15:37:46Z</time></trkpt>
<trkpt lat="45.87028513" lon="9.05138623"><ele></ele><time>2014-5-11T15:37:49Z</time></trkpt>
<trkpt lat="45.86965749" lon="9.05098348"><ele></ele><time>2014-5-11T15:37:52Z</time></trkpt>
<trkpt lat="45.86955012" lon="9.05094199"><ele></ele><time>2014-5-11T15:37:55Z</time></trkpt>
<trkpt lat="45.86943763" lon="9.05092489"><ele></ele><time>2014-5-11T15:37:58Z</time></trkpt>
<trkpt lat="45.86922733" lon="9.05091005"><ele></ele><time>2014-5-11T15:38:1Z</time></trkpt>
<trkpt lat="45.86917679" lon="9.05091156"><ele></ele><time>2014-5-11T15:38:4Z</time></trkpt>
<trkpt lat="45.86895517" lon="9.05088759"><ele></ele><time>2014-5-11T15:38:7Z</time></trkpt>
<trkpt lat="45.86881285" lon="9.05083110"><ele></ele><time>2014-5-11T15:38:10Z</time></trkpt>
<trkpt lat="45.86869852" lon="9.05075122"><ele></ele><time>2014-5-11T15:38:13Z</time></trkpt>
<trkpt lat="45.86857262" lon="9.05066564"><ele></ele><time>2014-5-11T15:38:16Z</time></trkpt>
<trkpt lat="45.86834975" lon="9.05044444"><ele></ele><time>2014-5-11T15:38:19Z</time></trkpt>
<trkpt lat="45.86831127" lon="9.05040253"><ele></ele><time>2014-5-11T15:38:22Z</time></trkpt>
<trkpt lat="45.86816442" lon="9.05026582"><ele></ele><time>2014-5-11T15:38:25Z</time></trkpt>
<trkpt lat="45.86794255" lon="9.04979157"><ele></ele><time>2014-5-11T15:38:28Z</time></trkpt>
<trkpt lat="45.86784138" lon="9.04959946"><ele></ele><time>2014-5-11T15:38:31Z</time></trkpt>
<trkpt lat="45.86771088" lon="9.04935773"><ele></ele><time>2014-5-11T15:38:34Z</time></trkpt>
<trkpt lat="45.86751315" lon="9.04905958"><ele></ele><time>2014-5-11T15:38:37Z</time></trkpt>
<trkpt lat="45.86745665" lon="9.04901859"><ele></ele><time>2014-5-11T15:38:40Z</time></trkpt>
<trkpt lat="45.86737074" lon="9.04901499"><ele></ele><time>2014-5-11T15:38:43Z</time></trkpt>
<trkpt lat="45.86733554" lon="9.04902706"><ele></ele><time>2014-5-11T15:38:46Z</time></trkpt>
<trkpt lat="45.86715348" lon="9.04907936"><ele></ele><time>2014-5-11T15:38:49Z</time></trkpt>
<trkpt lat="45.86704955" lon="9.04911314"><ele></ele><time>2014-5-11T15:38:52Z</time></trkpt>
<trkpt lat="45.86694083" lon="9.04913795"><ele></ele><time>2014-5-11T15:38:55Z</time></trkpt>
<trkpt lat="45.86664587" lon="9.04928455"><ele></ele><time>2014-5-11T15:38:58Z</time></trkpt>
<trkpt lat="45.86643104" lon="9.04930609"><ele></ele><time>2014-5-11T15:39:1Z</time></trkpt>
<trkpt lat="45.86627715" lon="9.04926997"><ele></ele><time>2014-5-11T15:39:4Z</time></trkpt>
<trkpt lat="45.86610574" lon="9.04912295"><ele></ele><time>2014-5-11T15:39:7Z</time></trkpt>
<trkpt lat="45.86596283" lon="9.04899672"><ele></ele><time>2014-5-11T15:39:10Z</time></trkpt>
<trkpt lat="45.86585982" lon="9.04890737"><ele></ele><time>2014-5-11T15:39:13Z</time></trkpt>
<trkpt lat="45.86571515" lon="9.04880729"><ele></ele><time>2014-5-11T15:39:16Z</time></trkpt>
<trkpt lat="45.86567366" lon="9.04877812"><ele></ele><time>2014-5-11T15:39:19Z</time></trkpt>
<trkpt lat="45.86556268" lon="9.04864929"><ele></ele><time>2014-5-11T15:39:22Z</time></trkpt>
<trkpt lat="45.86553577" lon="9.04859229"><ele></ele><time>2014-5-11T15:39:25Z</time></trkpt>
<trkpt lat="45.86545187" lon="9.04840889"><ele></ele><time>2014-5-11T15:39:28Z</time></trkpt>
<trkpt lat="45.86528465" lon="9.04813380"><ele></ele><time>2014-5-11T15:39:31Z</time></trkpt>
<trkpt lat="45.86521374" lon="9.04799558"><ele></ele><time>2014-5-11T15:39:34Z</time></trkpt>
<trkpt lat="45.86505004" lon="9.04779559"><ele></ele><time>2014-5-11T15:39:37Z</time></trkpt>
<trkpt lat="45.86496287" lon="9.04764882"><ele></ele><time>2014-5-11T15:39:40Z</time></trkpt>
<trkpt lat="45.86485667" lon="9.04755344"><ele></ele><time>2014-5-11T15:39:43Z</time></trkpt>
<trkpt lat="45.86473346" lon="9.04741857"><ele></ele><time>2014-5-11T15:39:46Z</time></trkpt>
<trkpt lat="45.86456255" lon="9.04723870"><ele></ele><time>2014-5-11T15:39:49Z</time></trkpt>
<trkpt lat="45.86452056" lon="9.04720659"><ele></ele><time>2014-5-11T15:39:52Z</time></trkpt>
<trkpt lat="45.86437027" lon="9.04704457"><ele></ele><time>2014-5-11T15:39:55Z</time></trkpt>
<trkpt lat="45.86433238" lon="9.04701205"><ele></ele><time>2014-5-11T15:39:58Z</time></trkpt>
<trkpt lat="45.86418872" lon="9.04682396"><ele></ele><time>2014-5-11T15:40:1Z</time></trkpt>
<trkpt lat="45.86415905" lon="9.04678012"><ele></ele><time>2014-5-11T15:40:4Z</time></trkpt>
<trkpt lat="45.86398864" lon="9.04652649"><ele></ele><time>2014-5-11T15:40:7Z</time></trkpt>
<trkpt lat="45.86394866" lon="9.04646664"><ele></ele><time>2014-5-11T15:40:10Z</time></trkpt>
<trkpt lat="45.86382645" lon="9.04623664"><ele></ele><time>2014-5-11T15:40:13Z</time></trkpt>
<trkpt lat="45.86371900" lon="9.04604260"><ele></ele><time>2014-5-11T15:40:16Z</time></trkpt>
<trkpt lat="45.86370106" lon="9.04599147"><ele></ele><time>2014-5-11T15:40:19Z</time></trkpt>
<trkpt lat="45.86365747" lon="9.04586599"><ele></ele><time>2014-5-11T15:40:22Z</time></trkpt>
<trkpt lat="45.86361590" lon="9.04573138"><ele></ele><time>2014-5-11T15:40:25Z</time></trkpt>
<trkpt lat="45.86352764" lon="9.04550146"><ele></ele><time>2014-5-11T15:40:28Z</time></trkpt>
<trkpt lat="45.86350735" lon="9.04529024"><ele></ele><time>2014-5-11T15:40:31Z</time></trkpt>
<trkpt lat="45.86351825" lon="9.04513685"><ele></ele><time>2014-5-11T15:40:34Z</time></trkpt>
<trkpt lat="45.86348992" lon="9.04471457"><ele></ele><time>2014-5-11T15:40:37Z</time></trkpt>
<trkpt lat="45.86344290" lon="9.04450066"><ele></ele><time>2014-5-11T15:40:40Z</time></trkpt>
<trkpt lat="45.86341926" lon="9.04447158"><ele></ele><time>2014-5-11T15:40:43Z</time></trkpt>
<trkpt lat="45.86337014" lon="9.04440293"><ele></ele><time>2014-5-11T15:40:46Z</time></trkpt>
<trkpt lat="45.86322606" lon="9.04421375"><ele></ele><time>2014-5-11T15:40:49Z</time></trkpt>
<trkpt lat="45.86318197" lon="9.04411342"><ele></ele><time>2014-5-11T15:40:52Z</time></trkpt>
<trkpt lat="45.86309949" lon="9.04364546"><ele></ele><time>2014-5-11T15:40:55Z</time></trkpt>
<trkpt lat="45.86302388" lon="9.04334145"><ele></ele><time>2014-5-11T15:40:58Z</time></trkpt>
<trkpt lat="45.86299304" lon="9.04307859"><ele></ele><time>2014-5-11T15:41:1Z</time></trkpt>
<trkpt lat="45.86294166" lon="9.04265312"><ele></ele><time>2014-5-11T15:41:4Z</time></trkpt>
<trkpt lat="45.86291718" lon="9.04261759"><ele></ele><time>2014-5-11T15:41:7Z</time></trkpt>
<trkpt lat="45.86288022" lon="9.04251256"><ele></ele><time>2014-5-11T15:41:10Z</time></trkpt>
<trkpt lat="45.86279732" lon="9.04230578"><ele></ele><time>2014-5-11T15:41:13Z</time></trkpt>
<trkpt lat="45.86274334" lon="9.04181384"><ele></ele><time>2014-5-11T15:41:16Z</time></trkpt>
<trkpt lat="45.86270185" lon="9.04161285"><ele></ele><time>2014-5-11T15:41:19Z</time></trkpt>
<trkpt lat="45.86259096" lon="9.04129970"><ele></ele><time>2014-5-11T15:41:22Z</time></trkpt>
<trkpt lat="45.86257084" lon="9.04127053"><ele></ele><time>2014-5-11T15:41:25Z</time></trkpt>
<trkpt lat="45.86253564" lon="9.04124103"><ele></ele><time>2014-5-11T15:41:28Z</time></trkpt>
<trkpt lat="45.86245609" lon="9.04115075"><ele></ele><time>2014-5-11T15:41:31Z</time></trkpt>
<trkpt lat="45.86235492" lon="9.04102326"><ele></ele><time>2014-5-11T15:41:34Z</time></trkpt>
<trkpt lat="45.86231025" lon="9.04099686"><ele></ele><time>2014-5-11T15:41:37Z</time></trkpt>
<trkpt lat="45.86224278" lon="9.04100524"><ele></ele><time>2014-5-11T15:41:40Z</time></trkpt>
<trkpt lat="45.86216030" lon="9.04093358"><ele></ele><time>2014-5-11T15:41:43Z</time></trkpt>
<trkpt lat="45.86204429" lon="9.04086770"><ele></ele><time>2014-5-11T15:41:46Z</time></trkpt>
<trkpt lat="45.86201118" lon="9.04082939"><ele></ele><time>2014-5-11T15:41:49Z</time></trkpt>
<trkpt lat="45.86195603" lon="9.04078513"><ele></ele><time>2014-5-11T15:41:52Z</time></trkpt>
<trkpt lat="45.86186525" lon="9.04067055"><ele></ele><time>2014-5-11T15:41:55Z</time></trkpt>
<trkpt lat="45.86184774" lon="9.04065857"><ele></ele><time>2014-5-11T15:41:58Z</time></trkpt>
<trkpt lat="45.86178680" lon="9.04053745"><ele></ele><time>2014-5-11T15:42:1Z</time></trkpt>
<trkpt lat="45.86176283" lon="9.04047274"><ele></ele><time>2014-5-11T15:42:4Z</time></trkpt>
<trkpt lat="45.86169066" lon="9.04041817"><ele></ele><time>2014-5-11T15:42:7Z</time></trkpt>
<trkpt lat="45.86168094" lon="9.04038574"><ele></ele><time>2014-5-11T15:42:10Z</time></trkpt>
<trkpt lat="45.86167105" lon="9.04035766"><ele></ele><time>2014-5-11T15:42:13Z</time></trkpt>
<trkpt lat="45.86157625" lon="9.04025104"><ele></ele><time>2014-5-11T15:42:16Z</time></trkpt>
<trkpt lat="45.86149846" lon="9.04017837"><ele></ele><time>2014-5-11T15:42:19Z</time></trkpt>
<trkpt lat="45.86143744" lon="9.04012179"><ele></ele><time>2014-5-11T15:42:22Z</time></trkpt>
<trkpt lat="45.86137994" lon="9.04005448"><ele></ele><time>2014-5-11T15:42:25Z</time></trkpt>
<trkpt lat="45.86120669" lon="9.03990638"><ele></ele><time>2014-5-11T15:42:28Z</time></trkpt>
<trkpt lat="45.86112748" lon="9.03982239"><ele></ele><time>2014-5-11T15:42:31Z</time></trkpt>
<trkpt lat="45.86101633" lon="9.03967964"><ele></ele><time>2014-5-11T15:42:34Z</time></trkpt>
<trkpt lat="45.86095624" lon="9.03955182"><ele></ele><time>2014-5-11T15:42:37Z</time></trkpt>
<trkpt lat="45.86095892" lon="9.03944990"><ele></ele><time>2014-5-11T15:42:40Z</time></trkpt>
<trkpt lat="45.86095414" lon="9.03932040"><ele></ele><time>2014-5-11T15:42:43Z</time></trkpt>
<trkpt lat="45.86090896" lon="9.03916776"><ele></ele><time>2014-5-11T15:42:46Z</time></trkpt>
<trkpt lat="45.86084275" lon="9.03904958"><ele></ele><time>2014-5-11T15:42:49Z</time></trkpt>
<trkpt lat="45.86082866" lon="9.03900155"><ele></ele><time>2014-5-11T15:42:52Z</time></trkpt>
<trkpt lat="45.86081224" lon="9.03878840"><ele></ele><time>2014-5-11T15:42:55Z</time></trkpt>
<trkpt lat="45.86080545" lon="9.03876116"><ele></ele><time>2014-5-11T15:42:58Z</time></trkpt>
<trkpt lat="45.86075398" lon="9.03866728"><ele></ele><time>2014-5-11T15:43:1Z</time></trkpt>
<trkpt lat="45.86069212" lon="9.03846729"><ele></ele><time>2014-5-11T15:43:4Z</time></trkpt>
<trkpt lat="45.86066807" lon="9.03839168"><ele></ele><time>2014-5-11T15:43:7Z</time></trkpt>
<trkpt lat="45.86055047" lon="9.03833846"><ele></ele><time>2014-5-11T15:43:10Z</time></trkpt>
<trkpt lat="45.86048442" lon="9.03812882"><ele></ele><time>2014-5-11T15:43:13Z</time></trkpt>
<trkpt lat="45.86042776" lon="9.03802020"><ele></ele><time>2014-5-11T15:43:16Z</time></trkpt>
<trkpt lat="45.86040689" lon="9.03797938"><ele></ele><time>2014-5-11T15:43:19Z</time></trkpt>
<trkpt lat="45.86036230" lon="9.03796697"><ele></ele><time>2014-5-11T15:43:22Z</time></trkpt>
<trkpt lat="45.86027705" lon="9.03786974"><ele></ele><time>2014-5-11T15:43:25Z</time></trkpt>
<trkpt lat="45.86013783" lon="9.03769196"><ele></ele><time>2014-5-11T15:43:28Z</time></trkpt>
<trkpt lat="45.85997513" lon="9.03756782"><ele></ele><time>2014-5-11T15:43:31Z</time></trkpt>
<trkpt lat="45.85989350" lon="9.03743422"><ele></ele><time>2014-5-11T15:43:34Z</time></trkpt>
<trkpt lat="45.85983834" lon="9.03732433"><ele></ele><time>2014-5-11T15:43:37Z</time></trkpt>
<trkpt lat="45.85974849" lon="9.03723883"><ele></ele><time>2014-5-11T15:43:40Z</time></trkpt>
<trkpt lat="45.85972385" lon="9.03722685"><ele></ele><time>2014-5-11T15:43:43Z</time></trkpt>
<trkpt lat="45.85965444" lon="9.03716859"><ele></ele><time>2014-5-11T15:43:46Z</time></trkpt>
<trkpt lat="45.85956769" lon="9.03708922"><ele></ele><time>2014-5-11T15:43:49Z</time></trkpt>
<trkpt lat="45.85945747" lon="9.03696952"><ele></ele><time>2014-5-11T15:43:52Z</time></trkpt>
<trkpt lat="45.85933803" lon="9.03681052"><ele></ele><time>2014-5-11T15:43:55Z</time></trkpt>
<trkpt lat="45.85929067" lon="9.03676635"><ele></ele><time>2014-5-11T15:43:58Z</time></trkpt>
<trkpt lat="45.85916092" lon="9.03672695"><ele></ele><time>2014-5-11T15:44:1Z</time></trkpt>
<trkpt lat="45.85912194" lon="9.03670206"><ele></ele><time>2014-5-11T15:44:4Z</time></trkpt>
<trkpt lat="45.85911565" lon="9.03667733"><ele></ele><time>2014-5-11T15:44:7Z</time></trkpt>
<trkpt lat="45.85917693" lon="9.03636703"><ele></ele><time>2014-5-11T15:44:10Z</time></trkpt>
<trkpt lat="45.85924482" lon="9.03628187"><ele></ele><time>2014-5-11T15:44:13Z</time></trkpt>
<trkpt lat="45.85935018" lon="9.03616746"><ele></ele><time>2014-5-11T15:44:16Z</time></trkpt>
<trkpt lat="45.85937189" lon="9.03614433"><ele></ele><time>2014-5-11T15:44:19Z</time></trkpt>
<trkpt lat="45.85937968" lon="9.03603519"><ele></ele><time>2014-5-11T15:44:22Z</time></trkpt>
<trkpt lat="45.85936552" lon="9.03601617"><ele></ele><time>2014-5-11T15:44:25Z</time></trkpt>
<trkpt lat="45.85934188" lon="9.03599119"><ele></ele><time>2014-5-11T15:44:28Z</time></trkpt>
<trkpt lat="45.85941380" lon="9.03591097"><ele></ele><time>2014-5-11T15:44:31Z</time></trkpt>
<trkpt lat="45.85946308" lon="9.03579614"><ele></ele><time>2014-5-11T15:44:34Z</time></trkpt>
<trkpt lat="45.85944297" lon="9.03572179"><ele></ele><time>2014-5-11T15:44:37Z</time></trkpt>
<trkpt lat="45.85943400" lon="9.03569866"><ele></ele><time>2014-5-11T15:44:40Z</time></trkpt>
<trkpt lat="45.85937348" lon="9.03556329"><ele></ele><time>2014-5-11T15:44:43Z</time></trkpt>
<trkpt lat="45.85933627" lon="9.03552985"><ele></ele><time>2014-5-11T15:44:46Z</time></trkpt>
<trkpt lat="45.85928606" lon="9.03545433"><ele></ele><time>2014-5-11T15:44:49Z</time></trkpt>
<trkpt lat="45.85923107" lon="9.03534972"><ele></ele><time>2014-5-11T15:44:52Z</time></trkpt>
<trkpt lat="45.85917072" lon="9.03533028"><ele></ele><time>2014-5-11T15:44:55Z</time></trkpt>
<trkpt lat="45.85904785" lon="9.03526875"><ele></ele><time>2014-5-11T15:44:58Z</time></trkpt>
<trkpt lat="45.85900862" lon="9.03525434"><ele></ele><time>2014-5-11T15:45:1Z</time></trkpt>
<trkpt lat="45.85900107" lon="9.03524637"><ele></ele><time>2014-5-11T15:45:4Z</time></trkpt>
<trkpt lat="45.85902899" lon="9.03509893"><ele></ele><time>2014-5-11T15:45:7Z</time></trkpt>
<trkpt lat="45.85907886" lon="9.03499978"><ele></ele><time>2014-5-11T15:45:10Z</time></trkpt>
<trkpt lat="45.85905195" lon="9.03497673"><ele></ele><time>2014-5-11T15:45:13Z</time></trkpt>
<trkpt lat="45.85903779" lon="9.03496097"><ele></ele><time>2014-5-11T15:45:16Z</time></trkpt>
<trkpt lat="45.85902530" lon="9.03495477"><ele></ele><time>2014-5-11T15:45:19Z</time></trkpt>
<trkpt lat="45.85902882" lon="9.03498444"><ele></ele><time>2014-5-11T15:45:22Z</time></trkpt>
<trkpt lat="45.85901742" lon="9.03499148"><ele></ele><time>2014-5-11T15:45:25Z</time></trkpt>
<trkpt lat="45.85904902" lon="9.03496466"><ele></ele><time>2014-5-11T15:45:28Z</time></trkpt>
<trkpt lat="45.85911507" lon="9.03495485"><ele></ele><time>2014-5-11T15:45:31Z</time></trkpt>
<trkpt lat="45.85910442" lon="9.03486642"><ele></ele><time>2014-5-11T15:45:34Z</time></trkpt>
<trkpt lat="45.85904307" lon="9.03481998"><ele></ele><time>2014-5-11T15:45:37Z</time></trkpt>
<trkpt lat="45.85897668" lon="9.03480758"><ele></ele><time>2014-5-11T15:45:40Z</time></trkpt>
<trkpt lat="45.85892513" lon="9.03461454"><ele></ele><time>2014-5-11T15:45:43Z</time></trkpt>
<trkpt lat="45.85895967" lon="9.03446627"><ele></ele><time>2014-5-11T15:45:46Z</time></trkpt>
<trkpt lat="45.85898917" lon="9.03432889"><ele></ele><time>2014-5-11T15:45:49Z</time></trkpt>
<trkpt lat="45.85899688" lon="9.03428740"><ele></ele><time>2014-5-11T15:45:52Z</time></trkpt>
<trkpt lat="45.85900619" lon="9.03422076"><ele></ele><time>2014-5-11T15:45:55Z</time></trkpt>
<trkpt lat="45.85900853" lon="9.03401574"><ele></ele><time>2014-5-11T15:45:58Z</time></trkpt>
<trkpt lat="45.85900568" lon="9.03396755"><ele></ele><time>2014-5-11T15:46:1Z</time></trkpt>
<trkpt lat="45.85899814" lon="9.03386076"><ele></ele><time>2014-5-11T15:46:4Z</time></trkpt>
<trkpt lat="45.85901306" lon="9.03350998"><ele></ele><time>2014-5-11T15:46:7Z</time></trkpt>
<trkpt lat="45.85905950" lon="9.03330537"><ele></ele><time>2014-5-11T15:46:10Z</time></trkpt>
<trkpt lat="45.85909009" lon="9.03317965"><ele></ele><time>2014-5-11T15:46:13Z</time></trkpt>
<trkpt lat="45.85908213" lon="9.03310647"><ele></ele><time>2014-5-11T15:46:16Z</time></trkpt>
<trkpt lat="45.85905933" lon="9.03308376"><ele></ele><time>2014-5-11T15:46:19Z</time></trkpt>
<trkpt lat="45.85892648" lon="9.03272987"><ele></ele><time>2014-5-11T15:46:22Z</time></trkpt>
<trkpt lat="45.85877669" lon="9.03232369"><ele></ele><time>2014-5-11T15:46:25Z</time></trkpt>
<trkpt lat="45.85872020" lon="9.03221908"><ele></ele><time>2014-5-11T15:46:28Z</time></trkpt>
<trkpt lat="45.85866890" lon="9.03209067"><ele></ele><time>2014-5-11T15:46:31Z</time></trkpt>
<trkpt lat="45.85838743" lon="9.03180099"><ele></ele><time>2014-5-11T15:46:34Z</time></trkpt>
<trkpt lat="45.85830588" lon="9.03165942"><ele></ele><time>2014-5-11T15:46:37Z</time></trkpt>
<trkpt lat="45.85809834" lon="9.03124007"><ele></ele><time>2014-5-11T15:46:40Z</time></trkpt>
<trkpt lat="45.85804847" lon="9.03095107"><ele></ele><time>2014-5-11T15:46:43Z</time></trkpt>
<trkpt lat="45.85801109" lon="9.03068435"><ele></ele><time>2014-5-11T15:46:46Z</time></trkpt>
<trkpt lat="45.85808753" lon="9.03009955"><ele></ele><time>2014-5-11T15:46:49Z</time></trkpt>
<trkpt lat="45.85833195" lon="9.03016694"><ele></ele><time>2014-5-11T15:46:52Z</time></trkpt>
<trkpt lat="45.85840227" lon="9.03059576"><ele></ele><time>2014-5-11T15:46:55Z</time></trkpt>
<trkpt lat="45.85840344" lon="9.03062493"><ele></ele><time>2014-5-11T15:46:58Z</time></trkpt>
<trkpt lat="45.85849020" lon="9.03086456"><ele></ele><time>2014-5-11T15:47:1Z</time></trkpt>
<trkpt lat="45.85859095" lon="9.03117964"><ele></ele><time>2014-5-11T15:47:4Z</time></trkpt>
<trkpt lat="45.85870293" lon="9.03149740"><ele></ele><time>2014-5-11T15:47:7Z</time></trkpt>
<trkpt lat="45.85875104" lon="9.03164165"><ele></ele><time>2014-5-11T15:47:10Z</time></trkpt>
<trkpt lat="45.85883746" lon="9.03192387"><ele></ele><time>2014-5-11T15:47:13Z</time></trkpt>
<trkpt lat="45.85892404" lon="9.03212914"><ele></ele><time>2014-5-11T15:47:16Z</time></trkpt>
<trkpt lat="45.85899395" lon="9.03222822"><ele></ele><time>2014-5-11T15:47:19Z</time></trkpt>
<trkpt lat="45.85908883" lon="9.03240583"><ele></ele><time>2014-5-11T15:47:22Z</time></trkpt>
<trkpt lat="45.85916293" lon="9.03251186"><ele></ele><time>2014-5-11T15:47:25Z</time></trkpt>
<trkpt lat="45.85923795" lon="9.03260708"><ele></ele><time>2014-5-11T15:47:28Z</time></trkpt>
<trkpt lat="45.85941338" lon="9.03281109"><ele></ele><time>2014-5-11T15:47:31Z</time></trkpt>
<trkpt lat="45.85952645" lon="9.03288175"><ele></ele><time>2014-5-11T15:47:34Z</time></trkpt>
<trkpt lat="45.85952855" lon="9.03287949"><ele></ele><time>2014-5-11T15:47:37Z</time></trkpt>
<trkpt lat="45.85952888" lon="9.03284923"><ele></ele><time>2014-5-11T15:47:40Z</time></trkpt>
<trkpt lat="45.85949728" lon="9.03260733"><ele></ele><time>2014-5-11T15:47:43Z</time></trkpt>
<trkpt lat="45.85938706" lon="9.03237750"><ele></ele><time>2014-5-11T15:47:46Z</time></trkpt>
<trkpt lat="45.85927525" lon="9.03196268"><ele></ele><time>2014-5-11T15:47:49Z</time></trkpt>
<trkpt lat="45.85919612" lon="9.03163746"><ele></ele><time>2014-5-11T15:47:52Z</time></trkpt>
<trkpt lat="45.85921045" lon="9.03132968"><ele></ele><time>2014-5-11T15:47:55Z</time></trkpt>
<trkpt lat="45.85920199" lon="9.03106414"><ele></ele><time>2014-5-11T15:47:58Z</time></trkpt>
<trkpt lat="45.85917936" lon="9.03088049"><ele></ele><time>2014-5-11T15:48:1Z</time></trkpt>
<trkpt lat="45.85917265" lon="9.03042493"><ele></ele><time>2014-5-11T15:48:4Z</time></trkpt>
<trkpt lat="45.85915949" lon="9.03017599"><ele></ele><time>2014-5-11T15:48:7Z</time></trkpt>
<trkpt lat="45.85913284" lon="9.03003006"><ele></ele><time>2014-5-11T15:48:10Z</time></trkpt>
<trkpt lat="45.85901423" lon="9.02972077"><ele></ele><time>2014-5-11T15:48:13Z</time></trkpt>
<trkpt lat="45.85896637" lon="9.02960166"><ele></ele><time>2014-5-11T15:48:16Z</time></trkpt>
<trkpt lat="45.85893796" lon="9.02954307"><ele></ele><time>2014-5-11T15:48:19Z</time></trkpt>
<trkpt lat="45.85885313" lon="9.02943553"><ele></ele><time>2014-5-11T15:48:22Z</time></trkpt>
<trkpt lat="45.85892287" lon="9.02932297"><ele></ele><time>2014-5-11T15:48:25Z</time></trkpt>
<trkpt lat="45.85913049" lon="9.02954274"><ele></ele><time>2014-5-11T15:48:28Z</time></trkpt>
<trkpt lat="45.85924834" lon="9.02968666"><ele></ele><time>2014-5-11T15:48:31Z</time></trkpt>
<trkpt lat="45.85936024" lon="9.02990249"><ele></ele><time>2014-5-11T15:48:34Z</time></trkpt>
<trkpt lat="45.85948018" lon="9.03012964"><ele></ele><time>2014-5-11T15:48:37Z</time></trkpt>
<trkpt lat="45.85956166" lon="9.03033868"><ele></ele><time>2014-5-11T15:48:40Z</time></trkpt>
<trkpt lat="45.85962653" lon="9.03057849"><ele></ele><time>2014-5-11T15:48:43Z</time></trkpt>
<trkpt lat="45.85967909" lon="9.03070196"><ele></ele><time>2014-5-11T15:48:46Z</time></trkpt>
<trkpt lat="45.85976249" lon="9.03089717"><ele></ele><time>2014-5-11T15:48:49Z</time></trkpt>
<trkpt lat="45.85986810" lon="9.03113706"><ele></ele><time>2014-5-11T15:48:52Z</time></trkpt>
<trkpt lat="45.85984572" lon="9.03112952"><ele></ele><time>2014-5-11T15:48:55Z</time></trkpt>
<trkpt lat="45.85990255" lon="9.03098644"><ele></ele><time>2014-5-11T15:48:58Z</time></trkpt>
<trkpt lat="45.85991537" lon="9.03094503"><ele></ele><time>2014-5-11T15:49:1Z</time></trkpt>
<trkpt lat="45.85995309" lon="9.03079768"><ele></ele><time>2014-5-11T15:49:4Z</time></trkpt>
<trkpt lat="45.85995686" lon="9.03077848"><ele></ele><time>2014-5-11T15:49:7Z</time></trkpt>
<trkpt lat="45.85999559" lon="9.03056332"><ele></ele><time>2014-5-11T15:49:10Z</time></trkpt>
<trkpt lat="45.86001470" lon="9.03037372"><ele></ele><time>2014-5-11T15:49:13Z</time></trkpt>
<trkpt lat="45.85987346" lon="9.02998304"><ele></ele><time>2014-5-11T15:49:16Z</time></trkpt>
<trkpt lat="45.85985133" lon="9.02987047"><ele></ele><time>2014-5-11T15:49:19Z</time></trkpt>
<trkpt lat="45.85996885" lon="9.02977467"><ele></ele><time>2014-5-11T15:49:22Z</time></trkpt>
<trkpt lat="45.86001587" lon="9.02977115"><ele></ele><time>2014-5-11T15:49:25Z</time></trkpt>
<trkpt lat="45.86009240" lon="9.02977265"><ele></ele><time>2014-5-11T15:49:28Z</time></trkpt>
<trkpt lat="45.86018368" lon="9.02972739"><ele></ele><time>2014-5-11T15:49:31Z</time></trkpt>
<trkpt lat="45.86022533" lon="9.02972789"><ele></ele><time>2014-5-11T15:49:34Z</time></trkpt>
<trkpt lat="45.86036825" lon="9.02981666"><ele></ele><time>2014-5-11T15:49:37Z</time></trkpt>
<trkpt lat="45.86052138" lon="9.03010567"><ele></ele><time>2014-5-11T15:49:40Z</time></trkpt>
<trkpt lat="45.86072599" lon="9.03051713"><ele></ele><time>2014-5-11T15:49:43Z</time></trkpt>
<trkpt lat="45.86081936" lon="9.03065317"><ele></ele><time>2014-5-11T15:49:46Z</time></trkpt>
<trkpt lat="45.86085498" lon="9.03078217"><ele></ele><time>2014-5-11T15:49:49Z</time></trkpt>
<trkpt lat="45.86084409" lon="9.03125013"><ele></ele><time>2014-5-11T15:49:52Z</time></trkpt>
<trkpt lat="45.86083948" lon="9.03128777"><ele></ele><time>2014-5-11T15:49:55Z</time></trkpt>
<trkpt lat="45.86086546" lon="9.03142079"><ele></ele><time>2014-5-11T15:49:58Z</time></trkpt>
<trkpt lat="45.86089346" lon="9.03166973"><ele></ele><time>2014-5-11T15:50:1Z</time></trkpt>
<trkpt lat="45.86092925" lon="9.03185774"><ele></ele><time>2014-5-11T15:50:4Z</time></trkpt>
<trkpt lat="45.86094920" lon="9.03206946"><ele></ele><time>2014-5-11T15:50:7Z</time></trkpt>
<trkpt lat="45.86099027" lon="9.03229829"><ele></ele><time>2014-5-11T15:50:10Z</time></trkpt>
<trkpt lat="45.86091357" lon="9.03249585"><ele></ele><time>2014-5-11T15:50:13Z</time></trkpt>
<trkpt lat="45.86089019" lon="9.03256475"><ele></ele><time>2014-5-11T15:50:16Z</time></trkpt>
<trkpt lat="45.86085876" lon="9.03270414"><ele></ele><time>2014-5-11T15:50:19Z</time></trkpt>
<trkpt lat="45.86082104" lon="9.03281026"><ele></ele><time>2014-5-11T15:50:22Z</time></trkpt>
<trkpt lat="45.86111533" lon="9.03283197"><ele></ele><time>2014-5-11T15:50:25Z</time></trkpt>
<trkpt lat="45.86145404" lon="9.03294789"><ele></ele><time>2014-5-11T15:50:28Z</time></trkpt>
<trkpt lat="45.86159913" lon="9.03301997"><ele></ele><time>2014-5-11T15:50:31Z</time></trkpt>
<trkpt lat="45.86168798" lon="9.03313866"><ele></ele><time>2014-5-11T15:50:34Z</time></trkpt>
<trkpt lat="45.86175344" lon="9.03320923"><ele></ele><time>2014-5-11T15:50:37Z</time></trkpt>
<trkpt lat="45.86177800" lon="9.03330328"><ele></ele><time>2014-5-11T15:50:40Z</time></trkpt>
<trkpt lat="45.86178596" lon="9.03346312"><ele></ele><time>2014-5-11T15:50:43Z</time></trkpt>
<trkpt lat="45.86182603" lon="9.03354744"><ele></ele><time>2014-5-11T15:50:46Z</time></trkpt>
<trkpt lat="45.86184002" lon="9.03361718"><ele></ele><time>2014-5-11T15:50:49Z</time></trkpt>
<trkpt lat="45.86177272" lon="9.03393779"><ele></ele><time>2014-5-11T15:50:52Z</time></trkpt>
<trkpt lat="45.86178320" lon="9.03401013"><ele></ele><time>2014-5-11T15:50:55Z</time></trkpt>
<trkpt lat="45.86186215" lon="9.03407383"><ele></ele><time>2014-5-11T15:50:58Z</time></trkpt>
<trkpt lat="45.86201889" lon="9.03430735"><ele></ele><time>2014-5-11T15:51:1Z</time></trkpt>
<trkpt lat="45.86210062" lon="9.03445772"><ele></ele><time>2014-5-11T15:51:4Z</time></trkpt>
<trkpt lat="45.86213406" lon="9.03453525"><ele></ele><time>2014-5-11T15:51:7Z</time></trkpt>
<trkpt lat="45.86221947" lon="9.03473784"><ele></ele><time>2014-5-11T15:51:10Z</time></trkpt>
<trkpt lat="45.86226189" lon="9.03476609"><ele></ele><time>2014-5-11T15:51:13Z</time></trkpt>
<trkpt lat="45.86229256" lon="9.03486248"><ele></ele><time>2014-5-11T15:51:16Z</time></trkpt>
<trkpt lat="45.86231863" lon="9.03488570"><ele></ele><time>2014-5-11T15:51:19Z</time></trkpt>
<trkpt lat="45.86232274" lon="9.03492375"><ele></ele><time>2014-5-11T15:51:22Z</time></trkpt>
<trkpt lat="45.86235099" lon="9.03496424"><ele></ele><time>2014-5-11T15:51:25Z</time></trkpt>
<trkpt lat="45.86236339" lon="9.03518108"><ele></ele><time>2014-5-11T15:51:28Z</time></trkpt>
<trkpt lat="45.86241603" lon="9.03525073"><ele></ele><time>2014-5-11T15:51:31Z</time></trkpt>
<trkpt lat="45.86250965" lon="9.03536657"><ele></ele><time>2014-5-11T15:51:34Z</time></trkpt>
<trkpt lat="45.86270898" lon="9.03536087"><ele></ele><time>2014-5-11T15:51:37Z</time></trkpt>
<trkpt lat="45.86291165" lon="9.03529515"><ele></ele><time>2014-5-11T15:51:40Z</time></trkpt>
<trkpt lat="45.86301877" lon="9.03521008"><ele></ele><time>2014-5-11T15:51:43Z</time></trkpt>
<trkpt lat="45.86313302" lon="9.03512492"><ele></ele><time>2014-5-11T15:51:46Z</time></trkpt>
<trkpt lat="45.86318649" lon="9.03506775"><ele></ele><time>2014-5-11T15:51:49Z</time></trkpt>
<trkpt lat="45.86324005" lon="9.03503976"><ele></ele><time>2014-5-11T15:51:52Z</time></trkpt>
<trkpt lat="45.86343166" lon="9.03497153"><ele></ele><time>2014-5-11T15:51:55Z</time></trkpt>
<trkpt lat="45.86359260" lon="9.03494144"><ele></ele><time>2014-5-11T15:51:58Z</time></trkpt>
<trkpt lat="45.86378018" lon="9.03496273"><ele></ele><time>2014-5-11T15:52:1Z</time></trkpt>
<trkpt lat="45.86387322" lon="9.03500833"><ele></ele><time>2014-5-11T15:52:4Z</time></trkpt>
<trkpt lat="45.86402426" lon="9.03517353"><ele></ele><time>2014-5-11T15:52:7Z</time></trkpt>
<trkpt lat="45.86407590" lon="9.03522835"><ele></ele><time>2014-5-11T15:52:10Z</time></trkpt>
<trkpt lat="45.86406710" lon="9.03519658"><ele></ele><time>2014-5-11T15:52:13Z</time></trkpt>
<trkpt lat="45.86404924" lon="9.03512592"><ele></ele><time>2014-5-11T15:52:16Z</time></trkpt>
<trkpt lat="45.86399493" lon="9.03492878"><ele></ele><time>2014-5-11T15:52:19Z</time></trkpt>
<trkpt lat="45.86396442" lon="9.03457557"><ele></ele><time>2014-5-11T15:52:22Z</time></trkpt>
<trkpt lat="45.86394707" lon="9.03447574"><ele></ele><time>2014-5-11T15:52:25Z</time></trkpt>
<trkpt lat="45.86408059" lon="9.03452259"><ele></ele><time>2014-5-11T15:52:28Z</time></trkpt>
<trkpt lat="45.86431478" lon="9.03471563"><ele></ele><time>2014-5-11T15:52:31Z</time></trkpt>
<trkpt lat="45.86435619" lon="9.03473943"><ele></ele><time>2014-5-11T15:52:34Z</time></trkpt>
<trkpt lat="45.86436189" lon="9.03481219"><ele></ele><time>2014-5-11T15:52:37Z</time></trkpt>
<trkpt lat="45.86434395" lon="9.03479375"><ele></ele><time>2014-5-11T15:52:40Z</time></trkpt>
<trkpt lat="45.86436826" lon="9.03453064"><ele></ele><time>2014-5-11T15:52:43Z</time></trkpt>
<trkpt lat="45.86439349" lon="9.03446157"><ele></ele><time>2014-5-11T15:52:46Z</time></trkpt>
<trkpt lat="45.86436432" lon="9.03446359"><ele></ele><time>2014-5-11T15:52:49Z</time></trkpt>
<trkpt lat="45.86436323" lon="9.03446157"><ele></ele><time>2014-5-11T15:52:52Z</time></trkpt>
<trkpt lat="45.86443137" lon="9.03453609"><ele></ele><time>2014-5-11T15:52:55Z</time></trkpt>
<trkpt lat="45.86446264" lon="9.03459996"><ele></ele><time>2014-5-11T15:52:58Z</time></trkpt>
<trkpt lat="45.86451737" lon="9.03452176"><ele></ele><time>2014-5-11T15:53:1Z</time></trkpt>
<trkpt lat="45.86451184" lon="9.03447993"><ele></ele><time>2014-5-11T15:53:4Z</time></trkpt>
<trkpt lat="45.86450765" lon="9.03443534"><ele></ele><time>2014-5-11T15:53:7Z</time></trkpt>
<trkpt lat="45.86454478" lon="9.03438957"><ele></ele><time>2014-5-11T15:53:10Z</time></trkpt>
<trkpt lat="45.86472642" lon="9.03450994"><ele></ele><time>2014-5-11T15:53:13Z</time></trkpt>
<trkpt lat="45.86486195" lon="9.03447255"><ele></ele><time>2014-5-11T15:53:16Z</time></trkpt>
<trkpt lat="45.86492859" lon="9.03435739"><ele></ele><time>2014-5-11T15:53:19Z</time></trkpt>
<trkpt lat="45.86503269" lon="9.03400258"><ele></ele><time>2014-5-11T15:53:22Z</time></trkpt>
<trkpt lat="45.86511693" lon="9.03378054"><ele></ele><time>2014-5-11T15:53:25Z</time></trkpt>
<trkpt lat="45.86527987" lon="9.03348542"><ele></ele><time>2014-5-11T15:53:28Z</time></trkpt>
<trkpt lat="45.86537459" lon="9.03329649"><ele></ele><time>2014-5-11T15:53:31Z</time></trkpt>
<trkpt lat="45.86555623" lon="9.03304252"><ele></ele><time>2014-5-11T15:53:34Z</time></trkpt>
<trkpt lat="45.86608303" lon="9.03290229"><ele></ele><time>2014-5-11T15:53:37Z</time></trkpt>
<trkpt lat="45.86615285" lon="9.03294596"><ele></ele><time>2014-5-11T15:53:40Z</time></trkpt>
<trkpt lat="45.86627288" lon="9.03303875"><ele></ele><time>2014-5-11T15:53:43Z</time></trkpt>
<trkpt lat="45.86653012" lon="9.03312072"><ele></ele><time>2014-5-11T15:53:46Z</time></trkpt>
<trkpt lat="45.86661033" lon="9.03313589"><ele></ele><time>2014-5-11T15:53:49Z</time></trkpt>
<trkpt lat="45.86669968" lon="9.03316280"><ele></ele><time>2014-5-11T15:53:52Z</time></trkpt>
<trkpt lat="45.86696313" lon="9.03335013"><ele></ele><time>2014-5-11T15:53:55Z</time></trkpt>
<trkpt lat="45.86725666" lon="9.03367468"><ele></ele><time>2014-5-11T15:53:58Z</time></trkpt>
<trkpt lat="45.86750158" lon="9.03419830"><ele></ele><time>2014-5-11T15:54:1Z</time></trkpt>
<trkpt lat="45.86751315" lon="9.03429176"><ele></ele><time>2014-5-11T15:54:4Z</time></trkpt>
<trkpt lat="45.86753419" lon="9.03454280"><ele></ele><time>2014-5-11T15:54:7Z</time></trkpt>
<trkpt lat="45.86757383" lon="9.03513464"><ele></ele><time>2014-5-11T15:54:10Z</time></trkpt>
<trkpt lat="45.86768447" lon="9.03509919"><ele></ele><time>2014-5-11T15:54:13Z</time></trkpt>
<trkpt lat="45.86771616" lon="9.03507144"><ele></ele><time>2014-5-11T15:54:16Z</time></trkpt>
<trkpt lat="45.86809024" lon="9.03455042"><ele></ele><time>2014-5-11T15:54:19Z</time></trkpt>
<trkpt lat="45.86849836" lon="9.03398749"><ele></ele><time>2014-5-11T15:54:22Z</time></trkpt>
<trkpt lat="45.86864848" lon="9.03383503"><ele></ele><time>2014-5-11T15:54:25Z</time></trkpt>
<trkpt lat="45.86878535" lon="9.03374886"><ele></ele><time>2014-5-11T15:54:28Z</time></trkpt>
<trkpt lat="45.86897705" lon="9.03372464"><ele></ele><time>2014-5-11T15:54:31Z</time></trkpt>
<trkpt lat="45.86912029" lon="9.03374802"><ele></ele><time>2014-5-11T15:54:34Z</time></trkpt>
<trkpt lat="45.86933110" lon="9.03381986"><ele></ele><time>2014-5-11T15:54:37Z</time></trkpt>
<trkpt lat="45.86966093" lon="9.03423870"><ele></ele><time>2014-5-11T15:54:40Z</time></trkpt>
<trkpt lat="45.86983904" lon="9.03454296"><ele></ele><time>2014-5-11T15:54:43Z</time></trkpt>
<trkpt lat="45.86989705" lon="9.03447507"><ele></ele><time>2014-5-11T15:54:46Z</time></trkpt>
<trkpt lat="45.86991766" lon="9.03435378"><ele></ele><time>2014-5-11T15:54:49Z</time></trkpt>
<trkpt lat="45.86991289" lon="9.03411725"><ele></ele><time>2014-5-11T15:54:52Z</time></trkpt>
<trkpt lat="45.87000878" lon="9.03349129"><ele></ele><time>2014-5-11T15:54:55Z</time></trkpt>
<trkpt lat="45.87029485" lon="9.03316825"><ele></ele><time>2014-5-11T15:54:58Z</time></trkpt>
<trkpt lat="45.87034925" lon="9.03319482"><ele></ele><time>2014-5-11T15:55:1Z</time></trkpt>
<trkpt lat="45.87053038" lon="9.03329875"><ele></ele><time>2014-5-11T15:55:4Z</time></trkpt>
<trkpt lat="45.87066860" lon="9.03335483"><ele></ele><time>2014-5-11T15:55:7Z</time></trkpt>
<trkpt lat="45.87081176" lon="9.03344636"><ele></ele><time>2014-5-11T15:55:10Z</time></trkpt>
<trkpt lat="45.87093942" lon="9.03357435"><ele></ele><time>2014-5-11T15:55:13Z</time></trkpt>
<trkpt lat="45.87106850" lon="9.03368784"><ele></ele><time>2014-5-11T15:55:16Z</time></trkpt>
<trkpt lat="45.87137503" lon="9.03390317"><ele></ele><time>2014-5-11T15:55:19Z</time></trkpt>
<trkpt lat="45.87155398" lon="9.03378826"><ele></ele><time>2014-5-11T15:55:22Z</time></trkpt>
<trkpt lat="45.87154526" lon="9.03351073"><ele></ele><time>2014-5-11T15:55:25Z</time></trkpt>
<trkpt lat="45.87162707" lon="9.03280984"><ele></ele><time>2014-5-11T15:55:28Z</time></trkpt>
<trkpt lat="45.87168876" lon="9.03260699"><ele></ele><time>2014-5-11T15:55:31Z</time></trkpt>
<trkpt lat="45.87179789" lon="9.03238697"><ele></ele><time>2014-5-11T15:55:34Z</time></trkpt>
<trkpt lat="45.87166185" lon="9.03253416"><ele></ele><time>2014-5-11T15:55:37Z</time></trkpt>
<trkpt lat="45.87142297" lon="9.03289835"><ele></ele><time>2014-5-11T15:55:40Z</time></trkpt>
<trkpt lat="45.87122189" lon="9.03300187"><ele></ele><time>2014-5-11T15:55:43Z</time></trkpt>
<trkpt lat="45.87095593" lon="9.03269014"><ele></ele><time>2014-5-11T15:55:46Z</time></trkpt>
<trkpt lat="45.87088192" lon="9.03231489"><ele></ele><time>2014-5-11T15:55:49Z</time></trkpt>
<trkpt lat="45.87072434" lon="9.03191624"><ele></ele><time>2014-5-11T15:55:52Z</time></trkpt>
<trkpt lat="45.87062485" lon="9.03175883"><ele></ele><time>2014-5-11T15:55:55Z</time></trkpt>
<trkpt lat="45.87052275" lon="9.03158222"><ele></ele><time>2014-5-11T15:55:58Z</time></trkpt>
<trkpt lat="45.87050783" lon="9.03133026"><ele></ele><time>2014-5-11T15:56:1Z</time></trkpt>
<trkpt lat="45.87045612" lon="9.03117780"><ele></ele><time>2014-5-11T15:56:4Z</time></trkpt>
<trkpt lat="45.87037942" lon="9.03096439"><ele></ele><time>2014-5-11T15:56:7Z</time></trkpt>
<trkpt lat="45.87033198" lon="9.03091905"><ele></ele><time>2014-5-11T15:56:10Z</time></trkpt>
<trkpt lat="45.86993527" lon="9.03074554"><ele></ele><time>2014-5-11T15:56:13Z</time></trkpt>
<trkpt lat="45.86963452" lon="9.03043826"><ele></ele><time>2014-5-11T15:56:16Z</time></trkpt>
<trkpt lat="45.86947787" lon="9.03028378"><ele></ele><time>2014-5-11T15:56:19Z</time></trkpt>
<trkpt lat="45.86933278" lon="9.03016174"><ele></ele><time>2014-5-11T15:56:22Z</time></trkpt>
<trkpt lat="45.86917955" lon="9.03014699"><ele></ele><time>2014-5-11T15:56:25Z</time></trkpt>
<trkpt lat="45.86895299" lon="9.03017147"><ele></ele><time>2014-5-11T15:56:28Z</time></trkpt>
<trkpt lat="45.86880849" lon="9.03013140"><ele></ele><time>2014-5-11T15:56:31Z</time></trkpt>
<trkpt lat="45.86878443" lon="9.03022075"><ele></ele><time>2014-5-11T15:56:34Z</time></trkpt>
<trkpt lat="45.86877907" lon="9.03025269"><ele></ele><time>2014-5-11T15:56:37Z</time></trkpt>
<trkpt lat="45.86874420" lon="9.03035134"><ele></ele><time>2014-5-11T15:56:40Z</time></trkpt>
<trkpt lat="45.86873146" lon="9.03039568"><ele></ele><time>2014-5-11T15:56:43Z</time></trkpt>
<trkpt lat="45.86870187" lon="9.03045293"><ele></ele><time>2014-5-11T15:56:46Z</time></trkpt>
<trkpt lat="45.86863523" lon="9.03037917"><ele></ele><time>2014-5-11T15:56:49Z</time></trkpt>
<trkpt lat="45.86860824" lon="9.03029082"><ele></ele><time>2014-5-11T15:56:52Z</time></trkpt>
<trkpt lat="45.86845444" lon="9.03028244"><ele></ele><time>2014-5-11T15:56:55Z</time></trkpt>
<trkpt lat="45.86843398" lon="9.03021832"><ele></ele><time>2014-5-11T15:56:58Z</time></trkpt>
<trkpt lat="45.86844446" lon="9.03010885"><ele></ele><time>2014-5-11T15:57:1Z</time></trkpt>
<trkpt lat="45.86841487" lon="9.03000953"><ele></ele><time>2014-5-11T15:57:4Z</time></trkpt>
<trkpt lat="45.86841705" lon="9.02996519"><ele></ele><time>2014-5-11T15:57:7Z</time></trkpt>
<trkpt lat="45.86842099" lon="9.02992822"><ele></ele><time>2014-5-11T15:57:10Z</time></trkpt>
<trkpt lat="45.86839920" lon="9.02977777"><ele></ele><time>2014-5-11T15:57:13Z</time></trkpt>
<trkpt lat="45.86831345" lon="9.02951726"><ele></ele><time>2014-5-11T15:57:16Z</time></trkpt>
<trkpt lat="45.86840297" lon="9.02930478"><ele></ele><time>2014-5-11T15:57:19Z</time></trkpt>
<trkpt lat="45.86861855" lon="9.02903220"><ele></ele><time>2014-5-11T15:57:22Z</time></trkpt>
<trkpt lat="45.86868418" lon="9.02870748"><ele></ele><time>2014-5-11T15:57:25Z</time></trkpt>
<trkpt lat="45.86861076" lon="9.02828369"><ele></ele><time>2014-5-11T15:57:28Z</time></trkpt>
<trkpt lat="45.86805370" lon="9.02798739"><ele></ele><time>2014-5-11T15:57:31Z</time></trkpt>
<trkpt lat="45.86782814" lon="9.02780492"><ele></ele><time>2014-5-11T15:57:34Z</time></trkpt>
<trkpt lat="45.86762806" lon="9.02740066"><ele></ele><time>2014-5-11T15:57:37Z</time></trkpt>
<trkpt lat="45.86756662" lon="9.02729672"><ele></ele><time>2014-5-11T15:57:40Z</time></trkpt>
<trkpt lat="45.86750016" lon="9.02728532"><ele></ele><time>2014-5-11T15:57:43Z</time></trkpt>
<trkpt lat="45.86724023" lon="9.02712255"><ele></ele><time>2014-5-11T15:57:46Z</time></trkpt>
<trkpt lat="45.86678962" lon="9.02699137"><ele></ele><time>2014-5-11T15:57:49Z</time></trkpt>
<trkpt lat="45.86656474" lon="9.02692515"><ele></ele><time>2014-5-11T15:57:52Z</time></trkpt>
<trkpt lat="45.86642845" lon="9.02712825"><ele></ele><time>2014-5-11T15:57:55Z</time></trkpt>
<trkpt lat="45.86630414" lon="9.02728918"><ele></ele><time>2014-5-11T15:57:58Z</time></trkpt>
<trkpt lat="45.86622083" lon="9.02737007"><ele></ele><time>2014-5-11T15:58:1Z</time></trkpt>
<trkpt lat="45.86599133" lon="9.02718432"><ele></ele><time>2014-5-11T15:58:4Z</time></trkpt>
<trkpt lat="45.86591782" lon="9.02671309"><ele></ele><time>2014-5-11T15:58:7Z</time></trkpt>
<trkpt lat="45.86564256" lon="9.02655224"><ele></ele><time>2014-5-11T15:58:10Z</time></trkpt>
<trkpt lat="45.86548054" lon="9.02668250"><ele></ele><time>2014-5-11T15:58:13Z</time></trkpt>
<trkpt lat="45.86514115" lon="9.02697318"><ele></ele><time>2014-5-11T15:58:16Z</time></trkpt>
<trkpt lat="45.86473404" lon="9.02676472"><ele></ele><time>2014-5-11T15:58:19Z</time></trkpt>
<trkpt lat="45.86479397" lon="9.02649592"><ele></ele><time>2014-5-11T15:58:22Z</time></trkpt>
<trkpt lat="45.86477729" lon="9.02631135"><ele></ele><time>2014-5-11T15:58:25Z</time></trkpt>
<trkpt lat="45.86478207" lon="9.02600390"><ele></ele><time>2014-5-11T15:58:28Z</time></trkpt>
<trkpt lat="45.86477042" lon="9.02585554"><ele></ele><time>2014-5-11T15:58:31Z</time></trkpt>
<trkpt lat="45.86473237" lon="9.02571263"><ele></ele><time>2014-5-11T15:58:34Z</time></trkpt>
<trkpt lat="45.86442517" lon="9.02560894"><ele></ele><time>2014-5-11T15:58:37Z</time></trkpt>
<trkpt lat="45.86420850" lon="9.02557659"><ele></ele><time>2014-5-11T15:58:40Z</time></trkpt>
<trkpt lat="45.86415838" lon="9.02520225"><ele></ele><time>2014-5-11T15:58:43Z</time></trkpt>
<trkpt lat="45.86421344" lon="9.02501316"><ele></ele><time>2014-5-11T15:58:46Z</time></trkpt>
<trkpt lat="45.86433976" lon="9.02452583"><ele></ele><time>2014-5-11T15:58:49Z</time></trkpt>
<trkpt lat="45.86422007" lon="9.02411336"><ele></ele><time>2014-5-11T15:58:52Z</time></trkpt>
<trkpt lat="45.86419274" lon="9.02401898"><ele></ele><time>2014-5-11T15:58:55Z</time></trkpt>
<trkpt lat="45.86394279" lon="9.02384514"><ele></ele><time>2014-5-11T15:58:58Z</time></trkpt>
<trkpt lat="45.86391496" lon="9.02384950"><ele></ele><time>2014-5-11T15:59:1Z</time></trkpt>
<trkpt lat="45.86362923" lon="9.02357139"><ele></ele><time>2014-5-11T15:59:4Z</time></trkpt>
<trkpt lat="45.86351892" lon="9.02327400"><ele></ele><time>2014-5-11T15:59:7Z</time></trkpt>
<trkpt lat="45.86351112" lon="9.02282707"><ele></ele><time>2014-5-11T15:59:10Z</time></trkpt>
<trkpt lat="45.86347357" lon="9.02269213"><ele></ele><time>2014-5-11T15:59:13Z</time></trkpt>
<trkpt lat="45.86324693" lon="9.02261619"><ele></ele><time>2014-5-11T15:59:16Z</time></trkpt>
<trkpt lat="45.86315707" lon="9.02257696"><ele></ele><time>2014-5-11T15:59:19Z</time></trkpt>
<trkpt lat="45.86270403" lon="9.02242768"><ele></ele><time>2014-5-11T15:59:22Z</time></trkpt>
<trkpt lat="45.86245584" lon="9.02201319"><ele></ele><time>2014-5-11T15:59:25Z</time></trkpt>
<trkpt lat="45.86236867" lon="9.02157524"><ele></ele><time>2014-5-11T15:59:28Z</time></trkpt>
<trkpt lat="45.86233598" lon="9.02125455"><ele></ele><time>2014-5-11T15:59:31Z</time></trkpt>
<trkpt lat="45.86235115" lon="9.02113762"><ele></ele><time>2014-5-11T15:59:34Z</time></trkpt>
<trkpt lat="45.86220028" lon="9.02068525"><ele></ele><time>2014-5-11T15:59:37Z</time></trkpt>
<trkpt lat="45.86208729" lon="9.02060252"><ele></ele><time>2014-5-11T15:59:40Z</time></trkpt>
<trkpt lat="45.86199827" lon="9.02051333"><ele></ele><time>2014-5-11T15:59:43Z</time></trkpt>
<trkpt lat="45.86172603" lon="9.02024805"><ele></ele><time>2014-5-11T15:59:46Z</time></trkpt>
<trkpt lat="45.86167356" lon="9.02020086"><ele></ele><time>2014-5-11T15:59:49Z</time></trkpt>
<trkpt lat="45.86144758" lon="9.02008619"><ele></ele><time>2014-5-11T15:59:52Z</time></trkpt>
<trkpt lat="45.86131138" lon="9.02015476"><ele></ele><time>2014-5-11T15:59:55Z</time></trkpt>
<trkpt lat="45.86112815" lon="9.02032055"><ele></ele><time>2014-5-11T15:59:58Z</time></trkpt>
<trkpt lat="45.86109806" lon="9.02008728"><ele></ele><time>2014-5-11T16:0:1Z</time></trkpt>
<trkpt lat="45.86112899" lon="9.02000656"><ele></ele><time>2014-5-11T16:0:4Z</time></trkpt>
<trkpt lat="45.86117769" lon="9.01971638"><ele></ele><time>2014-5-11T16:0:7Z</time></trkpt>
<trkpt lat="45.86119202" lon="9.01948663"><ele></ele><time>2014-5-11T16:0:10Z</time></trkpt>
<trkpt lat="45.86147508" lon="9.01899168"><ele></ele><time>2014-5-11T16:0:13Z</time></trkpt>
<trkpt lat="45.86164850" lon="9.01885372"><ele></ele><time>2014-5-11T16:0:16Z</time></trkpt>
<trkpt lat="45.86182586" lon="9.01876596"><ele></ele><time>2014-5-11T16:0:19Z</time></trkpt>
<trkpt lat="45.86201227" lon="9.01879219"><ele></ele><time>2014-5-11T16:0:22Z</time></trkpt>
<trkpt lat="45.86219014" lon="9.01885355"><ele></ele><time>2014-5-11T16:0:25Z</time></trkpt>
<trkpt lat="45.86226792" lon="9.01889303"><ele></ele><time>2014-5-11T16:0:28Z</time></trkpt>
<trkpt lat="45.86247043" lon="9.01871977"><ele></ele><time>2014-5-11T16:0:31Z</time></trkpt>
<trkpt lat="45.86280193" lon="9.01756835"><ele></ele><time>2014-5-11T16:0:34Z</time></trkpt>
<trkpt lat="45.86267226" lon="9.01673519"><ele></ele><time>2014-5-11T16:0:37Z</time></trkpt>
<trkpt lat="45.86259892" lon="9.01646546"><ele></ele><time>2014-5-11T16:0:40Z</time></trkpt>
<trkpt lat="45.86239608" lon="9.01613027"><ele></ele><time>2014-5-11T16:0:43Z</time></trkpt>
<trkpt lat="45.86225627" lon="9.01597009"><ele></ele><time>2014-5-11T16:0:46Z</time></trkpt>
<trkpt lat="45.86210883" lon="9.01573095"><ele></ele><time>2014-5-11T16:0:49Z</time></trkpt>
<trkpt lat="45.86186785" lon="9.01544798"><ele></ele><time>2014-5-11T16:0:52Z</time></trkpt>
<trkpt lat="45.86174816" lon="9.01522310"><ele></ele><time>2014-5-11T16:0:55Z</time></trkpt>
<trkpt lat="45.86164188" lon="9.01492654"><ele></ele><time>2014-5-11T16:0:58Z</time></trkpt>
<trkpt lat="45.86145655" lon="9.01463955"><ele></ele><time>2014-5-11T16:1:1Z</time></trkpt>
<trkpt lat="45.86132144" lon="9.01437837"><ele></ele><time>2014-5-11T16:1:4Z</time></trkpt>
<trkpt lat="45.86130308" lon="9.01377772"><ele></ele><time>2014-5-11T16:1:7Z</time></trkpt>
<trkpt lat="45.86162687" lon="9.01254290"><ele></ele><time>2014-5-11T16:1:10Z</time></trkpt>
<trkpt lat="45.86174439" lon="9.01160656"><ele></ele><time>2014-5-11T16:1:13Z</time></trkpt>
<trkpt lat="45.86169887" lon="9.01144059"><ele></ele><time>2014-5-11T16:1:16Z</time></trkpt>
<trkpt lat="45.86167088" lon="9.01115234"><ele></ele><time>2014-5-11T16:1:19Z</time></trkpt>
<trkpt lat="45.86169183" lon="9.01111554"><ele></ele><time>2014-5-11T16:1:22Z</time></trkpt>
<trkpt lat="45.86167959" lon="9.01113809"><ele></ele><time>2014-5-11T16:1:25Z</time></trkpt>
<trkpt lat="45.86159695" lon="9.01084095"><ele></ele><time>2014-5-11T16:1:28Z</time></trkpt>
<trkpt lat="45.86144658" lon="9.01088714"><ele></ele><time>2014-5-11T16:1:31Z</time></trkpt>
<trkpt lat="45.86142386" lon="9.01082519"><ele></ele><time>2014-5-11T16:1:34Z</time></trkpt>
<trkpt lat="45.86136050" lon="9.01057994"><ele></ele><time>2014-5-11T16:1:37Z</time></trkpt>
<trkpt lat="45.86135278" lon="9.01033812"><ele></ele><time>2014-5-11T16:1:40Z</time></trkpt>
<trkpt lat="45.86163140" lon="9.00943958"><ele></ele><time>2014-5-11T16:1:43Z</time></trkpt>
<trkpt lat="45.86186098" lon="9.00949054"><ele></ele><time>2014-5-11T16:1:46Z</time></trkpt>
<trkpt lat="45.86195888" lon="9.00966589"><ele></ele><time>2014-5-11T16:1:49Z</time></trkpt>
<trkpt lat="45.86203247" lon="9.00973530"><ele></ele><time>2014-5-11T16:1:52Z</time></trkpt>
<trkpt lat="45.86207245" lon="9.00987737"><ele></ele><time>2014-5-11T16:1:55Z</time></trkpt>
<trkpt lat="45.86209182" lon="9.01020627"><ele></ele><time>2014-5-11T16:1:58Z</time></trkpt>
<trkpt lat="45.86209458" lon="9.01023427"><ele></ele><time>2014-5-11T16:2:1Z</time></trkpt>
<trkpt lat="45.86217346" lon="9.01065948"><ele></ele><time>2014-5-11T16:2:4Z</time></trkpt>
<trkpt lat="45.86233347" lon="9.01103055"><ele></ele><time>2014-5-11T16:2:7Z</time></trkpt>
<trkpt lat="45.86250245" lon="9.01126659"><ele></ele><time>2014-5-11T16:2:10Z</time></trkpt>
<trkpt lat="45.86273018" lon="9.01156842"><ele></ele><time>2014-5-11T16:2:13Z</time></trkpt>
<trkpt lat="45.86290302" lon="9.01180110"><ele></ele><time>2014-5-11T16:2:16Z</time></trkpt>
<trkpt lat="45.86313277" lon="9.01210276"><ele></ele><time>2014-5-11T16:2:19Z</time></trkpt>
<trkpt lat="45.86319152" lon="9.01217896"><ele></ele><time>2014-5-11T16:2:22Z</time></trkpt>
<trkpt lat="45.86351255" lon="9.01222330"><ele></ele><time>2014-5-11T16:2:25Z</time></trkpt>
<trkpt lat="45.86369108" lon="9.01224308"><ele></ele><time>2014-5-11T16:2:28Z</time></trkpt>
<trkpt lat="45.86384925" lon="9.01215247"><ele></ele><time>2014-5-11T16:2:31Z</time></trkpt>
<trkpt lat="45.86397674" lon="9.01204267"><ele></ele><time>2014-5-11T16:2:34Z</time></trkpt>
<trkpt lat="45.86408093" lon="9.01199162"><ele></ele><time>2014-5-11T16:2:37Z</time></trkpt>
<trkpt lat="45.86411764" lon="9.01200905"><ele></ele><time>2014-5-11T16:2:40Z</time></trkpt>
<trkpt lat="45.86418084" lon="9.01197880"><ele></ele><time>2014-5-11T16:2:43Z</time></trkpt>
<trkpt lat="45.86428712" lon="9.01187972"><ele></ele><time>2014-5-11T16:2:46Z</time></trkpt>
<trkpt lat="45.86433180" lon="9.01185097"><ele></ele><time>2014-5-11T16:2:49Z</time></trkpt>
<trkpt lat="45.86435074" lon="9.01153363"><ele></ele><time>2014-5-11T16:2:52Z</time></trkpt>
<trkpt lat="45.86438896" lon="9.01115318"><ele></ele><time>2014-5-11T16:2:55Z</time></trkpt>
<trkpt lat="45.86444168" lon="9.01114035"><ele></ele><time>2014-5-11T16:2:58Z</time></trkpt>
<trkpt lat="45.86468434" lon="9.01140262"><ele></ele><time>2014-5-11T16:3:1Z</time></trkpt>
<trkpt lat="45.86489456" lon="9.01156892"><ele></ele><time>2014-5-11T16:3:4Z</time></trkpt>
<trkpt lat="45.86515632" lon="9.01165006"><ele></ele><time>2014-5-11T16:3:7Z</time></trkpt>
<trkpt lat="45.86520854" lon="9.01157144"><ele></ele><time>2014-5-11T16:3:10Z</time></trkpt>
<trkpt lat="45.86534106" lon="9.01133733"><ele></ele><time>2014-5-11T16:3:13Z</time></trkpt>
<trkpt lat="45.86548766" lon="9.01140866"><ele></ele><time>2014-5-11T16:3:16Z</time></trkpt>
<trkpt lat="45.86566737" lon="9.01143045"><ele></ele><time>2014-5-11T16:3:19Z</time></trkpt>
<trkpt lat="45.86568447" lon="9.01131872"><ele></ele><time>2014-5-11T16:3:22Z</time></trkpt>
<trkpt lat="45.86574398" lon="9.01121177"><ele></ele><time>2014-5-11T16:3:25Z</time></trkpt>
<trkpt lat="45.86593232" lon="9.01117967"><ele></ele><time>2014-5-11T16:3:28Z</time></trkpt>
<trkpt lat="45.86613843" lon="9.01102762"><ele></ele><time>2014-5-11T16:3:31Z</time></trkpt>
<trkpt lat="45.86615939" lon="9.01100574"><ele></ele><time>2014-5-11T16:3:34Z</time></trkpt>
<trkpt lat="45.86626609" lon="9.01087783"><ele></ele><time>2014-5-11T16:3:37Z</time></trkpt>
<trkpt lat="45.86631143" lon="9.01080022"><ele></ele><time>2014-5-11T16:3:40Z</time></trkpt>
<trkpt lat="45.86637254" lon="9.01080868"><ele></ele><time>2014-5-11T16:3:43Z</time></trkpt>
<trkpt lat="45.86654445" lon="9.01093240"><ele></ele><time>2014-5-11T16:3:46Z</time></trkpt>
<trkpt lat="45.86667865" lon="9.01107824"><ele></ele><time>2014-5-11T16:3:49Z</time></trkpt>
<trkpt lat="45.86668602" lon="9.01123172"><ele></ele><time>2014-5-11T16:3:52Z</time></trkpt>
<trkpt lat="45.86679599" lon="9.01133934"><ele></ele><time>2014-5-11T16:3:55Z</time></trkpt>
<trkpt lat="45.86692876" lon="9.01151662"><ele></ele><time>2014-5-11T16:3:58Z</time></trkpt>
<trkpt lat="45.86706002" lon="9.01177838"><ele></ele><time>2014-5-11T16:4:1Z</time></trkpt>
<trkpt lat="45.86720989" lon="9.01201626"><ele></ele><time>2014-5-11T16:4:4Z</time></trkpt>
<trkpt lat="45.86737183" lon="9.01209723"><ele></ele><time>2014-5-11T16:4:7Z</time></trkpt>
<trkpt lat="45.86746797" lon="9.01212330"><ele></ele><time>2014-5-11T16:4:10Z</time></trkpt>
<trkpt lat="45.86760200" lon="9.01210863"><ele></ele><time>2014-5-11T16:4:13Z</time></trkpt>
<trkpt lat="45.86766226" lon="9.01207846"><ele></ele><time>2014-5-11T16:4:16Z</time></trkpt>
<trkpt lat="45.86779864" lon="9.01195105"><ele></ele><time>2014-5-11T16:4:19Z</time></trkpt>
<trkpt lat="45.86793124" lon="9.01182708"><ele></ele><time>2014-5-11T16:4:22Z</time></trkpt>
<trkpt lat="45.86806769" lon="9.01172466"><ele></ele><time>2014-5-11T16:4:25Z</time></trkpt>
<trkpt lat="45.86814590" lon="9.01162709"><ele></ele><time>2014-5-11T16:4:28Z</time></trkpt>
<trkpt lat="45.86829987" lon="9.01150463"><ele></ele><time>2014-5-11T16:4:31Z</time></trkpt>
<trkpt lat="45.86848084" lon="9.01131554"><ele></ele><time>2014-5-11T16:4:34Z</time></trkpt>
<trkpt lat="45.86856290" lon="9.01120758"><ele></ele><time>2014-5-11T16:4:37Z</time></trkpt>
<trkpt lat="45.86867077" lon="9.01102955"><ele></ele><time>2014-5-11T16:4:40Z</time></trkpt>
<trkpt lat="45.86880346" lon="9.01086367"><ele></ele><time>2014-5-11T16:4:43Z</time></trkpt>
<trkpt lat="45.86890765" lon="9.01073257"><ele></ele><time>2014-5-11T16:4:46Z</time></trkpt>
<trkpt lat="45.86898979" lon="9.01059679"><ele></ele><time>2014-5-11T16:4:49Z</time></trkpt>
<trkpt lat="45.86903128" lon="9.01053694"><ele></ele><time>2014-5-11T16:4:52Z</time></trkpt>
<trkpt lat="45.86904930" lon="9.01049243"><ele></ele><time>2014-5-11T16:4:55Z</time></trkpt>
<trkpt lat="45.86911099" lon="9.01040057"><ele></ele><time>2014-5-11T16:4:58Z</time></trkpt>
<trkpt lat="45.86919808" lon="9.01018607"><ele></ele><time>2014-5-11T16:5:1Z</time></trkpt>
<trkpt lat="45.86926228" lon="9.00995339"><ele></ele><time>2014-5-11T16:5:4Z</time></trkpt>
<trkpt lat="45.86931325" lon="9.00982699"><ele></ele><time>2014-5-11T16:5:7Z</time></trkpt>
<trkpt lat="45.86933479" lon="9.00974058"><ele></ele><time>2014-5-11T16:5:10Z</time></trkpt>
<trkpt lat="45.86939623" lon="9.00948820"><ele></ele><time>2014-5-11T16:5:13Z</time></trkpt>
<trkpt lat="45.86942757" lon="9.00928452"><ele></ele><time>2014-5-11T16:5:16Z</time></trkpt>
<trkpt lat="45.86943017" lon="9.00923699"><ele></ele><time>2014-5-11T16:5:19Z</time></trkpt>
<trkpt lat="45.86948122" lon="9.00910338"><ele></ele><time>2014-5-11T16:5:22Z</time></trkpt>
<trkpt lat="45.86958985" lon="9.00893549"><ele></ele><time>2014-5-11T16:5:25Z</time></trkpt>
<trkpt lat="45.86969362" lon="9.00871933"><ele></ele><time>2014-5-11T16:5:28Z</time></trkpt>
<trkpt lat="45.86970778" lon="9.00869292"><ele></ele><time>2014-5-11T16:5:31Z</time></trkpt>
<trkpt lat="45.86981348" lon="9.00852663"><ele></ele><time>2014-5-11T16:5:34Z</time></trkpt>
<trkpt lat="45.86984776" lon="9.00844708"><ele></ele><time>2014-5-11T16:5:37Z</time></trkpt>
<trkpt lat="45.86992538" lon="9.00830207"><ele></ele><time>2014-5-11T16:5:40Z</time></trkpt>
<trkpt lat="45.87001372" lon="9.00811558"><ele></ele><time>2014-5-11T16:5:43Z</time></trkpt>
<trkpt lat="45.87003895" lon="9.00797627"><ele></ele><time>2014-5-11T16:5:46Z</time></trkpt>
<trkpt lat="45.87013886" lon="9.00778902"><ele></ele><time>2014-5-11T16:5:49Z</time></trkpt>
<trkpt lat="45.87019217" lon="9.00767243"><ele></ele><time>2014-5-11T16:5:52Z</time></trkpt>
<trkpt lat="45.87026685" lon="9.00748610"><ele></ele><time>2014-5-11T16:5:55Z</time></trkpt>
<trkpt lat="45.87030617" lon="9.00744360"><ele></ele><time>2014-5-11T16:5:58Z</time></trkpt>
<trkpt lat="45.87039904" lon="9.00722994"><ele></ele><time>2014-5-11T16:6:1Z</time></trkpt>
<trkpt lat="45.87058470" lon="9.00705879"><ele></ele><time>2014-5-11T16:6:4Z</time></trkpt>
<trkpt lat="45.87061814" lon="9.00703339"><ele></ele><time>2014-5-11T16:6:7Z</time></trkpt>
<trkpt lat="45.87077639" lon="9.00684304"><ele></ele><time>2014-5-11T16:6:10Z</time></trkpt>
<trkpt lat="45.87090648" lon="9.00673533"><ele></ele><time>2014-5-11T16:6:13Z</time></trkpt>
<trkpt lat="45.87098342" lon="9.00668738"><ele></ele><time>2014-5-11T16:6:16Z</time></trkpt>
<trkpt lat="45.87119004" lon="9.00656786"><ele></ele><time>2014-5-11T16:6:19Z</time></trkpt>
<trkpt lat="45.87123672" lon="9.00651405"><ele></ele><time>2014-5-11T16:6:22Z</time></trkpt>
<trkpt lat="45.87137838" lon="9.00644029"><ele></ele><time>2014-5-11T16:6:25Z</time></trkpt>
<trkpt lat="45.87152372" lon="9.00633954"><ele></ele><time>2014-5-11T16:6:28Z</time></trkpt>
<trkpt lat="45.87153110" lon="9.00632797"><ele></ele><time>2014-5-11T16:6:31Z</time></trkpt>
<trkpt lat="45.87163537" lon="9.00611297"><ele></ele><time>2014-5-11T16:6:34Z</time></trkpt>
<trkpt lat="45.87169077" lon="9.00616737"><ele></ele><time>2014-5-11T16:6:37Z</time></trkpt>
<trkpt lat="45.87170368" lon="9.00637709"><ele></ele><time>2014-5-11T16:6:40Z</time></trkpt>
<trkpt lat="45.87168532" lon="9.00640592"><ele></ele><time>2014-5-11T16:6:43Z</time></trkpt>
<trkpt lat="45.87156354" lon="9.00657984"><ele></ele><time>2014-5-11T16:6:46Z</time></trkpt>
<trkpt lat="45.87149640" lon="9.00673575"><ele></ele><time>2014-5-11T16:6:49Z</time></trkpt>
<trkpt lat="45.87149187" lon="9.00687313"><ele></ele><time>2014-5-11T16:6:52Z</time></trkpt>
<trkpt lat="45.87163872" lon="9.00683616"><ele></ele><time>2014-5-11T16:6:55Z</time></trkpt>
<trkpt lat="45.87167510" lon="9.00683256"><ele></ele><time>2014-5-11T16:6:58Z</time></trkpt>
<trkpt lat="45.87175515" lon="9.00681227"><ele></ele><time>2014-5-11T16:7:1Z</time></trkpt>
<trkpt lat="45.87177996" lon="9.00680498"><ele></ele><time>2014-5-11T16:7:4Z</time></trkpt>
<trkpt lat="45.87197023" lon="9.00680314"><ele></ele><time>2014-5-11T16:7:7Z</time></trkpt>
<trkpt lat="45.87203183" lon="9.00681965"><ele></ele><time>2014-5-11T16:7:10Z</time></trkpt>
<trkpt lat="45.87215396" lon="9.00674203"><ele></ele><time>2014-5-11T16:7:13Z</time></trkpt>
<trkpt lat="45.87226099" lon="9.00660298"><ele></ele><time>2014-5-11T16:7:16Z</time></trkpt>
<trkpt lat="45.87229762" lon="9.00647733"><ele></ele><time>2014-5-11T16:7:19Z</time></trkpt>
<trkpt lat="45.87230274" lon="9.00640944"><ele></ele><time>2014-5-11T16:7:22Z</time></trkpt>
<trkpt lat="45.87235462" lon="9.00616444"><ele></ele><time>2014-5-11T16:7:25Z</time></trkpt>
<trkpt lat="45.87241648" lon="9.00590057"><ele></ele><time>2014-5-11T16:7:28Z</time></trkpt>
<trkpt lat="45.87241807" lon="9.00588666"><ele></ele><time>2014-5-11T16:7:31Z</time></trkpt>
<trkpt lat="45.87241019" lon="9.00568315"><ele></ele><time>2014-5-11T16:7:34Z</time></trkpt>
<trkpt lat="45.87239846" lon="9.00565180"><ele></ele><time>2014-5-11T16:7:37Z</time></trkpt>
<trkpt lat="45.87233526" lon="9.00546798"><ele></ele><time>2014-5-11T16:7:40Z</time></trkpt>
<trkpt lat="45.87242704" lon="9.00519767"><ele></ele><time>2014-5-11T16:7:43Z</time></trkpt>
<trkpt lat="45.87248647" lon="9.00495837"><ele></ele><time>2014-5-11T16:7:46Z</time></trkpt>
<trkpt lat="45.87249585" lon="9.00487295"><ele></ele><time>2014-5-11T16:7:49Z</time></trkpt>
<trkpt lat="45.87248806" lon="9.00479777"><ele></ele><time>2014-5-11T16:7:52Z</time></trkpt>
<trkpt lat="45.87245638" lon="9.00457984"><ele></ele><time>2014-5-11T16:7:55Z</time></trkpt>
<trkpt lat="45.87243475" lon="9.00453458"><ele></ele><time>2014-5-11T16:7:58Z</time></trkpt>
<trkpt lat="45.87237817" lon="9.00432712"><ele></ele><time>2014-5-11T16:8:1Z</time></trkpt>
<trkpt lat="45.87240726" lon="9.00411196"><ele></ele><time>2014-5-11T16:8:4Z</time></trkpt>
<trkpt lat="45.87237985" lon="9.00401859"><ele></ele><time>2014-5-11T16:8:7Z</time></trkpt>
<trkpt lat="45.87231447" lon="9.00382505"><ele></ele><time>2014-5-11T16:8:10Z</time></trkpt>
<trkpt lat="45.87228547" lon="9.00356487"><ele></ele><time>2014-5-11T16:8:13Z</time></trkpt>
<trkpt lat="45.87231682" lon="9.00329724"><ele></ele><time>2014-5-11T16:8:16Z</time></trkpt>
<trkpt lat="45.87233325" lon="9.00325508"><ele></ele><time>2014-5-11T16:8:19Z</time></trkpt>
<trkpt lat="45.87236417" lon="9.00317838"><ele></ele><time>2014-5-11T16:8:22Z</time></trkpt>
<trkpt lat="45.87238186" lon="9.00315684"><ele></ele><time>2014-5-11T16:8:25Z</time></trkpt>
<trkpt lat="45.87251698" lon="9.00328207"><ele></ele><time>2014-5-11T16:8:28Z</time></trkpt>
<trkpt lat="45.87264564" lon="9.00338835"><ele></ele><time>2014-5-11T16:8:31Z</time></trkpt>
<trkpt lat="45.87269736" lon="9.00345859"><ele></ele><time>2014-5-11T16:8:34Z</time></trkpt>
<trkpt lat="45.87276240" lon="9.00356303"><ele></ele><time>2014-5-11T16:8:37Z</time></trkpt>
<trkpt lat="45.87287975" lon="9.00374626"><ele></ele><time>2014-5-11T16:8:40Z</time></trkpt>
<trkpt lat="45.87300145" lon="9.00395949"><ele></ele><time>2014-5-11T16:8:43Z</time></trkpt>
<trkpt lat="45.87307697" lon="9.00408380"><ele></ele><time>2014-5-11T16:8:46Z</time></trkpt>
<trkpt lat="45.87316155" lon="9.00416862"><ele></ele><time>2014-5-11T16:8:49Z</time></trkpt>
<trkpt lat="45.87323388" lon="9.00434054"><ele></ele><time>2014-5-11T16:8:52Z</time></trkpt>
<trkpt lat="45.87336455" lon="9.00451278"><ele></ele><time>2014-5-11T16:8:55Z</time></trkpt>
<trkpt lat="45.87346086" lon="9.00469350"><ele></ele><time>2014-5-11T16:8:58Z</time></trkpt>
<trkpt lat="45.87356069" lon="9.00482987"><ele></ele><time>2014-5-11T16:9:1Z</time></trkpt>
<trkpt lat="45.87359263" lon="9.00490715"><ele></ele><time>2014-5-11T16:9:4Z</time></trkpt>
<trkpt lat="45.87372146" lon="9.00504436"><ele></ele><time>2014-5-11T16:9:7Z</time></trkpt>
<trkpt lat="45.87374342" lon="9.00509415"><ele></ele><time>2014-5-11T16:9:10Z</time></trkpt>
<trkpt lat="45.87382916" lon="9.00532709"><ele></ele><time>2014-5-11T16:9:13Z</time></trkpt>
<trkpt lat="45.87383998" lon="9.00549799"><ele></ele><time>2014-5-11T16:9:16Z</time></trkpt>
<trkpt lat="45.87386504" lon="9.00570653"><ele></ele><time>2014-5-11T16:9:19Z</time></trkpt>
<trkpt lat="45.87388717" lon="9.00594039"><ele></ele><time>2014-5-11T16:9:22Z</time></trkpt>
<trkpt lat="45.87389580" lon="9.00610669"><ele></ele><time>2014-5-11T16:9:25Z</time></trkpt>
<trkpt lat="45.87391265" lon="9.00634683"><ele></ele><time>2014-5-11T16:9:28Z</time></trkpt>
<trkpt lat="45.87392572" lon="9.00658278"><ele></ele><time>2014-5-11T16:9:31Z</time></trkpt>
<trkpt lat="45.87392488" lon="9.00680993"><ele></ele><time>2014-5-11T16:9:34Z</time></trkpt>
<trkpt lat="45.87393352" lon="9.00702283"><ele></ele><time>2014-5-11T16:9:37Z</time></trkpt>
<trkpt lat="45.87391826" lon="9.00714177"><ele></ele><time>2014-5-11T16:9:40Z</time></trkpt>
<trkpt lat="45.87392983" lon="9.00730656"><ele></ele><time>2014-5-11T16:9:43Z</time></trkpt>
<trkpt lat="45.87392589" lon="9.00737906"><ele></ele><time>2014-5-11T16:9:46Z</time></trkpt>
<trkpt lat="45.87391432" lon="9.00754678"><ele></ele><time>2014-5-11T16:9:49Z</time></trkpt>
<trkpt lat="45.87391868" lon="9.00772733"><ele></ele><time>2014-5-11T16:9:52Z</time></trkpt>
<trkpt lat="45.87391935" lon="9.00790586"><ele></ele><time>2014-5-11T16:9:55Z</time></trkpt>
<trkpt lat="45.87388918" lon="9.00803754"><ele></ele><time>2014-5-11T16:9:58Z</time></trkpt>
<trkpt lat="45.87387275" lon="9.00807509"><ele></ele><time>2014-5-11T16:10:1Z</time></trkpt>
<trkpt lat="45.87381885" lon="9.00816972"><ele></ele><time>2014-5-11T16:10:4Z</time></trkpt>
<trkpt lat="45.87377468" lon="9.00831440"><ele></ele><time>2014-5-11T16:10:7Z</time></trkpt>
<trkpt lat="45.87369279" lon="9.00845144"><ele></ele><time>2014-5-11T16:10:10Z</time></trkpt>
<trkpt lat="45.87375876" lon="9.00841976"><ele></ele><time>2014-5-11T16:10:13Z</time></trkpt>
<trkpt lat="45.87379932" lon="9.00835019"><ele></ele><time>2014-5-11T16:10:16Z</time></trkpt>
<trkpt lat="45.87387635" lon="9.00829436"><ele></ele><time>2014-5-11T16:10:19Z</time></trkpt>
<trkpt lat="45.87398289" lon="9.00811725"><ele></ele><time>2014-5-11T16:10:22Z</time></trkpt>
<trkpt lat="45.87405422" lon="9.00793746"><ele></ele><time>2014-5-11T16:10:25Z</time></trkpt>
<trkpt lat="45.87414826" lon="9.00780478"><ele></ele><time>2014-5-11T16:10:28Z</time></trkpt>
<trkpt lat="45.87424222" lon="9.00765298"><ele></ele><time>2014-5-11T16:10:31Z</time></trkpt>
<trkpt lat="45.87432973" lon="9.00748819"><ele></ele><time>2014-5-11T16:10:34Z</time></trkpt>
<trkpt lat="45.87443375" lon="9.00729348"><ele></ele><time>2014-5-11T16:10:37Z</time></trkpt>
<trkpt lat="45.87449284" lon="9.00714202"><ele></ele><time>2014-5-11T16:10:40Z</time></trkpt>
<trkpt lat="45.87455286" lon="9.00698377"><ele></ele><time>2014-5-11T16:10:43Z</time></trkpt>
<trkpt lat="45.87460893" lon="9.00683122"><ele></ele><time>2014-5-11T16:10:46Z</time></trkpt>
<trkpt lat="45.87463777" lon="9.00678042"><ele></ele><time>2014-5-11T16:10:49Z</time></trkpt>
<trkpt lat="45.87469275" lon="9.00668428"><ele></ele><time>2014-5-11T16:10:52Z</time></trkpt>
<trkpt lat="45.87472946" lon="9.00662100"><ele></ele><time>2014-5-11T16:10:55Z</time></trkpt>
<trkpt lat="45.87487346" lon="9.00640659"><ele></ele><time>2014-5-11T16:10:58Z</time></trkpt>
<trkpt lat="45.87491806" lon="9.00636594"><ele></ele><time>2014-5-11T16:11:1Z</time></trkpt>
<trkpt lat="45.87502476" lon="9.00627323"><ele></ele><time>2014-5-11T16:11:4Z</time></trkpt>
<trkpt lat="45.87515434" lon="9.00617508"><ele></ele><time>2014-5-11T16:11:7Z</time></trkpt>
<trkpt lat="45.87523204" lon="9.00605690"><ele></ele><time>2014-5-11T16:11:10Z</time></trkpt>
<trkpt lat="45.87531444" lon="9.00597392"><ele></ele><time>2014-5-11T16:11:13Z</time></trkpt>
<trkpt lat="45.87539708" lon="9.00588767"><ele></ele><time>2014-5-11T16:11:16Z</time></trkpt>
<trkpt lat="45.87548065" lon="9.00575775"><ele></ele><time>2014-5-11T16:11:19Z</time></trkpt>
<trkpt lat="45.87554385" lon="9.00551802"><ele></ele><time>2014-5-11T16:11:22Z</time></trkpt>
<trkpt lat="45.87557646" lon="9.00534259"><ele></ele><time>2014-5-11T16:11:25Z</time></trkpt>
<trkpt lat="45.87564435" lon="9.00516783"><ele></ele><time>2014-5-11T16:11:28Z</time></trkpt>
<trkpt lat="45.87567754" lon="9.00512944"><ele></ele><time>2014-5-11T16:11:31Z</time></trkpt>
<trkpt lat="45.87570730" lon="9.00516096"><ele></ele><time>2014-5-11T16:11:34Z</time></trkpt>
<trkpt lat="45.87573756" lon="9.00535005"><ele></ele><time>2014-5-11T16:11:37Z</time></trkpt>
<trkpt lat="45.87577360" lon="9.00559363"><ele></ele><time>2014-5-11T16:11:40Z</time></trkpt>
<trkpt lat="45.87575449" lon="9.00587099"><ele></ele><time>2014-5-11T16:11:43Z</time></trkpt>
<trkpt lat="45.87572934" lon="9.00598129"><ele></ele><time>2014-5-11T16:11:46Z</time></trkpt>
<trkpt lat="45.87568416" lon="9.00608875"><ele></ele><time>2014-5-11T16:11:49Z</time></trkpt>
<trkpt lat="45.87568098" lon="9.00610216"><ele></ele><time>2014-5-11T16:11:52Z</time></trkpt>
<trkpt lat="45.87568140" lon="9.00618849"><ele></ele><time>2014-5-11T16:11:55Z</time></trkpt>
<trkpt lat="45.87562415" lon="9.00636795"><ele></ele><time>2014-5-11T16:11:58Z</time></trkpt>
<trkpt lat="45.87559339" lon="9.00652863"><ele></ele><time>2014-5-11T16:12:1Z</time></trkpt>
<trkpt lat="45.87555659" lon="9.00663818"><ele></ele><time>2014-5-11T16:12:4Z</time></trkpt>
<trkpt lat="45.87551828" lon="9.00681756"><ele></ele><time>2014-5-11T16:12:7Z</time></trkpt>
<trkpt lat="45.87552424" lon="9.00704286"><ele></ele><time>2014-5-11T16:12:10Z</time></trkpt>
<trkpt lat="45.87552038" lon="9.00722886"><ele></ele><time>2014-5-11T16:12:13Z</time></trkpt>
<trkpt lat="45.87551317" lon="9.00734805"><ele></ele><time>2014-5-11T16:12:16Z</time></trkpt>
<trkpt lat="45.87550764" lon="9.00741678"><ele></ele><time>2014-5-11T16:12:19Z</time></trkpt>
<trkpt lat="45.87550722" lon="9.00751309"><ele></ele><time>2014-5-11T16:12:22Z</time></trkpt>
<trkpt lat="45.87551954" lon="9.00764577"><ele></ele><time>2014-5-11T16:12:25Z</time></trkpt>
<trkpt lat="45.87556028" lon="9.00789966"><ele></ele><time>2014-5-11T16:12:28Z</time></trkpt>
<trkpt lat="45.87555927" lon="9.00801265"><ele></ele><time>2014-5-11T16:12:31Z</time></trkpt>
<trkpt lat="45.87556162" lon="9.00811734"><ele></ele><time>2014-5-11T16:12:34Z</time></trkpt>
<trkpt lat="45.87544402" lon="9.00827022"><ele></ele><time>2014-5-11T16:12:37Z</time></trkpt>
<trkpt lat="45.87540672" lon="9.00834926"><ele></ele><time>2014-5-11T16:12:40Z</time></trkpt>
<trkpt lat="45.87537856" lon="9.00846686"><ele></ele><time>2014-5-11T16:12:43Z</time></trkpt>
<trkpt lat="45.87534126" lon="9.00860935"><ele></ele><time>2014-5-11T16:12:46Z</time></trkpt>
<trkpt lat="45.87529088" lon="9.00875964"><ele></ele><time>2014-5-11T16:12:49Z</time></trkpt>
<trkpt lat="45.87521612" lon="9.00888814"><ele></ele><time>2014-5-11T16:12:52Z</time></trkpt>
<trkpt lat="45.87519005" lon="9.00903809"><ele></ele><time>2014-5-11T16:12:55Z</time></trkpt>
<trkpt lat="45.87513540" lon="9.00922827"><ele></ele><time>2014-5-11T16:12:58Z</time></trkpt>
<trkpt lat="45.87511662" lon="9.00941142"><ele></ele><time>2014-5-11T16:13:1Z</time></trkpt>
<trkpt lat="45.87510833" lon="9.00952826"><ele></ele><time>2014-5-11T16:13:4Z</time></trkpt>
<trkpt lat="45.87506575" lon="9.00961267"><ele></ele><time>2014-5-11T16:13:7Z</time></trkpt>
<trkpt lat="45.87500992" lon="9.00976388"><ele></ele><time>2014-5-11T16:13:10Z</time></trkpt>
<trkpt lat="45.87494664" lon="9.00991534"><ele></ele><time>2014-5-11T16:13:13Z</time></trkpt>
<trkpt lat="45.87491169" lon="9.01004660"><ele></ele><time>2014-5-11T16:13:16Z</time></trkpt>
<trkpt lat="45.87487372" lon="9.01020770"><ele></ele><time>2014-5-11T16:13:19Z</time></trkpt>
<trkpt lat="45.87482410" lon="9.01034240"><ele></ele><time>2014-5-11T16:13:22Z</time></trkpt>
<trkpt lat="45.87472787" lon="9.01055329"><ele></ele><time>2014-5-11T16:13:25Z</time></trkpt>
<trkpt lat="45.87462595" lon="9.01069695"><ele></ele><time>2014-5-11T16:13:28Z</time></trkpt>
<trkpt lat="45.87460994" lon="9.01075738"><ele></ele><time>2014-5-11T16:13:31Z</time></trkpt>
<trkpt lat="45.87459795" lon="9.01078823"><ele></ele><time>2014-5-11T16:13:34Z</time></trkpt>
<trkpt lat="45.87445253" lon="9.01101697"><ele></ele><time>2014-5-11T16:13:37Z</time></trkpt>
<trkpt lat="45.87441648" lon="9.01107338"><ele></ele><time>2014-5-11T16:13:40Z</time></trkpt>
<trkpt lat="45.87434038" lon="9.01114915"><ele></ele><time>2014-5-11T16:13:43Z</time></trkpt>
<trkpt lat="45.87427818" lon="9.01119752"><ele></ele><time>2014-5-11T16:13:46Z</time></trkpt>
<trkpt lat="45.87421523" lon="9.01123079"><ele></ele><time>2014-5-11T16:13:49Z</time></trkpt>
<trkpt lat="45.87411482" lon="9.01130539"><ele></ele><time>2014-5-11T16:13:52Z</time></trkpt>
<trkpt lat="45.87404709" lon="9.01144747"><ele></ele><time>2014-5-11T16:13:55Z</time></trkpt>
<trkpt lat="45.87402195" lon="9.01159960"><ele></ele><time>2014-5-11T16:13:58Z</time></trkpt>
<trkpt lat="45.87403569" lon="9.01161066"><ele></ele><time>2014-5-11T16:14:1Z</time></trkpt>
<trkpt lat="45.87404265" lon="9.01161544"><ele></ele><time>2014-5-11T16:14:4Z</time></trkpt>
<trkpt lat="45.87414357" lon="9.01163899"><ele></ele><time>2014-5-11T16:14:7Z</time></trkpt>
<trkpt lat="45.87419084" lon="9.01161209"><ele></ele><time>2014-5-11T16:14:10Z</time></trkpt>
<trkpt lat="45.87439209" lon="9.01141855"><ele></ele><time>2014-5-11T16:14:13Z</time></trkpt>
<trkpt lat="45.87461933" lon="9.01121613"><ele></ele><time>2014-5-11T16:14:16Z</time></trkpt>
<trkpt lat="45.87488822" lon="9.01102980"><ele></ele><time>2014-5-11T16:14:19Z</time></trkpt>
<trkpt lat="45.87513582" lon="9.01079603"><ele></ele><time>2014-5-11T16:14:22Z</time></trkpt>
<trkpt lat="45.87535844" lon="9.01054960"><ele></ele><time>2014-5-11T16:14:25Z</time></trkpt>
<trkpt lat="45.87557436" lon="9.01031289"><ele></ele><time>2014-5-11T16:14:28Z</time></trkpt>
<trkpt lat="45.87574032" lon="9.01003378"><ele></ele><time>2014-5-11T16:14:31Z</time></trkpt>
<trkpt lat="45.87590234" lon="9.00974594"><ele></ele><time>2014-5-11T16:14:34Z</time></trkpt>
<trkpt lat="45.87602086" lon="9.00960504"><ele></ele><time>2014-5-11T16:14:37Z</time></trkpt>
<trkpt lat="45.87612949" lon="9.00938703"><ele></ele><time>2014-5-11T16:14:40Z</time></trkpt>
<trkpt lat="45.87617132" lon="9.00934109"><ele></ele><time>2014-5-11T16:14:43Z</time></trkpt>
<trkpt lat="45.87624223" lon="9.00926105"><ele></ele><time>2014-5-11T16:14:46Z</time></trkpt>
<trkpt lat="45.87641263" lon="9.00901076"><ele></ele><time>2014-5-11T16:14:49Z</time></trkpt>
<trkpt lat="45.87655244" lon="9.00877926"><ele></ele><time>2014-5-11T16:14:52Z</time></trkpt>
<trkpt lat="45.87672494" lon="9.00860508"><ele></ele><time>2014-5-11T16:14:55Z</time></trkpt>
<trkpt lat="45.87675587" lon="9.00868538"><ele></ele><time>2014-5-11T16:14:58Z</time></trkpt>
<trkpt lat="45.87664272" lon="9.00884874"><ele></ele><time>2014-5-11T16:15:1Z</time></trkpt>
<trkpt lat="45.87662176" lon="9.00893725"><ele></ele><time>2014-5-11T16:15:4Z</time></trkpt>
<trkpt lat="45.87659192" lon="9.00910255"><ele></ele><time>2014-5-11T16:15:7Z</time></trkpt>
<trkpt lat="45.87650534" lon="9.00931033"><ele></ele><time>2014-5-11T16:15:10Z</time></trkpt>
<trkpt lat="45.87647240" lon="9.00942927"><ele></ele><time>2014-5-11T16:15:13Z</time></trkpt>
<trkpt lat="45.87641414" lon="9.00955894"><ele></ele><time>2014-5-11T16:15:16Z</time></trkpt>
<trkpt lat="45.87634466" lon="9.00970730"><ele></ele><time>2014-5-11T16:15:19Z</time></trkpt>
<trkpt lat="45.87628389" lon="9.00992355"><ele></ele><time>2014-5-11T16:15:22Z</time></trkpt>
<trkpt lat="45.87624617" lon="9.01012698"><ele></ele><time>2014-5-11T16:15:25Z</time></trkpt>
<trkpt lat="45.87620845" lon="9.01032513"><ele></ele><time>2014-5-11T16:15:28Z</time></trkpt>
<trkpt lat="45.87620803" lon="9.01040685"><ele></ele><time>2014-5-11T16:15:31Z</time></trkpt>
<trkpt lat="45.87622806" lon="9.01040258"><ele></ele><time>2014-5-11T16:15:34Z</time></trkpt>
<trkpt lat="45.87626696" lon="9.01037509"><ele></ele><time>2014-5-11T16:15:37Z</time></trkpt>
<trkpt lat="45.87648178" lon="9.01025950"><ele></ele><time>2014-5-11T16:15:40Z</time></trkpt>
<trkpt lat="45.87665269" lon="9.01019773"><ele></ele><time>2014-5-11T16:15:43Z</time></trkpt>
<trkpt lat="45.87679217" lon="9.01004040"><ele></ele><time>2014-5-11T16:15:46Z</time></trkpt>
<trkpt lat="45.87680382" lon="9.01003084"><ele></ele><time>2014-5-11T16:15:49Z</time></trkpt>
<trkpt lat="45.87688034" lon="9.01001357"><ele></ele><time>2014-5-11T16:15:52Z</time></trkpt>
<trkpt lat="45.87699786" lon="9.01000905"><ele></ele><time>2014-5-11T16:15:55Z</time></trkpt>
<trkpt lat="45.87727555" lon="9.01013260"><ele></ele><time>2014-5-11T16:15:58Z</time></trkpt>
<trkpt lat="45.87748392" lon="9.01025355"><ele></ele><time>2014-5-11T16:16:1Z</time></trkpt>
<trkpt lat="45.87768769" lon="9.01041096"><ele></ele><time>2014-5-11T16:16:4Z</time></trkpt>
<trkpt lat="45.87783362" lon="9.01055312"><ele></ele><time>2014-5-11T16:16:7Z</time></trkpt>
<trkpt lat="45.87806295" lon="9.01066208"><ele></ele><time>2014-5-11T16:16:10Z</time></trkpt>
<trkpt lat="45.87809379" lon="9.01067055"><ele></ele><time>2014-5-11T16:16:13Z</time></trkpt>
<trkpt lat="45.87831030" lon="9.01063534"><ele></ele><time>2014-5-11T16:16:16Z</time></trkpt>
<trkpt lat="45.87860752" lon="9.01055337"><ele></ele><time>2014-5-11T16:16:19Z</time></trkpt>
<trkpt lat="45.87864758" lon="9.01054624"><ele></ele><time>2014-5-11T16:16:22Z</time></trkpt>
<trkpt lat="45.87881464" lon="9.01055739"><ele></ele><time>2014-5-11T16:16:25Z</time></trkpt>
<trkpt lat="45.87893098" lon="9.01058723"><ele></ele><time>2014-5-11T16:16:28Z</time></trkpt>
<trkpt lat="45.87921110" lon="9.01071095"><ele></ele><time>2014-5-11T16:16:31Z</time></trkpt>
<trkpt lat="45.87984335" lon="9.01089753"><ele></ele><time>2014-5-11T16:16:34Z</time></trkpt>
<trkpt lat="45.88029538" lon="9.01102535"><ele></ele><time>2014-5-11T16:16:37Z</time></trkpt>
<trkpt lat="45.88064474" lon="9.01100633"><ele></ele><time>2014-5-11T16:16:40Z</time></trkpt>
<trkpt lat="45.88099988" lon="9.01098453"><ele></ele><time>2014-5-11T16:16:43Z</time></trkpt>
<trkpt lat="45.88130104" lon="9.01090323"><ele></ele><time>2014-5-11T16:16:46Z</time></trkpt>
<trkpt lat="45.88176096" lon="9.01086124"><ele></ele><time>2014-5-11T16:16:49Z</time></trkpt>
<trkpt lat="45.88210512" lon="9.01086694"><ele></ele><time>2014-5-11T16:16:52Z</time></trkpt>
<trkpt lat="45.88246294" lon="9.01104782"><ele></ele><time>2014-5-11T16:16:55Z</time></trkpt>
<trkpt lat="45.88286947" lon="9.01136113"><ele></ele><time>2014-5-11T16:16:58Z</time></trkpt>
<trkpt lat="45.88303903" lon="9.01155643"><ele></ele><time>2014-5-11T16:17:1Z</time></trkpt>
<trkpt lat="45.88318504" lon="9.01178752"><ele></ele><time>2014-5-11T16:17:4Z</time></trkpt>
<trkpt lat="45.88329736" lon="9.01197217"><ele></ele><time>2014-5-11T16:17:7Z</time></trkpt>
<trkpt lat="45.88343206" lon="9.01215658"><ele></ele><time>2014-5-11T16:17:10Z</time></trkpt>
<trkpt lat="45.88367346" lon="9.01234425"><ele></ele><time>2014-5-11T16:17:13Z</time></trkpt>
<trkpt lat="45.88387814" lon="9.01250208"><ele></ele><time>2014-5-11T16:17:16Z</time></trkpt>
<trkpt lat="45.88408409" lon="9.01270249"><ele></ele><time>2014-5-11T16:17:19Z</time></trkpt>
<trkpt lat="45.88430193" lon="9.01289787"><ele></ele><time>2014-5-11T16:17:22Z</time></trkpt>
<trkpt lat="45.88450285" lon="9.01306526"><ele></ele><time>2014-5-11T16:17:25Z</time></trkpt>
<trkpt lat="45.88466965" lon="9.01333457"><ele></ele><time>2014-5-11T16:17:28Z</time></trkpt>
<trkpt lat="45.88482496" lon="9.01368518"><ele></ele><time>2014-5-11T16:17:31Z</time></trkpt>
<trkpt lat="45.88500517" lon="9.01401820"><ele></ele><time>2014-5-11T16:17:34Z</time></trkpt>
<trkpt lat="45.88514389" lon="9.01423219"><ele></ele><time>2014-5-11T16:17:37Z</time></trkpt>
<trkpt lat="45.88535336" lon="9.01441013"><ele></ele><time>2014-5-11T16:17:40Z</time></trkpt>
<trkpt lat="45.88553826" lon="9.01443017"><ele></ele><time>2014-5-11T16:17:43Z</time></trkpt>
<trkpt lat="45.88564086" lon="9.01444106"><ele></ele><time>2014-5-11T16:17:46Z</time></trkpt>
<trkpt lat="45.88569358" lon="9.01483786"><ele></ele><time>2014-5-11T16:17:49Z</time></trkpt>
<trkpt lat="45.88580263" lon="9.01529183"><ele></ele><time>2014-5-11T16:17:52Z</time></trkpt>
<trkpt lat="45.88608828" lon="9.01587923"><ele></ele><time>2014-5-11T16:17:55Z</time></trkpt>
<trkpt lat="45.88626238" lon="9.01658733"><ele></ele><time>2014-5-11T16:17:58Z</time></trkpt>
<trkpt lat="45.88645985" lon="9.01741379"><ele></ele><time>2014-5-11T16:18:1Z</time></trkpt>
<trkpt lat="45.88668742" lon="9.01810043"><ele></ele><time>2014-5-11T16:18:4Z</time></trkpt>
<trkpt lat="45.88700845" lon="9.01810203"><ele></ele><time>2014-5-11T16:18:7Z</time></trkpt>
<trkpt lat="45.88747717" lon="9.01784806"><ele></ele><time>2014-5-11T16:18:10Z</time></trkpt>
<trkpt lat="45.88790724" lon="9.01767137"><ele></ele><time>2014-5-11T16:18:13Z</time></trkpt>
<trkpt lat="45.88830924" lon="9.01768486"><ele></ele><time>2014-5-11T16:18:16Z</time></trkpt>
<trkpt lat="45.88873068" lon="9.01774219"><ele></ele><time>2014-5-11T16:18:19Z</time></trkpt>
<trkpt lat="45.88895649" lon="9.01762526"><ele></ele><time>2014-5-11T16:18:22Z</time></trkpt>
<trkpt lat="45.88912547" lon="9.01747456"><ele></ele><time>2014-5-11T16:18:25Z</time></trkpt>
<trkpt lat="45.88967456" lon="9.01715253"><ele></ele><time>2014-5-11T16:18:28Z</time></trkpt>
<trkpt lat="45.89004924" lon="9.01731648"><ele></ele><time>2014-5-11T16:18:31Z</time></trkpt>
<trkpt lat="45.89044972" lon="9.01766810"><ele></ele><time>2014-5-11T16:18:34Z</time></trkpt>
<trkpt lat="45.89048635" lon="9.01770020"><ele></ele><time>2014-5-11T16:18:37Z</time></trkpt>
<trkpt lat="45.89058040" lon="9.01782115"><ele></ele><time>2014-5-11T16:18:40Z</time></trkpt>
<trkpt lat="45.89062960" lon="9.01791947"><ele></ele><time>2014-5-11T16:18:43Z</time></trkpt>
<trkpt lat="45.89070948" lon="9.01813673"><ele></ele><time>2014-5-11T16:18:46Z</time></trkpt>
<trkpt lat="45.89081333" lon="9.01852372"><ele></ele><time>2014-5-11T16:18:49Z</time></trkpt>
<trkpt lat="45.89110418" lon="9.01891893"><ele></ele><time>2014-5-11T16:18:52Z</time></trkpt>
<trkpt lat="45.89114249" lon="9.01892228"><ele></ele><time>2014-5-11T16:18:55Z</time></trkpt>
<trkpt lat="45.89124349" lon="9.01893728"><ele></ele><time>2014-5-11T16:18:58Z</time></trkpt>
<trkpt lat="45.89124944" lon="9.01895237"><ele></ele><time>2014-5-11T16:19:1Z</time></trkpt>
<trkpt lat="45.89124726" lon="9.01894609"><ele></ele><time>2014-5-11T16:19:4Z</time></trkpt>
<trkpt lat="45.89125053" lon="9.01894357"><ele></ele><time>2014-5-11T16:19:7Z</time></trkpt>
<trkpt lat="45.89125179" lon="9.01893334"><ele></ele><time>2014-5-11T16:19:10Z</time></trkpt>
<trkpt lat="45.89123955" lon="9.01888875"><ele></ele><time>2014-5-11T16:19:13Z</time></trkpt>
<trkpt lat="45.89123754" lon="9.01890317"><ele></ele><time>2014-5-11T16:19:16Z</time></trkpt>
<trkpt lat="45.89126235" lon="9.01893846"><ele></ele><time>2014-5-11T16:19:19Z</time></trkpt>
<trkpt lat="45.89128213" lon="9.01895799"><ele></ele><time>2014-5-11T16:19:22Z</time></trkpt>
<trkpt lat="45.89126528" lon="9.01897718"><ele></ele><time>2014-5-11T16:19:25Z</time></trkpt>
<trkpt lat="45.89120242" lon="9.01895355"><ele></ele><time>2014-5-11T16:19:28Z</time></trkpt>
<trkpt lat="45.89133410" lon="9.01897425"><ele></ele><time>2014-5-11T16:19:31Z</time></trkpt>
<trkpt lat="45.89173953" lon="9.01908900"><ele></ele><time>2014-5-11T16:19:34Z</time></trkpt>
<trkpt lat="45.89179334" lon="9.01916016"><ele></ele><time>2014-5-11T16:19:37Z</time></trkpt>
<trkpt lat="45.89189325" lon="9.01914935"><ele></ele><time>2014-5-11T16:19:40Z</time></trkpt>
<trkpt lat="45.89222887" lon="9.01908900"><ele></ele><time>2014-5-11T16:19:43Z</time></trkpt>
<trkpt lat="45.89235183" lon="9.01910869"><ele></ele><time>2014-5-11T16:19:46Z</time></trkpt>
<trkpt lat="45.89256909" lon="9.01915479"><ele></ele><time>2014-5-11T16:19:49Z</time></trkpt>
<trkpt lat="45.89282465" lon="9.01894122"><ele></ele><time>2014-5-11T16:19:52Z</time></trkpt>
<trkpt lat="45.89294644" lon="9.01860142"><ele></ele><time>2014-5-11T16:19:55Z</time></trkpt>
<trkpt lat="45.89306362" lon="9.01823723"><ele></ele><time>2014-5-11T16:19:58Z</time></trkpt>
<trkpt lat="45.89323478" lon="9.01795995"><ele></ele><time>2014-5-11T16:20:1Z</time></trkpt>
<trkpt lat="45.89337903" lon="9.01762552"><ele></ele><time>2014-5-11T16:20:4Z</time></trkpt>
<trkpt lat="45.89368883" lon="9.01734263"><ele></ele><time>2014-5-11T16:20:7Z</time></trkpt>
<trkpt lat="45.89380994" lon="9.01738923"><ele></ele><time>2014-5-11T16:20:10Z</time></trkpt>
<trkpt lat="45.89388295" lon="9.01751052"><ele></ele><time>2014-5-11T16:20:13Z</time></trkpt>
<trkpt lat="45.89387683" lon="9.01752334"><ele></ele><time>2014-5-11T16:20:16Z</time></trkpt>
<trkpt lat="45.89403332" lon="9.01777589"><ele></ele><time>2014-5-11T16:20:19Z</time></trkpt>
<trkpt lat="45.89415704" lon="9.01803933"><ele></ele><time>2014-5-11T16:20:22Z</time></trkpt>
<trkpt lat="45.89413994" lon="9.01800974"><ele></ele><time>2014-5-11T16:20:25Z</time></trkpt>
<trkpt lat="45.89431596" lon="9.01827537"><ele></ele><time>2014-5-11T16:20:28Z</time></trkpt>
<trkpt lat="45.89439693" lon="9.01838064"><ele></ele><time>2014-5-11T16:20:31Z</time></trkpt>
<trkpt lat="45.89448988" lon="9.01847024"><ele></ele><time>2014-5-11T16:20:34Z</time></trkpt>
<trkpt lat="45.89514174" lon="9.01860687"><ele></ele><time>2014-5-11T16:20:37Z</time></trkpt>
<trkpt lat="45.89565505" lon="9.01859019"><ele></ele><time>2014-5-11T16:20:40Z</time></trkpt>
<trkpt lat="45.89593065" lon="9.01851274"><ele></ele><time>2014-5-11T16:20:43Z</time></trkpt>
<trkpt lat="45.89631488" lon="9.01851735"><ele></ele><time>2014-5-11T16:20:46Z</time></trkpt>
<trkpt lat="45.89641554" lon="9.01849497"><ele></ele><time>2014-5-11T16:20:49Z</time></trkpt>
<trkpt lat="45.89654253" lon="9.01833613"><ele></ele><time>2014-5-11T16:20:52Z</time></trkpt>
<trkpt lat="45.89671486" lon="9.01792835"><ele></ele><time>2014-5-11T16:20:55Z</time></trkpt>
<trkpt lat="45.89689155" lon="9.01773054"><ele></ele><time>2014-5-11T16:20:58Z</time></trkpt>
<trkpt lat="45.89743135" lon="9.01759786"><ele></ele><time>2014-5-11T16:21:1Z</time></trkpt>
<trkpt lat="45.89783678" lon="9.01763767"><ele></ele><time>2014-5-11T16:21:4Z</time></trkpt>
<trkpt lat="45.89854312" lon="9.01786524"><ele></ele><time>2014-5-11T16:21:7Z</time></trkpt>
<trkpt lat="45.89878435" lon="9.01789139"><ele></ele><time>2014-5-11T16:21:10Z</time></trkpt>
<trkpt lat="45.89896414" lon="9.01785007"><ele></ele><time>2014-5-11T16:21:13Z</time></trkpt>
<trkpt lat="45.89986696" lon="9.01762208"><ele></ele><time>2014-5-11T16:21:16Z</time></trkpt>
<trkpt lat="45.90054916" lon="9.01747548"><ele></ele><time>2014-5-11T16:21:19Z</time></trkpt>
<trkpt lat="45.90065209" lon="9.01747808"><ele></ele><time>2014-5-11T16:21:22Z</time></trkpt>
<trkpt lat="45.90084622" lon="9.01752627"><ele></ele><time>2014-5-11T16:21:25Z</time></trkpt>
<trkpt lat="45.90160629" lon="9.01743474"><ele></ele><time>2014-5-11T16:21:28Z</time></trkpt>
<trkpt lat="45.90203988" lon="9.01730089"><ele></ele><time>2014-5-11T16:21:31Z</time></trkpt>
<trkpt lat="45.90234473" lon="9.01716828"><ele></ele><time>2014-5-11T16:21:34Z</time></trkpt>
<trkpt lat="45.90276073" lon="9.01692864"><ele></ele><time>2014-5-11T16:21:37Z</time></trkpt>
<trkpt lat="45.90302727" lon="9.01650192"><ele></ele><time>2014-5-11T16:21:40Z</time></trkpt>
<trkpt lat="45.90312626" lon="9.01613052"><ele></ele><time>2014-5-11T16:21:43Z</time></trkpt>
<trkpt lat="45.90336733" lon="9.01551428"><ele></ele><time>2014-5-11T16:21:46Z</time></trkpt>
<trkpt lat="45.90362323" lon="9.01491934"><ele></ele><time>2014-5-11T16:21:49Z</time></trkpt>
<trkpt lat="45.90360478" lon="9.01440678"><ele></ele><time>2014-5-11T16:21:52Z</time></trkpt>
<trkpt lat="45.90357712" lon="9.01399632"><ele></ele><time>2014-5-11T16:21:55Z</time></trkpt>
<trkpt lat="45.90370897" lon="9.01348955"><ele></ele><time>2014-5-11T16:21:58Z</time></trkpt>
<trkpt lat="45.90397124" lon="9.01305847"><ele></ele><time>2014-5-11T16:22:1Z</time></trkpt>
<trkpt lat="45.90399538" lon="9.01303458"><ele></ele><time>2014-5-11T16:22:4Z</time></trkpt>
<trkpt lat="45.90435639" lon="9.01285135"><ele></ele><time>2014-5-11T16:22:7Z</time></trkpt>
<trkpt lat="45.90480407" lon="9.01271867"><ele></ele><time>2014-5-11T16:22:10Z</time></trkpt>
<trkpt lat="45.90535677" lon="9.01235355"><ele></ele><time>2014-5-11T16:22:13Z</time></trkpt>
<trkpt lat="45.90593915" lon="9.01202012"><ele></ele><time>2014-5-11T16:22:16Z</time></trkpt>
<trkpt lat="45.90665303" lon="9.01193345"><ele></ele><time>2014-5-11T16:22:19Z</time></trkpt>
<trkpt lat="45.90683509" lon="9.01185449"><ele></ele><time>2014-5-11T16:22:22Z</time></trkpt>
<trkpt lat="45.90745887" lon="9.01106265"><ele></ele><time>2014-5-11T16:22:25Z</time></trkpt>
<trkpt lat="45.90771343" lon="9.01054189"><ele></ele><time>2014-5-11T16:22:28Z</time></trkpt>
<trkpt lat="45.90836453" lon="9.00987913"><ele></ele><time>2014-5-11T16:22:31Z</time></trkpt>
<trkpt lat="45.90849353" lon="9.00965609"><ele></ele><time>2014-5-11T16:22:34Z</time></trkpt>
<trkpt lat="45.90884733" lon="9.00871304"><ele></ele><time>2014-5-11T16:22:37Z</time></trkpt>
<trkpt lat="45.90909753" lon="9.00813628"><ele></ele><time>2014-5-11T16:22:40Z</time></trkpt>
<trkpt lat="45.90914648" lon="9.00768022"><ele></ele><time>2014-5-11T16:22:43Z</time></trkpt>
<trkpt lat="45.90912075" lon="9.00752884"><ele></ele><time>2014-5-11T16:22:46Z</time></trkpt>
<trkpt lat="45.90889234" lon="9.00689894"><ele></ele><time>2014-5-11T16:22:49Z</time></trkpt>
<trkpt lat="45.90885462" lon="9.00664698"><ele></ele><time>2014-5-11T16:22:52Z</time></trkpt>
<trkpt lat="45.90862890" lon="9.00613074"><ele></ele><time>2014-5-11T16:22:55Z</time></trkpt>
<trkpt lat="45.90854919" lon="9.00600049"><ele></ele><time>2014-5-11T16:22:58Z</time></trkpt>
<trkpt lat="45.90827644" lon="9.00583503"><ele></ele><time>2014-5-11T16:23:1Z</time></trkpt>
<trkpt lat="45.90764612" lon="9.00516506"><ele></ele><time>2014-5-11T16:23:4Z</time></trkpt>
<trkpt lat="45.90755166" lon="9.00506632"><ele></ele><time>2014-5-11T16:23:7Z</time></trkpt>
<trkpt lat="45.90718386" lon="9.00460624"><ele></ele><time>2014-5-11T16:23:10Z</time></trkpt>
<trkpt lat="45.90716986" lon="9.00413426"><ele></ele><time>2014-5-11T16:23:13Z</time></trkpt>
<trkpt lat="45.90755484" lon="9.00340226"><ele></ele><time>2014-5-11T16:23:16Z</time></trkpt>
<trkpt lat="45.90765174" lon="9.00291310"><ele></ele><time>2014-5-11T16:23:19Z</time></trkpt>
<trkpt lat="45.90766548" lon="9.00287387"><ele></ele><time>2014-5-11T16:23:22Z</time></trkpt>
<trkpt lat="45.90771946" lon="9.00273423"><ele></ele><time>2014-5-11T16:23:25Z</time></trkpt>
<trkpt lat="45.90778685" lon="9.00272585"><ele></ele><time>2014-5-11T16:23:28Z</time></trkpt>
<trkpt lat="45.90804024" lon="9.00275627"><ele></ele><time>2014-5-11T16:23:31Z</time></trkpt>
<trkpt lat="45.90828356" lon="9.00285719"><ele></ele><time>2014-5-11T16:23:34Z</time></trkpt>
<trkpt lat="45.90849336" lon="9.00289097"><ele></ele><time>2014-5-11T16:23:37Z</time></trkpt>
<trkpt lat="45.90868799" lon="9.00303044"><ele></ele><time>2014-5-11T16:23:40Z</time></trkpt>
<trkpt lat="45.90888865" lon="9.00322700"><ele></ele><time>2014-5-11T16:23:43Z</time></trkpt>
<trkpt lat="45.90904523" lon="9.00333026"><ele></ele><time>2014-5-11T16:23:46Z</time></trkpt>
<trkpt lat="45.90918747" lon="9.00339967"><ele></ele><time>2014-5-11T16:23:49Z</time></trkpt>
<trkpt lat="45.90925829" lon="9.00345398"><ele></ele><time>2014-5-11T16:23:52Z</time></trkpt>
<trkpt lat="45.90930297" lon="9.00350838"><ele></ele><time>2014-5-11T16:23:55Z</time></trkpt>
<trkpt lat="45.90944504" lon="9.00366856"><ele></ele><time>2014-5-11T16:23:58Z</time></trkpt>
<trkpt lat="45.90964688" lon="9.00383175"><ele></ele><time>2014-5-11T16:24:1Z</time></trkpt>
<trkpt lat="45.90972986" lon="9.00395824"><ele></ele><time>2014-5-11T16:24:4Z</time></trkpt>
<trkpt lat="45.90978594" lon="9.00424213"><ele></ele><time>2014-5-11T16:24:7Z</time></trkpt>
<trkpt lat="45.90979516" lon="9.00429167"><ele></ele><time>2014-5-11T16:24:10Z</time></trkpt>
<trkpt lat="45.90964948" lon="9.00448873"><ele></ele><time>2014-5-11T16:24:13Z</time></trkpt>
<trkpt lat="45.90943289" lon="9.00456559"><ele></ele><time>2014-5-11T16:24:16Z</time></trkpt>
<trkpt lat="45.90952216" lon="9.00477363"><ele></ele><time>2014-5-11T16:24:19Z</time></trkpt>
<trkpt lat="45.90983614" lon="9.00494294"><ele></ele><time>2014-5-11T16:24:22Z</time></trkpt>
<trkpt lat="45.91009322" lon="9.00500664"><ele></ele><time>2014-5-11T16:24:25Z</time></trkpt>
<trkpt lat="45.91025147" lon="9.00499918"><ele></ele><time>2014-5-11T16:24:28Z</time></trkpt>
<trkpt lat="45.91051784" lon="9.00497328"><ele></ele><time>2014-5-11T16:24:31Z</time></trkpt>
<trkpt lat="45.91066813" lon="9.00493104"><ele></ele><time>2014-5-11T16:24:34Z</time></trkpt>
<trkpt lat="45.91072219" lon="9.00492869"><ele></ele><time>2014-5-11T16:24:37Z</time></trkpt>
<trkpt lat="45.91076528" lon="9.00490388"><ele></ele><time>2014-5-11T16:24:40Z</time></trkpt>
<trkpt lat="45.91084843" lon="9.00487673"><ele></ele><time>2014-5-11T16:24:43Z</time></trkpt>
<trkpt lat="45.91083719" lon="9.00497873"><ele></ele><time>2014-5-11T16:24:46Z</time></trkpt>
<trkpt lat="45.91076067" lon="9.00504889"><ele></ele><time>2014-5-11T16:24:49Z</time></trkpt>
<trkpt lat="45.91069764" lon="9.00509784"><ele></ele><time>2014-5-11T16:24:52Z</time></trkpt>
<trkpt lat="45.91059848" lon="9.00526942"><ele></ele><time>2014-5-11T16:24:55Z</time></trkpt>
<trkpt lat="45.91067878" lon="9.00530823"><ele></ele><time>2014-5-11T16:24:58Z</time></trkpt>
<trkpt lat="45.91078296" lon="9.00534402"><ele></ele><time>2014-5-11T16:25:1Z</time></trkpt>
<trkpt lat="45.91082194" lon="9.00535667"><ele></ele><time>2014-5-11T16:25:4Z</time></trkpt>
<trkpt lat="45.91086552" lon="9.00534309"><ele></ele><time>2014-5-11T16:25:7Z</time></trkpt>
<trkpt lat="45.91096317" lon="9.00530454"><ele></ele><time>2014-5-11T16:25:10Z</time></trkpt>
<trkpt lat="45.91106275" lon="9.00531577"><ele></ele><time>2014-5-11T16:25:13Z</time></trkpt>
<trkpt lat="45.91118429" lon="9.00529255"><ele></ele><time>2014-5-11T16:25:16Z</time></trkpt>
<trkpt lat="45.91126978" lon="9.00527093"><ele></ele><time>2014-5-11T16:25:19Z</time></trkpt>
<trkpt lat="45.91137816" lon="9.00523078"><ele></ele><time>2014-5-11T16:25:22Z</time></trkpt>
<trkpt lat="45.91150817" lon="9.00522449"><ele></ele><time>2014-5-11T16:25:25Z</time></trkpt>
<trkpt lat="45.91154647" lon="9.00522508"><ele></ele><time>2014-5-11T16:25:28Z</time></trkpt>
<trkpt lat="45.91164957" lon="9.00519046"><ele></ele><time>2014-5-11T16:25:31Z</time></trkpt>
<trkpt lat="45.91168125" lon="9.00517135"><ele></ele><time>2014-5-11T16:25:34Z</time></trkpt>
<trkpt lat="45.91187278" lon="9.00509885"><ele></ele><time>2014-5-11T16:25:37Z</time></trkpt>
<trkpt lat="45.91195358" lon="9.00502743"><ele></ele><time>2014-5-11T16:25:40Z</time></trkpt>
<trkpt lat="45.91201628" lon="9.00500078"><ele></ele><time>2014-5-11T16:25:43Z</time></trkpt>
<trkpt lat="45.91229036" lon="9.00489483"><ele></ele><time>2014-5-11T16:25:46Z</time></trkpt>
<trkpt lat="45.91232724" lon="9.00486273"><ele></ele><time>2014-5-11T16:25:49Z</time></trkpt>
<trkpt lat="45.91253369" lon="9.00471294"><ele></ele><time>2014-5-11T16:25:52Z</time></trkpt>
<trkpt lat="45.91261022" lon="9.00457758"><ele></ele><time>2014-5-11T16:25:55Z</time></trkpt>
<trkpt lat="45.91268356" lon="9.00463072"><ele></ele><time>2014-5-11T16:25:58Z</time></trkpt>
<trkpt lat="45.91269672" lon="9.00468076"><ele></ele><time>2014-5-11T16:26:1Z</time></trkpt>
<trkpt lat="45.91269119" lon="9.00482493"><ele></ele><time>2014-5-11T16:26:4Z</time></trkpt>
<trkpt lat="45.91260267" lon="9.00497152"><ele></ele><time>2014-5-11T16:26:7Z</time></trkpt>
<trkpt lat="45.91257845" lon="9.00500857"><ele></ele><time>2014-5-11T16:26:10Z</time></trkpt>
<trkpt lat="45.91240763" lon="9.00519876"><ele></ele><time>2014-5-11T16:26:13Z</time></trkpt>
<trkpt lat="45.91248214" lon="9.00516397"><ele></ele><time>2014-5-11T16:26:16Z</time></trkpt>
<trkpt lat="45.91249614" lon="9.00515383"><ele></ele><time>2014-5-11T16:26:19Z</time></trkpt>
<trkpt lat="45.91254274" lon="9.00520999"><ele></ele><time>2014-5-11T16:26:22Z</time></trkpt>
<trkpt lat="45.91257744" lon="9.00523815"><ele></ele><time>2014-5-11T16:26:25Z</time></trkpt>
<trkpt lat="45.91255012" lon="9.00537562"><ele></ele><time>2014-5-11T16:26:28Z</time></trkpt>
<trkpt lat="45.91254702" lon="9.00553579"><ele></ele><time>2014-5-11T16:26:31Z</time></trkpt>
<trkpt lat="45.91250620" lon="9.00564107"><ele></ele><time>2014-5-11T16:26:34Z</time></trkpt>
<trkpt lat="45.91245758" lon="9.00575976"><ele></ele><time>2014-5-11T16:26:37Z</time></trkpt>
<trkpt lat="45.91243193" lon="9.00586713"><ele></ele><time>2014-5-11T16:26:40Z</time></trkpt>
<trkpt lat="45.91242909" lon="9.00594190"><ele></ele><time>2014-5-11T16:26:43Z</time></trkpt>
<trkpt lat="45.91249622" lon="9.00597618"><ele></ele><time>2014-5-11T16:26:46Z</time></trkpt>
<trkpt lat="45.91260427" lon="9.00594617"><ele></ele><time>2014-5-11T16:26:49Z</time></trkpt>
<trkpt lat="45.91286469" lon="9.00578029"><ele></ele><time>2014-5-11T16:26:52Z</time></trkpt>
<trkpt lat="45.91297324" lon="9.00574584"><ele></ele><time>2014-5-11T16:26:55Z</time></trkpt>
<trkpt lat="45.91300325" lon="9.00572724"><ele></ele><time>2014-5-11T16:26:58Z</time></trkpt>
<trkpt lat="45.91313040" lon="9.00568767"><ele></ele><time>2014-5-11T16:27:1Z</time></trkpt>
<trkpt lat="45.91332109" lon="9.00560637"><ele></ele><time>2014-5-11T16:27:4Z</time></trkpt>
<trkpt lat="45.91358998" lon="9.00555365"><ele></ele><time>2014-5-11T16:27:7Z</time></trkpt>
<trkpt lat="45.91393238" lon="9.00561257"><ele></ele><time>2014-5-11T16:27:10Z</time></trkpt>
<trkpt lat="45.91395115" lon="9.00561090"><ele></ele><time>2014-5-11T16:27:13Z</time></trkpt>
<trkpt lat="45.91397085" lon="9.00561157"><ele></ele><time>2014-5-11T16:27:16Z</time></trkpt>
<trkpt lat="45.91411787" lon="9.00565909"><ele></ele><time>2014-5-11T16:27:19Z</time></trkpt>
<trkpt lat="45.91421317" lon="9.00564493"><ele></ele><time>2014-5-11T16:27:22Z</time></trkpt>
<trkpt lat="45.91441727" lon="9.00565817"><ele></ele><time>2014-5-11T16:27:25Z</time></trkpt>
<trkpt lat="45.91458533" lon="9.00568273"><ele></ele><time>2014-5-11T16:27:28Z</time></trkpt>
<trkpt lat="45.91468683" lon="9.00567695"><ele></ele><time>2014-5-11T16:27:31Z</time></trkpt>
<trkpt lat="45.91470016" lon="9.00568399"><ele></ele><time>2014-5-11T16:27:34Z</time></trkpt>
<trkpt lat="45.91484986" lon="9.00575004"><ele></ele><time>2014-5-11T16:27:37Z</time></trkpt>
<trkpt lat="45.91486503" lon="9.00580469"><ele></ele><time>2014-5-11T16:27:40Z</time></trkpt>
<trkpt lat="45.91509059" lon="9.00602597"><ele></ele><time>2014-5-11T16:27:43Z</time></trkpt>
<trkpt lat="45.91547515" lon="9.00640877"><ele></ele><time>2014-5-11T16:27:46Z</time></trkpt>
<trkpt lat="45.91571664" lon="9.00703263"><ele></ele><time>2014-5-11T16:27:49Z</time></trkpt>
<trkpt lat="45.91573952" lon="9.00779514"><ele></ele><time>2014-5-11T16:27:52Z</time></trkpt>
<trkpt lat="45.91569392" lon="9.00800904"><ele></ele><time>2014-5-11T16:27:55Z</time></trkpt>
<trkpt lat="45.91562955" lon="9.00831926"><ele></ele><time>2014-5-11T16:27:58Z</time></trkpt>
<trkpt lat="45.91561572" lon="9.00835052"><ele></ele><time>2014-5-11T16:28:1Z</time></trkpt>
<trkpt lat="45.91561153" lon="9.00848648"><ele></ele><time>2014-5-11T16:28:4Z</time></trkpt>
<trkpt lat="45.91580934" lon="9.00879602"><ele></ele><time>2014-5-11T16:28:7Z</time></trkpt>
<trkpt lat="45.91596809" lon="9.00896039"><ele></ele><time>2014-5-11T16:28:10Z</time></trkpt>
<trkpt lat="45.91616255" lon="9.00918033"><ele></ele><time>2014-5-11T16:28:13Z</time></trkpt>
<trkpt lat="45.91632105" lon="9.00965734"><ele></ele><time>2014-5-11T16:28:16Z</time></trkpt>
<trkpt lat="45.91628317" lon="9.01021516"><ele></ele><time>2014-5-11T16:28:19Z</time></trkpt>
<trkpt lat="45.91642348" lon="9.01064213"><ele></ele><time>2014-5-11T16:28:22Z</time></trkpt>
<trkpt lat="45.91659338" lon="9.01098135"><ele></ele><time>2014-5-11T16:28:25Z</time></trkpt>
<trkpt lat="45.91666605" lon="9.01124806"><ele></ele><time>2014-5-11T16:28:28Z</time></trkpt>
<trkpt lat="45.91671685" lon="9.01183312"><ele></ele><time>2014-5-11T16:28:31Z</time></trkpt>
<trkpt lat="45.91672422" lon="9.01189825"><ele></ele><time>2014-5-11T16:28:34Z</time></trkpt>
<trkpt lat="45.91673235" lon="9.01200059"><ele></ele><time>2014-5-11T16:28:37Z</time></trkpt>
<trkpt lat="45.91672808" lon="9.01249403"><ele></ele><time>2014-5-11T16:28:40Z</time></trkpt>
<trkpt lat="45.91672850" lon="9.01268606"><ele></ele><time>2014-5-11T16:28:43Z</time></trkpt>
<trkpt lat="45.91675247" lon="9.01282017"><ele></ele><time>2014-5-11T16:28:46Z</time></trkpt>
<trkpt lat="45.91674509" lon="9.01287373"><ele></ele><time>2014-5-11T16:28:49Z</time></trkpt>
<trkpt lat="45.91683218" lon="9.01294632"><ele></ele><time>2014-5-11T16:28:52Z</time></trkpt>
<trkpt lat="45.91702924" lon="9.01280307"><ele></ele><time>2014-5-11T16:28:55Z</time></trkpt>
<trkpt lat="45.91718665" lon="9.01263217"><ele></ele><time>2014-5-11T16:28:58Z</time></trkpt>
<trkpt lat="45.91737122" lon="9.01252463"><ele></ele><time>2014-5-11T16:29:1Z</time></trkpt>
<trkpt lat="45.91756627" lon="9.01241164"><ele></ele><time>2014-5-11T16:29:4Z</time></trkpt>
<trkpt lat="45.91776492" lon="9.01236629"><ele></ele><time>2014-5-11T16:29:7Z</time></trkpt>
<trkpt lat="45.91780054" lon="9.01233553"><ele></ele><time>2014-5-11T16:29:10Z</time></trkpt>
<trkpt lat="45.91798604" lon="9.01219605"><ele></ele><time>2014-5-11T16:29:13Z</time></trkpt>
<trkpt lat="45.91799584" lon="9.01218994"><ele></ele><time>2014-5-11T16:29:16Z</time></trkpt>
<trkpt lat="45.91817974" lon="9.01208592"><ele></ele><time>2014-5-11T16:29:19Z</time></trkpt>
<trkpt lat="45.91819366" lon="9.01208298"><ele></ele><time>2014-5-11T16:29:22Z</time></trkpt>
<trkpt lat="45.91847629" lon="9.01220326"><ele></ele><time>2014-5-11T16:29:25Z</time></trkpt>
<trkpt lat="45.91871065" lon="9.01236344"><ele></ele><time>2014-5-11T16:29:28Z</time></trkpt>
<trkpt lat="45.91876748" lon="9.01242136"><ele></ele><time>2014-5-11T16:29:31Z</time></trkpt>
<trkpt lat="45.91891819" lon="9.01259026"><ele></ele><time>2014-5-11T16:29:34Z</time></trkpt>
<trkpt lat="45.91913134" lon="9.01284523"><ele></ele><time>2014-5-11T16:29:37Z</time></trkpt>
<trkpt lat="45.91915104" lon="9.01286460"><ele></ele><time>2014-5-11T16:29:40Z</time></trkpt>
<trkpt lat="45.91924164" lon="9.01296266"><ele></ele><time>2014-5-11T16:29:43Z</time></trkpt>
<trkpt lat="45.91929789" lon="9.01304095"><ele></ele><time>2014-5-11T16:29:46Z</time></trkpt>
<trkpt lat="45.91942177" lon="9.01320658"><ele></ele><time>2014-5-11T16:29:49Z</time></trkpt>
<trkpt lat="45.91950039" lon="9.01345057"><ele></ele><time>2014-5-11T16:29:52Z</time></trkpt>
<trkpt lat="45.91953820" lon="9.01360958"><ele></ele><time>2014-5-11T16:29:55Z</time></trkpt>
<trkpt lat="45.91960517" lon="9.01380178"><ele></ele><time>2014-5-11T16:29:58Z</time></trkpt>
<trkpt lat="45.91963124" lon="9.01389792"><ele></ele><time>2014-5-11T16:30:1Z</time></trkpt>
<trkpt lat="45.91971698" lon="9.01415767"><ele></ele><time>2014-5-11T16:30:4Z</time></trkpt>
<trkpt lat="45.91981773" lon="9.01439144"><ele></ele><time>2014-5-11T16:30:7Z</time></trkpt>
<trkpt lat="45.91991756" lon="9.01437158"><ele></ele><time>2014-5-11T16:30:10Z</time></trkpt>
<trkpt lat="45.91995218" lon="9.01434685"><ele></ele><time>2014-5-11T16:30:13Z</time></trkpt>
<trkpt lat="45.92005620" lon="9.01424702"><ele></ele><time>2014-5-11T16:30:16Z</time></trkpt>
<trkpt lat="45.92016357" lon="9.01410596"><ele></ele><time>2014-5-11T16:30:19Z</time></trkpt>
<trkpt lat="45.92035417" lon="9.01385995"><ele></ele><time>2014-5-11T16:30:22Z</time></trkpt>
<trkpt lat="45.92046322" lon="9.01377898"><ele></ele><time>2014-5-11T16:30:25Z</time></trkpt>
<trkpt lat="45.92047974" lon="9.01375375"><ele></ele><time>2014-5-11T16:30:28Z</time></trkpt>
<trkpt lat="45.92059222" lon="9.01370463"><ele></ele><time>2014-5-11T16:30:31Z</time></trkpt>
<trkpt lat="45.92067327" lon="9.01367714"><ele></ele><time>2014-5-11T16:30:34Z</time></trkpt>
<trkpt lat="45.92083069" lon="9.01361964"><ele></ele><time>2014-5-11T16:30:37Z</time></trkpt>
<trkpt lat="45.92090763" lon="9.01362274"><ele></ele><time>2014-5-11T16:30:40Z</time></trkpt>
<trkpt lat="45.92105004" lon="9.01364554"><ele></ele><time>2014-5-11T16:30:43Z</time></trkpt>
<trkpt lat="45.92119656" lon="9.01369139"><ele></ele><time>2014-5-11T16:30:46Z</time></trkpt>
<trkpt lat="45.92131952" lon="9.01369348"><ele></ele><time>2014-5-11T16:30:49Z</time></trkpt>
<trkpt lat="45.92143125" lon="9.01368979"><ele></ele><time>2014-5-11T16:30:52Z</time></trkpt>
<trkpt lat="45.92156880" lon="9.01371318"><ele></ele><time>2014-5-11T16:30:55Z</time></trkpt>
<trkpt lat="45.92167323" lon="9.01370153"><ele></ele><time>2014-5-11T16:30:58Z</time></trkpt>
<trkpt lat="45.92180869" lon="9.01373539"><ele></ele><time>2014-5-11T16:31:1Z</time></trkpt>
<trkpt lat="45.92192855" lon="9.01376825"><ele></ele><time>2014-5-11T16:31:4Z</time></trkpt>
<trkpt lat="45.92202997" lon="9.01379289"><ele></ele><time>2014-5-11T16:31:7Z</time></trkpt>
<trkpt lat="45.92207733" lon="9.01380085"><ele></ele><time>2014-5-11T16:31:10Z</time></trkpt>
<trkpt lat="45.92217648" lon="9.01380546"><ele></ele><time>2014-5-11T16:31:13Z</time></trkpt>
<trkpt lat="45.92230607" lon="9.01386975"><ele></ele><time>2014-5-11T16:31:16Z</time></trkpt>
<trkpt lat="45.92245124" lon="9.01395349"><ele></ele><time>2014-5-11T16:31:19Z</time></trkpt>
<trkpt lat="45.92257932" lon="9.01405617"><ele></ele><time>2014-5-11T16:31:22Z</time></trkpt>
<trkpt lat="45.92265056" lon="9.01408777"><ele></ele><time>2014-5-11T16:31:25Z</time></trkpt>
<trkpt lat="45.92277093" lon="9.01416639"><ele></ele><time>2014-5-11T16:31:28Z</time></trkpt>
<trkpt lat="45.92286782" lon="9.01424618"><ele></ele><time>2014-5-11T16:31:31Z</time></trkpt>
<trkpt lat="45.92297092" lon="9.01431684"><ele></ele><time>2014-5-11T16:31:34Z</time></trkpt>
<trkpt lat="45.92302842" lon="9.01436563"><ele></ele><time>2014-5-11T16:31:37Z</time></trkpt>
<trkpt lat="45.92309346" lon="9.01443025"><ele></ele><time>2014-5-11T16:31:40Z</time></trkpt>
<trkpt lat="45.92323906" lon="9.01451977"><ele></ele><time>2014-5-11T16:31:43Z</time></trkpt>
<trkpt lat="45.92335800" lon="9.01456654"><ele></ele><time>2014-5-11T16:31:46Z</time></trkpt>
<trkpt lat="45.92348867" lon="9.01462203"><ele></ele><time>2014-5-11T16:31:49Z</time></trkpt>
<trkpt lat="45.92361725" lon="9.01468129"><ele></ele><time>2014-5-11T16:31:52Z</time></trkpt>
<trkpt lat="45.92374046" lon="9.01471809"><ele></ele><time>2014-5-11T16:31:55Z</time></trkpt>
<trkpt lat="45.92384197" lon="9.01478204"><ele></ele><time>2014-5-11T16:31:58Z</time></trkpt>
<trkpt lat="45.92397038" lon="9.01487139"><ele></ele><time>2014-5-11T16:32:1Z</time></trkpt>
<trkpt lat="45.92397658" lon="9.01487969"><ele></ele><time>2014-5-11T16:32:4Z</time></trkpt>
<trkpt lat="45.92409158" lon="9.01496074"><ele></ele><time>2014-5-11T16:32:7Z</time></trkpt>
<trkpt lat="45.92419007" lon="9.01502889"><ele></ele><time>2014-5-11T16:32:10Z</time></trkpt>
<trkpt lat="45.92428906" lon="9.01511983"><ele></ele><time>2014-5-11T16:32:13Z</time></trkpt>
<trkpt lat="45.92442493" lon="9.01521086"><ele></ele><time>2014-5-11T16:32:16Z</time></trkpt>
<trkpt lat="45.92451084" lon="9.01527515"><ele></ele><time>2014-5-11T16:32:19Z</time></trkpt>
<trkpt lat="45.92464043" lon="9.01539987"><ele></ele><time>2014-5-11T16:32:22Z</time></trkpt>
<trkpt lat="45.92473447" lon="9.01544916"><ele></ele><time>2014-5-11T16:32:25Z</time></trkpt>
<trkpt lat="45.92485685" lon="9.01555100"><ele></ele><time>2014-5-11T16:32:28Z</time></trkpt>
<trkpt lat="45.92498526" lon="9.01562677"><ele></ele><time>2014-5-11T16:32:31Z</time></trkpt>
<trkpt lat="45.92508132" lon="9.01569265"><ele></ele><time>2014-5-11T16:32:34Z</time></trkpt>
<trkpt lat="45.92515675" lon="9.01574663"><ele></ele><time>2014-5-11T16:32:37Z</time></trkpt>
<trkpt lat="45.92516237" lon="9.01575518"><ele></ele><time>2014-5-11T16:32:40Z</time></trkpt>
<trkpt lat="45.92526748" lon="9.01587185"><ele></ele><time>2014-5-11T16:32:43Z</time></trkpt>
<trkpt lat="45.92536798" lon="9.01596338"><ele></ele><time>2014-5-11T16:32:46Z</time></trkpt>
<trkpt lat="45.92546395" lon="9.01606564"><ele></ele><time>2014-5-11T16:32:49Z</time></trkpt>
<trkpt lat="45.92557979" lon="9.01618618"><ele></ele><time>2014-5-11T16:32:52Z</time></trkpt>
<trkpt lat="45.92568959" lon="9.01631199"><ele></ele><time>2014-5-11T16:32:55Z</time></trkpt>
<trkpt lat="45.92581213" lon="9.01647770"><ele></ele><time>2014-5-11T16:32:58Z</time></trkpt>
<trkpt lat="45.92591942" lon="9.01661005"><ele></ele><time>2014-5-11T16:33:1Z</time></trkpt>
<trkpt lat="45.92603685" lon="9.01674726"><ele></ele><time>2014-5-11T16:33:4Z</time></trkpt>
<trkpt lat="45.92613065" lon="9.01688313"><ele></ele><time>2014-5-11T16:33:7Z</time></trkpt>
<trkpt lat="45.92623274" lon="9.01703820"><ele></ele><time>2014-5-11T16:33:10Z</time></trkpt>
<trkpt lat="45.92633693" lon="9.01722394"><ele></ele><time>2014-5-11T16:33:13Z</time></trkpt>
<trkpt lat="45.92644463" lon="9.01740465"><ele></ele><time>2014-5-11T16:33:16Z</time></trkpt>
<trkpt lat="45.92650046" lon="9.01748965"><ele></ele><time>2014-5-11T16:33:19Z</time></trkpt>
<trkpt lat="45.92658830" lon="9.01762694"><ele></ele><time>2014-5-11T16:33:22Z</time></trkpt>
<trkpt lat="45.92668142" lon="9.01779709"><ele></ele><time>2014-5-11T16:33:25Z</time></trkpt>
<trkpt lat="45.92678159" lon="9.01798259"><ele></ele><time>2014-5-11T16:33:28Z</time></trkpt>
<trkpt lat="45.92680103" lon="9.01804076"><ele></ele><time>2014-5-11T16:33:31Z</time></trkpt>
<trkpt lat="45.92687898" lon="9.01817168"><ele></ele><time>2014-5-11T16:33:34Z</time></trkpt>
<trkpt lat="45.92696154" lon="9.01831074"><ele></ele><time>2014-5-11T16:33:37Z</time></trkpt>
<trkpt lat="45.92707545" lon="9.01846413"><ele></ele><time>2014-5-11T16:33:40Z</time></trkpt>
<trkpt lat="45.92720504" lon="9.01861316"><ele></ele><time>2014-5-11T16:33:43Z</time></trkpt>
<trkpt lat="45.92733756" lon="9.01875397"><ele></ele><time>2014-5-11T16:33:46Z</time></trkpt>
<trkpt lat="45.92745063" lon="9.01886914"><ele></ele><time>2014-5-11T16:33:49Z</time></trkpt>
<trkpt lat="45.92748022" lon="9.01889018"><ele></ele><time>2014-5-11T16:33:52Z</time></trkpt>
<trkpt lat="45.92759195" lon="9.01897307"><ele></ele><time>2014-5-11T16:33:55Z</time></trkpt>
<trkpt lat="45.92771097" lon="9.01910802"><ele></ele><time>2014-5-11T16:33:58Z</time></trkpt>
<trkpt lat="45.92771617" lon="9.01911632"><ele></ele><time>2014-5-11T16:34:1Z</time></trkpt>
<trkpt lat="45.92782388" lon="9.01924658"><ele></ele><time>2014-5-11T16:34:4Z</time></trkpt>
<trkpt lat="45.92793753" lon="9.01936099"><ele></ele><time>2014-5-11T16:34:7Z</time></trkpt>
<trkpt lat="45.92804926" lon="9.01954589"><ele></ele><time>2014-5-11T16:34:10Z</time></trkpt>
<trkpt lat="45.92814633" lon="9.01970398"><ele></ele><time>2014-5-11T16:34:13Z</time></trkpt>
<trkpt lat="45.92823543" lon="9.01978805"><ele></ele><time>2014-5-11T16:34:16Z</time></trkpt>
<trkpt lat="45.92827030" lon="9.01983725"><ele></ele><time>2014-5-11T16:34:19Z</time></trkpt>
<trkpt lat="45.92829393" lon="9.01984722"><ele></ele><time>2014-5-11T16:34:22Z</time></trkpt>
<trkpt lat="45.92831329" lon="9.01990984"><ele></ele><time>2014-5-11T16:34:25Z</time></trkpt>
<trkpt lat="45.92845185" lon="9.02013187"><ele></ele><time>2014-5-11T16:34:28Z</time></trkpt>
<trkpt lat="45.92846568" lon="9.02016163"><ele></ele><time>2014-5-11T16:34:31Z</time></trkpt>
<trkpt lat="45.92855478" lon="9.02037755"><ele></ele><time>2014-5-11T16:34:34Z</time></trkpt>
<trkpt lat="45.92858478" lon="9.02050814"><ele></ele><time>2014-5-11T16:34:37Z</time></trkpt>
<trkpt lat="45.92859669" lon="9.02050495"><ele></ele><time>2014-5-11T16:34:40Z</time></trkpt>
<trkpt lat="45.92860985" lon="9.02052415"><ele></ele><time>2014-5-11T16:34:43Z</time></trkpt>
<trkpt lat="45.92858269" lon="9.02052239"><ele></ele><time>2014-5-11T16:34:46Z</time></trkpt>
<trkpt lat="45.92857758" lon="9.02050730"><ele></ele><time>2014-5-11T16:34:49Z</time></trkpt>
<trkpt lat="45.92856718" lon="9.02048165"><ele></ele><time>2014-5-11T16:34:52Z</time></trkpt>
<trkpt lat="45.92857154" lon="9.02050914"><ele></ele><time>2014-5-11T16:34:55Z</time></trkpt>
<trkpt lat="45.92860532" lon="9.02061492"><ele></ele><time>2014-5-11T16:34:58Z</time></trkpt>
<trkpt lat="45.92863860" lon="9.02083335"><ele></ele><time>2014-5-11T16:35:1Z</time></trkpt>
<trkpt lat="45.92871068" lon="9.02133459"><ele></ele><time>2014-5-11T16:35:4Z</time></trkpt>
<trkpt lat="45.92882467" lon="9.02204429"><ele></ele><time>2014-5-11T16:35:7Z</time></trkpt>
<trkpt lat="45.92889257" lon="9.02228259"><ele></ele><time>2014-5-11T16:35:10Z</time></trkpt>
<trkpt lat="45.92888310" lon="9.02268249"><ele></ele><time>2014-5-11T16:35:13Z</time></trkpt>
<trkpt lat="45.92887639" lon="9.02275725"><ele></ele><time>2014-5-11T16:35:16Z</time></trkpt>
<trkpt lat="45.92889206" lon="9.02344926"><ele></ele><time>2014-5-11T16:35:19Z</time></trkpt>
<trkpt lat="45.92890724" lon="9.02358304"><ele></ele><time>2014-5-11T16:35:22Z</time></trkpt>
<trkpt lat="45.92892375" lon="9.02378303"><ele></ele><time>2014-5-11T16:35:25Z</time></trkpt>
<trkpt lat="45.92891704" lon="9.02390390"><ele></ele><time>2014-5-11T16:35:28Z</time></trkpt>
<trkpt lat="45.92889718" lon="9.02412417"><ele></ele><time>2014-5-11T16:35:31Z</time></trkpt>
<trkpt lat="45.92888947" lon="9.02454939"><ele></ele><time>2014-5-11T16:35:34Z</time></trkpt>
<trkpt lat="45.92890707" lon="9.02458845"><ele></ele><time>2014-5-11T16:35:37Z</time></trkpt>
<trkpt lat="45.92896859" lon="9.02454377"><ele></ele><time>2014-5-11T16:35:40Z</time></trkpt>
<trkpt lat="45.92898452" lon="9.02452257"><ele></ele><time>2014-5-11T16:35:43Z</time></trkpt>
<trkpt lat="45.92906716" lon="9.02438544"><ele></ele><time>2014-5-11T16:35:46Z</time></trkpt>
<trkpt lat="45.92910857" lon="9.02429164"><ele></ele><time>2014-5-11T16:35:49Z</time></trkpt>
<trkpt lat="45.92919298" lon="9.02410490"><ele></ele><time>2014-5-11T16:35:52Z</time></trkpt>
<trkpt lat="45.92925433" lon="9.02391622"><ele></ele><time>2014-5-11T16:35:55Z</time></trkpt>
<trkpt lat="45.92929884" lon="9.02384128"><ele></ele><time>2014-5-11T16:35:58Z</time></trkpt>
<trkpt lat="45.92951828" lon="9.02334617"><ele></ele><time>2014-5-11T16:36:1Z</time></trkpt>
<trkpt lat="45.92960369" lon="9.02308758"><ele></ele><time>2014-5-11T16:36:4Z</time></trkpt>
<trkpt lat="45.92965448" lon="9.02293059"><ele></ele><time>2014-5-11T16:36:7Z</time></trkpt>
<trkpt lat="45.92969798" lon="9.02281735"><ele></ele><time>2014-5-11T16:36:10Z</time></trkpt>
<trkpt lat="45.92975096" lon="9.02271425"><ele></ele><time>2014-5-11T16:36:13Z</time></trkpt>
<trkpt lat="45.92980552" lon="9.02263287"><ele></ele><time>2014-5-11T16:36:16Z</time></trkpt>
<trkpt lat="45.92988507" lon="9.02251988"><ele></ele><time>2014-5-11T16:36:19Z</time></trkpt>
<trkpt lat="45.92998565" lon="9.02242717"><ele></ele><time>2014-5-11T16:36:22Z</time></trkpt>
<trkpt lat="45.93014290" lon="9.02231494"><ele></ele><time>2014-5-11T16:36:25Z</time></trkpt>
<trkpt lat="45.93017693" lon="9.02233388"><ele></ele><time>2014-5-11T16:36:28Z</time></trkpt>
<trkpt lat="45.93028723" lon="9.02237588"><ele></ele><time>2014-5-11T16:36:31Z</time></trkpt>
<trkpt lat="45.93042268" lon="9.02241359"><ele></ele><time>2014-5-11T16:36:34Z</time></trkpt>
<trkpt lat="45.93058546" lon="9.02253555"><ele></ele><time>2014-5-11T16:36:37Z</time></trkpt>
<trkpt lat="45.93067322" lon="9.02259867"><ele></ele><time>2014-5-11T16:36:40Z</time></trkpt>
<trkpt lat="45.93091462" lon="9.02272934"><ele></ele><time>2014-5-11T16:36:43Z</time></trkpt>
<trkpt lat="45.93098578" lon="9.02272758"><ele></ele><time>2014-5-11T16:36:46Z</time></trkpt>
<trkpt lat="45.93123347" lon="9.02262256"><ele></ele><time>2014-5-11T16:36:49Z</time></trkpt>
<trkpt lat="45.93128418" lon="9.02257847"><ele></ele><time>2014-5-11T16:36:52Z</time></trkpt>
<trkpt lat="45.93136154" lon="9.02253798"><ele></ele><time>2014-5-11T16:36:55Z</time></trkpt>
<trkpt lat="45.93156547" lon="9.02243447"><ele></ele><time>2014-5-11T16:36:58Z</time></trkpt>
<trkpt lat="45.93178977" lon="9.02227747"><ele></ele><time>2014-5-11T16:37:1Z</time></trkpt>
<trkpt lat="45.93181215" lon="9.02231896"><ele></ele><time>2014-5-11T16:37:4Z</time></trkpt>
<trkpt lat="45.93193143" lon="9.02257377"><ele></ele><time>2014-5-11T16:37:7Z</time></trkpt>
<trkpt lat="45.93195858" lon="9.02265449"><ele></ele><time>2014-5-11T16:37:10Z</time></trkpt>
<trkpt lat="45.93200125" lon="9.02282783"><ele></ele><time>2014-5-11T16:37:13Z</time></trkpt>
<trkpt lat="45.93212689" lon="9.02318716"><ele></ele><time>2014-5-11T16:37:16Z</time></trkpt>
<trkpt lat="45.93223787" lon="9.02345899"><ele></ele><time>2014-5-11T16:37:19Z</time></trkpt>
<trkpt lat="45.93226804" lon="9.02352562"><ele></ele><time>2014-5-11T16:37:22Z</time></trkpt>
<trkpt lat="45.93229973" lon="9.02358798"><ele></ele><time>2014-5-11T16:37:25Z</time></trkpt>
<trkpt lat="45.93244666" lon="9.02376249"><ele></ele><time>2014-5-11T16:37:28Z</time></trkpt>
<trkpt lat="45.93248799" lon="9.02379803"><ele></ele><time>2014-5-11T16:37:31Z</time></trkpt>
<trkpt lat="45.93267004" lon="9.02396190"><ele></ele><time>2014-5-11T16:37:34Z</time></trkpt>
<trkpt lat="45.93301353" lon="9.02401219"><ele></ele><time>2014-5-11T16:37:37Z</time></trkpt>
<trkpt lat="45.93312568" lon="9.02399467"><ele></ele><time>2014-5-11T16:37:40Z</time></trkpt>
<trkpt lat="45.93323649" lon="9.02396207"><ele></ele><time>2014-5-11T16:37:43Z</time></trkpt>
<trkpt lat="45.93334772" lon="9.02392745"><ele></ele><time>2014-5-11T16:37:46Z</time></trkpt>
<trkpt lat="45.93339834" lon="9.02390725"><ele></ele><time>2014-5-11T16:37:49Z</time></trkpt>
<trkpt lat="45.93349222" lon="9.02384137"><ele></ele><time>2014-5-11T16:37:52Z</time></trkpt>
<trkpt lat="45.93380562" lon="9.02361908"><ele></ele><time>2014-5-11T16:37:55Z</time></trkpt>
<trkpt lat="45.93387050" lon="9.02360659"><ele></ele><time>2014-5-11T16:37:58Z</time></trkpt>
<trkpt lat="45.93403026" lon="9.02358497"><ele></ele><time>2014-5-11T16:38:1Z</time></trkpt>
<trkpt lat="45.93415582" lon="9.02379326"><ele></ele><time>2014-5-11T16:38:4Z</time></trkpt>
<trkpt lat="45.93423083" lon="9.02389023"><ele></ele><time>2014-5-11T16:38:7Z</time></trkpt>
<trkpt lat="45.93440442" lon="9.02398637"><ele></ele><time>2014-5-11T16:38:10Z</time></trkpt>
<trkpt lat="45.93459444" lon="9.02401496"><ele></ele><time>2014-5-11T16:38:13Z</time></trkpt>
<trkpt lat="45.93469779" lon="9.02399308"><ele></ele><time>2014-5-11T16:38:16Z</time></trkpt>
<trkpt lat="45.93480013" lon="9.02409417"><ele></ele><time>2014-5-11T16:38:19Z</time></trkpt>
<trkpt lat="45.93481338" lon="9.02414488"><ele></ele><time>2014-5-11T16:38:22Z</time></trkpt>
<trkpt lat="45.93489963" lon="9.02455953"><ele></ele><time>2014-5-11T16:38:25Z</time></trkpt>
<trkpt lat="45.93503634" lon="9.02527006"><ele></ele><time>2014-5-11T16:38:28Z</time></trkpt>
<trkpt lat="45.93521479" lon="9.02596316"><ele></ele><time>2014-5-11T16:38:31Z</time></trkpt>
<trkpt lat="45.93524119" lon="9.02603550"><ele></ele><time>2014-5-11T16:38:34Z</time></trkpt>
<trkpt lat="45.93536013" lon="9.02642350"><ele></ele><time>2014-5-11T16:38:37Z</time></trkpt>
<trkpt lat="45.93541210" lon="9.02653514"><ele></ele><time>2014-5-11T16:38:40Z</time></trkpt>
<trkpt lat="45.93556305" lon="9.02673916"><ele></ele><time>2014-5-11T16:38:43Z</time></trkpt>
<trkpt lat="45.93559549" lon="9.02676959"><ele></ele><time>2014-5-11T16:38:46Z</time></trkpt>
<trkpt lat="45.93565660" lon="9.02683077"><ele></ele><time>2014-5-11T16:38:49Z</time></trkpt>
<trkpt lat="45.93599338" lon="9.02706924"><ele></ele><time>2014-5-11T16:38:52Z</time></trkpt>
<trkpt lat="45.93619052" lon="9.02721525"><ele></ele><time>2014-5-11T16:38:55Z</time></trkpt>
<trkpt lat="45.93625959" lon="9.02727309"><ele></ele><time>2014-5-11T16:38:58Z</time></trkpt>
<trkpt lat="45.93632715" lon="9.02733335"><ele></ele><time>2014-5-11T16:39:1Z</time></trkpt>
<trkpt lat="45.93656159" lon="9.02762102"><ele></ele><time>2014-5-11T16:39:4Z</time></trkpt>
<trkpt lat="45.93673836" lon="9.02781464"><ele></ele><time>2014-5-11T16:39:7Z</time></trkpt>
<trkpt lat="45.93689796" lon="9.02815185"><ele></ele><time>2014-5-11T16:39:10Z</time></trkpt>
<trkpt lat="45.93694104" lon="9.02846684"><ele></ele><time>2014-5-11T16:39:13Z</time></trkpt>
<trkpt lat="45.93694632" lon="9.02878845"><ele></ele><time>2014-5-11T16:39:16Z</time></trkpt>
<trkpt lat="45.93696032" lon="9.02901099"><ele></ele><time>2014-5-11T16:39:19Z</time></trkpt>
<trkpt lat="45.93695629" lon="9.02938013"><ele></ele><time>2014-5-11T16:39:22Z</time></trkpt>
<trkpt lat="45.93689603" lon="9.02977492"><ele></ele><time>2014-5-11T16:39:25Z</time></trkpt>
<trkpt lat="45.93687449" lon="9.03018186"><ele></ele><time>2014-5-11T16:39:28Z</time></trkpt>
<trkpt lat="45.93686594" lon="9.03033818"><ele></ele><time>2014-5-11T16:39:31Z</time></trkpt>
<trkpt lat="45.93683694" lon="9.03049467"><ele></ele><time>2014-5-11T16:39:34Z</time></trkpt>
<trkpt lat="45.93678346" lon="9.03094193"><ele></ele><time>2014-5-11T16:39:37Z</time></trkpt>
<trkpt lat="45.93675739" lon="9.03120236"><ele></ele><time>2014-5-11T16:39:40Z</time></trkpt>
<trkpt lat="45.93670953" lon="9.03145239"><ele></ele><time>2014-5-11T16:39:43Z</time></trkpt>
<trkpt lat="45.93666988" lon="9.03175724"><ele></ele><time>2014-5-11T16:39:46Z</time></trkpt>
<trkpt lat="45.93666083" lon="9.03199562"><ele></ele><time>2014-5-11T16:39:49Z</time></trkpt>
<trkpt lat="45.93669453" lon="9.03238546"><ele></ele><time>2014-5-11T16:39:52Z</time></trkpt>
<trkpt lat="45.93674163" lon="9.03275795"><ele></ele><time>2014-5-11T16:39:55Z</time></trkpt>
<trkpt lat="45.93676426" lon="9.03292467"><ele></ele><time>2014-5-11T16:39:58Z</time></trkpt>
<trkpt lat="45.93679218" lon="9.03317420"><ele></ele><time>2014-5-11T16:40:1Z</time></trkpt>
<trkpt lat="45.93679880" lon="9.03325207"><ele></ele><time>2014-5-11T16:40:4Z</time></trkpt>
<trkpt lat="45.93675362" lon="9.03365607"><ele></ele><time>2014-5-11T16:40:7Z</time></trkpt>
<trkpt lat="45.93668757" lon="9.03392564"><ele></ele><time>2014-5-11T16:40:10Z</time></trkpt>
<trkpt lat="45.93667106" lon="9.03399319"><ele></ele><time>2014-5-11T16:40:13Z</time></trkpt>
<trkpt lat="45.93667282" lon="9.03427499"><ele></ele><time>2014-5-11T16:40:16Z</time></trkpt>
<trkpt lat="45.93680282" lon="9.03440307"><ele></ele><time>2014-5-11T16:40:19Z</time></trkpt>
<trkpt lat="45.93680827" lon="9.03437524"><ele></ele><time>2014-5-11T16:40:22Z</time></trkpt>
<trkpt lat="45.93680056" lon="9.03437155"><ele></ele><time>2014-5-11T16:40:25Z</time></trkpt>
<trkpt lat="45.93695512" lon="9.03438186"><ele></ele><time>2014-5-11T16:40:28Z</time></trkpt>
<trkpt lat="45.93719023" lon="9.03398297"><ele></ele><time>2014-5-11T16:40:31Z</time></trkpt>
<trkpt lat="45.93730364" lon="9.03368214"><ele></ele><time>2014-5-11T16:40:34Z</time></trkpt>
<trkpt lat="45.93735779" lon="9.03356848"><ele></ele><time>2014-5-11T16:40:37Z</time></trkpt>
<trkpt lat="45.93759709" lon="9.03311829"><ele></ele><time>2014-5-11T16:40:40Z</time></trkpt>
<trkpt lat="45.93783866" lon="9.03281034"><ele></ele><time>2014-5-11T16:40:43Z</time></trkpt>
<trkpt lat="45.93797562" lon="9.03263046"><ele></ele><time>2014-5-11T16:40:46Z</time></trkpt>
<trkpt lat="45.93809456" lon="9.03245126"><ele></ele><time>2014-5-11T16:40:49Z</time></trkpt>
<trkpt lat="45.93833009" lon="9.03196343"><ele></ele><time>2014-5-11T16:40:52Z</time></trkpt>
<trkpt lat="45.93845632" lon="9.03147644"><ele></ele><time>2014-5-11T16:40:55Z</time></trkpt>
<trkpt lat="45.93842497" lon="9.03079374"><ele></ele><time>2014-5-11T16:40:58Z</time></trkpt>
<trkpt lat="45.93837929" lon="9.02999058"><ele></ele><time>2014-5-11T16:41:1Z</time></trkpt>
<trkpt lat="45.93836714" lon="9.02989042"><ele></ele><time>2014-5-11T16:41:4Z</time></trkpt>
<trkpt lat="45.93846059" lon="9.02943629"><ele></ele><time>2014-5-11T16:41:7Z</time></trkpt>
<trkpt lat="45.93866503" lon="9.02920729"><ele></ele><time>2014-5-11T16:41:10Z</time></trkpt>
<trkpt lat="45.93869437" lon="9.02917829"><ele></ele><time>2014-5-11T16:41:13Z</time></trkpt>
<trkpt lat="45.93881490" lon="9.02901786"><ele></ele><time>2014-5-11T16:41:16Z</time></trkpt>
<trkpt lat="45.93883158" lon="9.02898568"><ele></ele><time>2014-5-11T16:41:19Z</time></trkpt>
<trkpt lat="45.93886536" lon="9.02891468"><ele></ele><time>2014-5-11T16:41:22Z</time></trkpt>
<trkpt lat="45.93891707" lon="9.02891653"><ele></ele><time>2014-5-11T16:41:25Z</time></trkpt>
<trkpt lat="45.93892328" lon="9.02898945"><ele></ele><time>2014-5-11T16:41:28Z</time></trkpt>
<trkpt lat="45.93892009" lon="9.02919958"><ele></ele><time>2014-5-11T16:41:31Z</time></trkpt>
<trkpt lat="45.93902470" lon="9.02948080"><ele></ele><time>2014-5-11T16:41:34Z</time></trkpt>
<trkpt lat="45.93921966" lon="9.02967609"><ele></ele><time>2014-5-11T16:41:37Z</time></trkpt>
<trkpt lat="45.93946433" lon="9.02990626"><ele></ele><time>2014-5-11T16:41:40Z</time></trkpt>
<trkpt lat="45.93949065" lon="9.02992956"><ele></ele><time>2014-5-11T16:41:43Z</time></trkpt>
<trkpt lat="45.93956684" lon="9.02999737"><ele></ele><time>2014-5-11T16:41:46Z</time></trkpt>
<trkpt lat="45.93968846" lon="9.03010282"><ele></ele><time>2014-5-11T16:41:49Z</time></trkpt>
<trkpt lat="45.93988267" lon="9.03016878"><ele></ele><time>2014-5-11T16:41:52Z</time></trkpt>
<trkpt lat="45.94016857" lon="9.03022595"><ele></ele><time>2014-5-11T16:41:55Z</time></trkpt>
<trkpt lat="45.94032289" lon="9.03022494"><ele></ele><time>2014-5-11T16:41:58Z</time></trkpt>
<trkpt lat="45.94040947" lon="9.03024405"><ele></ele><time>2014-5-11T16:42:1Z</time></trkpt>
<trkpt lat="45.94051743" lon="9.03028596"><ele></ele><time>2014-5-11T16:42:4Z</time></trkpt>
<trkpt lat="45.94056864" lon="9.03030775"><ele></ele><time>2014-5-11T16:42:7Z</time></trkpt>
<trkpt lat="45.94077618" lon="9.03067186"><ele></ele><time>2014-5-11T16:42:10Z</time></trkpt>
<trkpt lat="45.94081038" lon="9.03079013"><ele></ele><time>2014-5-11T16:42:13Z</time></trkpt>
<trkpt lat="45.94086452" lon="9.03089566"><ele></ele><time>2014-5-11T16:42:16Z</time></trkpt>
<trkpt lat="45.94090417" lon="9.03100220"><ele></ele><time>2014-5-11T16:42:19Z</time></trkpt>
<trkpt lat="45.94096192" lon="9.03114100"><ele></ele><time>2014-5-11T16:42:22Z</time></trkpt>
<trkpt lat="45.94101314" lon="9.03124309"><ele></ele><time>2014-5-11T16:42:25Z</time></trkpt>
<trkpt lat="45.94104029" lon="9.03135843"><ele></ele><time>2014-5-11T16:42:28Z</time></trkpt>
<trkpt lat="45.94107717" lon="9.03150260"><ele></ele><time>2014-5-11T16:42:31Z</time></trkpt>
<trkpt lat="45.94129594" lon="9.03215840"><ele></ele><time>2014-5-11T16:42:34Z</time></trkpt>
<trkpt lat="45.94147079" lon="9.03263365"><ele></ele><time>2014-5-11T16:42:37Z</time></trkpt>
<trkpt lat="45.94148872" lon="9.03268042"><ele></ele><time>2014-5-11T16:42:40Z</time></trkpt>
<trkpt lat="45.94153499" lon="9.03278402"><ele></ele><time>2014-5-11T16:42:43Z</time></trkpt>
<trkpt lat="45.94160004" lon="9.03296733"><ele></ele><time>2014-5-11T16:42:46Z</time></trkpt>
<trkpt lat="45.94163960" lon="9.03311033"><ele></ele><time>2014-5-11T16:42:49Z</time></trkpt>
<trkpt lat="45.94165276" lon="9.03338877"><ele></ele><time>2014-5-11T16:42:52Z</time></trkpt>
<trkpt lat="45.94163826" lon="9.03412353"><ele></ele><time>2014-5-11T16:42:55Z</time></trkpt>
<trkpt lat="45.94164144" lon="9.03425395"><ele></ele><time>2014-5-11T16:42:58Z</time></trkpt>
<trkpt lat="45.94166726" lon="9.03456886"><ele></ele><time>2014-5-11T16:43:1Z</time></trkpt>
<trkpt lat="45.94172233" lon="9.03503012"><ele></ele><time>2014-5-11T16:43:4Z</time></trkpt>
<trkpt lat="45.94179969" lon="9.03561157"><ele></ele><time>2014-5-11T16:43:7Z</time></trkpt>
<trkpt lat="45.94198225" lon="9.03662796"><ele></ele><time>2014-5-11T16:43:10Z</time></trkpt>
<trkpt lat="45.94224469" lon="9.03711344"><ele></ele><time>2014-5-11T16:43:13Z</time></trkpt>
<trkpt lat="45.94244854" lon="9.03724043"><ele></ele><time>2014-5-11T16:43:16Z</time></trkpt>
<trkpt lat="45.94256077" lon="9.03727387"><ele></ele><time>2014-5-11T16:43:19Z</time></trkpt>
<trkpt lat="45.94290979" lon="9.03724462"><ele></ele><time>2014-5-11T16:43:22Z</time></trkpt>
<trkpt lat="45.94324465" lon="9.03726582"><ele></ele><time>2014-5-11T16:43:25Z</time></trkpt>
<trkpt lat="45.94327935" lon="9.03727504"><ele></ele><time>2014-5-11T16:43:28Z</time></trkpt>
<trkpt lat="45.94369886" lon="9.03766707"><ele></ele><time>2014-5-11T16:43:31Z</time></trkpt>
<trkpt lat="45.94382803" lon="9.03774586"><ele></ele><time>2014-5-11T16:43:34Z</time></trkpt>
<trkpt lat="45.94395686" lon="9.03777578"><ele></ele><time>2014-5-11T16:43:37Z</time></trkpt>
<trkpt lat="45.94415358" lon="9.03776539"><ele></ele><time>2014-5-11T16:43:40Z</time></trkpt>
<trkpt lat="45.94433815" lon="9.03769129"><ele></ele><time>2014-5-11T16:43:43Z</time></trkpt>
<trkpt lat="45.94437889" lon="9.03766556"><ele></ele><time>2014-5-11T16:43:46Z</time></trkpt>
<trkpt lat="45.94446078" lon="9.03760253"><ele></ele><time>2014-5-11T16:43:49Z</time></trkpt>
<trkpt lat="45.94461576" lon="9.03746749"><ele></ele><time>2014-5-11T16:43:52Z</time></trkpt>
<trkpt lat="45.94484844" lon="9.03724009"><ele></ele><time>2014-5-11T16:43:55Z</time></trkpt>
<trkpt lat="45.94499093" lon="9.03710020"><ele></ele><time>2014-5-11T16:43:58Z</time></trkpt>
<trkpt lat="45.94516042" lon="9.03695368"><ele></ele><time>2014-5-11T16:44:1Z</time></trkpt>
<trkpt lat="45.94528338" lon="9.03681228"><ele></ele><time>2014-5-11T16:44:4Z</time></trkpt>
<trkpt lat="45.94536452" lon="9.03672092"><ele></ele><time>2014-5-11T16:44:7Z</time></trkpt>
<trkpt lat="45.94543719" lon="9.03662545"><ele></ele><time>2014-5-11T16:44:10Z</time></trkpt>
<trkpt lat="45.94570616" lon="9.03634314"><ele></ele><time>2014-5-11T16:44:13Z</time></trkpt>
<trkpt lat="45.94597313" lon="9.03602052"><ele></ele><time>2014-5-11T16:44:16Z</time></trkpt>
<trkpt lat="45.94611847" lon="9.03584627"><ele></ele><time>2014-5-11T16:44:19Z</time></trkpt>
<trkpt lat="45.94625358" lon="9.03568014"><ele></ele><time>2014-5-11T16:44:22Z</time></trkpt>
<trkpt lat="45.94632223" lon="9.03560034"><ele></ele><time>2014-5-11T16:44:25Z</time></trkpt>
<trkpt lat="45.94647294" lon="9.03543673"><ele></ele><time>2014-5-11T16:44:28Z</time></trkpt>
<trkpt lat="45.94659397" lon="9.03528644"><ele></ele><time>2014-5-11T16:44:31Z</time></trkpt>
<trkpt lat="45.94675398" lon="9.03510044"><ele></ele><time>2014-5-11T16:44:34Z</time></trkpt>
<trkpt lat="45.94706688" lon="9.03474505"><ele></ele><time>2014-5-11T16:44:37Z</time></trkpt>
<trkpt lat="45.94743426" lon="9.03442696"><ele></ele><time>2014-5-11T16:44:40Z</time></trkpt>
<trkpt lat="45.94748346" lon="9.03439519"><ele></ele><time>2014-5-11T16:44:43Z</time></trkpt>
<trkpt lat="45.94768647" lon="9.03416703"><ele></ele><time>2014-5-11T16:44:46Z</time></trkpt>
<trkpt lat="45.94794069" lon="9.03368072"><ele></ele><time>2014-5-11T16:44:49Z</time></trkpt>
<trkpt lat="45.94817447" lon="9.03383888"><ele></ele><time>2014-5-11T16:44:52Z</time></trkpt>
<trkpt lat="45.94812434" lon="9.03410492"><ele></ele><time>2014-5-11T16:44:55Z</time></trkpt>
<trkpt lat="45.94814513" lon="9.03488327"><ele></ele><time>2014-5-11T16:44:58Z</time></trkpt>
<trkpt lat="45.94814027" lon="9.03604274"><ele></ele><time>2014-5-11T16:45:1Z</time></trkpt>
<trkpt lat="45.94805762" lon="9.03697263"><ele></ele><time>2014-5-11T16:45:4Z</time></trkpt>
<trkpt lat="45.94796073" lon="9.03751192"><ele></ele><time>2014-5-11T16:45:7Z</time></trkpt>
<trkpt lat="45.94790876" lon="9.03766438"><ele></ele><time>2014-5-11T16:45:10Z</time></trkpt>
<trkpt lat="45.94779653" lon="9.03793738"><ele></ele><time>2014-5-11T16:45:13Z</time></trkpt>
<trkpt lat="45.94748665" lon="9.03831976"><ele></ele><time>2014-5-11T16:45:16Z</time></trkpt>
<trkpt lat="45.94722798" lon="9.03870768"><ele></ele><time>2014-5-11T16:45:19Z</time></trkpt>
<trkpt lat="45.94700645" lon="9.03915636"><ele></ele><time>2014-5-11T16:45:22Z</time></trkpt>
<trkpt lat="45.94673865" lon="9.03956582"><ele></ele><time>2014-5-11T16:45:25Z</time></trkpt>
<trkpt lat="45.94643053" lon="9.04029303"><ele></ele><time>2014-5-11T16:45:28Z</time></trkpt>
<trkpt lat="45.94624680" lon="9.04106936"><ele></ele><time>2014-5-11T16:45:31Z</time></trkpt>
<trkpt lat="45.94624160" lon="9.04112955"><ele></ele><time>2014-5-11T16:45:34Z</time></trkpt>
<trkpt lat="45.94624378" lon="9.04143976"><ele></ele><time>2014-5-11T16:45:37Z</time></trkpt>
<trkpt lat="45.94625216" lon="9.04177177"><ele></ele><time>2014-5-11T16:45:40Z</time></trkpt>
<trkpt lat="45.94636674" lon="9.04235347"><ele></ele><time>2014-5-11T16:45:43Z</time></trkpt>
<trkpt lat="45.94636138" lon="9.04247543"><ele></ele><time>2014-5-11T16:45:46Z</time></trkpt>
<trkpt lat="45.94627362" lon="9.04255707"><ele></ele><time>2014-5-11T16:45:49Z</time></trkpt>
<trkpt lat="45.94619667" lon="9.04255128"><ele></ele><time>2014-5-11T16:45:52Z</time></trkpt>
<trkpt lat="45.94601654" lon="9.04258523"><ele></ele><time>2014-5-11T16:45:55Z</time></trkpt>
<trkpt lat="45.94561522" lon="9.04271984"><ele></ele><time>2014-5-11T16:45:58Z</time></trkpt>
<trkpt lat="45.94526268" lon="9.04308706"><ele></ele><time>2014-5-11T16:46:1Z</time></trkpt>
<trkpt lat="45.94493427" lon="9.04374336"><ele></ele><time>2014-5-11T16:46:4Z</time></trkpt>
<trkpt lat="45.94462230" lon="9.04421073"><ele></ele><time>2014-5-11T16:46:7Z</time></trkpt>
<trkpt lat="45.94429255" lon="9.04439807"><ele></ele><time>2014-5-11T16:46:10Z</time></trkpt>
<trkpt lat="45.94392559" lon="9.04448792"><ele></ele><time>2014-5-11T16:46:13Z</time></trkpt>
<trkpt lat="45.94358395" lon="9.04454618"><ele></ele><time>2014-5-11T16:46:16Z</time></trkpt>
<trkpt lat="45.94316888" lon="9.04484206"><ele></ele><time>2014-5-11T16:46:19Z</time></trkpt>
<trkpt lat="45.94286679" lon="9.04519217"><ele></ele><time>2014-5-11T16:46:22Z</time></trkpt>
<trkpt lat="45.94246706" lon="9.04559358"><ele></ele><time>2014-5-11T16:46:25Z</time></trkpt>
<trkpt lat="45.94206397" lon="9.04584286"><ele></ele><time>2014-5-11T16:46:28Z</time></trkpt>
<trkpt lat="45.94181914" lon="9.04601343"><ele></ele><time>2014-5-11T16:46:31Z</time></trkpt>
<trkpt lat="45.94150465" lon="9.04626966"><ele></ele><time>2014-5-11T16:46:34Z</time></trkpt>
<trkpt lat="45.94131924" lon="9.04649019"><ele></ele><time>2014-5-11T16:46:37Z</time></trkpt>
<trkpt lat="45.94115060" lon="9.04661953"><ele></ele><time>2014-5-11T16:46:40Z</time></trkpt>
<trkpt lat="45.94105689" lon="9.04681524"><ele></ele><time>2014-5-11T16:46:43Z</time></trkpt>
<trkpt lat="45.94095957" lon="9.04703753"><ele></ele><time>2014-5-11T16:46:46Z</time></trkpt>
<trkpt lat="45.94089235" lon="9.04719125"><ele></ele><time>2014-5-11T16:46:49Z</time></trkpt>
<trkpt lat="45.94074022" lon="9.04744623"><ele></ele><time>2014-5-11T16:46:52Z</time></trkpt>
<trkpt lat="45.94058574" lon="9.04768587"><ele></ele><time>2014-5-11T16:46:55Z</time></trkpt>
<trkpt lat="45.94034099" lon="9.04804948"><ele></ele><time>2014-5-11T16:46:58Z</time></trkpt>
<trkpt lat="45.94005684" lon="9.04820672"><ele></ele><time>2014-5-11T16:47:1Z</time></trkpt>
<trkpt lat="45.93974923" lon="9.04844787"><ele></ele><time>2014-5-11T16:47:4Z</time></trkpt>
<trkpt lat="45.93953163" lon="9.04876823"><ele></ele><time>2014-5-11T16:47:7Z</time></trkpt>
<trkpt lat="45.93921346" lon="9.04907919"><ele></ele><time>2014-5-11T16:47:10Z</time></trkpt>
<trkpt lat="45.93880383" lon="9.04913443"><ele></ele><time>2014-5-11T16:47:13Z</time></trkpt>
<trkpt lat="45.93821459" lon="9.04899077"><ele></ele><time>2014-5-11T16:47:16Z</time></trkpt>
<trkpt lat="45.93816882" lon="9.04898180"><ele></ele><time>2014-5-11T16:47:19Z</time></trkpt>
<trkpt lat="45.93799339" lon="9.04899546"><ele></ele><time>2014-5-11T16:47:22Z</time></trkpt>
<trkpt lat="45.93791904" lon="9.04902714"><ele></ele><time>2014-5-11T16:47:25Z</time></trkpt>
<trkpt lat="45.93776766" lon="9.04915455"><ele></ele><time>2014-5-11T16:47:28Z</time></trkpt>
<trkpt lat="45.93761972" lon="9.04937256"><ele></ele><time>2014-5-11T16:47:31Z</time></trkpt>
<trkpt lat="45.93739777" lon="9.04990573"><ele></ele><time>2014-5-11T16:47:34Z</time></trkpt>
<trkpt lat="45.93728562" lon="9.05010640"><ele></ele><time>2014-5-11T16:47:37Z</time></trkpt>
<trkpt lat="45.93726659" lon="9.05019516"><ele></ele><time>2014-5-11T16:47:40Z</time></trkpt>
<trkpt lat="45.93698295" lon="9.05059774"><ele></ele><time>2014-5-11T16:47:43Z</time></trkpt>
<trkpt lat="45.93684783" lon="9.05071258"><ele></ele><time>2014-5-11T16:47:46Z</time></trkpt>
<trkpt lat="45.93635347" lon="9.05106177"><ele></ele><time>2014-5-11T16:47:49Z</time></trkpt>
<trkpt lat="45.93629278" lon="9.05108549"><ele></ele><time>2014-5-11T16:47:52Z</time></trkpt>
<trkpt lat="45.93585039" lon="9.05136435"><ele></ele><time>2014-5-11T16:47:55Z</time></trkpt>
<trkpt lat="45.93560924" lon="9.05151699"><ele></ele><time>2014-5-11T16:47:58Z</time></trkpt>
<trkpt lat="45.93542115" lon="9.05155395"><ele></ele><time>2014-5-11T16:48:1Z</time></trkpt>
<trkpt lat="45.93496785" lon="9.05161707"><ele></ele><time>2014-5-11T16:48:4Z</time></trkpt>
<trkpt lat="45.93469662" lon="9.05164917"><ele></ele><time>2014-5-11T16:48:7Z</time></trkpt>
<trkpt lat="45.93465202" lon="9.05165110"><ele></ele><time>2014-5-11T16:48:10Z</time></trkpt>
<trkpt lat="45.93440275" lon="9.05175235"><ele></ele><time>2014-5-11T16:48:13Z</time></trkpt>
<trkpt lat="45.93431532" lon="9.05174187"><ele></ele><time>2014-5-11T16:48:16Z</time></trkpt>
<trkpt lat="45.93382523" lon="9.05162210"><ele></ele><time>2014-5-11T16:48:19Z</time></trkpt>
<trkpt lat="45.93355089" lon="9.05167918"><ele></ele><time>2014-5-11T16:48:22Z</time></trkpt>
<trkpt lat="45.93343154" lon="9.05175470"><ele></ele><time>2014-5-11T16:48:25Z</time></trkpt>
<trkpt lat="45.93332475" lon="9.05184899"><ele></ele><time>2014-5-11T16:48:28Z</time></trkpt>
<trkpt lat="45.93311747" lon="9.05215167"><ele></ele><time>2014-5-11T16:48:31Z</time></trkpt>
<trkpt lat="45.93306768" lon="9.05224353"><ele></ele><time>2014-5-11T16:48:34Z</time></trkpt>
<trkpt lat="45.93289727" lon="9.05249298"><ele></ele><time>2014-5-11T16:48:37Z</time></trkpt>
<trkpt lat="45.93232370" lon="9.05305238"><ele></ele><time>2014-5-11T16:48:40Z</time></trkpt>
<trkpt lat="45.93194869" lon="9.05339110"><ele></ele><time>2014-5-11T16:48:43Z</time></trkpt>
<trkpt lat="45.93143245" lon="9.05366166"><ele></ele><time>2014-5-11T16:48:46Z</time></trkpt>
<trkpt lat="45.93117278" lon="9.05365446"><ele></ele><time>2014-5-11T16:48:49Z</time></trkpt>
<trkpt lat="45.93078637" lon="9.05343108"><ele></ele><time>2014-5-11T16:48:52Z</time></trkpt>
<trkpt lat="45.93053634" lon="9.05337509"><ele></ele><time>2014-5-11T16:48:55Z</time></trkpt>
<trkpt lat="45.93017818" lon="9.05352060"><ele></ele><time>2014-5-11T16:48:58Z</time></trkpt>
<trkpt lat="45.92967669" lon="9.05408604"><ele></ele><time>2014-5-11T16:49:1Z</time></trkpt>
<trkpt lat="45.92951987" lon="9.05444370"><ele></ele><time>2014-5-11T16:49:4Z</time></trkpt>
<trkpt lat="45.92948969" lon="9.05477436"><ele></ele><time>2014-5-11T16:49:7Z</time></trkpt>
<trkpt lat="45.92933052" lon="9.05550275"><ele></ele><time>2014-5-11T16:49:10Z</time></trkpt>
<trkpt lat="45.92913640" lon="9.05615754"><ele></ele><time>2014-5-11T16:49:13Z</time></trkpt>
<trkpt lat="45.92900547" lon="9.05657605"><ele></ele><time>2014-5-11T16:49:16Z</time></trkpt>
<trkpt lat="45.92897102" lon="9.05668653"><ele></ele><time>2014-5-11T16:49:19Z</time></trkpt>
<trkpt lat="45.92892266" lon="9.05686523"><ele></ele><time>2014-5-11T16:49:22Z</time></trkpt>
<trkpt lat="45.92887480" lon="9.05710730"><ele></ele><time>2014-5-11T16:49:25Z</time></trkpt>
<trkpt lat="45.92885686" lon="9.05737912"><ele></ele><time>2014-5-11T16:49:28Z</time></trkpt>
<trkpt lat="45.92887832" lon="9.05771876"><ele></ele><time>2014-5-11T16:49:31Z</time></trkpt>
<trkpt lat="45.92890413" lon="9.05796074"><ele></ele><time>2014-5-11T16:49:34Z</time></trkpt>
<trkpt lat="45.92890539" lon="9.05821119"><ele></ele><time>2014-5-11T16:49:37Z</time></trkpt>
<trkpt lat="45.92891755" lon="9.05835017"><ele></ele><time>2014-5-11T16:49:40Z</time></trkpt>
<trkpt lat="45.92895057" lon="9.05844773"><ele></ele><time>2014-5-11T16:49:43Z</time></trkpt>
<trkpt lat="45.92897362" lon="9.05848788"><ele></ele><time>2014-5-11T16:49:46Z</time></trkpt>
<trkpt lat="45.92904277" lon="9.05853926"><ele></ele><time>2014-5-11T16:49:49Z</time></trkpt>
<trkpt lat="45.92926707" lon="9.05853909"><ele></ele><time>2014-5-11T16:49:52Z</time></trkpt>
<trkpt lat="45.92958248" lon="9.05853105"><ele></ele><time>2014-5-11T16:49:55Z</time></trkpt>
<trkpt lat="45.92984567" lon="9.05852828"><ele></ele><time>2014-5-11T16:49:58Z</time></trkpt>
<trkpt lat="45.92994450" lon="9.05851596"><ele></ele><time>2014-5-11T16:50:1Z</time></trkpt>
<trkpt lat="45.93034700" lon="9.05843885"><ele></ele><time>2014-5-11T16:50:4Z</time></trkpt>
<trkpt lat="45.93043618" lon="9.05843910"><ele></ele><time>2014-5-11T16:50:7Z</time></trkpt>
<trkpt lat="45.93065117" lon="9.05842854"><ele></ele><time>2014-5-11T16:50:10Z</time></trkpt>
<trkpt lat="45.93076224" lon="9.05840029"><ele></ele><time>2014-5-11T16:50:13Z</time></trkpt>
<trkpt lat="45.93090280" lon="9.05835805"><ele></ele><time>2014-5-11T16:50:16Z</time></trkpt>
<trkpt lat="45.93104647" lon="9.05834547"><ele></ele><time>2014-5-11T16:50:19Z</time></trkpt>
<trkpt lat="45.93133338" lon="9.05837665"><ele></ele><time>2014-5-11T16:50:22Z</time></trkpt>
<trkpt lat="45.93158282" lon="9.05835067"><ele></ele><time>2014-5-11T16:50:25Z</time></trkpt>
<trkpt lat="45.93170528" lon="9.05833659"><ele></ele><time>2014-5-11T16:50:28Z</time></trkpt>
<trkpt lat="45.93192665" lon="9.05840809"><ele></ele><time>2014-5-11T16:50:31Z</time></trkpt>
<trkpt lat="45.93207945" lon="9.05843717"><ele></ele><time>2014-5-11T16:50:34Z</time></trkpt>
<trkpt lat="45.93239226" lon="9.05843767"><ele></ele><time>2014-5-11T16:50:37Z</time></trkpt>
<trkpt lat="45.93243149" lon="9.05843658"><ele></ele><time>2014-5-11T16:50:40Z</time></trkpt>
<trkpt lat="45.93261640" lon="9.05843985"><ele></ele><time>2014-5-11T16:50:43Z</time></trkpt>
<trkpt lat="45.93269024" lon="9.05844354"><ele></ele><time>2014-5-11T16:50:46Z</time></trkpt>
<trkpt lat="45.93284539" lon="9.05841546"><ele></ele><time>2014-5-11T16:50:49Z</time></trkpt>
<trkpt lat="45.93331126" lon="9.05835997"><ele></ele><time>2014-5-11T16:50:52Z</time></trkpt>
<trkpt lat="45.93346297" lon="9.05847816"><ele></ele><time>2014-5-11T16:50:55Z</time></trkpt>
<trkpt lat="45.93358157" lon="9.05857002"><ele></ele><time>2014-5-11T16:50:58Z</time></trkpt>
<trkpt lat="45.93372256" lon="9.05865267"><ele></ele><time>2014-5-11T16:51:1Z</time></trkpt>
<trkpt lat="45.93397058" lon="9.05886632"><ele></ele><time>2014-5-11T16:51:4Z</time></trkpt>
<trkpt lat="45.93403964" lon="9.05895199"><ele></ele><time>2014-5-11T16:51:7Z</time></trkpt>
<trkpt lat="45.93416680" lon="9.05911258"><ele></ele><time>2014-5-11T16:51:10Z</time></trkpt>
<trkpt lat="45.93432714" lon="9.05933806"><ele></ele><time>2014-5-11T16:51:13Z</time></trkpt>
<trkpt lat="45.93439763" lon="9.05942154"><ele></ele><time>2014-5-11T16:51:16Z</time></trkpt>
<trkpt lat="45.93460333" lon="9.05952129"><ele></ele><time>2014-5-11T16:51:19Z</time></trkpt>
<trkpt lat="45.93481665" lon="9.05955942"><ele></ele><time>2014-5-11T16:51:22Z</time></trkpt>
<trkpt lat="45.93505293" lon="9.05976143"><ele></ele><time>2014-5-11T16:51:25Z</time></trkpt>
<trkpt lat="45.93508897" lon="9.05999587"><ele></ele><time>2014-5-11T16:51:28Z</time></trkpt>
<trkpt lat="45.93511538" lon="9.06015253"><ele></ele><time>2014-5-11T16:51:31Z</time></trkpt>
<trkpt lat="45.93517246" lon="9.06044489"><ele></ele><time>2014-5-11T16:51:34Z</time></trkpt>
<trkpt lat="45.93519920" lon="9.06058922"><ele></ele><time>2014-5-11T16:51:37Z</time></trkpt>
<trkpt lat="45.93521638" lon="9.06067019"><ele></ele><time>2014-5-11T16:51:40Z</time></trkpt>
<trkpt lat="45.93521026" lon="9.06116716"><ele></ele><time>2014-5-11T16:51:43Z</time></trkpt>
<trkpt lat="45.93522124" lon="9.06141115"><ele></ele><time>2014-5-11T16:51:46Z</time></trkpt>
<trkpt lat="45.93524236" lon="9.06157888"><ele></ele><time>2014-5-11T16:51:49Z</time></trkpt>
<trkpt lat="45.93534856" lon="9.06178834"><ele></ele><time>2014-5-11T16:51:52Z</time></trkpt>
<trkpt lat="45.93557009" lon="9.06196696"><ele></ele><time>2014-5-11T16:51:55Z</time></trkpt>
<trkpt lat="45.93576657" lon="9.06205664"><ele></ele><time>2014-5-11T16:51:58Z</time></trkpt>
<trkpt lat="45.93609463" lon="9.06209579"><ele></ele><time>2014-5-11T16:52:1Z</time></trkpt>
<trkpt lat="45.93642698" lon="9.06218447"><ele></ele><time>2014-5-11T16:52:4Z</time></trkpt>
<trkpt lat="45.93660099" lon="9.06237046"><ele></ele><time>2014-5-11T16:52:7Z</time></trkpt>
<trkpt lat="45.93674222" lon="9.06258873"><ele></ele><time>2014-5-11T16:52:10Z</time></trkpt>
<trkpt lat="45.93681472" lon="9.06270029"><ele></ele><time>2014-5-11T16:52:13Z</time></trkpt>
<trkpt lat="45.93687189" lon="9.06283507"><ele></ele><time>2014-5-11T16:52:16Z</time></trkpt>
<trkpt lat="45.93705495" lon="9.06307563"><ele></ele><time>2014-5-11T16:52:19Z</time></trkpt>
<trkpt lat="45.93722225" lon="9.06338308"><ele></ele><time>2014-5-11T16:52:22Z</time></trkpt>
<trkpt lat="45.93744890" lon="9.06375163"><ele></ele><time>2014-5-11T16:52:25Z</time></trkpt>
<trkpt lat="45.93753322" lon="9.06385993"><ele></ele><time>2014-5-11T16:52:28Z</time></trkpt>
<trkpt lat="45.93771343" lon="9.06386646"><ele></ele><time>2014-5-11T16:52:31Z</time></trkpt>
<trkpt lat="45.93784033" lon="9.06385699"><ele></ele><time>2014-5-11T16:52:34Z</time></trkpt>
<trkpt lat="45.93809850" lon="9.06383470"><ele></ele><time>2014-5-11T16:52:37Z</time></trkpt>
<trkpt lat="45.93821148" lon="9.06382338"><ele></ele><time>2014-5-11T16:52:40Z</time></trkpt>
<trkpt lat="45.93835993" lon="9.06379522"><ele></ele><time>2014-5-11T16:52:43Z</time></trkpt>
<trkpt lat="45.93847208" lon="9.06373546"><ele></ele><time>2014-5-11T16:52:46Z</time></trkpt>
<trkpt lat="45.93860719" lon="9.06348643"><ele></ele><time>2014-5-11T16:52:49Z</time></trkpt>
<trkpt lat="45.93863217" lon="9.06341527"><ele></ele><time>2014-5-11T16:52:52Z</time></trkpt>
<trkpt lat="45.93887039" lon="9.06311142"><ele></ele><time>2014-5-11T16:52:55Z</time></trkpt>
<trkpt lat="45.93897600" lon="9.06309525"><ele></ele><time>2014-5-11T16:52:58Z</time></trkpt>
<trkpt lat="45.93925126" lon="9.06308033"><ele></ele><time>2014-5-11T16:53:1Z</time></trkpt>
<trkpt lat="45.93954597" lon="9.06292317"><ele></ele><time>2014-5-11T16:53:4Z</time></trkpt>
<trkpt lat="45.93978837" lon="9.06271043"><ele></ele><time>2014-5-11T16:53:7Z</time></trkpt>
<trkpt lat="45.93982684" lon="9.06267062"><ele></ele><time>2014-5-11T16:53:10Z</time></trkpt>
<trkpt lat="45.93993665" lon="9.06252209"><ele></ele><time>2014-5-11T16:53:13Z</time></trkpt>
<trkpt lat="45.94003178" lon="9.06232017"><ele></ele><time>2014-5-11T16:53:16Z</time></trkpt>
<trkpt lat="45.94005894" lon="9.06193796"><ele></ele><time>2014-5-11T16:53:19Z</time></trkpt>
<trkpt lat="45.94009984" lon="9.06195547"><ele></ele><time>2014-5-11T16:53:22Z</time></trkpt>
<trkpt lat="45.94014896" lon="9.06208942"><ele></ele><time>2014-5-11T16:53:25Z</time></trkpt>
<trkpt lat="45.94023915" lon="9.06223509"><ele></ele><time>2014-5-11T16:53:28Z</time></trkpt>
<trkpt lat="45.94040293" lon="9.06252075"><ele></ele><time>2014-5-11T16:53:31Z</time></trkpt>
<trkpt lat="45.94044266" lon="9.06279559"><ele></ele><time>2014-5-11T16:53:34Z</time></trkpt>
<trkpt lat="45.94046747" lon="9.06286508"><ele></ele><time>2014-5-11T16:53:37Z</time></trkpt>
<trkpt lat="45.94048784" lon="9.06283725"><ele></ele><time>2014-5-11T16:53:40Z</time></trkpt>
<trkpt lat="45.94053604" lon="9.06231749"><ele></ele><time>2014-5-11T16:53:43Z</time></trkpt>
<trkpt lat="45.94050092" lon="9.06222546"><ele></ele><time>2014-5-11T16:53:46Z</time></trkpt>
<trkpt lat="45.94062053" lon="9.06229503"><ele></ele><time>2014-5-11T16:53:49Z</time></trkpt>
<trkpt lat="45.94077006" lon="9.06247649"><ele></ele><time>2014-5-11T16:53:52Z</time></trkpt>
<trkpt lat="45.94090568" lon="9.06258496"><ele></ele><time>2014-5-11T16:53:55Z</time></trkpt>
<trkpt lat="45.94095505" lon="9.06262980"><ele></ele><time>2014-5-11T16:53:58Z</time></trkpt>
<trkpt lat="45.94119569" lon="9.06278352"><ele></ele><time>2014-5-11T16:54:1Z</time></trkpt>
<trkpt lat="45.94153943" lon="9.06284672"><ele></ele><time>2014-5-11T16:54:4Z</time></trkpt>
<trkpt lat="45.94192048" lon="9.06286424"><ele></ele><time>2014-5-11T16:54:7Z</time></trkpt>
<trkpt lat="45.94231895" lon="9.06300816"><ele></ele><time>2014-5-11T16:54:10Z</time></trkpt>
<trkpt lat="45.94247678" lon="9.06300489"><ele></ele><time>2014-5-11T16:54:13Z</time></trkpt>
<trkpt lat="45.94277769" lon="9.06291554"><ele></ele><time>2014-5-11T16:54:16Z</time></trkpt>
<trkpt lat="45.94291314" lon="9.06293188"><ele></ele><time>2014-5-11T16:54:19Z</time></trkpt>
<trkpt lat="45.94300124" lon="9.06294395"><ele></ele><time>2014-5-11T16:54:22Z</time></trkpt>
<trkpt lat="45.94314122" lon="9.06295435"><ele></ele><time>2014-5-11T16:54:25Z</time></trkpt>
<trkpt lat="45.94331833" lon="9.06295787"><ele></ele><time>2014-5-11T16:54:28Z</time></trkpt>
<trkpt lat="45.94337499" lon="9.06295803"><ele></ele><time>2014-5-11T16:54:31Z</time></trkpt>
<trkpt lat="45.94347012" lon="9.06293792"><ele></ele><time>2014-5-11T16:54:34Z</time></trkpt>
<trkpt lat="45.94358454" lon="9.06285879"><ele></ele><time>2014-5-11T16:54:37Z</time></trkpt>
<trkpt lat="45.94366802" lon="9.06281319"><ele></ele><time>2014-5-11T16:54:40Z</time></trkpt>
<trkpt lat="45.94382878" lon="9.06268378"><ele></ele><time>2014-5-11T16:54:43Z</time></trkpt>
<trkpt lat="45.94393582" lon="9.06259082"><ele></ele><time>2014-5-11T16:54:46Z</time></trkpt>
<trkpt lat="45.94402199" lon="9.06252293"><ele></ele><time>2014-5-11T16:54:49Z</time></trkpt>
<trkpt lat="45.94418912" lon="9.06249787"><ele></ele><time>2014-5-11T16:54:52Z</time></trkpt>
<trkpt lat="45.94427126" lon="9.06247012"><ele></ele><time>2014-5-11T16:54:55Z</time></trkpt>
<trkpt lat="45.94440118" lon="9.06245093"><ele></ele><time>2014-5-11T16:54:58Z</time></trkpt>
<trkpt lat="45.94447595" lon="9.06244917"><ele></ele><time>2014-5-11T16:55:1Z</time></trkpt>
<trkpt lat="45.94459145" lon="9.06239142"><ele></ele><time>2014-5-11T16:55:4Z</time></trkpt>
<trkpt lat="45.94464057" lon="9.06232922"><ele></ele><time>2014-5-11T16:55:7Z</time></trkpt>
<trkpt lat="45.94469807" lon="9.06220618"><ele></ele><time>2014-5-11T16:55:10Z</time></trkpt>
<trkpt lat="45.94480075" lon="9.06199185"><ele></ele><time>2014-5-11T16:55:13Z</time></trkpt>
<trkpt lat="45.94492782" lon="9.06189906"><ele></ele><time>2014-5-11T16:55:16Z</time></trkpt>
<trkpt lat="45.94500527" lon="9.06190803"><ele></ele><time>2014-5-11T16:55:19Z</time></trkpt>
<trkpt lat="45.94506587" lon="9.06197542"><ele></ele><time>2014-5-11T16:55:22Z</time></trkpt>
<trkpt lat="45.94528757" lon="9.06257490"><ele></ele><time>2014-5-11T16:55:25Z</time></trkpt>
<trkpt lat="45.94540467" lon="9.06288939"><ele></ele><time>2014-5-11T16:55:28Z</time></trkpt>
<trkpt lat="45.94550282" lon="9.06299584"><ele></ele><time>2014-5-11T16:55:31Z</time></trkpt>
<trkpt lat="45.94557063" lon="9.06302207"><ele></ele><time>2014-5-11T16:55:34Z</time></trkpt>
<trkpt lat="45.94574413" lon="9.06317429"><ele></ele><time>2014-5-11T16:55:37Z</time></trkpt>
<trkpt lat="45.94577850" lon="9.06343647"><ele></ele><time>2014-5-11T16:55:40Z</time></trkpt>
<trkpt lat="45.94578219" lon="9.06350504"><ele></ele><time>2014-5-11T16:55:43Z</time></trkpt>
<trkpt lat="45.94579057" lon="9.06370897"><ele></ele><time>2014-5-11T16:55:46Z</time></trkpt>
<trkpt lat="45.94568957" lon="9.06409076"><ele></ele><time>2014-5-11T16:55:49Z</time></trkpt>
<trkpt lat="45.94561296" lon="9.06424826"><ele></ele><time>2014-5-11T16:55:52Z</time></trkpt>
<trkpt lat="45.94547633" lon="9.06456007"><ele></ele><time>2014-5-11T16:55:55Z</time></trkpt>
<trkpt lat="45.94537533" lon="9.06483969"><ele></ele><time>2014-5-11T16:55:58Z</time></trkpt>
<trkpt lat="45.94531632" lon="9.06501168"><ele></ele><time>2014-5-11T16:56:1Z</time></trkpt>
<trkpt lat="45.94529805" lon="9.06539817"><ele></ele><time>2014-5-11T16:56:4Z</time></trkpt>
<trkpt lat="45.94531230" lon="9.06545852"><ele></ele><time>2014-5-11T16:56:7Z</time></trkpt>
<trkpt lat="45.94534700" lon="9.06578877"><ele></ele><time>2014-5-11T16:56:10Z</time></trkpt>
<trkpt lat="45.94528439" lon="9.06626847"><ele></ele><time>2014-5-11T16:56:13Z</time></trkpt>
<trkpt lat="45.94523543" lon="9.06654079"><ele></ele><time>2014-5-11T16:56:16Z</time></trkpt>
<trkpt lat="45.94516704" lon="9.06676384"><ele></ele><time>2014-5-11T16:56:19Z</time></trkpt>
<trkpt lat="45.94514089" lon="9.06683818"><ele></ele><time>2014-5-11T16:56:22Z</time></trkpt>
<trkpt lat="45.94497417" lon="9.06716005"><ele></ele><time>2014-5-11T16:56:25Z</time></trkpt>
<trkpt lat="45.94480125" lon="9.06757428"><ele></ele><time>2014-5-11T16:56:28Z</time></trkpt>
<trkpt lat="45.94470260" lon="9.06778953"><ele></ele><time>2014-5-11T16:56:31Z</time></trkpt>
<trkpt lat="45.94463563" lon="9.06801676"><ele></ele><time>2014-5-11T16:56:34Z</time></trkpt>
<trkpt lat="45.94460269" lon="9.06808717"><ele></ele><time>2014-5-11T16:56:37Z</time></trkpt>
<trkpt lat="45.94451199" lon="9.06827912"><ele></ele><time>2014-5-11T16:56:40Z</time></trkpt>
<trkpt lat="45.94443874" lon="9.06859143"><ele></ele><time>2014-5-11T16:56:43Z</time></trkpt>
<trkpt lat="45.94440244" lon="9.06885143"><ele></ele><time>2014-5-11T16:56:46Z</time></trkpt>
<trkpt lat="45.94422257" lon="9.06879963"><ele></ele><time>2014-5-11T16:56:49Z</time></trkpt>
<trkpt lat="45.94392065" lon="9.06854575"><ele></ele><time>2014-5-11T16:56:52Z</time></trkpt>
<trkpt lat="45.94358479" lon="9.06827484"><ele></ele><time>2014-5-11T16:56:55Z</time></trkpt>
<trkpt lat="45.94330299" lon="9.06805524"><ele></ele><time>2014-5-11T16:56:58Z</time></trkpt>
<trkpt lat="45.94302270" lon="9.06795206"><ele></ele><time>2014-5-11T16:57:1Z</time></trkpt>
<trkpt lat="45.94282019" lon="9.06765249"><ele></ele><time>2014-5-11T16:57:4Z</time></trkpt>
<trkpt lat="45.94271097" lon="9.06718595"><ele></ele><time>2014-5-11T16:57:7Z</time></trkpt>
<trkpt lat="45.94263528" lon="9.06682008"><ele></ele><time>2014-5-11T16:57:10Z</time></trkpt>
<trkpt lat="45.94255683" lon="9.06648606"><ele></ele><time>2014-5-11T16:57:13Z</time></trkpt>
<trkpt lat="45.94236958" lon="9.06618046"><ele></ele><time>2014-5-11T16:57:16Z</time></trkpt>
<trkpt lat="45.94214067" lon="9.06611030"><ele></ele><time>2014-5-11T16:57:19Z</time></trkpt>
<trkpt lat="45.94192224" lon="9.06612203"><ele></ele><time>2014-5-11T16:57:22Z</time></trkpt>
<trkpt lat="45.94168863" lon="9.06611030"><ele></ele><time>2014-5-11T16:57:25Z</time></trkpt>
<trkpt lat="45.94141765" lon="9.06603729"><ele></ele><time>2014-5-11T16:57:28Z</time></trkpt>
<trkpt lat="45.94137356" lon="9.06594685"><ele></ele><time>2014-5-11T16:57:31Z</time></trkpt>
<trkpt lat="45.94118278" lon="9.06588374"><ele></ele><time>2014-5-11T16:57:34Z</time></trkpt>
<trkpt lat="45.94087777" lon="9.06587980"><ele></ele><time>2014-5-11T16:57:37Z</time></trkpt>
<trkpt lat="45.94063469" lon="9.06588139"><ele></ele><time>2014-5-11T16:57:40Z</time></trkpt>
<trkpt lat="45.94058046" lon="9.06587896"><ele></ele><time>2014-5-11T16:57:43Z</time></trkpt>
<trkpt lat="45.94044643" lon="9.06586798"><ele></ele><time>2014-5-11T16:57:46Z</time></trkpt>
<trkpt lat="45.94031316" lon="9.06585549"><ele></ele><time>2014-5-11T16:57:49Z</time></trkpt>
<trkpt lat="45.94014854" lon="9.06580813"><ele></ele><time>2014-5-11T16:57:52Z</time></trkpt>
<trkpt lat="45.93999515" lon="9.06569389"><ele></ele><time>2014-5-11T16:57:55Z</time></trkpt>
<trkpt lat="45.93970656" lon="9.06572297"><ele></ele><time>2014-5-11T16:57:58Z</time></trkpt>
<trkpt lat="45.93956265" lon="9.06594886"><ele></ele><time>2014-5-11T16:58:1Z</time></trkpt>
<trkpt lat="45.93934027" lon="9.06611768"><ele></ele><time>2014-5-11T16:58:4Z</time></trkpt>
<trkpt lat="45.93890743" lon="9.06622874"><ele></ele><time>2014-5-11T16:58:7Z</time></trkpt>
<trkpt lat="45.93861549" lon="9.06641087"><ele></ele><time>2014-5-11T16:58:10Z</time></trkpt>
<trkpt lat="45.93831609" lon="9.06666057"><ele></ele><time>2014-5-11T16:58:13Z</time></trkpt>
<trkpt lat="45.93802675" lon="9.06674339"><ele></ele><time>2014-5-11T16:58:16Z</time></trkpt>
<trkpt lat="45.93799523" lon="9.06674129"><ele></ele><time>2014-5-11T16:58:19Z</time></trkpt>
<trkpt lat="45.93773020" lon="9.06682486"><ele></ele><time>2014-5-11T16:58:22Z</time></trkpt>
<trkpt lat="45.93754454" lon="9.06692209"><ele></ele><time>2014-5-11T16:58:25Z</time></trkpt>
<trkpt lat="45.93735569" lon="9.06701697"><ele></ele><time>2014-5-11T16:58:28Z</time></trkpt>
<trkpt lat="45.93722460" lon="9.06708428"><ele></ele><time>2014-5-11T16:58:31Z</time></trkpt>
<trkpt lat="45.93709376" lon="9.06716567"><ele></ele><time>2014-5-11T16:58:34Z</time></trkpt>
<trkpt lat="45.93706953" lon="9.06718553"><ele></ele><time>2014-5-11T16:58:37Z</time></trkpt>
<trkpt lat="45.93689175" lon="9.06731118"><ele></ele><time>2014-5-11T16:58:40Z</time></trkpt>
<trkpt lat="45.93664574" lon="9.06736574"><ele></ele><time>2014-5-11T16:58:43Z</time></trkpt>
<trkpt lat="45.93662789" lon="9.06736406"><ele></ele><time>2014-5-11T16:58:46Z</time></trkpt>
<trkpt lat="45.93623654" lon="9.06768216"><ele></ele><time>2014-5-11T16:58:49Z</time></trkpt>
<trkpt lat="45.93609774" lon="9.06772239"><ele></ele><time>2014-5-11T16:58:52Z</time></trkpt>
<trkpt lat="45.93600428" lon="9.06772608"><ele></ele><time>2014-5-11T16:58:55Z</time></trkpt>
<trkpt lat="45.93590864" lon="9.06771376"><ele></ele><time>2014-5-11T16:58:58Z</time></trkpt>
<trkpt lat="45.93578367" lon="9.06765735"><ele></ele><time>2014-5-11T16:59:1Z</time></trkpt>
<trkpt lat="45.93565743" lon="9.06755165"><ele></ele><time>2014-5-11T16:59:4Z</time></trkpt>
<trkpt lat="45.93555559" lon="9.06733858"><ele></ele><time>2014-5-11T16:59:7Z</time></trkpt>
<trkpt lat="45.93551838" lon="9.06722174"><ele></ele><time>2014-5-11T16:59:10Z</time></trkpt>
<trkpt lat="45.93549315" lon="9.06698537"><ele></ele><time>2014-5-11T16:59:13Z</time></trkpt>
<trkpt lat="45.93547446" lon="9.06629370"><ele></ele><time>2014-5-11T16:59:16Z</time></trkpt>
<trkpt lat="45.93530095" lon="9.06587946"><ele></ele><time>2014-5-11T16:59:19Z</time></trkpt>
<trkpt lat="45.93489409" lon="9.06561057"><ele></ele><time>2014-5-11T16:59:22Z</time></trkpt>
<trkpt lat="45.93481824" lon="9.06552088"><ele></ele><time>2014-5-11T16:59:25Z</time></trkpt>
<trkpt lat="45.93461347" lon="9.06545592"><ele></ele><time>2014-5-11T16:59:28Z</time></trkpt>
<trkpt lat="45.93417685" lon="9.06559372"><ele></ele><time>2014-5-11T16:59:31Z</time></trkpt>
<trkpt lat="45.93363756" lon="9.06535417"><ele></ele><time>2014-5-11T16:59:34Z</time></trkpt>
<trkpt lat="45.93339533" lon="9.06508343"><ele></ele><time>2014-5-11T16:59:37Z</time></trkpt>
<trkpt lat="45.93315904" lon="9.06450206"><ele></ele><time>2014-5-11T16:59:40Z</time></trkpt>
<trkpt lat="45.93307648" lon="9.06429922"><ele></ele><time>2014-5-11T16:59:43Z</time></trkpt>
<trkpt lat="45.93280004" lon="9.06388675"><ele></ele><time>2014-5-11T16:59:46Z</time></trkpt>
<trkpt lat="45.93234608" lon="9.06370193"><ele></ele><time>2014-5-11T16:59:49Z</time></trkpt>
<trkpt lat="45.93195129" lon="9.06389974"><ele></ele><time>2014-5-11T16:59:52Z</time></trkpt>
<trkpt lat="45.93187066" lon="9.06411147"><ele></ele><time>2014-5-11T16:59:55Z</time></trkpt>
<trkpt lat="45.93183956" lon="9.06423108"><ele></ele><time>2014-5-11T16:59:58Z</time></trkpt>
<trkpt lat="45.93160696" lon="9.06510238"><ele></ele><time>2014-5-11T17:0:1Z</time></trkpt>
<trkpt lat="45.93147252" lon="9.06542005"><ele></ele><time>2014-5-11T17:0:4Z</time></trkpt>
<trkpt lat="45.93128468" lon="9.06578575"><ele></ele><time>2014-5-11T17:0:7Z</time></trkpt>
<trkpt lat="45.93123388" lon="9.06584719"><ele></ele><time>2014-5-11T17:0:10Z</time></trkpt>
<trkpt lat="45.93116272" lon="9.06591718"><ele></ele><time>2014-5-11T17:0:13Z</time></trkpt>
<trkpt lat="45.93096667" lon="9.06622832"><ele></ele><time>2014-5-11T17:0:16Z</time></trkpt>
<trkpt lat="45.93080624" lon="9.06637366"><ele></ele><time>2014-5-11T17:0:19Z</time></trkpt>
<trkpt lat="45.93049024" lon="9.06638489"><ele></ele><time>2014-5-11T17:0:22Z</time></trkpt>
<trkpt lat="45.93014868" lon="9.06637517"><ele></ele><time>2014-5-11T17:0:25Z</time></trkpt>
<trkpt lat="45.92982405" lon="9.06632270"><ele></ele><time>2014-5-11T17:0:28Z</time></trkpt>
<trkpt lat="45.92939280" lon="9.06605079"><ele></ele><time>2014-5-11T17:0:31Z</time></trkpt>
<trkpt lat="45.92928719" lon="9.06598683"><ele></ele><time>2014-5-11T17:0:34Z</time></trkpt>
<trkpt lat="45.92905677" lon="9.06596412"><ele></ele><time>2014-5-11T17:0:37Z</time></trkpt>
<trkpt lat="45.92889106" lon="9.06602330"><ele></ele><time>2014-5-11T17:0:40Z</time></trkpt>
<trkpt lat="45.92852619" lon="9.06603863"><ele></ele><time>2014-5-11T17:0:43Z</time></trkpt>
<trkpt lat="45.92802278" lon="9.06612849"><ele></ele><time>2014-5-11T17:0:46Z</time></trkpt>
<trkpt lat="45.92775405" lon="9.06611918"><ele></ele><time>2014-5-11T17:0:49Z</time></trkpt>
<trkpt lat="45.92757602" lon="9.06608147"><ele></ele><time>2014-5-11T17:0:52Z</time></trkpt>
<trkpt lat="45.92735994" lon="9.06591349"><ele></ele><time>2014-5-11T17:0:55Z</time></trkpt>
<trkpt lat="45.92693112" lon="9.06578274"><ele></ele><time>2014-5-11T17:0:58Z</time></trkpt>
<trkpt lat="45.92684579" lon="9.06578382"><ele></ele><time>2014-5-11T17:1:1Z</time></trkpt>
<trkpt lat="45.92646835" lon="9.06592112"><ele></ele><time>2014-5-11T17:1:4Z</time></trkpt>
<trkpt lat="45.92603702" lon="9.06593956"><ele></ele><time>2014-5-11T17:1:7Z</time></trkpt>
<trkpt lat="45.92563243" lon="9.06612572"><ele></ele><time>2014-5-11T17:1:10Z</time></trkpt>
<trkpt lat="45.92540125" lon="9.06645178"><ele></ele><time>2014-5-11T17:1:13Z</time></trkpt>
<trkpt lat="45.92523965" lon="9.06687372"><ele></ele><time>2014-5-11T17:1:16Z</time></trkpt>
<trkpt lat="45.92510847" lon="9.06714655"><ele></ele><time>2014-5-11T17:1:19Z</time></trkpt>
<trkpt lat="45.92491795" lon="9.06743137"><ele></ele><time>2014-5-11T17:1:22Z</time></trkpt>
<trkpt lat="45.92475945" lon="9.06770295"><ele></ele><time>2014-5-11T17:1:25Z</time></trkpt>
<trkpt lat="45.92458553" lon="9.06786488"><ele></ele><time>2014-5-11T17:1:28Z</time></trkpt>
<trkpt lat="45.92453993" lon="9.06786924"><ele></ele><time>2014-5-11T17:1:31Z</time></trkpt>
<trkpt lat="45.92440833" lon="9.06788140"><ele></ele><time>2014-5-11T17:1:34Z</time></trkpt>
<trkpt lat="45.92423919" lon="9.06786304"><ele></ele><time>2014-5-11T17:1:37Z</time></trkpt>
<trkpt lat="45.92414003" lon="9.06777889"><ele></ele><time>2014-5-11T17:1:40Z</time></trkpt>
<trkpt lat="45.92398237" lon="9.06747974"><ele></ele><time>2014-5-11T17:1:43Z</time></trkpt>
<trkpt lat="45.92394548" lon="9.06739558"><ele></ele><time>2014-5-11T17:1:46Z</time></trkpt>
<trkpt lat="45.92389067" lon="9.06691345"><ele></ele><time>2014-5-11T17:1:49Z</time></trkpt>
<trkpt lat="45.92387466" lon="9.06675487"><ele></ele><time>2014-5-11T17:1:52Z</time></trkpt>
<trkpt lat="45.92386837" lon="9.06630426"><ele></ele><time>2014-5-11T17:1:55Z</time></trkpt>
<trkpt lat="45.92376108" lon="9.06599262"><ele></ele><time>2014-5-11T17:1:58Z</time></trkpt>
<trkpt lat="45.92359059" lon="9.06575449"><ele></ele><time>2014-5-11T17:2:1Z</time></trkpt>
<trkpt lat="45.92346663" lon="9.06535333"><ele></ele><time>2014-5-11T17:2:4Z</time></trkpt>
<trkpt lat="45.92331885" lon="9.06474556"><ele></ele><time>2014-5-11T17:2:7Z</time></trkpt>
<trkpt lat="45.92329119" lon="9.06445689"><ele></ele><time>2014-5-11T17:2:10Z</time></trkpt>
<trkpt lat="45.92330628" lon="9.06423292"><ele></ele><time>2014-5-11T17:2:13Z</time></trkpt>
<trkpt lat="45.92330184" lon="9.06410619"><ele></ele><time>2014-5-11T17:2:16Z</time></trkpt>
<trkpt lat="45.92318223" lon="9.06433694"><ele></ele><time>2014-5-11T17:2:19Z</time></trkpt>
<trkpt lat="45.92315205" lon="9.06458479"><ele></ele><time>2014-5-11T17:2:22Z</time></trkpt>
<trkpt lat="45.92311987" lon="9.06469367"><ele></ele><time>2014-5-11T17:2:25Z</time></trkpt>
<trkpt lat="45.92310294" lon="9.06475134"><ele></ele><time>2014-5-11T17:2:28Z</time></trkpt>
<trkpt lat="45.92310034" lon="9.06487598"><ele></ele><time>2014-5-11T17:2:31Z</time></trkpt>
<trkpt lat="45.92312967" lon="9.06500146"><ele></ele><time>2014-5-11T17:2:34Z</time></trkpt>
<trkpt lat="45.92318298" lon="9.06527010"><ele></ele><time>2014-5-11T17:2:37Z</time></trkpt>
<trkpt lat="45.92320075" lon="9.06541519"><ele></ele><time>2014-5-11T17:2:40Z</time></trkpt>
<trkpt lat="45.92329538" lon="9.06596320"><ele></ele><time>2014-5-11T17:2:43Z</time></trkpt>
<trkpt lat="45.92332640" lon="9.06618414"><ele></ele><time>2014-5-11T17:2:46Z</time></trkpt>
<trkpt lat="45.92337568" lon="9.06647508"><ele></ele><time>2014-5-11T17:2:49Z</time></trkpt>
<trkpt lat="45.92334702" lon="9.06681379"><ele></ele><time>2014-5-11T17:2:52Z</time></trkpt>
<trkpt lat="45.92331617" lon="9.06697858"><ele></ele><time>2014-5-11T17:2:55Z</time></trkpt>
<trkpt lat="45.92326915" lon="9.06724898"><ele></ele><time>2014-5-11T17:2:58Z</time></trkpt>
<trkpt lat="45.92325197" lon="9.06736868"><ele></ele><time>2014-5-11T17:3:1Z</time></trkpt>
<trkpt lat="45.92317477" lon="9.06761024"><ele></ele><time>2014-5-11T17:3:4Z</time></trkpt>
<trkpt lat="45.92309782" lon="9.06781417"><ele></ele><time>2014-5-11T17:3:7Z</time></trkpt>
<trkpt lat="45.92270589" lon="9.06801056"><ele></ele><time>2014-5-11T17:3:10Z</time></trkpt>
<trkpt lat="45.92247035" lon="9.06781510"><ele></ele><time>2014-5-11T17:3:13Z</time></trkpt>
<trkpt lat="45.92238226" lon="9.06774494"><ele></ele><time>2014-5-11T17:3:16Z</time></trkpt>
<trkpt lat="45.92221437" lon="9.06750983"><ele></ele><time>2014-5-11T17:3:19Z</time></trkpt>
<trkpt lat="45.92188496" lon="9.06729986"><ele></ele><time>2014-5-11T17:3:22Z</time></trkpt>
<trkpt lat="45.92175479" lon="9.06724714"><ele></ele><time>2014-5-11T17:3:25Z</time></trkpt>
<trkpt lat="45.92163434" lon="9.06733724"><ele></ele><time>2014-5-11T17:3:28Z</time></trkpt>
<trkpt lat="45.92160308" lon="9.06742115"><ele></ele><time>2014-5-11T17:3:31Z</time></trkpt>
<trkpt lat="45.92153426" lon="9.06763589"><ele></ele><time>2014-5-11T17:3:34Z</time></trkpt>
<trkpt lat="45.92139739" lon="9.06791274"><ele></ele><time>2014-5-11T17:3:37Z</time></trkpt>
<trkpt lat="45.92130460" lon="9.06800872"><ele></ele><time>2014-5-11T17:3:40Z</time></trkpt>
<trkpt lat="45.92125892" lon="9.06806328"><ele></ele><time>2014-5-11T17:3:43Z</time></trkpt>
<trkpt lat="45.92115079" lon="9.06823754"><ele></ele><time>2014-5-11T17:3:46Z</time></trkpt>
<trkpt lat="45.92105348" lon="9.06853569"><ele></ele><time>2014-5-11T17:3:49Z</time></trkpt>
<trkpt lat="45.92103160" lon="9.06890072"><ele></ele><time>2014-5-11T17:3:52Z</time></trkpt>
<trkpt lat="45.92116429" lon="9.06904816"><ele></ele><time>2014-5-11T17:3:55Z</time></trkpt>
<trkpt lat="45.92126478" lon="9.06912426"><ele></ele><time>2014-5-11T17:3:58Z</time></trkpt>
<trkpt lat="45.92135036" lon="9.06928604"><ele></ele><time>2014-5-11T17:4:1Z</time></trkpt>
<trkpt lat="45.92144717" lon="9.06941059"><ele></ele><time>2014-5-11T17:4:4Z</time></trkpt>
<trkpt lat="45.92155237" lon="9.06956130"><ele></ele><time>2014-5-11T17:4:7Z</time></trkpt>
<trkpt lat="45.92167994" lon="9.06970454"><ele></ele><time>2014-5-11T17:4:10Z</time></trkpt>
<trkpt lat="45.92176024" lon="9.06977185"><ele></ele><time>2014-5-11T17:4:13Z</time></trkpt>
<trkpt lat="45.92166795" lon="9.07001392"><ele></ele><time>2014-5-11T17:4:16Z</time></trkpt>
<trkpt lat="45.92150325" lon="9.07004552"><ele></ele><time>2014-5-11T17:4:19Z</time></trkpt>
<trkpt lat="45.92131910" lon="9.06999104"><ele></ele><time>2014-5-11T17:4:22Z</time></trkpt>
<trkpt lat="45.92105146" lon="9.07005927"><ele></ele><time>2014-5-11T17:4:25Z</time></trkpt>
<trkpt lat="45.92084929" lon="9.07008567"><ele></ele><time>2014-5-11T17:4:28Z</time></trkpt>
<trkpt lat="45.92071124" lon="9.07002565"><ele></ele><time>2014-5-11T17:4:31Z</time></trkpt>
<trkpt lat="45.92048904" lon="9.06995717"><ele></ele><time>2014-5-11T17:4:34Z</time></trkpt>
<trkpt lat="45.92044730" lon="9.06994443"><ele></ele><time>2014-5-11T17:4:37Z</time></trkpt>
<trkpt lat="45.92035753" lon="9.06995676"><ele></ele><time>2014-5-11T17:4:40Z</time></trkpt>
<trkpt lat="45.92018494" lon="9.06997637"><ele></ele><time>2014-5-11T17:4:43Z</time></trkpt>
<trkpt lat="45.92005067" lon="9.06995944"><ele></ele><time>2014-5-11T17:4:46Z</time></trkpt>
<trkpt lat="45.92000767" lon="9.06993756"><ele></ele><time>2014-5-11T17:4:49Z</time></trkpt>
<trkpt lat="45.91988705" lon="9.06991376"><ele></ele><time>2014-5-11T17:4:52Z</time></trkpt>
<trkpt lat="45.91982469" lon="9.06993697"><ele></ele><time>2014-5-11T17:4:55Z</time></trkpt>
<trkpt lat="45.91977884" lon="9.07013806"><ele></ele><time>2014-5-11T17:4:58Z</time></trkpt>
<trkpt lat="45.91974238" lon="9.07035699"><ele></ele><time>2014-5-11T17:5:1Z</time></trkpt>
<trkpt lat="45.91954029" lon="9.07035758"><ele></ele><time>2014-5-11T17:5:4Z</time></trkpt>
<trkpt lat="45.91946117" lon="9.07028859"><ele></ele><time>2014-5-11T17:5:7Z</time></trkpt>
<trkpt lat="45.91898558" lon="9.07015733"><ele></ele><time>2014-5-11T17:5:10Z</time></trkpt>
<trkpt lat="45.91871132" lon="9.07003596"><ele></ele><time>2014-5-11T17:5:13Z</time></trkpt>
<trkpt lat="45.91844503" lon="9.06973908"><ele></ele><time>2014-5-11T17:5:16Z</time></trkpt>
<trkpt lat="45.91827714" lon="9.06934203"><ele></ele><time>2014-5-11T17:5:19Z</time></trkpt>
<trkpt lat="45.91818427" lon="9.06897113"><ele></ele><time>2014-5-11T17:5:22Z</time></trkpt>
<trkpt lat="45.91811453" lon="9.06872227"><ele></ele><time>2014-5-11T17:5:25Z</time></trkpt>
<trkpt lat="45.91802518" lon="9.06846603"><ele></ele><time>2014-5-11T17:5:28Z</time></trkpt>
<trkpt lat="45.91802023" lon="9.06845095"><ele></ele><time>2014-5-11T17:5:31Z</time></trkpt>
<trkpt lat="45.91794027" lon="9.06827057"><ele></ele><time>2014-5-11T17:5:34Z</time></trkpt>
<trkpt lat="45.91785519" lon="9.06812900"><ele></ele><time>2014-5-11T17:5:37Z</time></trkpt>
<trkpt lat="45.91781395" lon="9.06783278"><ele></ele><time>2014-5-11T17:5:40Z</time></trkpt>
<trkpt lat="45.91774992" lon="9.06745358"><ele></ele><time>2014-5-11T17:5:43Z</time></trkpt>
<trkpt lat="45.91781144" lon="9.06714739"><ele></ele><time>2014-5-11T17:5:46Z</time></trkpt>
<trkpt lat="45.91784547" lon="9.06697053"><ele></ele><time>2014-5-11T17:5:49Z</time></trkpt>
<trkpt lat="45.91785117" lon="9.06686048"><ele></ele><time>2014-5-11T17:5:52Z</time></trkpt>
<trkpt lat="45.91786106" lon="9.06662797"><ele></ele><time>2014-5-11T17:5:55Z</time></trkpt>
<trkpt lat="45.91787816" lon="9.06646268"><ele></ele><time>2014-5-11T17:5:58Z</time></trkpt>
<trkpt lat="45.91787422" lon="9.06641104"><ele></ele><time>2014-5-11T17:6:1Z</time></trkpt>
<trkpt lat="45.91788730" lon="9.06632496"><ele></ele><time>2014-5-11T17:6:4Z</time></trkpt>
<trkpt lat="45.91788319" lon="9.06629722"><ele></ele><time>2014-5-11T17:6:7Z</time></trkpt>
<trkpt lat="45.91791102" lon="9.06600167"><ele></ele><time>2014-5-11T17:6:10Z</time></trkpt>
<trkpt lat="45.91787816" lon="9.06575164"><ele></ele><time>2014-5-11T17:6:13Z</time></trkpt>
<trkpt lat="45.91781555" lon="9.06557252"><ele></ele><time>2014-5-11T17:6:16Z</time></trkpt>
<trkpt lat="45.91768244" lon="9.06531083"><ele></ele><time>2014-5-11T17:6:19Z</time></trkpt>
<trkpt lat="45.91757859" lon="9.06517656"><ele></ele><time>2014-5-11T17:6:22Z</time></trkpt>
<trkpt lat="45.91745026" lon="9.06480859"><ele></ele><time>2014-5-11T17:6:25Z</time></trkpt>
<trkpt lat="45.91740584" lon="9.06439126"><ele></ele><time>2014-5-11T17:6:28Z</time></trkpt>
<trkpt lat="45.91725916" lon="9.06433510"><ele></ele><time>2014-5-11T17:6:31Z</time></trkpt>
<trkpt lat="45.91729696" lon="9.06467574"><ele></ele><time>2014-5-11T17:6:34Z</time></trkpt>
<trkpt lat="45.91738162" lon="9.06508838"><ele></ele><time>2014-5-11T17:6:37Z</time></trkpt>
<trkpt lat="45.91743216" lon="9.06541795"><ele></ele><time>2014-5-11T17:6:40Z</time></trkpt>
<trkpt lat="45.91744934" lon="9.06581375"><ele></ele><time>2014-5-11T17:6:43Z</time></trkpt>
<trkpt lat="45.91742923" lon="9.06611575"><ele></ele><time>2014-5-11T17:6:46Z</time></trkpt>
<trkpt lat="45.91735312" lon="9.06641775"><ele></ele><time>2014-5-11T17:6:49Z</time></trkpt>
<trkpt lat="45.91734390" lon="9.06645614"><ele></ele><time>2014-5-11T17:6:52Z</time></trkpt>
<trkpt lat="45.91722873" lon="9.06667113"><ele></ele><time>2014-5-11T17:6:55Z</time></trkpt>
<trkpt lat="45.91716218" lon="9.06654465"><ele></ele><time>2014-5-11T17:6:58Z</time></trkpt>
<trkpt lat="45.91721322" lon="9.06623318"><ele></ele><time>2014-5-11T17:7:1Z</time></trkpt>
<trkpt lat="45.91720367" lon="9.06594174"><ele></ele><time>2014-5-11T17:7:4Z</time></trkpt>
<trkpt lat="45.91712614" lon="9.06568266"><ele></ele><time>2014-5-11T17:7:7Z</time></trkpt>
<trkpt lat="45.91707844" lon="9.06546875"><ele></ele><time>2014-5-11T17:7:10Z</time></trkpt>
<trkpt lat="45.91704324" lon="9.06534436"><ele></ele><time>2014-5-11T17:7:13Z</time></trkpt>
<trkpt lat="45.91693888" lon="9.06509534"><ele></ele><time>2014-5-11T17:7:16Z</time></trkpt>
<trkpt lat="45.91683822" lon="9.06476257"><ele></ele><time>2014-5-11T17:7:19Z</time></trkpt>
<trkpt lat="45.91677208" lon="9.06447038"><ele></ele><time>2014-5-11T17:7:22Z</time></trkpt>
<trkpt lat="45.91680008" lon="9.06403008"><ele></ele><time>2014-5-11T17:7:25Z</time></trkpt>
<trkpt lat="45.91680067" lon="9.06374468"><ele></ele><time>2014-5-11T17:7:28Z</time></trkpt>
<trkpt lat="45.91679346" lon="9.06348517"><ele></ele><time>2014-5-11T17:7:31Z</time></trkpt>
<trkpt lat="45.91678784" lon="9.06304638"><ele></ele><time>2014-5-11T17:7:34Z</time></trkpt>
<trkpt lat="45.91678566" lon="9.06301428"><ele></ele><time>2014-5-11T17:7:37Z</time></trkpt>
<trkpt lat="45.91675004" lon="9.06292132"><ele></ele><time>2014-5-11T17:7:40Z</time></trkpt>
<trkpt lat="45.91661216" lon="9.06292434"><ele></ele><time>2014-5-11T17:7:43Z</time></trkpt>
<trkpt lat="45.91660470" lon="9.06316507"><ele></ele><time>2014-5-11T17:7:46Z</time></trkpt>
<trkpt lat="45.91660738" lon="9.06355047"><ele></ele><time>2014-5-11T17:7:49Z</time></trkpt>
<trkpt lat="45.91659338" lon="9.06393545"><ele></ele><time>2014-5-11T17:7:52Z</time></trkpt>
<trkpt lat="45.91653722" lon="9.06414047"><ele></ele><time>2014-5-11T17:7:55Z</time></trkpt>
<trkpt lat="45.91646329" lon="9.06416746"><ele></ele><time>2014-5-11T17:7:58Z</time></trkpt>
<trkpt lat="45.91640445" lon="9.06404668"><ele></ele><time>2014-5-11T17:8:1Z</time></trkpt>
<trkpt lat="45.91640655" lon="9.06403402"><ele></ele><time>2014-5-11T17:8:4Z</time></trkpt>
<trkpt lat="45.91645533" lon="9.06380972"><ele></ele><time>2014-5-11T17:8:7Z</time></trkpt>
<trkpt lat="45.91646757" lon="9.06354326"><ele></ele><time>2014-5-11T17:8:10Z</time></trkpt>
<trkpt lat="45.91647855" lon="9.06354074"><ele></ele><time>2014-5-11T17:8:13Z</time></trkpt>
<trkpt lat="45.91645625" lon="9.06348023"><ele></ele><time>2014-5-11T17:8:16Z</time></trkpt>
<trkpt lat="45.91645047" lon="9.06341678"><ele></ele><time>2014-5-11T17:8:19Z</time></trkpt>
<trkpt lat="45.91636992" lon="9.06313632"><ele></ele><time>2014-5-11T17:8:22Z</time></trkpt>
<trkpt lat="45.91623070" lon="9.06280456"><ele></ele><time>2014-5-11T17:8:25Z</time></trkpt>
<trkpt lat="45.91608502" lon="9.06237767"><ele></ele><time>2014-5-11T17:8:28Z</time></trkpt>
<trkpt lat="45.91601092" lon="9.06207567"><ele></ele><time>2014-5-11T17:8:31Z</time></trkpt>
<trkpt lat="45.91588989" lon="9.06170502"><ele></ele><time>2014-5-11T17:8:34Z</time></trkpt>
<trkpt lat="45.91580389" lon="9.06144678"><ele></ele><time>2014-5-11T17:8:37Z</time></trkpt>
<trkpt lat="45.91574748" lon="9.06108007"><ele></ele><time>2014-5-11T17:8:40Z</time></trkpt>
<trkpt lat="45.91570909" lon="9.06075703"><ele></ele><time>2014-5-11T17:8:43Z</time></trkpt>
<trkpt lat="45.91561136" lon="9.06067288"><ele></ele><time>2014-5-11T17:8:46Z</time></trkpt>
<trkpt lat="45.91549678" lon="9.06034648"><ele></ele><time>2014-5-11T17:8:49Z</time></trkpt>
<trkpt lat="45.91545545" lon="9.06026677"><ele></ele><time>2014-5-11T17:8:52Z</time></trkpt>
<trkpt lat="45.91536879" lon="9.06009603"><ele></ele><time>2014-5-11T17:8:55Z</time></trkpt>
<trkpt lat="45.91525437" lon="9.05955104"><ele></ele><time>2014-5-11T17:8:58Z</time></trkpt>
<trkpt lat="45.91518648" lon="9.05860900"><ele></ele><time>2014-5-11T17:9:1Z</time></trkpt>
<trkpt lat="45.91518355" lon="9.05855628"><ele></ele><time>2014-5-11T17:9:4Z</time></trkpt>
<trkpt lat="45.91520660" lon="9.05850733"><ele></ele><time>2014-5-11T17:9:7Z</time></trkpt>
<trkpt lat="45.91521439" lon="9.05851085"><ele></ele><time>2014-5-11T17:9:10Z</time></trkpt>
<trkpt lat="45.91522009" lon="9.05850230"><ele></ele><time>2014-5-11T17:9:13Z</time></trkpt>
<trkpt lat="45.91522914" lon="9.05852082"><ele></ele><time>2014-5-11T17:9:16Z</time></trkpt>
<trkpt lat="45.91523459" lon="9.05852216"><ele></ele><time>2014-5-11T17:9:19Z</time></trkpt>
<trkpt lat="45.91523560" lon="9.05842460"><ele></ele><time>2014-5-11T17:9:22Z</time></trkpt>
<trkpt lat="45.91523216" lon="9.05836743"><ele></ele><time>2014-5-11T17:9:25Z</time></trkpt>
<trkpt lat="45.91509713" lon="9.05840322"><ele></ele><time>2014-5-11T17:9:28Z</time></trkpt>
<trkpt lat="45.91508389" lon="9.05860825"><ele></ele><time>2014-5-11T17:9:31Z</time></trkpt>
<trkpt lat="45.91507140" lon="9.05893975"><ele></ele><time>2014-5-11T17:9:34Z</time></trkpt>
<trkpt lat="45.91503359" lon="9.05905802"><ele></ele><time>2014-5-11T17:9:37Z</time></trkpt>
<trkpt lat="45.91489093" lon="9.05873096"><ele></ele><time>2014-5-11T17:9:40Z</time></trkpt>
<trkpt lat="45.91465130" lon="9.05834204"><ele></ele><time>2014-5-11T17:9:43Z</time></trkpt>
<trkpt lat="45.91458759" lon="9.05827758"><ele></ele><time>2014-5-11T17:9:46Z</time></trkpt>
<trkpt lat="45.91430319" lon="9.05800886"><ele></ele><time>2014-5-11T17:9:49Z</time></trkpt>
<trkpt lat="45.91420814" lon="9.05790769"><ele></ele><time>2014-5-11T17:9:52Z</time></trkpt>
<trkpt lat="45.91415877" lon="9.05785052"><ele></ele><time>2014-5-11T17:9:55Z</time></trkpt>
<trkpt lat="45.91402500" lon="9.05764642"><ele></ele><time>2014-5-11T17:9:58Z</time></trkpt>
<trkpt lat="45.91378553" lon="9.05747443"><ele></ele><time>2014-5-11T17:10:1Z</time></trkpt>
<trkpt lat="45.91347624" lon="9.05730352"><ele></ele><time>2014-5-11T17:10:4Z</time></trkpt>
<trkpt lat="45.91335017" lon="9.05720520"><ele></ele><time>2014-5-11T17:10:7Z</time></trkpt>
<trkpt lat="45.91313467" lon="9.05698065"><ele></ele><time>2014-5-11T17:10:10Z</time></trkpt>
<trkpt lat="45.91298657" lon="9.05685173"><ele></ele><time>2014-5-11T17:10:13Z</time></trkpt>
<trkpt lat="45.91282086" lon="9.05672374"><ele></ele><time>2014-5-11T17:10:16Z</time></trkpt>
<trkpt lat="45.91264064" lon="9.05651327"><ele></ele><time>2014-5-11T17:10:19Z</time></trkpt>
<trkpt lat="45.91250695" lon="9.05642116"><ele></ele><time>2014-5-11T17:10:22Z</time></trkpt>
<trkpt lat="45.91233856" lon="9.05631378"><ele></ele><time>2014-5-11T17:10:25Z</time></trkpt>
<trkpt lat="45.91199188" lon="9.05614925"><ele></ele><time>2014-5-11T17:10:28Z</time></trkpt>
<trkpt lat="45.91187772" lon="9.05610717"><ele></ele><time>2014-5-11T17:10:31Z</time></trkpt>
<trkpt lat="45.91165200" lon="9.05609007"><ele></ele><time>2014-5-11T17:10:34Z</time></trkpt>
<trkpt lat="45.91163574" lon="9.05614028"><ele></ele><time>2014-5-11T17:10:37Z</time></trkpt>
<trkpt lat="45.91183078" lon="9.05614573"><ele></ele><time>2014-5-11T17:10:40Z</time></trkpt>
<trkpt lat="45.91207545" lon="9.05631395"><ele></ele><time>2014-5-11T17:10:43Z</time></trkpt>
<trkpt lat="45.91225089" lon="9.05645653"><ele></ele><time>2014-5-11T17:10:46Z</time></trkpt>
<trkpt lat="45.91235650" lon="9.05656775"><ele></ele><time>2014-5-11T17:10:49Z</time></trkpt>
<trkpt lat="45.91262103" lon="9.05695869"><ele></ele><time>2014-5-11T17:10:52Z</time></trkpt>
<trkpt lat="45.91276688" lon="9.05711928"><ele></ele><time>2014-5-11T17:10:55Z</time></trkpt>
<trkpt lat="45.91279663" lon="9.05716798"><ele></ele><time>2014-5-11T17:10:58Z</time></trkpt>
<trkpt lat="45.91282337" lon="9.05731710"><ele></ele><time>2014-5-11T17:11:1Z</time></trkpt>
<trkpt lat="45.91279948" lon="9.05735574"><ele></ele><time>2014-5-11T17:11:4Z</time></trkpt>
<trkpt lat="45.91272346" lon="9.05744819"><ele></ele><time>2014-5-11T17:11:7Z</time></trkpt>
<trkpt lat="45.91262287" lon="9.05757937"><ele></ele><time>2014-5-11T17:11:10Z</time></trkpt>
<trkpt lat="45.91251450" lon="9.05771440"><ele></ele><time>2014-5-11T17:11:13Z</time></trkpt>
<trkpt lat="45.91222079" lon="9.05798547"><ele></ele><time>2014-5-11T17:11:16Z</time></trkpt>
<trkpt lat="45.91215894" lon="9.05803752"><ele></ele><time>2014-5-11T17:11:19Z</time></trkpt>
<trkpt lat="45.91193816" lon="9.05827674"><ele></ele><time>2014-5-11T17:11:22Z</time></trkpt>
<trkpt lat="45.91189080" lon="9.05832854"><ele></ele><time>2014-5-11T17:11:25Z</time></trkpt>
<trkpt lat="45.91176566" lon="9.05850179"><ele></ele><time>2014-5-11T17:11:28Z</time></trkpt>
<trkpt lat="45.91162543" lon="9.05869206"><ele></ele><time>2014-5-11T17:11:31Z</time></trkpt>
<trkpt lat="45.91151286" lon="9.05890019"><ele></ele><time>2014-5-11T17:11:34Z</time></trkpt>
<trkpt lat="45.91149970" lon="9.05926866"><ele></ele><time>2014-5-11T17:11:37Z</time></trkpt>
<trkpt lat="45.91156273" lon="9.05959714"><ele></ele><time>2014-5-11T17:11:40Z</time></trkpt>
<trkpt lat="45.91163163" lon="9.05992496"><ele></ele><time>2014-5-11T17:11:43Z</time></trkpt>
<trkpt lat="45.91166365" lon="9.06004524"><ele></ele><time>2014-5-11T17:11:46Z</time></trkpt>
<trkpt lat="45.91177194" lon="9.06039803"><ele></ele><time>2014-5-11T17:11:49Z</time></trkpt>
<trkpt lat="45.91184738" lon="9.06073733"><ele></ele><time>2014-5-11T17:11:52Z</time></trkpt>
<trkpt lat="45.91188292" lon="9.06095845"><ele></ele><time>2014-5-11T17:11:55Z</time></trkpt>
<trkpt lat="45.91199608" lon="9.06122893"><ele></ele><time>2014-5-11T17:11:58Z</time></trkpt>
<trkpt lat="45.91201594" lon="9.06126472"><ele></ele><time>2014-5-11T17:12:1Z</time></trkpt>
<trkpt lat="45.91188770" lon="9.06105048"><ele></ele><time>2014-5-11T17:12:4Z</time></trkpt>
<trkpt lat="45.91184378" lon="9.06098125"><ele></ele><time>2014-5-11T17:12:7Z</time></trkpt>
<trkpt lat="45.91173925" lon="9.06083423"><ele></ele><time>2014-5-11T17:12:10Z</time></trkpt>
<trkpt lat="45.91163532" lon="9.06064362"><ele></ele><time>2014-5-11T17:12:13Z</time></trkpt>
<trkpt lat="45.91147212" lon="9.06037289"><ele></ele><time>2014-5-11T17:12:16Z</time></trkpt>
<trkpt lat="45.91127238" lon="9.06010618"><ele></ele><time>2014-5-11T17:12:19Z</time></trkpt>
<trkpt lat="45.91116124" lon="9.05993795"><ele></ele><time>2014-5-11T17:12:22Z</time></trkpt>
<trkpt lat="45.91094088" lon="9.05947686"><ele></ele><time>2014-5-11T17:12:25Z</time></trkpt>
<trkpt lat="45.91089528" lon="9.05940520"><ele></ele><time>2014-5-11T17:12:28Z</time></trkpt>
<trkpt lat="45.91077726" lon="9.05916807"><ele></ele><time>2014-5-11T17:12:31Z</time></trkpt>
<trkpt lat="45.91078020" lon="9.05858503"><ele></ele><time>2014-5-11T17:12:34Z</time></trkpt>
<trkpt lat="45.91087282" lon="9.05830348"><ele></ele><time>2014-5-11T17:12:37Z</time></trkpt>
<trkpt lat="45.91100014" lon="9.05792906"><ele></ele><time>2014-5-11T17:12:40Z</time></trkpt>
<trkpt lat="45.91106795" lon="9.05780844"><ele></ele><time>2014-5-11T17:12:43Z</time></trkpt>
<trkpt lat="45.91105797" lon="9.05779746"><ele></ele><time>2014-5-11T17:12:46Z</time></trkpt>
<trkpt lat="45.91087743" lon="9.05808044"><ele></ele><time>2014-5-11T17:12:49Z</time></trkpt>
<trkpt lat="45.91056897" lon="9.05857866"><ele></ele><time>2014-5-11T17:12:52Z</time></trkpt>
<trkpt lat="45.91045733" lon="9.05872056"><ele></ele><time>2014-5-11T17:12:55Z</time></trkpt>
<trkpt lat="45.91028256" lon="9.05910848"><ele></ele><time>2014-5-11T17:12:58Z</time></trkpt>
<trkpt lat="45.91027368" lon="9.05920420"><ele></ele><time>2014-5-11T17:13:1Z</time></trkpt>
<trkpt lat="45.91028516" lon="9.05961717"><ele></ele><time>2014-5-11T17:13:4Z</time></trkpt>
<trkpt lat="45.91037979" lon="9.06002353"><ele></ele><time>2014-5-11T17:13:7Z</time></trkpt>
<trkpt lat="45.91038264" lon="9.06009436"><ele></ele><time>2014-5-11T17:13:10Z</time></trkpt>
<trkpt lat="45.91027879" lon="9.05990249"><ele></ele><time>2014-5-11T17:13:13Z</time></trkpt>
<trkpt lat="45.91024845" lon="9.05981004"><ele></ele><time>2014-5-11T17:13:16Z</time></trkpt>
<trkpt lat="45.91015667" lon="9.05963017"><ele></ele><time>2014-5-11T17:13:19Z</time></trkpt>
<trkpt lat="45.91006103" lon="9.05933714"><ele></ele><time>2014-5-11T17:13:22Z</time></trkpt>
<trkpt lat="45.90999926" lon="9.05917117"><ele></ele><time>2014-5-11T17:13:25Z</time></trkpt>
<trkpt lat="45.90994653" lon="9.05893908"><ele></ele><time>2014-5-11T17:13:28Z</time></trkpt>
<trkpt lat="45.91008592" lon="9.05855644"><ele></ele><time>2014-5-11T17:13:31Z</time></trkpt>
<trkpt lat="45.91021325" lon="9.05834086"><ele></ele><time>2014-5-11T17:13:34Z</time></trkpt>
<trkpt lat="45.91029187" lon="9.05818018"><ele></ele><time>2014-5-11T17:13:37Z</time></trkpt>
<trkpt lat="45.91015222" lon="9.05820382"><ele></ele><time>2014-5-11T17:13:40Z</time></trkpt>
<trkpt lat="45.90995626" lon="9.05825746"><ele></ele><time>2014-5-11T17:13:43Z</time></trkpt>
<trkpt lat="45.90962559" lon="9.05837355"><ele></ele><time>2014-5-11T17:13:46Z</time></trkpt>
<trkpt lat="45.90935653" lon="9.05834195"><ele></ele><time>2014-5-11T17:13:49Z</time></trkpt>
<trkpt lat="45.90903626" lon="9.05783828"><ele></ele><time>2014-5-11T17:13:52Z</time></trkpt>
<trkpt lat="45.90888178" lon="9.05728374"><ele></ele><time>2014-5-11T17:13:55Z</time></trkpt>
<trkpt lat="45.90881003" lon="9.05686146"><ele></ele><time>2014-5-11T17:13:58Z</time></trkpt>
<trkpt lat="45.90880986" lon="9.05651252"><ele></ele><time>2014-5-11T17:14:1Z</time></trkpt>
<trkpt lat="45.90877592" lon="9.05640883"><ele></ele><time>2014-5-11T17:14:4Z</time></trkpt>
<trkpt lat="45.90868824" lon="9.05639777"><ele></ele><time>2014-5-11T17:14:7Z</time></trkpt>
<trkpt lat="45.90852236" lon="9.05621027"><ele></ele><time>2014-5-11T17:14:10Z</time></trkpt>
<trkpt lat="45.90837182" lon="9.05595009"><ele></ele><time>2014-5-11T17:14:13Z</time></trkpt>
<trkpt lat="45.90826395" lon="9.05570148"><ele></ele><time>2014-5-11T17:14:16Z</time></trkpt>
<trkpt lat="45.90815926" lon="9.05543754"><ele></ele><time>2014-5-11T17:14:19Z</time></trkpt>
<trkpt lat="45.90802632" lon="9.05509950"><ele></ele><time>2014-5-11T17:14:22Z</time></trkpt>
<trkpt lat="45.90787285" lon="9.05483555"><ele></ele><time>2014-5-11T17:14:25Z</time></trkpt>
<trkpt lat="45.90779255" lon="9.05473388"><ele></ele><time>2014-5-11T17:14:28Z</time></trkpt>
<trkpt lat="45.90768945" lon="9.05442945"><ele></ele><time>2014-5-11T17:14:31Z</time></trkpt>
<trkpt lat="45.90769507" lon="9.05409015"><ele></ele><time>2014-5-11T17:14:34Z</time></trkpt>
<trkpt lat="45.90761066" lon="9.05417455"><ele></ele><time>2014-5-11T17:14:37Z</time></trkpt>
<trkpt lat="45.90760957" lon="9.05437689"><ele></ele><time>2014-5-11T17:14:40Z</time></trkpt>
<trkpt lat="45.90758963" lon="9.05463958"><ele></ele><time>2014-5-11T17:14:43Z</time></trkpt>
<trkpt lat="45.90763162" lon="9.05488006"><ele></ele><time>2014-5-11T17:14:46Z</time></trkpt>
<trkpt lat="45.90779557" lon="9.05544165"><ele></ele><time>2014-5-11T17:14:49Z</time></trkpt>
<trkpt lat="45.90788953" lon="9.05594607"><ele></ele><time>2014-5-11T17:14:52Z</time></trkpt>
<trkpt lat="45.90793069" lon="9.05620482"><ele></ele><time>2014-5-11T17:14:55Z</time></trkpt>
<trkpt lat="45.90805340" lon="9.05706765"><ele></ele><time>2014-5-11T17:14:58Z</time></trkpt>
<trkpt lat="45.90821500" lon="9.05765665"><ele></ele><time>2014-5-11T17:15:1Z</time></trkpt>
<trkpt lat="45.90820896" lon="9.05787223"><ele></ele><time>2014-5-11T17:15:4Z</time></trkpt>
<trkpt lat="45.90807829" lon="9.05785144"><ele></ele><time>2014-5-11T17:15:7Z</time></trkpt>
<trkpt lat="45.90802155" lon="9.05776368"><ele></ele><time>2014-5-11T17:15:10Z</time></trkpt>
<trkpt lat="45.90779683" lon="9.05756889"><ele></ele><time>2014-5-11T17:15:13Z</time></trkpt>
<trkpt lat="45.90749172" lon="9.05742858"><ele></ele><time>2014-5-11T17:15:16Z</time></trkpt>
<trkpt lat="45.90745409" lon="9.05740058"><ele></ele><time>2014-5-11T17:15:19Z</time></trkpt>
<trkpt lat="45.90743523" lon="9.05715466"><ele></ele><time>2014-5-11T17:15:22Z</time></trkpt>
<trkpt lat="45.90738997" lon="9.05696640"><ele></ele><time>2014-5-11T17:15:25Z</time></trkpt>
<trkpt lat="45.90725242" lon="9.05666079"><ele></ele><time>2014-5-11T17:15:28Z</time></trkpt>
<trkpt lat="45.90719752" lon="9.05657094"><ele></ele><time>2014-5-11T17:15:31Z</time></trkpt>
<trkpt lat="45.90708805" lon="9.05641730"><ele></ele><time>2014-5-11T17:15:34Z</time></trkpt>
<trkpt lat="45.90703198" lon="9.05635192"><ele></ele><time>2014-5-11T17:15:37Z</time></trkpt>
<trkpt lat="45.90667239" lon="9.05620448"><ele></ele><time>2014-5-11T17:15:40Z</time></trkpt>
<trkpt lat="45.90665706" lon="9.05615604"><ele></ele><time>2014-5-11T17:15:43Z</time></trkpt>
<trkpt lat="45.90662118" lon="9.05600659"><ele></ele><time>2014-5-11T17:15:46Z</time></trkpt>
<trkpt lat="45.90633108" lon="9.05564876"><ele></ele><time>2014-5-11T17:15:49Z</time></trkpt>
<trkpt lat="45.90626654" lon="9.05561892"><ele></ele><time>2014-5-11T17:15:52Z</time></trkpt>
<trkpt lat="45.90605699" lon="9.05565346"><ele></ele><time>2014-5-11T17:15:55Z</time></trkpt>
<trkpt lat="45.90593445" lon="9.05565698"><ele></ele><time>2014-5-11T17:15:58Z</time></trkpt>
<trkpt lat="45.90599447" lon="9.05539563"><ele></ele><time>2014-5-11T17:16:1Z</time></trkpt>
<trkpt lat="45.90594443" lon="9.05502096"><ele></ele><time>2014-5-11T17:16:4Z</time></trkpt>
<trkpt lat="45.90564628" lon="9.05457295"><ele></ele><time>2014-5-11T17:16:7Z</time></trkpt>
<trkpt lat="45.90543422" lon="9.05435686"><ele></ele><time>2014-5-11T17:16:10Z</time></trkpt>
<trkpt lat="45.90536272" lon="9.05427556"><ele></ele><time>2014-5-11T17:16:13Z</time></trkpt>
<trkpt lat="45.90507095" lon="9.05402343"><ele></ele><time>2014-5-11T17:16:16Z</time></trkpt>
<trkpt lat="45.90492728" lon="9.05394447"><ele></ele><time>2014-5-11T17:16:19Z</time></trkpt>
<trkpt lat="45.90466904" lon="9.05386903"><ele></ele><time>2014-5-11T17:16:22Z</time></trkpt>
<trkpt lat="45.90455798" lon="9.05358396"><ele></ele><time>2014-5-11T17:16:25Z</time></trkpt>
<trkpt lat="45.90452646" lon="9.05341976"><ele></ele><time>2014-5-11T17:16:28Z</time></trkpt>
<trkpt lat="45.90432269" lon="9.05315246"><ele></ele><time>2014-5-11T17:16:31Z</time></trkpt>
<trkpt lat="45.90413268" lon="9.05304727"><ele></ele><time>2014-5-11T17:16:34Z</time></trkpt>
<trkpt lat="45.90401860" lon="9.05293764"><ele></ele><time>2014-5-11T17:16:37Z</time></trkpt>
<trkpt lat="45.90386840" lon="9.05276128"><ele></ele><time>2014-5-11T17:16:40Z</time></trkpt>
<trkpt lat="45.90348233" lon="9.05266623"><ele></ele><time>2014-5-11T17:16:43Z</time></trkpt>
<trkpt lat="45.90343229" lon="9.05248116"><ele></ele><time>2014-5-11T17:16:46Z</time></trkpt>
<trkpt lat="45.90319432" lon="9.05208444"><ele></ele><time>2014-5-11T17:16:49Z</time></trkpt>
<trkpt lat="45.90305644" lon="9.05196592"><ele></ele><time>2014-5-11T17:16:52Z</time></trkpt>
<trkpt lat="45.90291906" lon="9.05182309"><ele></ele><time>2014-5-11T17:16:55Z</time></trkpt>
<trkpt lat="45.90278319" lon="9.05165596"><ele></ele><time>2014-5-11T17:16:58Z</time></trkpt>
<trkpt lat="45.90251623" lon="9.05124072"><ele></ele><time>2014-5-11T17:17:1Z</time></trkpt>
<trkpt lat="45.90245093" lon="9.05113033"><ele></ele><time>2014-5-11T17:17:4Z</time></trkpt>
<trkpt lat="45.90230375" lon="9.05093780"><ele></ele><time>2014-5-11T17:17:7Z</time></trkpt>
<trkpt lat="45.90223200" lon="9.05085607"><ele></ele><time>2014-5-11T17:17:10Z</time></trkpt>
<trkpt lat="45.90177108" lon="9.05071224"><ele></ele><time>2014-5-11T17:17:13Z</time></trkpt>
<trkpt lat="45.90170268" lon="9.05076329"><ele></ele><time>2014-5-11T17:17:16Z</time></trkpt>
<trkpt lat="45.90145173" lon="9.05082766"><ele></ele><time>2014-5-11T17:17:19Z</time></trkpt>
<trkpt lat="45.90141686" lon="9.05077217"><ele></ele><time>2014-5-11T17:17:22Z</time></trkpt>
<trkpt lat="45.90122106" lon="9.05049037"><ele></ele><time>2014-5-11T17:17:25Z</time></trkpt>
<trkpt lat="45.90093984" lon="9.05036582"><ele></ele><time>2014-5-11T17:17:28Z</time></trkpt>
<trkpt lat="45.90074505" lon="9.05032558"><ele></ele><time>2014-5-11T17:17:31Z</time></trkpt>
<trkpt lat="45.90040365" lon="9.05011696"><ele></ele><time>2014-5-11T17:17:34Z</time></trkpt>
<trkpt lat="45.90024314" lon="9.05001017"><ele></ele><time>2014-5-11T17:17:37Z</time></trkpt>
<trkpt lat="45.90001876" lon="9.04988562"><ele></ele><time>2014-5-11T17:17:40Z</time></trkpt>
<trkpt lat="45.89988079" lon="9.04979635"><ele></ele><time>2014-5-11T17:17:43Z</time></trkpt>
<trkpt lat="45.89960637" lon="9.04944054"><ele></ele><time>2014-5-11T17:17:46Z</time></trkpt>
<trkpt lat="45.89945608" lon="9.04929964"><ele></ele><time>2014-5-11T17:17:49Z</time></trkpt>
<trkpt lat="45.89919884" lon="9.04892497"><ele></ele><time>2014-5-11T17:17:52Z</time></trkpt>
<trkpt lat="45.89911787" lon="9.04870000"><ele></ele><time>2014-5-11T17:17:55Z</time></trkpt>
<trkpt lat="45.89899792" lon="9.04827495"><ele></ele><time>2014-5-11T17:17:58Z</time></trkpt>
<trkpt lat="45.89895459" lon="9.04808594"><ele></ele><time>2014-5-11T17:18:1Z</time></trkpt>
<trkpt lat="45.89893925" lon="9.04799349"><ele></ele><time>2014-5-11T17:18:4Z</time></trkpt>
<trkpt lat="45.89889742" lon="9.04771345"><ele></ele><time>2014-5-11T17:18:7Z</time></trkpt>
<trkpt lat="45.89872492" lon="9.04734230"><ele></ele><time>2014-5-11T17:18:10Z</time></trkpt>
<trkpt lat="45.89861755" lon="9.04716846"><ele></ele><time>2014-5-11T17:18:13Z</time></trkpt>
<trkpt lat="45.89852803" lon="9.04703493"><ele></ele><time>2014-5-11T17:18:16Z</time></trkpt>
<trkpt lat="45.89840029" lon="9.04665037"><ele></ele><time>2014-5-11T17:18:19Z</time></trkpt>
<trkpt lat="45.89830105" lon="9.04647863"><ele></ele><time>2014-5-11T17:18:22Z</time></trkpt>
<trkpt lat="45.89807357" lon="9.04621988"><ele></ele><time>2014-5-11T17:18:25Z</time></trkpt>
<trkpt lat="45.89794876" lon="9.04615374"><ele></ele><time>2014-5-11T17:18:28Z</time></trkpt>
<trkpt lat="45.89772052" lon="9.04608510"><ele></ele><time>2014-5-11T17:18:31Z</time></trkpt>
<trkpt lat="45.89739807" lon="9.04606305"><ele></ele><time>2014-5-11T17:18:34Z</time></trkpt>
<trkpt lat="45.89728726" lon="9.04590136"><ele></ele><time>2014-5-11T17:18:37Z</time></trkpt>
<trkpt lat="45.89756487" lon="9.04576097"><ele></ele><time>2014-5-11T17:18:40Z</time></trkpt>
<trkpt lat="45.89778523" lon="9.04556726"><ele></ele><time>2014-5-11T17:18:43Z</time></trkpt>
<trkpt lat="45.89796879" lon="9.04544673"><ele></ele><time>2014-5-11T17:18:46Z</time></trkpt>
<trkpt lat="45.89815864" lon="9.04532813"><ele></ele><time>2014-5-11T17:18:49Z</time></trkpt>
<trkpt lat="45.89822813" lon="9.04529074"><ele></ele><time>2014-5-11T17:18:52Z</time></trkpt>
<trkpt lat="45.89855729" lon="9.04538537"><ele></ele><time>2014-5-11T17:18:55Z</time></trkpt>
<trkpt lat="45.89878427" lon="9.04555938"><ele></ele><time>2014-5-11T17:18:58Z</time></trkpt>
<trkpt lat="45.89899549" lon="9.04566198"><ele></ele><time>2014-5-11T17:19:1Z</time></trkpt>
<trkpt lat="45.89903665" lon="9.04552233"><ele></ele><time>2014-5-11T17:19:4Z</time></trkpt>
<trkpt lat="45.89870875" lon="9.04520508"><ele></ele><time>2014-5-11T17:19:7Z</time></trkpt>
<trkpt lat="45.89853222" lon="9.04484399"><ele></ele><time>2014-5-11T17:19:10Z</time></trkpt>
<trkpt lat="45.89849409" lon="9.04471172"><ele></ele><time>2014-5-11T17:19:13Z</time></trkpt>
<trkpt lat="45.89829309" lon="9.04421409"><ele></ele><time>2014-5-11T17:19:16Z</time></trkpt>
<trkpt lat="45.89807726" lon="9.04393774"><ele></ele><time>2014-5-11T17:19:19Z</time></trkpt>
<trkpt lat="45.89793979" lon="9.04392625"><ele></ele><time>2014-5-11T17:19:22Z</time></trkpt>
<trkpt lat="45.89783183" lon="9.04400890"><ele></ele><time>2014-5-11T17:19:25Z</time></trkpt>
<trkpt lat="45.89789352" lon="9.04382056"><ele></ele><time>2014-5-11T17:19:28Z</time></trkpt>
<trkpt lat="45.89800777" lon="9.04364328"><ele></ele><time>2014-5-11T17:19:31Z</time></trkpt>
<trkpt lat="45.89831287" lon="9.04331303"><ele></ele><time>2014-5-11T17:19:34Z</time></trkpt>
<trkpt lat="45.89865787" lon="9.04342275"><ele></ele><time>2014-5-11T17:19:37Z</time></trkpt>
<trkpt lat="45.89877849" lon="9.04375685"><ele></ele><time>2014-5-11T17:19:40Z</time></trkpt>
<trkpt lat="45.89881084" lon="9.04384109"><ele></ele><time>2014-5-11T17:19:43Z</time></trkpt>
<trkpt lat="45.89884805" lon="9.04388292"><ele></ele><time>2014-5-11T17:19:46Z</time></trkpt>
<trkpt lat="45.89870674" lon="9.04351428"><ele></ele><time>2014-5-11T17:19:49Z</time></trkpt>
<trkpt lat="45.89859953" lon="9.04310558"><ele></ele><time>2014-5-11T17:19:52Z</time></trkpt>
<trkpt lat="45.89848059" lon="9.04283543"><ele></ele><time>2014-5-11T17:19:55Z</time></trkpt>
<trkpt lat="45.89846844" lon="9.04251114"><ele></ele><time>2014-5-11T17:19:58Z</time></trkpt>
<trkpt lat="45.89847674" lon="9.04230544"><ele></ele><time>2014-5-11T17:20:1Z</time></trkpt>
<trkpt lat="45.89844656" lon="9.04223856"><ele></ele><time>2014-5-11T17:20:4Z</time></trkpt>
<trkpt lat="45.89833089" lon="9.04212783"><ele></ele><time>2014-5-11T17:20:7Z</time></trkpt>
<trkpt lat="45.89808773" lon="9.04208642"><ele></ele><time>2014-5-11T17:20:10Z</time></trkpt>
<trkpt lat="45.89783745" lon="9.04223965"><ele></ele><time>2014-5-11T17:20:13Z</time></trkpt>
<trkpt lat="45.89765606" lon="9.04237526"><ele></ele><time>2014-5-11T17:20:16Z</time></trkpt>
<trkpt lat="45.89741190" lon="9.04247493"><ele></ele><time>2014-5-11T17:20:19Z</time></trkpt>
<trkpt lat="45.89729849" lon="9.04250066"><ele></ele><time>2014-5-11T17:20:22Z</time></trkpt>
<trkpt lat="45.89718978" lon="9.04247015"><ele></ele><time>2014-5-11T17:20:25Z</time></trkpt>
<trkpt lat="45.89717595" lon="9.04222732"><ele></ele><time>2014-5-11T17:20:28Z</time></trkpt>
<trkpt lat="45.89716354" lon="9.04170362"><ele></ele><time>2014-5-11T17:20:31Z</time></trkpt>
<trkpt lat="45.89695592" lon="9.04164847"><ele></ele><time>2014-5-11T17:20:34Z</time></trkpt>
<trkpt lat="45.89676817" lon="9.04180253"><ele></ele><time>2014-5-11T17:20:37Z</time></trkpt>
<trkpt lat="45.89662895" lon="9.04175743"><ele></ele><time>2014-5-11T17:20:40Z</time></trkpt>
<trkpt lat="45.89660799" lon="9.04174956"><ele></ele><time>2014-5-11T17:20:43Z</time></trkpt>
<trkpt lat="45.89644790" lon="9.04153724"><ele></ele><time>2014-5-11T17:20:46Z</time></trkpt>
<trkpt lat="45.89633625" lon="9.04123507"><ele></ele><time>2014-5-11T17:20:49Z</time></trkpt>
<trkpt lat="45.89612444" lon="9.04119333"><ele></ele><time>2014-5-11T17:20:52Z</time></trkpt>
<trkpt lat="45.89594892" lon="9.04119476"><ele></ele><time>2014-5-11T17:20:55Z</time></trkpt>
<trkpt lat="45.89581288" lon="9.04117942"><ele></ele><time>2014-5-11T17:20:58Z</time></trkpt>
<trkpt lat="45.89563108" lon="9.04111806"><ele></ele><time>2014-5-11T17:21:1Z</time></trkpt>
<trkpt lat="45.89547006" lon="9.04109543"><ele></ele><time>2014-5-11T17:21:4Z</time></trkpt>
<trkpt lat="45.89520872" lon="9.04100482"><ele></ele><time>2014-5-11T17:21:7Z</time></trkpt>
<trkpt lat="45.89511593" lon="9.04093198"><ele></ele><time>2014-5-11T17:21:10Z</time></trkpt>
<trkpt lat="45.89515298" lon="9.04091388"><ele></ele><time>2014-5-11T17:21:13Z</time></trkpt>
<trkpt lat="45.89539790" lon="9.04084708"><ele></ele><time>2014-5-11T17:21:16Z</time></trkpt>
<trkpt lat="45.89555179" lon="9.04077876"><ele></ele><time>2014-5-11T17:21:19Z</time></trkpt>
<trkpt lat="45.89575497" lon="9.04071867"><ele></ele><time>2014-5-11T17:21:22Z</time></trkpt>
<trkpt lat="45.89577927" lon="9.04070643"><ele></ele><time>2014-5-11T17:21:25Z</time></trkpt>
<trkpt lat="45.89591682" lon="9.04048095"><ele></ele><time>2014-5-11T17:21:28Z</time></trkpt>
<trkpt lat="45.89594289" lon="9.04029714"><ele></ele><time>2014-5-11T17:21:31Z</time></trkpt>
<trkpt lat="45.89595253" lon="9.04019656"><ele></ele><time>2014-5-11T17:21:34Z</time></trkpt>
<trkpt lat="45.89600718" lon="9.04008868"><ele></ele><time>2014-5-11T17:21:37Z</time></trkpt>
<trkpt lat="45.89607054" lon="9.04011358"><ele></ele><time>2014-5-11T17:21:40Z</time></trkpt>
<trkpt lat="45.89616677" lon="9.04019924"><ele></ele><time>2014-5-11T17:21:43Z</time></trkpt>
<trkpt lat="45.89620868" lon="9.04027945"><ele></ele><time>2014-5-11T17:21:46Z</time></trkpt>
<trkpt lat="45.89628026" lon="9.04041239"><ele></ele><time>2014-5-11T17:21:49Z</time></trkpt>
<trkpt lat="45.89644547" lon="9.04051783"><ele></ele><time>2014-5-11T17:21:52Z</time></trkpt>
<trkpt lat="45.89646776" lon="9.04053879"><ele></ele><time>2014-5-11T17:21:55Z</time></trkpt>
<trkpt lat="45.89651772" lon="9.04057039"><ele></ele><time>2014-5-11T17:21:58Z</time></trkpt>
<trkpt lat="45.89658905" lon="9.04059646"><ele></ele><time>2014-5-11T17:22:1Z</time></trkpt>
<trkpt lat="45.89674495" lon="9.04062152"><ele></ele><time>2014-5-11T17:22:4Z</time></trkpt>
<trkpt lat="45.89689968" lon="9.04059964"><ele></ele><time>2014-5-11T17:22:7Z</time></trkpt>
<trkpt lat="45.89697353" lon="9.04055983"><ele></ele><time>2014-5-11T17:22:10Z</time></trkpt>
<trkpt lat="45.89704645" lon="9.04052270"><ele></ele><time>2014-5-11T17:22:13Z</time></trkpt>
<trkpt lat="45.89715047" lon="9.04034726"><ele></ele><time>2014-5-11T17:22:16Z</time></trkpt>
<trkpt lat="45.89720537" lon="9.04035606"><ele></ele><time>2014-5-11T17:22:19Z</time></trkpt>
<trkpt lat="45.89729388" lon="9.04039546"><ele></ele><time>2014-5-11T17:22:22Z</time></trkpt>
<trkpt lat="45.89741576" lon="9.04052270"><ele></ele><time>2014-5-11T17:22:25Z</time></trkpt>
<trkpt lat="45.89748792" lon="9.04057064"><ele></ele><time>2014-5-11T17:22:28Z</time></trkpt>
<trkpt lat="45.89750217" lon="9.04059562"><ele></ele><time>2014-5-11T17:22:31Z</time></trkpt>
<trkpt lat="45.89769512" lon="9.04055773"><ele></ele><time>2014-5-11T17:22:34Z</time></trkpt>
<trkpt lat="45.89790232" lon="9.04038456"><ele></ele><time>2014-5-11T17:22:37Z</time></trkpt>
<trkpt lat="45.89801146" lon="9.04023235"><ele></ele><time>2014-5-11T17:22:40Z</time></trkpt>
<trkpt lat="45.89803359" lon="9.04020033"><ele></ele><time>2014-5-11T17:22:43Z</time></trkpt>
<trkpt lat="45.89803266" lon="9.04017292"><ele></ele><time>2014-5-11T17:22:46Z</time></trkpt>
<trkpt lat="45.89793577" lon="9.04029597"><ele></ele><time>2014-5-11T17:22:49Z</time></trkpt>
<trkpt lat="45.89783644" lon="9.04036730"><ele></ele><time>2014-5-11T17:22:52Z</time></trkpt>
<trkpt lat="45.89773645" lon="9.04038758"><ele></ele><time>2014-5-11T17:22:55Z</time></trkpt>
<trkpt lat="45.89754718" lon="9.04037442"><ele></ele><time>2014-5-11T17:22:58Z</time></trkpt>
<trkpt lat="45.89752195" lon="9.04035648"><ele></ele><time>2014-5-11T17:23:1Z</time></trkpt>
<trkpt lat="45.89747116" lon="9.04029664"><ele></ele><time>2014-5-11T17:23:4Z</time></trkpt>
<trkpt lat="45.89742816" lon="9.04023629"><ele></ele><time>2014-5-11T17:23:7Z</time></trkpt>
<trkpt lat="45.89737368" lon="9.04020846"><ele></ele><time>2014-5-11T17:23:10Z</time></trkpt>
<trkpt lat="45.89730486" lon="9.04005096"><ele></ele><time>2014-5-11T17:23:13Z</time></trkpt>
<trkpt lat="45.89723948" lon="9.03997645"><ele></ele><time>2014-5-11T17:23:16Z</time></trkpt>
<trkpt lat="45.89722557" lon="9.03998257"><ele></ele><time>2014-5-11T17:23:19Z</time></trkpt>
<trkpt lat="45.89709540" lon="9.04001593"><ele></ele><time>2014-5-11T17:23:22Z</time></trkpt>
<trkpt lat="45.89697202" lon="9.03999992"><ele></ele><time>2014-5-11T17:23:25Z</time></trkpt>
<trkpt lat="45.89683129" lon="9.03994476"><ele></ele><time>2014-5-11T17:23:28Z</time></trkpt>
<trkpt lat="45.89665367" lon="9.03982876"><ele></ele><time>2014-5-11T17:23:31Z</time></trkpt>
<trkpt lat="45.89659156" lon="9.03978785"><ele></ele><time>2014-5-11T17:23:34Z</time></trkpt>
<trkpt lat="45.89657052" lon="9.03971627"><ele></ele><time>2014-5-11T17:23:37Z</time></trkpt>
<trkpt lat="45.89653549" lon="9.03958174"><ele></ele><time>2014-5-11T17:23:40Z</time></trkpt>
<trkpt lat="45.89646416" lon="9.03946750"><ele></ele><time>2014-5-11T17:23:43Z</time></trkpt>
<trkpt lat="45.89641906" lon="9.03941117"><ele></ele><time>2014-5-11T17:23:46Z</time></trkpt>
<trkpt lat="45.89636165" lon="9.03926206"><ele></ele><time>2014-5-11T17:23:49Z</time></trkpt>
<trkpt lat="45.89629954" lon="9.03899342"><ele></ele><time>2014-5-11T17:23:52Z</time></trkpt>
<trkpt lat="45.89628546" lon="9.03892435"><ele></ele><time>2014-5-11T17:23:55Z</time></trkpt>
<trkpt lat="45.89625067" lon="9.03892687"><ele></ele><time>2014-5-11T17:23:58Z</time></trkpt>
<trkpt lat="45.89605194" lon="9.03889468"><ele></ele><time>2014-5-11T17:24:1Z</time></trkpt>
<trkpt lat="45.89604674" lon="9.03887398"><ele></ele><time>2014-5-11T17:24:4Z</time></trkpt>
<trkpt lat="45.89592436" lon="9.03878747"><ele></ele><time>2014-5-11T17:24:7Z</time></trkpt>
<trkpt lat="45.89587659" lon="9.03870986"><ele></ele><time>2014-5-11T17:24:10Z</time></trkpt>
<trkpt lat="45.89581188" lon="9.03865412"><ele></ele><time>2014-5-11T17:24:13Z</time></trkpt>
<trkpt lat="45.89581355" lon="9.03865772"><ele></ele><time>2014-5-11T17:24:16Z</time></trkpt>
<trkpt lat="45.89585203" lon="9.03873945"><ele></ele><time>2014-5-11T17:24:19Z</time></trkpt>
<trkpt lat="45.89585186" lon="9.03887775"><ele></ele><time>2014-5-11T17:24:22Z</time></trkpt>
<trkpt lat="45.89578078" lon="9.03899895"><ele></ele><time>2014-5-11T17:24:25Z</time></trkpt>
<trkpt lat="45.89566218" lon="9.03911663"><ele></ele><time>2014-5-11T17:24:28Z</time></trkpt>
<trkpt lat="45.89557526" lon="9.03920825"><ele></ele><time>2014-5-11T17:24:31Z</time></trkpt>
<trkpt lat="45.89550787" lon="9.03920422"><ele></ele><time>2014-5-11T17:24:34Z</time></trkpt>
<trkpt lat="45.89540192" lon="9.03917246"><ele></ele><time>2014-5-11T17:24:37Z</time></trkpt>
<trkpt lat="45.89536068" lon="9.03914773"><ele></ele><time>2014-5-11T17:24:40Z</time></trkpt>
<trkpt lat="45.89512196" lon="9.03902208"><ele></ele><time>2014-5-11T17:24:43Z</time></trkpt>
<trkpt lat="45.89494980" lon="9.03887607"><ele></ele><time>2014-5-11T17:24:46Z</time></trkpt>
<trkpt lat="45.89485802" lon="9.03881648"><ele></ele><time>2014-5-11T17:24:49Z</time></trkpt>
<trkpt lat="45.89481418" lon="9.03877717"><ele></ele><time>2014-5-11T17:24:52Z</time></trkpt>
<trkpt lat="45.89461528" lon="9.03862587"><ele></ele><time>2014-5-11T17:24:55Z</time></trkpt>
<trkpt lat="45.89445745" lon="9.03840953"><ele></ele><time>2014-5-11T17:24:58Z</time></trkpt>
<trkpt lat="45.89439408" lon="9.03835153"><ele></ele><time>2014-5-11T17:25:1Z</time></trkpt>
<trkpt lat="45.89434815" lon="9.03828045"><ele></ele><time>2014-5-11T17:25:4Z</time></trkpt>
<trkpt lat="45.89429618" lon="9.03825405"><ele></ele><time>2014-5-11T17:25:7Z</time></trkpt>
<trkpt lat="45.89425310" lon="9.03800284"><ele></ele><time>2014-5-11T17:25:10Z</time></trkpt>
<trkpt lat="45.89419702" lon="9.03791433"><ele></ele><time>2014-5-11T17:25:13Z</time></trkpt>
<trkpt lat="45.89417347" lon="9.03781408"><ele></ele><time>2014-5-11T17:25:16Z</time></trkpt>
<trkpt lat="45.89414430" lon="9.03761107"><ele></ele><time>2014-5-11T17:25:19Z</time></trkpt>
<trkpt lat="45.89413072" lon="9.03754192"><ele></ele><time>2014-5-11T17:25:22Z</time></trkpt>
<trkpt lat="45.89400927" lon="9.03749985"><ele></ele><time>2014-5-11T17:25:25Z</time></trkpt>
<trkpt lat="45.89384180" lon="9.03751552"><ele></ele><time>2014-5-11T17:25:28Z</time></trkpt>
<trkpt lat="45.89381355" lon="9.03749440"><ele></ele><time>2014-5-11T17:25:31Z</time></trkpt>
<trkpt lat="45.89365136" lon="9.03732349"><ele></ele><time>2014-5-11T17:25:34Z</time></trkpt>
<trkpt lat="45.89360484" lon="9.03706633"><ele></ele><time>2014-5-11T17:25:37Z</time></trkpt>
<trkpt lat="45.89356427" lon="9.03683223"><ele></ele><time>2014-5-11T17:25:40Z</time></trkpt>
<trkpt lat="45.89355547" lon="9.03672393"><ele></ele><time>2014-5-11T17:25:43Z</time></trkpt>
<trkpt lat="45.89338817" lon="9.03660583"><ele></ele><time>2014-5-11T17:25:46Z</time></trkpt>
<trkpt lat="45.89334450" lon="9.03656929"><ele></ele><time>2014-5-11T17:25:49Z</time></trkpt>
<trkpt lat="45.89325707" lon="9.03638396"><ele></ele><time>2014-5-11T17:25:52Z</time></trkpt>
<trkpt lat="45.89320762" lon="9.03622932"><ele></ele><time>2014-5-11T17:25:55Z</time></trkpt>
<trkpt lat="45.89308038" lon="9.03596738"><ele></ele><time>2014-5-11T17:25:58Z</time></trkpt>
<trkpt lat="45.89287863" lon="9.03593796"><ele></ele><time>2014-5-11T17:26:1Z</time></trkpt>
<trkpt lat="45.89273790" lon="9.03567930"><ele></ele><time>2014-5-11T17:26:4Z</time></trkpt>
<trkpt lat="45.89273220" lon="9.03541703"><ele></ele><time>2014-5-11T17:26:7Z</time></trkpt>
<trkpt lat="45.89280277" lon="9.03515308"><ele></ele><time>2014-5-11T17:26:10Z</time></trkpt>
<trkpt lat="45.89286363" lon="9.03493792"><ele></ele><time>2014-5-11T17:26:13Z</time></trkpt>
<trkpt lat="45.89293278" lon="9.03479995"><ele></ele><time>2014-5-11T17:26:16Z</time></trkpt>
<trkpt lat="45.89292624" lon="9.03476584"><ele></ele><time>2014-5-11T17:26:19Z</time></trkpt>
<trkpt lat="45.89291367" lon="9.03476190"><ele></ele><time>2014-5-11T17:26:22Z</time></trkpt>
<trkpt lat="45.89283379" lon="9.03472938"><ele></ele><time>2014-5-11T17:26:25Z</time></trkpt>
<trkpt lat="45.89264059" lon="9.03452955"><ele></ele><time>2014-5-11T17:26:28Z</time></trkpt>
<trkpt lat="45.89260840" lon="9.03442495"><ele></ele><time>2014-5-11T17:26:31Z</time></trkpt>
<trkpt lat="45.89252818" lon="9.03430559"><ele></ele><time>2014-5-11T17:26:34Z</time></trkpt>
<trkpt lat="45.89248636" lon="9.03433769"><ele></ele><time>2014-5-11T17:26:37Z</time></trkpt>
<trkpt lat="45.89239248" lon="9.03438563"><ele></ele><time>2014-5-11T17:26:40Z</time></trkpt>
<trkpt lat="45.89224597" lon="9.03446459"><ele></ele><time>2014-5-11T17:26:43Z</time></trkpt>
<trkpt lat="45.89205846" lon="9.03447457"><ele></ele><time>2014-5-11T17:26:46Z</time></trkpt>
<trkpt lat="45.89190918" lon="9.03445755"><ele></ele><time>2014-5-11T17:26:49Z</time></trkpt>
<trkpt lat="45.89181757" lon="9.03441036"><ele></ele><time>2014-5-11T17:26:52Z</time></trkpt>
<trkpt lat="45.89173257" lon="9.03435705"><ele></ele><time>2014-5-11T17:26:55Z</time></trkpt>
<trkpt lat="45.89167960" lon="9.03422445"><ele></ele><time>2014-5-11T17:26:58Z</time></trkpt>
<trkpt lat="45.89168362" lon="9.03410233"><ele></ele><time>2014-5-11T17:27:1Z</time></trkpt>
<trkpt lat="45.89169268" lon="9.03388163"><ele></ele><time>2014-5-11T17:27:4Z</time></trkpt>
<trkpt lat="45.89170952" lon="9.03367099"><ele></ele><time>2014-5-11T17:27:7Z</time></trkpt>
<trkpt lat="45.89173199" lon="9.03343957"><ele></ele><time>2014-5-11T17:27:10Z</time></trkpt>
<trkpt lat="45.89172830" lon="9.03341082"><ele></ele><time>2014-5-11T17:27:13Z</time></trkpt>
<trkpt lat="45.89171514" lon="9.03322055"><ele></ele><time>2014-5-11T17:27:16Z</time></trkpt>
<trkpt lat="45.89170625" lon="9.03301503"><ele></ele><time>2014-5-11T17:27:19Z</time></trkpt>
<trkpt lat="45.89170558" lon="9.03274513"><ele></ele><time>2014-5-11T17:27:22Z</time></trkpt>
<trkpt lat="45.89169645" lon="9.03276357"><ele></ele><time>2014-5-11T17:27:25Z</time></trkpt>
<trkpt lat="45.89168002" lon="9.03282819"><ele></ele><time>2014-5-11T17:27:28Z</time></trkpt>
<trkpt lat="45.89166200" lon="9.03295208"><ele></ele><time>2014-5-11T17:27:31Z</time></trkpt>
<trkpt lat="45.89166485" lon="9.03301880"><ele></ele><time>2014-5-11T17:27:34Z</time></trkpt>
<trkpt lat="45.89177314" lon="9.03333656"><ele></ele><time>2014-5-11T17:27:37Z</time></trkpt>
<trkpt lat="45.89191974" lon="9.03368742"><ele></ele><time>2014-5-11T17:27:40Z</time></trkpt>
<trkpt lat="45.89210666" lon="9.03375624"><ele></ele><time>2014-5-11T17:27:43Z</time></trkpt>
<trkpt lat="45.89218209" lon="9.03374383"><ele></ele><time>2014-5-11T17:27:46Z</time></trkpt>
<trkpt lat="45.89220104" lon="9.03373914"><ele></ele><time>2014-5-11T17:27:49Z</time></trkpt>
<trkpt lat="45.89231654" lon="9.03367426"><ele></ele><time>2014-5-11T17:27:52Z</time></trkpt>
<trkpt lat="45.89246104" lon="9.03362297"><ele></ele><time>2014-5-11T17:27:55Z</time></trkpt>
<trkpt lat="45.89264017" lon="9.03355557"><ele></ele><time>2014-5-11T17:27:58Z</time></trkpt>
<trkpt lat="45.89273077" lon="9.03353445"><ele></ele><time>2014-5-11T17:28:1Z</time></trkpt>
<trkpt lat="45.89287033" lon="9.03370226"><ele></ele><time>2014-5-11T17:28:4Z</time></trkpt>
<trkpt lat="45.89299019" lon="9.03382606"><ele></ele><time>2014-5-11T17:28:7Z</time></trkpt>
<trkpt lat="45.89313914" lon="9.03379513"><ele></ele><time>2014-5-11T17:28:10Z</time></trkpt>
<trkpt lat="45.89324945" lon="9.03382329"><ele></ele><time>2014-5-11T17:28:13Z</time></trkpt>
<trkpt lat="45.89333913" lon="9.03389219"><ele></ele><time>2014-5-11T17:28:16Z</time></trkpt>
<trkpt lat="45.89346327" lon="9.03397383"><ele></ele><time>2014-5-11T17:28:19Z</time></trkpt>
<trkpt lat="45.89361037" lon="9.03395162"><ele></ele><time>2014-5-11T17:28:22Z</time></trkpt>
<trkpt lat="45.89371238" lon="9.03402354"><ele></ele><time>2014-5-11T17:28:25Z</time></trkpt>
<trkpt lat="45.89375395" lon="9.03412647"><ele></ele><time>2014-5-11T17:28:28Z</time></trkpt>
<trkpt lat="45.89374440" lon="9.03414340"><ele></ele><time>2014-5-11T17:28:31Z</time></trkpt>
<trkpt lat="45.89378002" lon="9.03427474"><ele></ele><time>2014-5-11T17:28:34Z</time></trkpt>
<trkpt lat="45.89383584" lon="9.03445194"><ele></ele><time>2014-5-11T17:28:37Z</time></trkpt>
<trkpt lat="45.89385336" lon="9.03463625"><ele></ele><time>2014-5-11T17:28:40Z</time></trkpt>
<trkpt lat="45.89389443" lon="9.03481915"><ele></ele><time>2014-5-11T17:28:43Z</time></trkpt>
<trkpt lat="45.89405252" lon="9.03503942"><ele></ele><time>2014-5-11T17:28:46Z</time></trkpt>
<trkpt lat="45.89420079" lon="9.03523137"><ele></ele><time>2014-5-11T17:28:49Z</time></trkpt>
<trkpt lat="45.89423667" lon="9.03531443"><ele></ele><time>2014-5-11T17:28:52Z</time></trkpt>
<trkpt lat="45.89436558" lon="9.03547193"><ele></ele><time>2014-5-11T17:28:55Z</time></trkpt>
<trkpt lat="45.89446122" lon="9.03555147"><ele></ele><time>2014-5-11T17:28:58Z</time></trkpt>
<trkpt lat="45.89463028" lon="9.03568659"><ele></ele><time>2014-5-11T17:29:1Z</time></trkpt>
<trkpt lat="45.89475727" lon="9.03576362"><ele></ele><time>2014-5-11T17:29:4Z</time></trkpt>
<trkpt lat="45.89485634" lon="9.03586588"><ele></ele><time>2014-5-11T17:29:7Z</time></trkpt>
<trkpt lat="45.89499196" lon="9.03595246"><ele></ele><time>2014-5-11T17:29:10Z</time></trkpt>
<trkpt lat="45.89513680" lon="9.03603176"><ele></ele><time>2014-5-11T17:29:13Z</time></trkpt>
<trkpt lat="45.89525892" lon="9.03604877"><ele></ele><time>2014-5-11T17:29:16Z</time></trkpt>
<trkpt lat="45.89533788" lon="9.03604047"><ele></ele><time>2014-5-11T17:29:19Z</time></trkpt>
<trkpt lat="45.89545548" lon="9.03590142"><ele></ele><time>2014-5-11T17:29:22Z</time></trkpt>
<trkpt lat="45.89555640" lon="9.03582808"><ele></ele><time>2014-5-11T17:29:25Z</time></trkpt>
<trkpt lat="45.89571884" lon="9.03565952"><ele></ele><time>2014-5-11T17:29:28Z</time></trkpt>
<trkpt lat="45.89582462" lon="9.03555399"><ele></ele><time>2014-5-11T17:29:31Z</time></trkpt>
<trkpt lat="45.89597105" lon="9.03544284"><ele></ele><time>2014-5-11T17:29:34Z</time></trkpt>
<trkpt lat="45.89605747" lon="9.03544670"><ele></ele><time>2014-5-11T17:29:37Z</time></trkpt>
<trkpt lat="45.89613626" lon="9.03552976"><ele></ele><time>2014-5-11T17:29:40Z</time></trkpt>
<trkpt lat="45.89615059" lon="9.03555952"><ele></ele><time>2014-5-11T17:29:43Z</time></trkpt>
<trkpt lat="45.89618898" lon="9.03559816"><ele></ele><time>2014-5-11T17:29:46Z</time></trkpt>
<trkpt lat="45.89620256" lon="9.03560386"><ele></ele><time>2014-5-11T17:29:49Z</time></trkpt>
<trkpt lat="45.89629845" lon="9.03570117"><ele></ele><time>2014-5-11T17:29:52Z</time></trkpt>
<trkpt lat="45.89638084" lon="9.03585440"><ele></ele><time>2014-5-11T17:29:55Z</time></trkpt>
<trkpt lat="45.89646944" lon="9.03601726"><ele></ele><time>2014-5-11T17:29:58Z</time></trkpt>
<trkpt lat="45.89656089" lon="9.03602019"><ele></ele><time>2014-5-11T17:30:1Z</time></trkpt>
<trkpt lat="45.89673892" lon="9.03600284"><ele></ele><time>2014-5-11T17:30:4Z</time></trkpt>
<trkpt lat="45.89684428" lon="9.03600259"><ele></ele><time>2014-5-11T17:30:7Z</time></trkpt>
<trkpt lat="45.89682232" lon="9.03599152"><ele></ele><time>2014-5-11T17:30:10Z</time></trkpt>
<trkpt lat="45.89679407" lon="9.03592380"><ele></ele><time>2014-5-11T17:30:13Z</time></trkpt>
<trkpt lat="45.89676985" lon="9.03589907"><ele></ele><time>2014-5-11T17:30:16Z</time></trkpt>
<trkpt lat="45.89670254" lon="9.03585255"><ele></ele><time>2014-5-11T17:30:19Z</time></trkpt>
<trkpt lat="45.89664118" lon="9.03576379"><ele></ele><time>2014-5-11T17:30:22Z</time></trkpt>
<trkpt lat="45.89659357" lon="9.03560889"><ele></ele><time>2014-5-11T17:30:25Z</time></trkpt>
<trkpt lat="45.89655627" lon="9.03547646"><ele></ele><time>2014-5-11T17:30:28Z</time></trkpt>
<trkpt lat="45.89652945" lon="9.03536959"><ele></ele><time>2014-5-11T17:30:31Z</time></trkpt>
<trkpt lat="45.89646927" lon="9.03522508"><ele></ele><time>2014-5-11T17:30:34Z</time></trkpt>
<trkpt lat="45.89639409" lon="9.03510732"><ele></ele><time>2014-5-11T17:30:37Z</time></trkpt>
<trkpt lat="45.89634849" lon="9.03493624"><ele></ele><time>2014-5-11T17:30:40Z</time></trkpt>
<trkpt lat="45.89628462" lon="9.03487195"><ele></ele><time>2014-5-11T17:30:43Z</time></trkpt>
<trkpt lat="45.89627557" lon="9.03489324"><ele></ele><time>2014-5-11T17:30:46Z</time></trkpt>
<trkpt lat="45.89614129" lon="9.03490389"><ele></ele><time>2014-5-11T17:30:49Z</time></trkpt>
<trkpt lat="45.89596393" lon="9.03490406"><ele></ele><time>2014-5-11T17:30:52Z</time></trkpt>
<trkpt lat="45.89582529" lon="9.03495569"><ele></ele><time>2014-5-11T17:30:55Z</time></trkpt>
<trkpt lat="45.89554148" lon="9.03505996"><ele></ele><time>2014-5-11T17:30:58Z</time></trkpt>
<trkpt lat="45.89536588" lon="9.03511285"><ele></ele><time>2014-5-11T17:31:1Z</time></trkpt>
<trkpt lat="45.89525037" lon="9.03510162"><ele></ele><time>2014-5-11T17:31:4Z</time></trkpt>
<trkpt lat="45.89510947" lon="9.03502165"><ele></ele><time>2014-5-11T17:31:7Z</time></trkpt>
<trkpt lat="45.89507226" lon="9.03496223"><ele></ele><time>2014-5-11T17:31:10Z</time></trkpt>
<trkpt lat="45.89496355" lon="9.03483256"><ele></ele><time>2014-5-11T17:31:13Z</time></trkpt>
<trkpt lat="45.89495332" lon="9.03479232"><ele></ele><time>2014-5-11T17:31:16Z</time></trkpt>
<trkpt lat="45.89490068" lon="9.03460868"><ele></ele><time>2014-5-11T17:31:19Z</time></trkpt>
<trkpt lat="45.89487218" lon="9.03442805"><ele></ele><time>2014-5-11T17:31:22Z</time></trkpt>
<trkpt lat="45.89485869" lon="9.03413585"><ele></ele><time>2014-5-11T17:31:25Z</time></trkpt>
<trkpt lat="45.89485165" lon="9.03401784"><ele></ele><time>2014-5-11T17:31:28Z</time></trkpt>
<trkpt lat="45.89489180" lon="9.03378205"><ele></ele><time>2014-5-11T17:31:31Z</time></trkpt>
<trkpt lat="45.89489808" lon="9.03375297"><ele></ele><time>2014-5-11T17:31:34Z</time></trkpt>
<trkpt lat="45.89490320" lon="9.03357988"><ele></ele><time>2014-5-11T17:31:37Z</time></trkpt>
<trkpt lat="45.89488409" lon="9.03342809"><ele></ele><time>2014-5-11T17:31:40Z</time></trkpt>
<trkpt lat="45.89483488" lon="9.03325475"><ele></ele><time>2014-5-11T17:31:43Z</time></trkpt>
<trkpt lat="45.89482189" lon="9.03319205"><ele></ele><time>2014-5-11T17:31:46Z</time></trkpt>
<trkpt lat="45.89475224" lon="9.03292140"><ele></ele><time>2014-5-11T17:31:49Z</time></trkpt>
<trkpt lat="45.89466347" lon="9.03264547"><ele></ele><time>2014-5-11T17:31:52Z</time></trkpt>
<trkpt lat="45.89446776" lon="9.03245386"><ele></ele><time>2014-5-11T17:31:55Z</time></trkpt>
<trkpt lat="45.89439282" lon="9.03238127"><ele></ele><time>2014-5-11T17:31:58Z</time></trkpt>
<trkpt lat="45.89430875" lon="9.03225713"><ele></ele><time>2014-5-11T17:32:1Z</time></trkpt>
<trkpt lat="45.89420423" lon="9.03216166"><ele></ele><time>2014-5-11T17:32:4Z</time></trkpt>
<trkpt lat="45.89409753" lon="9.03204197"><ele></ele><time>2014-5-11T17:32:7Z</time></trkpt>
<trkpt lat="45.89400290" lon="9.03189235"><ele></ele><time>2014-5-11T17:32:10Z</time></trkpt>
<trkpt lat="45.89399745" lon="9.03187475"><ele></ele><time>2014-5-11T17:32:13Z</time></trkpt>
<trkpt lat="45.89390290" lon="9.03177920"><ele></ele><time>2014-5-11T17:32:16Z</time></trkpt>
<trkpt lat="45.89381414" lon="9.03166730"><ele></ele><time>2014-5-11T17:32:19Z</time></trkpt>
<trkpt lat="45.89367508" lon="9.03153487"><ele></ele><time>2014-5-11T17:32:22Z</time></trkpt>
<trkpt lat="45.89360274" lon="9.03146756"><ele></ele><time>2014-5-11T17:32:25Z</time></trkpt>
<trkpt lat="45.89351825" lon="9.03138592"><ele></ele><time>2014-5-11T17:32:28Z</time></trkpt>
<trkpt lat="45.89341725" lon="9.03123362"><ele></ele><time>2014-5-11T17:32:31Z</time></trkpt>
<trkpt lat="45.89328784" lon="9.03113295"><ele></ele><time>2014-5-11T17:32:34Z</time></trkpt>
<trkpt lat="45.89321273" lon="9.03092894"><ele></ele><time>2014-5-11T17:32:37Z</time></trkpt>
<trkpt lat="45.89314467" lon="9.03075744"><ele></ele><time>2014-5-11T17:32:40Z</time></trkpt>
<trkpt lat="45.89312749" lon="9.03066893"><ele></ele><time>2014-5-11T17:32:43Z</time></trkpt>
<trkpt lat="45.89313084" lon="9.03053784"><ele></ele><time>2014-5-11T17:32:46Z</time></trkpt>
<trkpt lat="45.89313646" lon="9.03044648"><ele></ele><time>2014-5-11T17:32:49Z</time></trkpt>
<trkpt lat="45.89315012" lon="9.03027473"><ele></ele><time>2014-5-11T17:32:52Z</time></trkpt>
<trkpt lat="45.89313922" lon="9.03005135"><ele></ele><time>2014-5-11T17:32:55Z</time></trkpt>
<trkpt lat="45.89315113" lon="9.02996259"><ele></ele><time>2014-5-11T17:32:58Z</time></trkpt>
<trkpt lat="45.89316412" lon="9.02976176"><ele></ele><time>2014-5-11T17:33:1Z</time></trkpt>
<trkpt lat="45.89312078" lon="9.02963469"><ele></ele><time>2014-5-11T17:33:4Z</time></trkpt>
<trkpt lat="45.89306463" lon="9.02937996"><ele></ele><time>2014-5-11T17:33:7Z</time></trkpt>
<trkpt lat="45.89300553" lon="9.02918424"><ele></ele><time>2014-5-11T17:33:10Z</time></trkpt>
<trkpt lat="45.89297310" lon="9.02907025"><ele></ele><time>2014-5-11T17:33:13Z</time></trkpt>
<trkpt lat="45.89296237" lon="9.02904326"><ele></ele><time>2014-5-11T17:33:16Z</time></trkpt>
<trkpt lat="45.89295055" lon="9.02900353"><ele></ele><time>2014-5-11T17:33:19Z</time></trkpt>
<trkpt lat="45.89288584" lon="9.02883765"><ele></ele><time>2014-5-11T17:33:22Z</time></trkpt>
<trkpt lat="45.89279205" lon="9.02860162"><ele></ele><time>2014-5-11T17:33:25Z</time></trkpt>
<trkpt lat="45.89274829" lon="9.02849215"><ele></ele><time>2014-5-11T17:33:28Z</time></trkpt>
<trkpt lat="45.89268903" lon="9.02843012"><ele></ele><time>2014-5-11T17:33:31Z</time></trkpt>
<trkpt lat="45.89254905" lon="9.02845326"><ele></ele><time>2014-5-11T17:33:34Z</time></trkpt>
<trkpt lat="45.89241612" lon="9.02844387"><ele></ele><time>2014-5-11T17:33:37Z</time></trkpt>
<trkpt lat="45.89233750" lon="9.02825913"><ele></ele><time>2014-5-11T17:33:40Z</time></trkpt>
<trkpt lat="45.89228528" lon="9.02815998"><ele></ele><time>2014-5-11T17:33:43Z</time></trkpt>
<trkpt lat="45.89219567" lon="9.02799276"><ele></ele><time>2014-5-11T17:33:46Z</time></trkpt>
<trkpt lat="45.89212652" lon="9.02788790"><ele></ele><time>2014-5-11T17:33:49Z</time></trkpt>
<trkpt lat="45.89199518" lon="9.02784389"><ele></ele><time>2014-5-11T17:33:52Z</time></trkpt>
<trkpt lat="45.89202879" lon="9.02779067"><ele></ele><time>2014-5-11T17:33:55Z</time></trkpt>
<trkpt lat="45.89210037" lon="9.02781397"><ele></ele><time>2014-5-11T17:33:58Z</time></trkpt>
<trkpt lat="45.89216089" lon="9.02793576"><ele></ele><time>2014-5-11T17:34:1Z</time></trkpt>
<trkpt lat="45.89223566" lon="9.02802863"><ele></ele><time>2014-5-11T17:34:4Z</time></trkpt>
<trkpt lat="45.89230699" lon="9.02811572"><ele></ele><time>2014-5-11T17:34:7Z</time></trkpt>
<trkpt lat="45.89241578" lon="9.02815780"><ele></ele><time>2014-5-11T17:34:10Z</time></trkpt>
<trkpt lat="45.89265542" lon="9.02815419"><ele></ele><time>2014-5-11T17:34:13Z</time></trkpt>
<trkpt lat="45.89274704" lon="9.02813592"><ele></ele><time>2014-5-11T17:34:16Z</time></trkpt>
<trkpt lat="45.89290587" lon="9.02831202"><ele></ele><time>2014-5-11T17:34:19Z</time></trkpt>
<trkpt lat="45.89295248" lon="9.02835578"><ele></ele><time>2014-5-11T17:34:22Z</time></trkpt>
<trkpt lat="45.89306136" lon="9.02840934"><ele></ele><time>2014-5-11T17:34:25Z</time></trkpt>
<trkpt lat="45.89317518" lon="9.02855736"><ele></ele><time>2014-5-11T17:34:28Z</time></trkpt>
<trkpt lat="45.89325263" lon="9.02869055"><ele></ele><time>2014-5-11T17:34:31Z</time></trkpt>
<trkpt lat="45.89332388" lon="9.02881477"><ele></ele><time>2014-5-11T17:34:34Z</time></trkpt>
<trkpt lat="45.89333704" lon="9.02884059"><ele></ele><time>2014-5-11T17:34:37Z</time></trkpt>
<trkpt lat="45.89340476" lon="9.02901233"><ele></ele><time>2014-5-11T17:34:40Z</time></trkpt>
<trkpt lat="45.89344684" lon="9.02907017"><ele></ele><time>2014-5-11T17:34:43Z</time></trkpt>
<trkpt lat="45.89352454" lon="9.02920838"><ele></ele><time>2014-5-11T17:34:46Z</time></trkpt>
<trkpt lat="45.89362269" lon="9.02929354"><ele></ele><time>2014-5-11T17:34:49Z</time></trkpt>
<trkpt lat="45.89365438" lon="9.02943227"><ele></ele><time>2014-5-11T17:34:52Z</time></trkpt>
<trkpt lat="45.89372177" lon="9.02960510"><ele></ele><time>2014-5-11T17:34:55Z</time></trkpt>
<trkpt lat="45.89372864" lon="9.02964927"><ele></ele><time>2014-5-11T17:34:58Z</time></trkpt>
<trkpt lat="45.89378388" lon="9.02968397"><ele></ele><time>2014-5-11T17:35:1Z</time></trkpt>
<trkpt lat="45.89387775" lon="9.02986167"><ele></ele><time>2014-5-11T17:35:4Z</time></trkpt>
<trkpt lat="45.89394523" lon="9.02997742"><ele></ele><time>2014-5-11T17:35:7Z</time></trkpt>
<trkpt lat="45.89407515" lon="9.03009879"><ele></ele><time>2014-5-11T17:35:10Z</time></trkpt>
<trkpt lat="45.89413583" lon="9.03020969"><ele></ele><time>2014-5-11T17:35:13Z</time></trkpt>
<trkpt lat="45.89422854" lon="9.03028957"><ele></ele><time>2014-5-11T17:35:16Z</time></trkpt>
<trkpt lat="45.89431554" lon="9.03034715"><ele></ele><time>2014-5-11T17:35:19Z</time></trkpt>
<trkpt lat="45.89444689" lon="9.03042125"><ele></ele><time>2014-5-11T17:35:22Z</time></trkpt>
<trkpt lat="45.89459156" lon="9.03053189"><ele></ele><time>2014-5-11T17:35:25Z</time></trkpt>
<trkpt lat="45.89468678" lon="9.03058654"><ele></ele><time>2014-5-11T17:35:28Z</time></trkpt>
<trkpt lat="45.89469658" lon="9.03059039"><ele></ele><time>2014-5-11T17:35:31Z</time></trkpt>
<trkpt lat="45.89484578" lon="9.03066709"><ele></ele><time>2014-5-11T17:35:34Z</time></trkpt>
<trkpt lat="45.89496103" lon="9.03070556"><ele></ele><time>2014-5-11T17:35:37Z</time></trkpt>
<trkpt lat="45.89493379" lon="9.03068067"><ele></ele><time>2014-5-11T17:35:40Z</time></trkpt>
<trkpt lat="45.89483136" lon="9.03056106"><ele></ele><time>2014-5-11T17:35:43Z</time></trkpt>
<trkpt lat="45.89474805" lon="9.03043910"><ele></ele><time>2014-5-11T17:35:46Z</time></trkpt>
<trkpt lat="45.89462894" lon="9.03032804"><ele></ele><time>2014-5-11T17:35:49Z</time></trkpt>
<trkpt lat="45.89454537" lon="9.03023902"><ele></ele><time>2014-5-11T17:35:52Z</time></trkpt>
<trkpt lat="45.89445644" lon="9.03008094"><ele></ele><time>2014-5-11T17:35:55Z</time></trkpt>
<trkpt lat="45.89440280" lon="9.02999285"><ele></ele><time>2014-5-11T17:35:58Z</time></trkpt>
<trkpt lat="45.89430012" lon="9.02985999"><ele></ele><time>2014-5-11T17:36:1Z</time></trkpt>
<trkpt lat="45.89420138" lon="9.02968557"><ele></ele><time>2014-5-11T17:36:4Z</time></trkpt>
<trkpt lat="45.89416215" lon="9.02957853"><ele></ele><time>2014-5-11T17:36:7Z</time></trkpt>
<trkpt lat="45.89414774" lon="9.02947878"><ele></ele><time>2014-5-11T17:36:10Z</time></trkpt>
<trkpt lat="45.89411245" lon="9.02933847"><ele></ele><time>2014-5-11T17:36:13Z</time></trkpt>
<trkpt lat="45.89408655" lon="9.02917393"><ele></ele><time>2014-5-11T17:36:16Z</time></trkpt>
<trkpt lat="45.89404564" lon="9.02902876"><ele></ele><time>2014-5-11T17:36:19Z</time></trkpt>
<trkpt lat="45.89401019" lon="9.02881687"><ele></ele><time>2014-5-11T17:36:22Z</time></trkpt>
<trkpt lat="45.89393375" lon="9.02847304"><ele></ele><time>2014-5-11T17:36:25Z</time></trkpt>
<trkpt lat="45.89390055" lon="9.02833004"><ele></ele><time>2014-5-11T17:36:28Z</time></trkpt>
<trkpt lat="45.89381137" lon="9.02832124"><ele></ele><time>2014-5-11T17:36:31Z</time></trkpt>
<trkpt lat="45.89380835" lon="9.02829803"><ele></ele><time>2014-5-11T17:36:34Z</time></trkpt>
<trkpt lat="45.89376393" lon="9.02799753"><ele></ele><time>2014-5-11T17:36:37Z</time></trkpt>
<trkpt lat="45.89372202" lon="9.02787365"><ele></ele><time>2014-5-11T17:36:40Z</time></trkpt>
<trkpt lat="45.89366896" lon="9.02767642"><ele></ele><time>2014-5-11T17:36:43Z</time></trkpt>
<trkpt lat="45.89360903" lon="9.02756587"><ele></ele><time>2014-5-11T17:36:46Z</time></trkpt>
<trkpt lat="45.89353594" lon="9.02741776"><ele></ele><time>2014-5-11T17:36:49Z</time></trkpt>
<trkpt lat="45.89346067" lon="9.02728080"><ele></ele><time>2014-5-11T17:36:52Z</time></trkpt>
<trkpt lat="45.89338029" lon="9.02714635"><ele></ele><time>2014-5-11T17:36:55Z</time></trkpt>
<trkpt lat="45.89329496" lon="9.02696229"><ele></ele><time>2014-5-11T17:36:58Z</time></trkpt>
<trkpt lat="45.89328775" lon="9.02694678"><ele></ele><time>2014-5-11T17:37:1Z</time></trkpt>
<trkpt lat="45.89325129" lon="9.02689733"><ele></ele><time>2014-5-11T17:37:4Z</time></trkpt>
<trkpt lat="45.89317887" lon="9.02681845"><ele></ele><time>2014-5-11T17:37:7Z</time></trkpt>
<trkpt lat="45.89310662" lon="9.02673120"><ele></ele><time>2014-5-11T17:37:10Z</time></trkpt>
<trkpt lat="45.89299640" lon="9.02676397"><ele></ele><time>2014-5-11T17:37:13Z</time></trkpt>
<trkpt lat="45.89286497" lon="9.02675567"><ele></ele><time>2014-5-11T17:37:16Z</time></trkpt>
<trkpt lat="45.89283312" lon="9.02666666"><ele></ele><time>2014-5-11T17:37:19Z</time></trkpt>
<trkpt lat="45.89282189" lon="9.02662072"><ele></ele><time>2014-5-11T17:37:22Z</time></trkpt>
<trkpt lat="45.89273899" lon="9.02652115"><ele></ele><time>2014-5-11T17:37:25Z</time></trkpt>
<trkpt lat="45.89266623" lon="9.02646407"><ele></ele><time>2014-5-11T17:37:28Z</time></trkpt>
<trkpt lat="45.89257563" lon="9.02646583"><ele></ele><time>2014-5-11T17:37:31Z</time></trkpt>
<trkpt lat="45.89246339" lon="9.02640707"><ele></ele><time>2014-5-11T17:37:34Z</time></trkpt>
<trkpt lat="45.89239592" lon="9.02624563"><ele></ele><time>2014-5-11T17:37:37Z</time></trkpt>
<trkpt lat="45.89234227" lon="9.02613549"><ele></ele><time>2014-5-11T17:37:40Z</time></trkpt>
<trkpt lat="45.89227782" lon="9.02602997"><ele></ele><time>2014-5-11T17:37:43Z</time></trkpt>
<trkpt lat="45.89219349" lon="9.02594154"><ele></ele><time>2014-5-11T17:37:46Z</time></trkpt>
<trkpt lat="45.89212820" lon="9.02586199"><ele></ele><time>2014-5-11T17:37:49Z</time></trkpt>
<trkpt lat="45.89207204" lon="9.02582260"><ele></ele><time>2014-5-11T17:37:52Z</time></trkpt>
<trkpt lat="45.89206106" lon="9.02581673"><ele></ele><time>2014-5-11T17:37:55Z</time></trkpt>
<trkpt lat="45.89212694" lon="9.02581799"><ele></ele><time>2014-5-11T17:37:58Z</time></trkpt>
<trkpt lat="45.89215628" lon="9.02583886"><ele></ele><time>2014-5-11T17:38:1Z</time></trkpt>
<trkpt lat="45.89226114" lon="9.02593005"><ele></ele><time>2014-5-11T17:38:4Z</time></trkpt>
<trkpt lat="45.89232786" lon="9.02602209"><ele></ele><time>2014-5-11T17:38:7Z</time></trkpt>
<trkpt lat="45.89244235" lon="9.02609585"><ele></ele><time>2014-5-11T17:38:10Z</time></trkpt>
<trkpt lat="45.89254235" lon="9.02614295"><ele></ele><time>2014-5-11T17:38:13Z</time></trkpt>
<trkpt lat="45.89268224" lon="9.02617439"><ele></ele><time>2014-5-11T17:38:16Z</time></trkpt>
<trkpt lat="45.89276833" lon="9.02619568"><ele></ele><time>2014-5-11T17:38:19Z</time></trkpt>
<trkpt lat="45.89277428" lon="9.02610566"><ele></ele><time>2014-5-11T17:38:22Z</time></trkpt>
<trkpt lat="45.89276204" lon="9.02608554"><ele></ele><time>2014-5-11T17:38:25Z</time></trkpt>
<trkpt lat="45.89269632" lon="9.02598353"><ele></ele><time>2014-5-11T17:38:28Z</time></trkpt>
<trkpt lat="45.89259977" lon="9.02590868"><ele></ele><time>2014-5-11T17:38:31Z</time></trkpt>
<trkpt lat="45.89243246" lon="9.02571774"><ele></ele><time>2014-5-11T17:38:34Z</time></trkpt>
<trkpt lat="45.89237857" lon="9.02559838"><ele></ele><time>2014-5-11T17:38:37Z</time></trkpt>
<trkpt lat="45.89232693" lon="9.02552848"><ele></ele><time>2014-5-11T17:38:40Z</time></trkpt>
<trkpt lat="45.89223348" lon="9.02545832"><ele></ele><time>2014-5-11T17:38:43Z</time></trkpt>
<trkpt lat="45.89212753" lon="9.02541373"><ele></ele><time>2014-5-11T17:38:46Z</time></trkpt>
<trkpt lat="45.89202795" lon="9.02538599"><ele></ele><time>2014-5-11T17:38:49Z</time></trkpt>
<trkpt lat="45.89192729" lon="9.02503579"><ele></ele><time>2014-5-11T17:38:52Z</time></trkpt>
<trkpt lat="45.89183819" lon="9.02480747"><ele></ele><time>2014-5-11T17:38:55Z</time></trkpt>
<trkpt lat="45.89177163" lon="9.02471862"><ele></ele><time>2014-5-11T17:38:58Z</time></trkpt>
<trkpt lat="45.89173509" lon="9.02464452"><ele></ele><time>2014-5-11T17:39:1Z</time></trkpt>
<trkpt lat="45.89175168" lon="9.02466330"><ele></ele><time>2014-5-11T17:39:4Z</time></trkpt>
<trkpt lat="45.89183123" lon="9.02477855"><ele></ele><time>2014-5-11T17:39:7Z</time></trkpt>
<trkpt lat="45.89194824" lon="9.02503646"><ele></ele><time>2014-5-11T17:39:10Z</time></trkpt>
<trkpt lat="45.89197674" lon="9.02491853"><ele></ele><time>2014-5-11T17:39:13Z</time></trkpt>
<trkpt lat="45.89194589" lon="9.02480579"><ele></ele><time>2014-5-11T17:39:16Z</time></trkpt>
<trkpt lat="45.89190985" lon="9.02467897"><ele></ele><time>2014-5-11T17:39:19Z</time></trkpt>
<trkpt lat="45.89187046" lon="9.02463849"><ele></ele><time>2014-5-11T17:39:22Z</time></trkpt>
<trkpt lat="45.89180424" lon="9.02446917"><ele></ele><time>2014-5-11T17:39:25Z</time></trkpt>
<trkpt lat="45.89172545" lon="9.02429760"><ele></ele><time>2014-5-11T17:39:28Z</time></trkpt>
<trkpt lat="45.89166535" lon="9.02411629"><ele></ele><time>2014-5-11T17:39:31Z</time></trkpt>
<trkpt lat="45.89165789" lon="9.02378177"><ele></ele><time>2014-5-11T17:39:34Z</time></trkpt>
<trkpt lat="45.89167030" lon="9.02326226"><ele></ele><time>2014-5-11T17:39:37Z</time></trkpt>
<trkpt lat="45.89166694" lon="9.02276035"><ele></ele><time>2014-5-11T17:39:40Z</time></trkpt>
<trkpt lat="45.89179887" lon="9.02230178"><ele></ele><time>2014-5-11T17:39:43Z</time></trkpt>
<trkpt lat="45.89186165" lon="9.02198293"><ele></ele><time>2014-5-11T17:39:46Z</time></trkpt>
<trkpt lat="45.89187708" lon="9.02137659"><ele></ele><time>2014-5-11T17:39:49Z</time></trkpt>
<trkpt lat="45.89184707" lon="9.02102656"><ele></ele><time>2014-5-11T17:39:52Z</time></trkpt>
<trkpt lat="45.89181178" lon="9.02085573"><ele></ele><time>2014-5-11T17:39:55Z</time></trkpt>
<trkpt lat="45.89175638" lon="9.02033807"><ele></ele><time>2014-5-11T17:39:58Z</time></trkpt>
<trkpt lat="45.89175588" lon="9.02004546"><ele></ele><time>2014-5-11T17:40:1Z</time></trkpt>
<trkpt lat="45.89177406" lon="9.01974488"><ele></ele><time>2014-5-11T17:40:4Z</time></trkpt>
<trkpt lat="45.89176870" lon="9.01957255"><ele></ele><time>2014-5-11T17:40:7Z</time></trkpt>
<trkpt lat="45.89182452" lon="9.01916427"><ele></ele><time>2014-5-11T17:40:10Z</time></trkpt>
<trkpt lat="45.89199585" lon="9.01901817"><ele></ele><time>2014-5-11T17:40:13Z</time></trkpt>
<trkpt lat="45.89235007" lon="9.01911758"><ele></ele><time>2014-5-11T17:40:16Z</time></trkpt>
<trkpt lat="45.89239307" lon="9.01913024"><ele></ele><time>2014-5-11T17:40:19Z</time></trkpt>
<trkpt lat="45.89248468" lon="9.01914658"><ele></ele><time>2014-5-11T17:40:22Z</time></trkpt>
<trkpt lat="45.89285483" lon="9.01886730"><ele></ele><time>2014-5-11T17:40:25Z</time></trkpt>
<trkpt lat="45.89290093" lon="9.01870284"><ele></ele><time>2014-5-11T17:40:28Z</time></trkpt>
<trkpt lat="45.89302163" lon="9.01831845"><ele></ele><time>2014-5-11T17:40:31Z</time></trkpt>
<trkpt lat="45.89322589" lon="9.01797906"><ele></ele><time>2014-5-11T17:40:34Z</time></trkpt>
<trkpt lat="45.89337576" lon="9.01764924"><ele></ele><time>2014-5-11T17:40:37Z</time></trkpt>
<trkpt lat="45.89363770" lon="9.01733844"><ele></ele><time>2014-5-11T17:40:40Z</time></trkpt>
<trkpt lat="45.89369486" lon="9.01730692"><ele></ele><time>2014-5-11T17:40:43Z</time></trkpt>
<trkpt lat="45.89361917" lon="9.01703635"><ele></ele><time>2014-5-11T17:40:46Z</time></trkpt>
<trkpt lat="45.89349319" lon="9.01680820"><ele></ele><time>2014-5-11T17:40:49Z</time></trkpt>
<trkpt lat="45.89341650" lon="9.01662497"><ele></ele><time>2014-5-11T17:40:52Z</time></trkpt>
<trkpt lat="45.89333159" lon="9.01610286"><ele></ele><time>2014-5-11T17:40:55Z</time></trkpt>
<trkpt lat="45.89340728" lon="9.01534606"><ele></ele><time>2014-5-11T17:40:58Z</time></trkpt>
<trkpt lat="45.89338557" lon="9.01478154"><ele></ele><time>2014-5-11T17:41:1Z</time></trkpt>
<trkpt lat="45.89335782" lon="9.01452664"><ele></ele><time>2014-5-11T17:41:4Z</time></trkpt>
<trkpt lat="45.89311232" lon="9.01424426"><ele></ele><time>2014-5-11T17:41:7Z</time></trkpt>
<trkpt lat="45.89297100" lon="9.01426387"><ele></ele><time>2014-5-11T17:41:10Z</time></trkpt>
<trkpt lat="45.89285994" lon="9.01452136"><ele></ele><time>2014-5-11T17:41:13Z</time></trkpt>
<trkpt lat="45.89280663" lon="9.01467978"><ele></ele><time>2014-5-11T17:41:16Z</time></trkpt>
<trkpt lat="45.89269473" lon="9.01503048"><ele></ele><time>2014-5-11T17:41:19Z</time></trkpt>
<trkpt lat="45.89261318" lon="9.01542376"><ele></ele><time>2014-5-11T17:41:22Z</time></trkpt>
<trkpt lat="45.89259608" lon="9.01550942"><ele></ele><time>2014-5-11T17:41:25Z</time></trkpt>
<trkpt lat="45.89254562" lon="9.01566097"><ele></ele><time>2014-5-11T17:41:28Z</time></trkpt>
<trkpt lat="45.89228662" lon="9.01572777"><ele></ele><time>2014-5-11T17:41:31Z</time></trkpt>
<trkpt lat="45.89193449" lon="9.01546718"><ele></ele><time>2014-5-11T17:41:34Z</time></trkpt>
<trkpt lat="45.89171455" lon="9.01524439"><ele></ele><time>2014-5-11T17:41:37Z</time></trkpt>
<trkpt lat="45.89147986" lon="9.01503559"><ele></ele><time>2014-5-11T17:41:40Z</time></trkpt>
<trkpt lat="45.89128749" lon="9.01446227"><ele></ele><time>2014-5-11T17:41:43Z</time></trkpt>
<trkpt lat="45.89117325" lon="9.01423613"><ele></ele><time>2014-5-11T17:41:46Z</time></trkpt>
<trkpt lat="45.89114064" lon="9.01416195"><ele></ele><time>2014-5-11T17:41:49Z</time></trkpt>
<trkpt lat="45.89110745" lon="9.01409263"><ele></ele><time>2014-5-11T17:41:52Z</time></trkpt>
<trkpt lat="45.89109957" lon="9.01379524"><ele></ele><time>2014-5-11T17:41:55Z</time></trkpt>
<trkpt lat="45.89122849" lon="9.01382189"><ele></ele><time>2014-5-11T17:41:58Z</time></trkpt>
<trkpt lat="45.89157952" lon="9.01391585"><ele></ele><time>2014-5-11T17:42:1Z</time></trkpt>
<trkpt lat="45.89168253" lon="9.01367328"><ele></ele><time>2014-5-11T17:42:4Z</time></trkpt>
<trkpt lat="45.89167608" lon="9.01290198"><ele></ele><time>2014-5-11T17:42:7Z</time></trkpt>
<trkpt lat="45.89167289" lon="9.01204384"><ele></ele><time>2014-5-11T17:42:10Z</time></trkpt>
<trkpt lat="45.89169485" lon="9.01134940"><ele></ele><time>2014-5-11T17:42:13Z</time></trkpt>
<trkpt lat="45.89166258" lon="9.01110180"><ele></ele><time>2014-5-11T17:42:16Z</time></trkpt>
<trkpt lat="45.89164909" lon="9.01090876"><ele></ele><time>2014-5-11T17:42:19Z</time></trkpt>
<trkpt lat="45.89163233" lon="9.01075437"><ele></ele><time>2014-5-11T17:42:22Z</time></trkpt>
<trkpt lat="45.89163459" lon="9.01069159"><ele></ele><time>2014-5-11T17:42:25Z</time></trkpt>
<trkpt lat="45.89174666" lon="9.01008910"><ele></ele><time>2014-5-11T17:42:28Z</time></trkpt>
<trkpt lat="45.89175336" lon="9.01003428"><ele></ele><time>2014-5-11T17:42:31Z</time></trkpt>
<trkpt lat="45.89181379" lon="9.00950563"><ele></ele><time>2014-5-11T17:42:34Z</time></trkpt>
<trkpt lat="45.89187624" lon="9.00898193"><ele></ele><time>2014-5-11T17:42:37Z</time></trkpt>
<trkpt lat="45.89188395" lon="9.00868303"><ele></ele><time>2014-5-11T17:42:40Z</time></trkpt>
<trkpt lat="45.89185654" lon="9.00833979"><ele></ele><time>2014-5-11T17:42:43Z</time></trkpt>
<trkpt lat="45.89185009" lon="9.00818473"><ele></ele><time>2014-5-11T17:42:46Z</time></trkpt>
<trkpt lat="45.89183726" lon="9.00790117"><ele></ele><time>2014-5-11T17:42:49Z</time></trkpt>
<trkpt lat="45.89186903" lon="9.00751987"><ele></ele><time>2014-5-11T17:42:52Z</time></trkpt>
<trkpt lat="45.89187557" lon="9.00726984"><ele></ele><time>2014-5-11T17:42:55Z</time></trkpt>
<trkpt lat="45.89196710" lon="9.00687698"><ele></ele><time>2014-5-11T17:42:58Z</time></trkpt>
<trkpt lat="45.89199719" lon="9.00674799"><ele></ele><time>2014-5-11T17:43:1Z</time></trkpt>
<trkpt lat="45.89201672" lon="9.00646132"><ele></ele><time>2014-5-11T17:43:4Z</time></trkpt>
<trkpt lat="45.89207078" lon="9.00614633"><ele></ele><time>2014-5-11T17:43:7Z</time></trkpt>
<trkpt lat="45.89230908" lon="9.00612806"><ele></ele><time>2014-5-11T17:43:10Z</time></trkpt>
<trkpt lat="45.89234244" lon="9.00614583"><ele></ele><time>2014-5-11T17:43:13Z</time></trkpt>
<trkpt lat="45.89249616" lon="9.00620484"><ele></ele><time>2014-5-11T17:43:16Z</time></trkpt>
<trkpt lat="45.89263262" lon="9.00622688"><ele></ele><time>2014-5-11T17:43:19Z</time></trkpt>
<trkpt lat="45.89278459" lon="9.00626276"><ele></ele><time>2014-5-11T17:43:22Z</time></trkpt>
<trkpt lat="45.89300872" lon="9.00631154"><ele></ele><time>2014-5-11T17:43:25Z</time></trkpt>
<trkpt lat="45.89322128" lon="9.00631422"><ele></ele><time>2014-5-11T17:43:28Z</time></trkpt>
<trkpt lat="45.89339152" lon="9.00627374"><ele></ele><time>2014-5-11T17:43:31Z</time></trkpt>
<trkpt lat="45.89345472" lon="9.00623208"><ele></ele><time>2014-5-11T17:43:34Z</time></trkpt>
<trkpt lat="45.89369955" lon="9.00614692"><ele></ele><time>2014-5-11T17:43:37Z</time></trkpt>
<trkpt lat="45.89392955" lon="9.00613183"><ele></ele><time>2014-5-11T17:43:40Z</time></trkpt>
<trkpt lat="45.89406685" lon="9.00612689"><ele></ele><time>2014-5-11T17:43:43Z</time></trkpt>
<trkpt lat="45.89437656" lon="9.00605204"><ele></ele><time>2014-5-11T17:43:46Z</time></trkpt>
<trkpt lat="45.89480245" lon="9.00595866"><ele></ele><time>2014-5-11T17:43:49Z</time></trkpt>
<trkpt lat="45.89505524" lon="9.00591667"><ele></ele><time>2014-5-11T17:43:52Z</time></trkpt>
<trkpt lat="45.89507167" lon="9.00584433"><ele></ele><time>2014-5-11T17:43:55Z</time></trkpt>
<trkpt lat="45.89510185" lon="9.00567167"><ele></ele><time>2014-5-11T17:43:58Z</time></trkpt>
<trkpt lat="45.89517016" lon="9.00541359"><ele></ele><time>2014-5-11T17:44:1Z</time></trkpt>
<trkpt lat="45.89519120" lon="9.00524260"><ele></ele><time>2014-5-11T17:44:4Z</time></trkpt>
<trkpt lat="45.89506706" lon="9.00504906"><ele></ele><time>2014-5-11T17:44:7Z</time></trkpt>
<trkpt lat="45.89487243" lon="9.00487429"><ele></ele><time>2014-5-11T17:44:10Z</time></trkpt>
<trkpt lat="45.89483966" lon="9.00477380"><ele></ele><time>2014-5-11T17:44:13Z</time></trkpt>
<trkpt lat="45.89482097" lon="9.00474203"><ele></ele><time>2014-5-11T17:44:16Z</time></trkpt>
<trkpt lat="45.89468786" lon="9.00504864"><ele></ele><time>2014-5-11T17:44:19Z</time></trkpt>
<trkpt lat="45.89446013" lon="9.00536858"><ele></ele><time>2014-5-11T17:44:22Z</time></trkpt>
<trkpt lat="45.89417992" lon="9.00537067"><ele></ele><time>2014-5-11T17:44:25Z</time></trkpt>
<trkpt lat="45.89411915" lon="9.00533119"><ele></ele><time>2014-5-11T17:44:28Z</time></trkpt>
<trkpt lat="45.89387926" lon="9.00513338"><ele></ele><time>2014-5-11T17:44:31Z</time></trkpt>
<trkpt lat="45.89367558" lon="9.00495526"><ele></ele><time>2014-5-11T17:44:34Z</time></trkpt>
<trkpt lat="45.89344969" lon="9.00477815"><ele></ele><time>2014-5-11T17:44:37Z</time></trkpt>
<trkpt lat="45.89329395" lon="9.00464497"><ele></ele><time>2014-5-11T17:44:40Z</time></trkpt>
<trkpt lat="45.89340468" lon="9.00459233"><ele></ele><time>2014-5-11T17:44:43Z</time></trkpt>
<trkpt lat="45.89360744" lon="9.00457883"><ele></ele><time>2014-5-11T17:44:46Z</time></trkpt>
<trkpt lat="45.89346427" lon="9.00439527"><ele></ele><time>2014-5-11T17:44:49Z</time></trkpt>
<trkpt lat="45.89334282" lon="9.00417910"><ele></ele><time>2014-5-11T17:44:52Z</time></trkpt>
<trkpt lat="45.89329203" lon="9.00411749"><ele></ele><time>2014-5-11T17:44:55Z</time></trkpt>
<trkpt lat="45.89306974" lon="9.00386780"><ele></ele><time>2014-5-11T17:44:58Z</time></trkpt>
<trkpt lat="45.89295507" lon="9.00358055"><ele></ele><time>2014-5-11T17:45:1Z</time></trkpt>
<trkpt lat="45.89281828" lon="9.00322096"><ele></ele><time>2014-5-11T17:45:4Z</time></trkpt>
<trkpt lat="45.89275693" lon="9.00305852"><ele></ele><time>2014-5-11T17:45:7Z</time></trkpt>
<trkpt lat="45.89271334" lon="9.00288234"><ele></ele><time>2014-5-11T17:45:10Z</time></trkpt>
<trkpt lat="45.89268744" lon="9.00282400"><ele></ele><time>2014-5-11T17:45:13Z</time></trkpt>
<trkpt lat="45.89252735" lon="9.00257765"><ele></ele><time>2014-5-11T17:45:16Z</time></trkpt>
<trkpt lat="45.89244763" lon="9.00245117"><ele></ele><time>2014-5-11T17:45:19Z</time></trkpt>
<trkpt lat="45.89252844" lon="9.00242292"><ele></ele><time>2014-5-11T17:45:22Z</time></trkpt>
<trkpt lat="45.89261360" lon="9.00244312"><ele></ele><time>2014-5-11T17:45:25Z</time></trkpt>
<trkpt lat="45.89274536" lon="9.00246886"><ele></ele><time>2014-5-11T17:45:28Z</time></trkpt>
<trkpt lat="45.89262634" lon="9.00232854"><ele></ele><time>2014-5-11T17:45:31Z</time></trkpt>
<trkpt lat="45.89248334" lon="9.00224104"><ele></ele><time>2014-5-11T17:45:34Z</time></trkpt>
<trkpt lat="45.89234462" lon="9.00220298"><ele></ele><time>2014-5-11T17:45:37Z</time></trkpt>
<trkpt lat="45.89229575" lon="9.00218605"><ele></ele><time>2014-5-11T17:45:40Z</time></trkpt>
<trkpt lat="45.89216240" lon="9.00210517"><ele></ele><time>2014-5-11T17:45:43Z</time></trkpt>
<trkpt lat="45.89212677" lon="9.00207692"><ele></ele><time>2014-5-11T17:45:46Z</time></trkpt>
<trkpt lat="45.89200130" lon="9.00195303"><ele></ele><time>2014-5-11T17:45:49Z</time></trkpt>
<trkpt lat="45.89187004" lon="9.00179964"><ele></ele><time>2014-5-11T17:45:52Z</time></trkpt>
<trkpt lat="45.89182653" lon="9.00175505"><ele></ele><time>2014-5-11T17:45:55Z</time></trkpt>
<trkpt lat="45.89162612" lon="9.00159630"><ele></ele><time>2014-5-11T17:45:58Z</time></trkpt>
<trkpt lat="45.89141373" lon="9.00147719"><ele></ele><time>2014-5-11T17:46:1Z</time></trkpt>
<trkpt lat="45.89116244" lon="9.00130805"><ele></ele><time>2014-5-11T17:46:4Z</time></trkpt>
<trkpt lat="45.89111893" lon="9.00127804"><ele></ele><time>2014-5-11T17:46:7Z</time></trkpt>
<trkpt lat="45.89098776" lon="9.00119363"><ele></ele><time>2014-5-11T17:46:10Z</time></trkpt>
<trkpt lat="45.89083713" lon="9.00110202"><ele></ele><time>2014-5-11T17:46:13Z</time></trkpt>
<trkpt lat="45.89062784" lon="9.00094318"><ele></ele><time>2014-5-11T17:46:16Z</time></trkpt>
<trkpt lat="45.89059724" lon="9.00091804"><ele></ele><time>2014-5-11T17:46:19Z</time></trkpt>
<trkpt lat="45.89044377" lon="9.00082475"><ele></ele><time>2014-5-11T17:46:22Z</time></trkpt>
<trkpt lat="45.89036775" lon="9.00078158"><ele></ele><time>2014-5-11T17:46:25Z</time></trkpt>
<trkpt lat="45.89011763" lon="9.00059198"><ele></ele><time>2014-5-11T17:46:28Z</time></trkpt>
<trkpt lat="45.89002845" lon="9.00050405"><ele></ele><time>2014-5-11T17:46:31Z</time></trkpt>
<trkpt lat="45.88995125" lon="9.00044437"><ele></ele><time>2014-5-11T17:46:34Z</time></trkpt>
<trkpt lat="45.88975042" lon="9.00028017"><ele></ele><time>2014-5-11T17:46:37Z</time></trkpt>
<trkpt lat="45.88971396" lon="9.00024522"><ele></ele><time>2014-5-11T17:46:40Z</time></trkpt>
<trkpt lat="45.88967700" lon="9.00020784"><ele></ele><time>2014-5-11T17:46:43Z</time></trkpt>
<trkpt lat="45.88936192" lon="8.99996778"><ele></ele><time>2014-5-11T17:46:46Z</time></trkpt>
<trkpt lat="45.88930065" lon="8.99993735"><ele></ele><time>2014-5-11T17:46:49Z</time></trkpt>
<trkpt lat="45.88901835" lon="8.99978036"><ele></ele><time>2014-5-11T17:46:52Z</time></trkpt>
<trkpt lat="45.88898247" lon="8.99975169"><ele></ele><time>2014-5-11T17:46:55Z</time></trkpt>
<trkpt lat="45.88891977" lon="8.99968414"><ele></ele><time>2014-5-11T17:46:58Z</time></trkpt>
<trkpt lat="45.88885004" lon="8.99959277"><ele></ele><time>2014-5-11T17:47:1Z</time></trkpt>
<trkpt lat="45.88873194" lon="8.99937199"><ele></ele><time>2014-5-11T17:47:4Z</time></trkpt>
<trkpt lat="45.88874233" lon="8.99932623"><ele></ele><time>2014-5-11T17:47:7Z</time></trkpt>
<trkpt lat="45.88874987" lon="8.99931516"><ele></ele><time>2014-5-11T17:47:10Z</time></trkpt>
<trkpt lat="45.88871199" lon="8.99942815"><ele></ele><time>2014-5-11T17:47:13Z</time></trkpt>
<trkpt lat="45.88883629" lon="8.99972605"><ele></ele><time>2014-5-11T17:47:16Z</time></trkpt>
<trkpt lat="45.88877234" lon="8.99970870"><ele></ele><time>2014-5-11T17:47:19Z</time></trkpt>
<trkpt lat="45.88872724" lon="8.99963535"><ele></ele><time>2014-5-11T17:47:22Z</time></trkpt>
<trkpt lat="45.88858726" lon="8.99943570"><ele></ele><time>2014-5-11T17:47:25Z</time></trkpt>
<trkpt lat="45.88848132" lon="8.99914837"><ele></ele><time>2014-5-11T17:47:28Z</time></trkpt>
<trkpt lat="45.88850588" lon="8.99868594"><ele></ele><time>2014-5-11T17:47:31Z</time></trkpt>
<trkpt lat="45.88848232" lon="8.99841512"><ele></ele><time>2014-5-11T17:47:34Z</time></trkpt>
<trkpt lat="45.88837814" lon="8.99814706"><ele></ele><time>2014-5-11T17:47:37Z</time></trkpt>
<trkpt lat="45.88820036" lon="8.99780986"><ele></ele><time>2014-5-11T17:47:40Z</time></trkpt>
<trkpt lat="45.88811075" lon="8.99762437"><ele></ele><time>2014-5-11T17:47:43Z</time></trkpt>
<trkpt lat="45.88807982" lon="8.99757165"><ele></ele><time>2014-5-11T17:47:46Z</time></trkpt>
<trkpt lat="45.88803255" lon="8.99746947"><ele></ele><time>2014-5-11T17:47:49Z</time></trkpt>
<trkpt lat="45.88788436" lon="8.99725498"><ele></ele><time>2014-5-11T17:47:52Z</time></trkpt>
<trkpt lat="45.88779786" lon="8.99712506"><ele></ele><time>2014-5-11T17:47:55Z</time></trkpt>
<trkpt lat="45.88761857" lon="8.99684753"><ele></ele><time>2014-5-11T17:47:58Z</time></trkpt>
<trkpt lat="45.88764120" lon="8.99696915"><ele></ele><time>2014-5-11T17:48:1Z</time></trkpt>
<trkpt lat="45.88769736" lon="8.99713562"><ele></ele><time>2014-5-11T17:48:4Z</time></trkpt>
<trkpt lat="45.88774522" lon="8.99723377"><ele></ele><time>2014-5-11T17:48:7Z</time></trkpt>
<trkpt lat="45.88785100" lon="8.99752102"><ele></ele><time>2014-5-11T17:48:10Z</time></trkpt>
<trkpt lat="45.88793180" lon="8.99770970"><ele></ele><time>2014-5-11T17:48:13Z</time></trkpt>
<trkpt lat="45.88802794" lon="8.99811655"><ele></ele><time>2014-5-11T17:48:16Z</time></trkpt>
<trkpt lat="45.88804303" lon="8.99843079"><ele></ele><time>2014-5-11T17:48:19Z</time></trkpt>
<trkpt lat="45.88803682" lon="8.99851712"><ele></ele><time>2014-5-11T17:48:22Z</time></trkpt>
<trkpt lat="45.88798536" lon="8.99877093"><ele></ele><time>2014-5-11T17:48:25Z</time></trkpt>
<trkpt lat="45.88793423" lon="8.99904988"><ele></ele><time>2014-5-11T17:48:28Z</time></trkpt>
<trkpt lat="45.88791939" lon="8.99929019"><ele></ele><time>2014-5-11T17:48:31Z</time></trkpt>
<trkpt lat="45.88780498" lon="8.99904996"><ele></ele><time>2014-5-11T17:48:34Z</time></trkpt>
<trkpt lat="45.88778134" lon="8.99891275"><ele></ele><time>2014-5-11T17:48:37Z</time></trkpt>
<trkpt lat="45.88774933" lon="8.99854872"><ele></ele><time>2014-5-11T17:48:40Z</time></trkpt>
<trkpt lat="45.88764908" lon="8.99820565"><ele></ele><time>2014-5-11T17:48:43Z</time></trkpt>
<trkpt lat="45.88762259" lon="8.99814354"><ele></ele><time>2014-5-11T17:48:46Z</time></trkpt>
<trkpt lat="45.88757414" lon="8.99804204"><ele></ele><time>2014-5-11T17:48:49Z</time></trkpt>
<trkpt lat="45.88752829" lon="8.99794229"><ele></ele><time>2014-5-11T17:48:52Z</time></trkpt>
<trkpt lat="45.88743626" lon="8.99776024"><ele></ele><time>2014-5-11T17:48:55Z</time></trkpt>
<trkpt lat="45.88733928" lon="8.99761490"><ele></ele><time>2014-5-11T17:48:58Z</time></trkpt>
<trkpt lat="45.88717173" lon="8.99739588"><ele></ele><time>2014-5-11T17:49:1Z</time></trkpt>
<trkpt lat="45.88711834" lon="8.99733234"><ele></ele><time>2014-5-11T17:49:4Z</time></trkpt>
<trkpt lat="45.88700250" lon="8.99717518"><ele></ele><time>2014-5-11T17:49:7Z</time></trkpt>
<trkpt lat="45.88693175" lon="8.99690336"><ele></ele><time>2014-5-11T17:49:10Z</time></trkpt>
<trkpt lat="45.88689228" lon="8.99689883"><ele></ele><time>2014-5-11T17:49:13Z</time></trkpt>
<trkpt lat="45.88706519" lon="8.99741465"><ele></ele><time>2014-5-11T17:49:16Z</time></trkpt>
<trkpt lat="45.88713828" lon="8.99755513"><ele></ele><time>2014-5-11T17:49:19Z</time></trkpt>
<trkpt lat="45.88718883" lon="8.99765898"><ele></ele><time>2014-5-11T17:49:22Z</time></trkpt>
<trkpt lat="45.88724029" lon="8.99777189"><ele></ele><time>2014-5-11T17:49:25Z</time></trkpt>
<trkpt lat="45.88728874" lon="8.99796383"><ele></ele><time>2014-5-11T17:49:28Z</time></trkpt>
<trkpt lat="45.88735202" lon="8.99816408"><ele></ele><time>2014-5-11T17:49:31Z</time></trkpt>
<trkpt lat="45.88735973" lon="8.99862072"><ele></ele><time>2014-5-11T17:49:34Z</time></trkpt>
<trkpt lat="45.88732420" lon="8.99863405"><ele></ele><time>2014-5-11T17:49:37Z</time></trkpt>
<trkpt lat="45.88730073" lon="8.99858636"><ele></ele><time>2014-5-11T17:49:40Z</time></trkpt>
<trkpt lat="45.88724985" lon="8.99843129"><ele></ele><time>2014-5-11T17:49:43Z</time></trkpt>
<trkpt lat="45.88716905" lon="8.99820532"><ele></ele><time>2014-5-11T17:49:46Z</time></trkpt>
<trkpt lat="45.88707894" lon="8.99804187"><ele></ele><time>2014-5-11T17:49:49Z</time></trkpt>
<trkpt lat="45.88693142" lon="8.99781866"><ele></ele><time>2014-5-11T17:49:52Z</time></trkpt>
<trkpt lat="45.88676043" lon="8.99765379"><ele></ele><time>2014-5-11T17:49:55Z</time></trkpt>
<trkpt lat="45.88657477" lon="8.99727317"><ele></ele><time>2014-5-11T17:49:58Z</time></trkpt>
<trkpt lat="45.88653646" lon="8.99712724"><ele></ele><time>2014-5-11T17:50:1Z</time></trkpt>
<trkpt lat="45.88654694" lon="8.99733544"><ele></ele><time>2014-5-11T17:50:4Z</time></trkpt>
<trkpt lat="45.88670452" lon="8.99783903"><ele></ele><time>2014-5-11T17:50:7Z</time></trkpt>
<trkpt lat="45.88687342" lon="8.99816969"><ele></ele><time>2014-5-11T17:50:10Z</time></trkpt>
<trkpt lat="45.88700292" lon="8.99866096"><ele></ele><time>2014-5-11T17:50:13Z</time></trkpt>
<trkpt lat="45.88703058" lon="8.99891837"><ele></ele><time>2014-5-11T17:50:16Z</time></trkpt>
<trkpt lat="45.88702748" lon="8.99920695"><ele></ele><time>2014-5-11T17:50:19Z</time></trkpt>
<trkpt lat="45.88702714" lon="8.99942639"><ele></ele><time>2014-5-11T17:50:22Z</time></trkpt>
<trkpt lat="45.88704147" lon="8.99966477"><ele></ele><time>2014-5-11T17:50:25Z</time></trkpt>
<trkpt lat="45.88695154" lon="8.99960308"><ele></ele><time>2014-5-11T17:50:28Z</time></trkpt>
<trkpt lat="45.88691524" lon="8.99938507"><ele></ele><time>2014-5-11T17:50:31Z</time></trkpt>
<trkpt lat="45.88681147" lon="8.99894938"><ele></ele><time>2014-5-11T17:50:34Z</time></trkpt>
<trkpt lat="45.88667938" lon="8.99868099"><ele></ele><time>2014-5-11T17:50:37Z</time></trkpt>
<trkpt lat="45.88668725" lon="8.99876758"><ele></ele><time>2014-5-11T17:50:40Z</time></trkpt>
<trkpt lat="45.88672958" lon="8.99887579"><ele></ele><time>2014-5-11T17:50:43Z</time></trkpt>
<trkpt lat="45.88675314" lon="8.99899682"><ele></ele><time>2014-5-11T17:50:46Z</time></trkpt>
<trkpt lat="45.88676856" lon="8.99919463"><ele></ele><time>2014-5-11T17:50:49Z</time></trkpt>
<trkpt lat="45.88677283" lon="8.99926404"><ele></ele><time>2014-5-11T17:50:52Z</time></trkpt>
<trkpt lat="45.88679857" lon="8.99946805"><ele></ele><time>2014-5-11T17:50:55Z</time></trkpt>
<trkpt lat="45.88680603" lon="8.99964332"><ele></ele><time>2014-5-11T17:50:58Z</time></trkpt>
<trkpt lat="45.88672967" lon="8.99969093"><ele></ele><time>2014-5-11T17:51:1Z</time></trkpt>
<trkpt lat="45.88665155" lon="8.99954718"><ele></ele><time>2014-5-11T17:51:4Z</time></trkpt>
<trkpt lat="45.88653998" lon="8.99929572"><ele></ele><time>2014-5-11T17:51:7Z</time></trkpt>
<trkpt lat="45.88650914" lon="8.99923847"><ele></ele><time>2014-5-11T17:51:10Z</time></trkpt>
<trkpt lat="45.88647544" lon="8.99917787"><ele></ele><time>2014-5-11T17:51:13Z</time></trkpt>
<trkpt lat="45.88642063" lon="8.99904594"><ele></ele><time>2014-5-11T17:51:16Z</time></trkpt>
<trkpt lat="45.88635055" lon="8.99890680"><ele></ele><time>2014-5-11T17:51:19Z</time></trkpt>
<trkpt lat="45.88603196" lon="8.99857596"><ele></ele><time>2014-5-11T17:51:22Z</time></trkpt>
<trkpt lat="45.88572216" lon="8.99840196"><ele></ele><time>2014-5-11T17:51:25Z</time></trkpt>
<trkpt lat="45.88555972" lon="8.99836223"><ele></ele><time>2014-5-11T17:51:28Z</time></trkpt>
<trkpt lat="45.88546174" lon="8.99831864"><ele></ele><time>2014-5-11T17:51:31Z</time></trkpt>
<trkpt lat="45.88525646" lon="8.99813239"><ele></ele><time>2014-5-11T17:51:34Z</time></trkpt>
<trkpt lat="45.88498564" lon="8.99796308"><ele></ele><time>2014-5-11T17:51:37Z</time></trkpt>
<trkpt lat="45.88486494" lon="8.99788915"><ele></ele><time>2014-5-11T17:51:40Z</time></trkpt>
<trkpt lat="45.88480879" lon="8.99785018"><ele></ele><time>2014-5-11T17:51:43Z</time></trkpt>
<trkpt lat="45.88457325" lon="8.99773107"><ele></ele><time>2014-5-11T17:51:46Z</time></trkpt>
<trkpt lat="45.88444510" lon="8.99772093"><ele></ele><time>2014-5-11T17:51:49Z</time></trkpt>
<trkpt lat="45.88402223" lon="8.99778044"><ele></ele><time>2014-5-11T17:51:52Z</time></trkpt>
<trkpt lat="45.88372777" lon="8.99782637"><ele></ele><time>2014-5-11T17:51:55Z</time></trkpt>
<trkpt lat="45.88365720" lon="8.99783090"><ele></ele><time>2014-5-11T17:51:58Z</time></trkpt>
<trkpt lat="45.88322243" lon="8.99793626"><ele></ele><time>2014-5-11T17:52:1Z</time></trkpt>
<trkpt lat="45.88275438" lon="8.99778672"><ele></ele><time>2014-5-11T17:52:4Z</time></trkpt>
<trkpt lat="45.88192206" lon="8.99760207"><ele></ele><time>2014-5-11T17:52:7Z</time></trkpt>
<trkpt lat="45.88159089" lon="8.99752060"><ele></ele><time>2014-5-11T17:52:10Z</time></trkpt>
<trkpt lat="45.88126978" lon="8.99748548"><ele></ele><time>2014-5-11T17:52:13Z</time></trkpt>
<trkpt lat="45.88087692" lon="8.99731105"><ele></ele><time>2014-5-11T17:52:16Z</time></trkpt>
<trkpt lat="45.88053519" lon="8.99716177"><ele></ele><time>2014-5-11T17:52:19Z</time></trkpt>
<trkpt lat="45.88025984" lon="8.99707485"><ele></ele><time>2014-5-11T17:52:22Z</time></trkpt>
<trkpt lat="45.88005063" lon="8.99698776"><ele></ele><time>2014-5-11T17:52:25Z</time></trkpt>
<trkpt lat="45.87933767" lon="8.99691886"><ele></ele><time>2014-5-11T17:52:28Z</time></trkpt>
<trkpt lat="45.87920364" lon="8.99690746"><ele></ele><time>2014-5-11T17:52:31Z</time></trkpt>
<trkpt lat="45.87889829" lon="8.99698642"><ele></ele><time>2014-5-11T17:52:34Z</time></trkpt>
<trkpt lat="45.87834223" lon="8.99666565"><ele></ele><time>2014-5-11T17:52:37Z</time></trkpt>
<trkpt lat="45.87821583" lon="8.99656305"><ele></ele><time>2014-5-11T17:52:40Z</time></trkpt>
<trkpt lat="45.87787989" lon="8.99614932"><ele></ele><time>2014-5-11T17:52:43Z</time></trkpt>
<trkpt lat="45.87779506" lon="8.99604907"><ele></ele><time>2014-5-11T17:52:46Z</time></trkpt>
<trkpt lat="45.87761535" lon="8.99585553"><ele></ele><time>2014-5-11T17:52:49Z</time></trkpt>
<trkpt lat="45.87751234" lon="8.99575403"><ele></ele><time>2014-5-11T17:52:52Z</time></trkpt>
<trkpt lat="45.87708285" lon="8.99555764"><ele></ele><time>2014-5-11T17:52:55Z</time></trkpt>
<trkpt lat="45.87680859" lon="8.99546309"><ele></ele><time>2014-5-11T17:52:58Z</time></trkpt>
<trkpt lat="45.87642479" lon="8.99551355"><ele></ele><time>2014-5-11T17:53:1Z</time></trkpt>
<trkpt lat="45.87620904" lon="8.99542890"><ele></ele><time>2014-5-11T17:53:4Z</time></trkpt>
<trkpt lat="45.87591190" lon="8.99538774"><ele></ele><time>2014-5-11T17:53:7Z</time></trkpt>
<trkpt lat="45.87568223" lon="8.99551188"><ele></ele><time>2014-5-11T17:53:10Z</time></trkpt>
<trkpt lat="45.87556363" lon="8.99559729"><ele></ele><time>2014-5-11T17:53:13Z</time></trkpt>
<trkpt lat="45.87511646" lon="8.99577264"><ele></ele><time>2014-5-11T17:53:16Z</time></trkpt>
<trkpt lat="45.87480582" lon="8.99582176"><ele></ele><time>2014-5-11T17:53:19Z</time></trkpt>
<trkpt lat="45.87457708" lon="8.99584933"><ele></ele><time>2014-5-11T17:53:22Z</time></trkpt>
<trkpt lat="45.87434658" lon="8.99585118"><ele></ele><time>2014-5-11T17:53:25Z</time></trkpt>
<trkpt lat="45.87413452" lon="8.99584254"><ele></ele><time>2014-5-11T17:53:28Z</time></trkpt>
<trkpt lat="45.87395548" lon="8.99584883"><ele></ele><time>2014-5-11T17:53:31Z</time></trkpt>
<trkpt lat="45.87381793" lon="8.99586216"><ele></ele><time>2014-5-11T17:53:34Z</time></trkpt>
<trkpt lat="45.87342608" lon="8.99586978"><ele></ele><time>2014-5-11T17:53:37Z</time></trkpt>
<trkpt lat="45.87321888" lon="8.99588713"><ele></ele><time>2014-5-11T17:53:40Z</time></trkpt>
<trkpt lat="45.87298913" lon="8.99592670"><ele></ele><time>2014-5-11T17:53:43Z</time></trkpt>
<trkpt lat="45.87268143" lon="8.99596743"><ele></ele><time>2014-5-11T17:53:46Z</time></trkpt>
<trkpt lat="45.87252636" lon="8.99598436"><ele></ele><time>2014-5-11T17:53:49Z</time></trkpt>
<trkpt lat="45.87223099" lon="8.99598034"><ele></ele><time>2014-5-11T17:53:52Z</time></trkpt>
<trkpt lat="45.87224239" lon="8.99586283"><ele></ele><time>2014-5-11T17:53:55Z</time></trkpt>
<trkpt lat="45.87231900" lon="8.99570533"><ele></ele><time>2014-5-11T17:53:58Z</time></trkpt>
<trkpt lat="45.87222093" lon="8.99577188"><ele></ele><time>2014-5-11T17:54:1Z</time></trkpt>
<trkpt lat="45.87204885" lon="8.99594983"><ele></ele><time>2014-5-11T17:54:4Z</time></trkpt>
<trkpt lat="45.87172514" lon="8.99610238"><ele></ele><time>2014-5-11T17:54:7Z</time></trkpt>
<trkpt lat="45.87164132" lon="8.99610322"><ele></ele><time>2014-5-11T17:54:10Z</time></trkpt>
<trkpt lat="45.87143663" lon="8.99590784"><ele></ele><time>2014-5-11T17:54:13Z</time></trkpt>
<trkpt lat="45.87154258" lon="8.99562587"><ele></ele><time>2014-5-11T17:54:16Z</time></trkpt>
<trkpt lat="45.87165507" lon="8.99535195"><ele></ele><time>2014-5-11T17:54:19Z</time></trkpt>
<trkpt lat="45.87157854" lon="8.99534608"><ele></ele><time>2014-5-11T17:54:22Z</time></trkpt>
<trkpt lat="45.87149464" lon="8.99542764"><ele></ele><time>2014-5-11T17:54:25Z</time></trkpt>
<trkpt lat="45.87125190" lon="8.99562218"><ele></ele><time>2014-5-11T17:54:28Z</time></trkpt>
<trkpt lat="45.87110505" lon="8.99569259"><ele></ele><time>2014-5-11T17:54:31Z</time></trkpt>
<trkpt lat="45.87088603" lon="8.99632199"><ele></ele><time>2014-5-11T17:54:34Z</time></trkpt>
<trkpt lat="45.87086348" lon="8.99652835"><ele></ele><time>2014-5-11T17:54:37Z</time></trkpt>
<trkpt lat="45.87083724" lon="8.99659717"><ele></ele><time>2014-5-11T17:54:40Z</time></trkpt>
<trkpt lat="45.87065527" lon="8.99689900"><ele></ele><time>2014-5-11T17:54:43Z</time></trkpt>
<trkpt lat="45.87048763" lon="8.99713285"><ele></ele><time>2014-5-11T17:54:46Z</time></trkpt>
<trkpt lat="45.87044279" lon="8.99718096"><ele></ele><time>2014-5-11T17:54:49Z</time></trkpt>
<trkpt lat="45.87032553" lon="8.99729923"><ele></ele><time>2014-5-11T17:54:52Z</time></trkpt>
<trkpt lat="45.86995304" lon="8.99787029"><ele></ele><time>2014-5-11T17:54:55Z</time></trkpt>
<trkpt lat="45.86984089" lon="8.99810172"><ele></ele><time>2014-5-11T17:54:58Z</time></trkpt>
<trkpt lat="45.86971449" lon="8.99831227"><ele></ele><time>2014-5-11T17:55:1Z</time></trkpt>
<trkpt lat="45.86959882" lon="8.99872994"><ele></ele><time>2014-5-11T17:55:4Z</time></trkpt>
<trkpt lat="45.86960066" lon="8.99878903"><ele></ele><time>2014-5-11T17:55:7Z</time></trkpt>
<trkpt lat="45.86945289" lon="8.99944617"><ele></ele><time>2014-5-11T17:55:10Z</time></trkpt>
<trkpt lat="45.86940075" lon="8.99955086"><ele></ele><time>2014-5-11T17:55:13Z</time></trkpt>
<trkpt lat="45.86928123" lon="8.99975572"><ele></ele><time>2014-5-11T17:55:16Z</time></trkpt>
<trkpt lat="45.86922163" lon="9.00002302"><ele></ele><time>2014-5-11T17:55:19Z</time></trkpt>
<trkpt lat="45.86921526" lon="9.00098853"><ele></ele><time>2014-5-11T17:55:22Z</time></trkpt>
<trkpt lat="45.86924544" lon="9.00123219"><ele></ele><time>2014-5-11T17:55:25Z</time></trkpt>
<trkpt lat="45.86924125" lon="9.00151164"><ele></ele><time>2014-5-11T17:55:28Z</time></trkpt>
<trkpt lat="45.86913899" lon="9.00123579"><ele></ele><time>2014-5-11T17:55:31Z</time></trkpt>
<trkpt lat="45.86911426" lon="9.00110118"><ele></ele><time>2014-5-11T17:55:34Z</time></trkpt>
<trkpt lat="45.86909859" lon="9.00103865"><ele></ele><time>2014-5-11T17:55:37Z</time></trkpt>
<trkpt lat="45.86898752" lon="9.00079818"><ele></ele><time>2014-5-11T17:55:40Z</time></trkpt>
<trkpt lat="45.86899892" lon="9.00108375"><ele></ele><time>2014-5-11T17:55:43Z</time></trkpt>
<trkpt lat="45.86901359" lon="9.00220818"><ele></ele><time>2014-5-11T17:55:46Z</time></trkpt>
<trkpt lat="45.86898308" lon="9.00237397"><ele></ele><time>2014-5-11T17:55:49Z</time></trkpt>
<trkpt lat="45.86886498" lon="9.00231086"><ele></ele><time>2014-5-11T17:55:52Z</time></trkpt>
<trkpt lat="45.86869416" lon="9.00235444"><ele></ele><time>2014-5-11T17:55:55Z</time></trkpt>
<trkpt lat="45.86858058" lon="9.00232779"><ele></ele><time>2014-5-11T17:55:58Z</time></trkpt>
<trkpt lat="45.86853616" lon="9.00233584"><ele></ele><time>2014-5-11T17:56:1Z</time></trkpt>
<trkpt lat="45.86848394" lon="9.00241655"><ele></ele><time>2014-5-11T17:56:4Z</time></trkpt>
<trkpt lat="45.86830046" lon="9.00250968"><ele></ele><time>2014-5-11T17:56:7Z</time></trkpt>
<trkpt lat="45.86802419" lon="9.00230004"><ele></ele><time>2014-5-11T17:56:10Z</time></trkpt>
<trkpt lat="45.86787474" lon="9.00224447"><ele></ele><time>2014-5-11T17:56:13Z</time></trkpt>
<trkpt lat="45.86757383" lon="9.00245260"><ele></ele><time>2014-5-11T17:56:16Z</time></trkpt>
<trkpt lat="45.86724702" lon="9.00272316"><ele></ele><time>2014-5-11T17:56:19Z</time></trkpt>
<trkpt lat="45.86719329" lon="9.00273942"><ele></ele><time>2014-5-11T17:56:22Z</time></trkpt>
<trkpt lat="45.86692935" lon="9.00246324"><ele></ele><time>2014-5-11T17:56:25Z</time></trkpt>
<trkpt lat="45.86668049" lon="9.00234472"><ele></ele><time>2014-5-11T17:56:28Z</time></trkpt>
<trkpt lat="45.86644077" lon="9.00235645"><ele></ele><time>2014-5-11T17:56:31Z</time></trkpt>
<trkpt lat="45.86629182" lon="9.00219929"><ele></ele><time>2014-5-11T17:56:34Z</time></trkpt>
<trkpt lat="45.86617389" lon="9.00183854"><ele></ele><time>2014-5-11T17:56:37Z</time></trkpt>
<trkpt lat="45.86603709" lon="9.00187986"><ele></ele><time>2014-5-11T17:56:40Z</time></trkpt>
<trkpt lat="45.86531214" lon="9.00229376"><ele></ele><time>2014-5-11T17:56:43Z</time></trkpt>
<trkpt lat="45.86437706" lon="9.00249836"><ele></ele><time>2014-5-11T17:56:46Z</time></trkpt>
<trkpt lat="45.86359310" lon="9.00266063"><ele></ele><time>2014-5-11T17:56:49Z</time></trkpt>
<trkpt lat="45.86245794" lon="9.00291285"><ele></ele><time>2014-5-11T17:56:52Z</time></trkpt>
<trkpt lat="45.86216248" lon="9.00301360"><ele></ele><time>2014-5-11T17:56:55Z</time></trkpt>
<trkpt lat="45.86153635" lon="9.00316657"><ele></ele><time>2014-5-11T17:56:58Z</time></trkpt>
<trkpt lat="45.86115162" lon="9.00360326"><ele></ele><time>2014-5-11T17:57:1Z</time></trkpt>
<trkpt lat="45.86112572" lon="9.00364920"><ele></ele><time>2014-5-11T17:57:4Z</time></trkpt>
<trkpt lat="45.86109848" lon="9.00362673"><ele></ele><time>2014-5-11T17:57:7Z</time></trkpt>
<trkpt lat="45.86113578" lon="9.00355607"><ele></ele><time>2014-5-11T17:57:10Z</time></trkpt>
<trkpt lat="45.86108607" lon="9.00343328"><ele></ele><time>2014-5-11T17:57:13Z</time></trkpt>
<trkpt lat="45.86101558" lon="9.00342523"><ele></ele><time>2014-5-11T17:57:16Z</time></trkpt>
<trkpt lat="45.86061208" lon="9.00341844"><ele></ele><time>2014-5-11T17:57:19Z</time></trkpt>
<trkpt lat="45.86025476" lon="9.00326245"><ele></ele><time>2014-5-11T17:57:22Z</time></trkpt>
<trkpt lat="45.86017446" lon="9.00321258"><ele></ele><time>2014-5-11T17:57:25Z</time></trkpt>
<trkpt lat="45.85999852" lon="9.00265963"><ele></ele><time>2014-5-11T17:57:28Z</time></trkpt>
<trkpt lat="45.86004705" lon="9.00213408"><ele></ele><time>2014-5-11T17:57:31Z</time></trkpt>
<trkpt lat="45.85994479" lon="9.00177777"><ele></ele><time>2014-5-11T17:57:34Z</time></trkpt>
<trkpt lat="45.85982275" lon="9.00163553"><ele></ele><time>2014-5-11T17:57:37Z</time></trkpt>
<trkpt lat="45.85968118" lon="9.00112088"><ele></ele><time>2014-5-11T17:57:40Z</time></trkpt>
<trkpt lat="45.85968529" lon="9.00056566"><ele></ele><time>2014-5-11T17:57:43Z</time></trkpt>
<trkpt lat="45.85961463" lon="9.00020733"><ele></ele><time>2014-5-11T17:57:46Z</time></trkpt>
<trkpt lat="45.85952586" lon="8.99952656"><ele></ele><time>2014-5-11T17:57:49Z</time></trkpt>
<trkpt lat="45.85947507" lon="8.99861603"><ele></ele><time>2014-5-11T17:57:52Z</time></trkpt>
<trkpt lat="45.85938907" lon="8.99814924"><ele></ele><time>2014-5-11T17:57:55Z</time></trkpt>
<trkpt lat="45.85929385" lon="8.99767105"><ele></ele><time>2014-5-11T17:57:58Z</time></trkpt>
<trkpt lat="45.85923602" lon="8.99716873"><ele></ele><time>2014-5-11T17:58:1Z</time></trkpt>
<trkpt lat="45.85924448" lon="8.99665467"><ele></ele><time>2014-5-11T17:58:4Z</time></trkpt>
<trkpt lat="45.85909587" lon="8.99583357"><ele></ele><time>2014-5-11T17:58:7Z</time></trkpt>
<trkpt lat="45.85901599" lon="8.99570106"><ele></ele><time>2014-5-11T17:58:10Z</time></trkpt>
<trkpt lat="45.85856186" lon="8.99509412"><ele></ele><time>2014-5-11T17:58:13Z</time></trkpt>
<trkpt lat="45.85825936" lon="8.99452382"><ele></ele><time>2014-5-11T17:58:16Z</time></trkpt>
<trkpt lat="45.85819272" lon="8.99436984"><ele></ele><time>2014-5-11T17:58:19Z</time></trkpt>
<trkpt lat="45.85783440" lon="8.99385528"><ele></ele><time>2014-5-11T17:58:22Z</time></trkpt>
<trkpt lat="45.85772904" lon="8.99375075"><ele></ele><time>2014-5-11T17:58:25Z</time></trkpt>
<trkpt lat="45.85751362" lon="8.99359125"><ele></ele><time>2014-5-11T17:58:28Z</time></trkpt>
<trkpt lat="45.85733056" lon="8.99316905"><ele></ele><time>2014-5-11T17:58:31Z</time></trkpt>
<trkpt lat="45.85714825" lon="8.99199575"><ele></ele><time>2014-5-11T17:58:34Z</time></trkpt>
<trkpt lat="45.85713509" lon="8.99151698"><ele></ele><time>2014-5-11T17:58:37Z</time></trkpt>
<trkpt lat="45.85733936" lon="8.98974647"><ele></ele><time>2014-5-11T17:58:40Z</time></trkpt>
<trkpt lat="45.85734984" lon="8.98954916"><ele></ele><time>2014-5-11T17:58:43Z</time></trkpt>
<trkpt lat="45.85695907" lon="8.98916200"><ele></ele><time>2014-5-11T17:58:46Z</time></trkpt>
<trkpt lat="45.85689487" lon="8.98911389"><ele></ele><time>2014-5-11T17:58:49Z</time></trkpt>
<trkpt lat="45.85677794" lon="8.98900165"><ele></ele><time>2014-5-11T17:58:52Z</time></trkpt>
<trkpt lat="45.85661056" lon="8.98890375"><ele></ele><time>2014-5-11T17:58:55Z</time></trkpt>
<trkpt lat="45.85657124" lon="8.98880837"><ele></ele><time>2014-5-11T17:58:58Z</time></trkpt>
<trkpt lat="45.85657778" lon="8.98866990"><ele></ele><time>2014-5-11T17:59:1Z</time></trkpt>
<trkpt lat="45.85657745" lon="8.98868440"><ele></ele><time>2014-5-11T17:59:4Z</time></trkpt>
<trkpt lat="45.85660033" lon="8.98870326"><ele></ele><time>2014-5-11T17:59:7Z</time></trkpt>
<trkpt lat="45.85669303" lon="8.98881683"><ele></ele><time>2014-5-11T17:59:10Z</time></trkpt>
<trkpt lat="45.85670074" lon="8.98882630"><ele></ele><time>2014-5-11T17:59:13Z</time></trkpt>
<trkpt lat="45.85641123" lon="8.98859697"><ele></ele><time>2014-5-11T17:59:16Z</time></trkpt>
<trkpt lat="45.85639154" lon="8.98856973"><ele></ele><time>2014-5-11T17:59:19Z</time></trkpt>
<trkpt lat="45.85646127" lon="8.98779248"><ele></ele><time>2014-5-11T17:59:22Z</time></trkpt>
<trkpt lat="45.85667895" lon="8.98633126"><ele></ele><time>2014-5-11T17:59:25Z</time></trkpt>
<trkpt lat="45.85688498" lon="8.98495344"><ele></ele><time>2014-5-11T17:59:28Z</time></trkpt>
<trkpt lat="45.85702462" lon="8.98401467"><ele></ele><time>2014-5-11T17:59:31Z</time></trkpt>
<trkpt lat="45.85731707" lon="8.98350572"><ele></ele><time>2014-5-11T17:59:34Z</time></trkpt>
<trkpt lat="45.85772367" lon="8.98316089"><ele></ele><time>2014-5-11T17:59:37Z</time></trkpt>
<trkpt lat="45.85817554" lon="8.98300205"><ele></ele><time>2014-5-11T17:59:40Z</time></trkpt>
<trkpt lat="45.85835139" lon="8.98268765"><ele></ele><time>2014-5-11T17:59:43Z</time></trkpt>
<trkpt lat="45.85883570" lon="8.98170420"><ele></ele><time>2014-5-11T17:59:46Z</time></trkpt>
<trkpt lat="45.85942067" lon="8.98118880"><ele></ele><time>2014-5-11T17:59:49Z</time></trkpt>
<trkpt lat="45.85954850" lon="8.98092787"><ele></ele><time>2014-5-11T17:59:52Z</time></trkpt>
<trkpt lat="45.85955160" lon="8.98083642"><ele></ele><time>2014-5-11T17:59:55Z</time></trkpt>
<trkpt lat="45.85970155" lon="8.98039428"><ele></ele><time>2014-5-11T17:59:58Z</time></trkpt>
<trkpt lat="45.85987925" lon="8.98047709"><ele></ele><time>2014-5-11T18:0:1Z</time></trkpt>
<trkpt lat="45.86010179" lon="8.98003436"><ele></ele><time>2014-5-11T18:0:4Z</time></trkpt>
<trkpt lat="45.86048886" lon="8.97913934"><ele></ele><time>2014-5-11T18:0:7Z</time></trkpt>
<trkpt lat="45.86055173" lon="8.97898427"><ele></ele><time>2014-5-11T18:0:10Z</time></trkpt>
<trkpt lat="45.86062037" lon="8.97868345"><ele></ele><time>2014-5-11T18:0:13Z</time></trkpt>
<trkpt lat="45.86062063" lon="8.97838195"><ele></ele><time>2014-5-11T18:0:16Z</time></trkpt>
<trkpt lat="45.86053169" lon="8.97815078"><ele></ele><time>2014-5-11T18:0:19Z</time></trkpt>
<trkpt lat="45.86037545" lon="8.97791508"><ele></ele><time>2014-5-11T18:0:22Z</time></trkpt>
<trkpt lat="45.86016297" lon="8.97799764"><ele></ele><time>2014-5-11T18:0:25Z</time></trkpt>
<trkpt lat="45.85984815" lon="8.97898603"><ele></ele><time>2014-5-11T18:0:28Z</time></trkpt>
<trkpt lat="45.85985217" lon="8.97899450"><ele></ele><time>2014-5-11T18:0:31Z</time></trkpt>
<trkpt lat="45.85977917" lon="8.97909215"><ele></ele><time>2014-5-11T18:0:34Z</time></trkpt>
<trkpt lat="45.85975653" lon="8.97904194"><ele></ele><time>2014-5-11T18:0:37Z</time></trkpt>
<trkpt lat="45.85965453" lon="8.97892099"><ele></ele><time>2014-5-11T18:0:40Z</time></trkpt>
<trkpt lat="45.85959770" lon="8.97878227"><ele></ele><time>2014-5-11T18:0:43Z</time></trkpt>
<trkpt lat="45.85948689" lon="8.97852788"><ele></ele><time>2014-5-11T18:0:46Z</time></trkpt>
<trkpt lat="45.85940835" lon="8.97803418"><ele></ele><time>2014-5-11T18:0:49Z</time></trkpt>
<trkpt lat="45.85941858" lon="8.97789622"><ele></ele><time>2014-5-11T18:0:52Z</time></trkpt>
<trkpt lat="45.85931749" lon="8.97780058"><ele></ele><time>2014-5-11T18:0:55Z</time></trkpt>
<trkpt lat="45.85915849" lon="8.97760780"><ele></ele><time>2014-5-11T18:0:58Z</time></trkpt>
<trkpt lat="45.85906587" lon="8.97728886"><ele></ele><time>2014-5-11T18:1:1Z</time></trkpt>
<trkpt lat="45.85916318" lon="8.97657515"><ele></ele><time>2014-5-11T18:1:4Z</time></trkpt>
<trkpt lat="45.85914508" lon="8.97623048"><ele></ele><time>2014-5-11T18:1:7Z</time></trkpt>
<trkpt lat="45.85909864" lon="8.97618639"><ele></ele><time>2014-5-11T18:1:10Z</time></trkpt>
<trkpt lat="45.85909948" lon="8.97620232"><ele></ele><time>2014-5-11T18:1:13Z</time></trkpt>
<trkpt lat="45.85910836" lon="8.97616644"><ele></ele><time>2014-5-11T18:1:16Z</time></trkpt>
<trkpt lat="45.85904047" lon="8.97614138"><ele></ele><time>2014-5-11T18:1:19Z</time></trkpt>
<trkpt lat="45.85903016" lon="8.97611045"><ele></ele><time>2014-5-11T18:1:22Z</time></trkpt>
<trkpt lat="45.85902404" lon="8.97615672"><ele></ele><time>2014-5-11T18:1:25Z</time></trkpt>
<trkpt lat="45.85903049" lon="8.97615412"><ele></ele><time>2014-5-11T18:1:28Z</time></trkpt>
<trkpt lat="45.85901524" lon="8.97616058"><ele></ele><time>2014-5-11T18:1:31Z</time></trkpt>
<trkpt lat="45.85903368" lon="8.97616619"><ele></ele><time>2014-5-11T18:1:34Z</time></trkpt>
<trkpt lat="45.85905430" lon="8.97616737"><ele></ele><time>2014-5-11T18:1:37Z</time></trkpt>
<trkpt lat="45.85904424" lon="8.97616167"><ele></ele><time>2014-5-11T18:1:40Z</time></trkpt>
<trkpt lat="45.85903133" lon="8.97615236"><ele></ele><time>2014-5-11T18:1:43Z</time></trkpt>
<trkpt lat="45.85903586" lon="8.97614465"><ele></ele><time>2014-5-11T18:1:46Z</time></trkpt>
<trkpt lat="45.85904516" lon="8.97615287"><ele></ele><time>2014-5-11T18:1:49Z</time></trkpt>
<trkpt lat="45.85902136" lon="8.97613996"><ele></ele><time>2014-5-11T18:1:52Z</time></trkpt>
<trkpt lat="45.85902806" lon="8.97612252"><ele></ele><time>2014-5-11T18:1:55Z</time></trkpt>
<trkpt lat="45.85903896" lon="8.97604893"><ele></ele><time>2014-5-11T18:1:58Z</time></trkpt>
<trkpt lat="45.85901926" lon="8.97605195"><ele></ele><time>2014-5-11T18:2:1Z</time></trkpt>
<trkpt lat="45.85901222" lon="8.97606125"><ele></ele><time>2014-5-11T18:2:4Z</time></trkpt>
</trkseg></trk></gpx>